<?xml version="1.0" encoding="UTF-8" standalone="no" ?>
<gpx xmlns="http://www.topografix.com/GPX/1/1" xmlns:xsi="http://www.w3.org/2001/XMLSchema-instance" xsi:schemaLocation="http://www.topografix.com/GPX/1/1 http://www.topografix.com/GPX/1/1/gpx.xsd" version="1.1" creator="VisuGPX - https://www.visugpx.com">
  <metadata>
    <name>MB. Sortie du 30/06/2019</name>
    <desc><![CDATA[Sortie VTT du dimanche 30 juin 2019]]></desc>
  </metadata>
  <trk>
    <name><![CDATA[Pornichet Cyclisme]]></name>
    <trkseg>
      <trkpt lat="47.26406" lon="-2.31562">
        <ele>11.39999961853</ele>
        <time>2019-06-30T06:57:58.000Z</time>
      </trkpt>
      <trkpt lat="47.26407" lon="-2.31577">
        <ele>11.39999961853</ele>
        <time>2019-06-30T06:58:01.000Z</time>
      </trkpt>
      <trkpt lat="47.26407" lon="-2.31582">
        <ele>11.39999961853</ele>
        <time>2019-06-30T06:58:02.000Z</time>
      </trkpt>
      <trkpt lat="47.26407" lon="-2.31588">
        <ele>11.39999961853</ele>
        <time>2019-06-30T06:58:03.000Z</time>
      </trkpt>
      <trkpt lat="47.26408" lon="-2.31633">
        <ele>11.39999961853</ele>
        <time>2019-06-30T06:58:10.000Z</time>
      </trkpt>
      <trkpt lat="47.26408" lon="-2.31661">
        <ele>11.39999961853</ele>
        <time>2019-06-30T06:58:14.000Z</time>
      </trkpt>
      <trkpt lat="47.26408" lon="-2.31661">
        <ele>11.39999961853</ele>
        <time>2019-06-30T06:58:16.000Z</time>
      </trkpt>
      <trkpt lat="47.26406" lon="-2.31663">
        <ele>11.39999961853</ele>
        <time>2019-06-30T06:58:17.000Z</time>
      </trkpt>
      <trkpt lat="47.26396" lon="-2.31667">
        <ele>11.39999961853</ele>
        <time>2019-06-30T06:58:20.000Z</time>
      </trkpt>
      <trkpt lat="47.26383" lon="-2.31675">
        <ele>11</ele>
        <time>2019-06-30T06:58:24.000Z</time>
      </trkpt>
      <trkpt lat="47.26379" lon="-2.31678">
        <ele>10.39999961853</ele>
        <time>2019-06-30T06:58:25.000Z</time>
      </trkpt>
      <trkpt lat="47.26374" lon="-2.31681">
        <ele>10</ele>
        <time>2019-06-30T06:58:26.000Z</time>
      </trkpt>
      <trkpt lat="47.2637" lon="-2.31684">
        <ele>9.1999998092651</ele>
        <time>2019-06-30T06:58:27.000Z</time>
      </trkpt>
      <trkpt lat="47.26356" lon="-2.31693">
        <ele>9.1999998092651</ele>
        <time>2019-06-30T06:58:29.000Z</time>
      </trkpt>
      <trkpt lat="47.26349" lon="-2.31696">
        <ele>9.1999998092651</ele>
        <time>2019-06-30T06:58:30.000Z</time>
      </trkpt>
      <trkpt lat="47.26319" lon="-2.31707">
        <ele>8.8000001907349</ele>
        <time>2019-06-30T06:58:35.000Z</time>
      </trkpt>
      <trkpt lat="47.26313" lon="-2.31709">
        <ele>8.3999996185303</ele>
        <time>2019-06-30T06:58:36.000Z</time>
      </trkpt>
      <trkpt lat="47.26308" lon="-2.31712">
        <ele>8</ele>
        <time>2019-06-30T06:58:37.000Z</time>
      </trkpt>
      <trkpt lat="47.26305" lon="-2.31716">
        <ele>7.5999999046326</ele>
        <time>2019-06-30T06:58:38.000Z</time>
      </trkpt>
      <trkpt lat="47.26303" lon="-2.3172">
        <ele>7.1999998092651</ele>
        <time>2019-06-30T06:58:39.000Z</time>
      </trkpt>
      <trkpt lat="47.26304" lon="-2.31738">
        <ele>7.1999998092651</ele>
        <time>2019-06-30T06:58:42.000Z</time>
      </trkpt>
      <trkpt lat="47.26307" lon="-2.31757">
        <ele>7.1999998092651</ele>
        <time>2019-06-30T06:58:45.000Z</time>
      </trkpt>
      <trkpt lat="47.26307" lon="-2.31769">
        <ele>7.1999998092651</ele>
        <time>2019-06-30T06:58:47.000Z</time>
      </trkpt>
      <trkpt lat="47.26308" lon="-2.31808">
        <ele>7.1999998092651</ele>
        <time>2019-06-30T06:58:53.000Z</time>
      </trkpt>
      <trkpt lat="47.26307" lon="-2.31852">
        <ele>7.1999998092651</ele>
        <time>2019-06-30T06:58:59.000Z</time>
      </trkpt>
      <trkpt lat="47.26306" lon="-2.31859">
        <ele>7.1999998092651</ele>
        <time>2019-06-30T06:59:00.000Z</time>
      </trkpt>
      <trkpt lat="47.26306" lon="-2.31872">
        <ele>6.8000001907349</ele>
        <time>2019-06-30T06:59:02.000Z</time>
      </trkpt>
      <trkpt lat="47.26305" lon="-2.31878">
        <ele>6.4000000953674</ele>
        <time>2019-06-30T06:59:03.000Z</time>
      </trkpt>
      <trkpt lat="47.26303" lon="-2.31883">
        <ele>5.8000001907349</ele>
        <time>2019-06-30T06:59:04.000Z</time>
      </trkpt>
      <trkpt lat="47.263" lon="-2.31885">
        <ele>5.4000000953674</ele>
        <time>2019-06-30T06:59:05.000Z</time>
      </trkpt>
      <trkpt lat="47.26297" lon="-2.31889">
        <ele>5</ele>
        <time>2019-06-30T06:59:06.000Z</time>
      </trkpt>
      <trkpt lat="47.26278" lon="-2.31907">
        <ele>5</ele>
        <time>2019-06-30T06:59:11.000Z</time>
      </trkpt>
      <trkpt lat="47.26263" lon="-2.31934">
        <ele>5</ele>
        <time>2019-06-30T06:59:17.000Z</time>
      </trkpt>
      <trkpt lat="47.26245" lon="-2.31966">
        <ele>5</ele>
        <time>2019-06-30T06:59:23.000Z</time>
      </trkpt>
      <trkpt lat="47.26235" lon="-2.3197">
        <ele>5</ele>
        <time>2019-06-30T06:59:26.000Z</time>
      </trkpt>
      <trkpt lat="47.26228" lon="-2.31977">
        <ele>5</ele>
        <time>2019-06-30T06:59:29.000Z</time>
      </trkpt>
      <trkpt lat="47.26226" lon="-2.3198">
        <ele>5</ele>
        <time>2019-06-30T06:59:30.000Z</time>
      </trkpt>
      <trkpt lat="47.2621" lon="-2.31996">
        <ele>5</ele>
        <time>2019-06-30T06:59:36.000Z</time>
      </trkpt>
      <trkpt lat="47.26203" lon="-2.32013">
        <ele>5</ele>
        <time>2019-06-30T06:59:40.000Z</time>
      </trkpt>
      <trkpt lat="47.26197" lon="-2.32021">
        <ele>5</ele>
        <time>2019-06-30T06:59:43.000Z</time>
      </trkpt>
      <trkpt lat="47.26194" lon="-2.32022">
        <ele>5</ele>
        <time>2019-06-30T06:59:44.000Z</time>
      </trkpt>
      <trkpt lat="47.26183" lon="-2.32021">
        <ele>5</ele>
        <time>2019-06-30T06:59:47.000Z</time>
      </trkpt>
      <trkpt lat="47.26179" lon="-2.32022">
        <ele>5</ele>
        <time>2019-06-30T06:59:48.000Z</time>
      </trkpt>
      <trkpt lat="47.26176" lon="-2.32023">
        <ele>5</ele>
        <time>2019-06-30T06:59:49.000Z</time>
      </trkpt>
      <trkpt lat="47.26168" lon="-2.32029">
        <ele>5</ele>
        <time>2019-06-30T06:59:52.000Z</time>
      </trkpt>
      <trkpt lat="47.26165" lon="-2.32032">
        <ele>5</ele>
        <time>2019-06-30T06:59:53.000Z</time>
      </trkpt>
      <trkpt lat="47.26152" lon="-2.32051">
        <ele>5</ele>
        <time>2019-06-30T06:59:58.000Z</time>
      </trkpt>
      <trkpt lat="47.26148" lon="-2.32062">
        <ele>5</ele>
        <time>2019-06-30T07:00:00.000Z</time>
      </trkpt>
      <trkpt lat="47.26142" lon="-2.32087">
        <ele>5</ele>
        <time>2019-06-30T07:00:04.000Z</time>
      </trkpt>
      <trkpt lat="47.26128" lon="-2.3213">
        <ele>5</ele>
        <time>2019-06-30T07:00:11.000Z</time>
      </trkpt>
      <trkpt lat="47.26117" lon="-2.32169">
        <ele>5</ele>
        <time>2019-06-30T07:00:17.000Z</time>
      </trkpt>
      <trkpt lat="47.26114" lon="-2.32176">
        <ele>5</ele>
        <time>2019-06-30T07:00:18.000Z</time>
      </trkpt>
      <trkpt lat="47.26109" lon="-2.32187">
        <ele>5</ele>
        <time>2019-06-30T07:00:20.000Z</time>
      </trkpt>
      <trkpt lat="47.26104" lon="-2.32198">
        <ele>5</ele>
        <time>2019-06-30T07:00:22.000Z</time>
      </trkpt>
      <trkpt lat="47.26089" lon="-2.32224">
        <ele>5</ele>
        <time>2019-06-30T07:00:27.000Z</time>
      </trkpt>
      <trkpt lat="47.26085" lon="-2.32229">
        <ele>5</ele>
        <time>2019-06-30T07:00:28.000Z</time>
      </trkpt>
      <trkpt lat="47.26063" lon="-2.32259">
        <ele>5</ele>
        <time>2019-06-30T07:00:34.000Z</time>
      </trkpt>
      <trkpt lat="47.26036" lon="-2.32288">
        <ele>5</ele>
        <time>2019-06-30T07:00:41.000Z</time>
      </trkpt>
      <trkpt lat="47.26024" lon="-2.32301">
        <ele>5</ele>
        <time>2019-06-30T07:00:44.000Z</time>
      </trkpt>
      <trkpt lat="47.26009" lon="-2.3232">
        <ele>5</ele>
        <time>2019-06-30T07:00:48.000Z</time>
      </trkpt>
      <trkpt lat="47.25981" lon="-2.32355">
        <ele>5</ele>
        <time>2019-06-30T07:00:55.000Z</time>
      </trkpt>
      <trkpt lat="47.25951" lon="-2.32394">
        <ele>5</ele>
        <time>2019-06-30T07:01:03.000Z</time>
      </trkpt>
      <trkpt lat="47.25925" lon="-2.32429">
        <ele>5</ele>
        <time>2019-06-30T07:01:10.000Z</time>
      </trkpt>
      <trkpt lat="47.25904" lon="-2.32457">
        <ele>5</ele>
        <time>2019-06-30T07:01:16.000Z</time>
      </trkpt>
      <trkpt lat="47.25897" lon="-2.32464">
        <ele>5</ele>
        <time>2019-06-30T07:01:18.000Z</time>
      </trkpt>
      <trkpt lat="47.25885" lon="-2.32473">
        <ele>5</ele>
        <time>2019-06-30T07:01:21.000Z</time>
      </trkpt>
      <trkpt lat="47.25881" lon="-2.32474">
        <ele>5</ele>
        <time>2019-06-30T07:01:22.000Z</time>
      </trkpt>
      <trkpt lat="47.25862" lon="-2.32478">
        <ele>5</ele>
        <time>2019-06-30T07:01:26.000Z</time>
      </trkpt>
      <trkpt lat="47.25848" lon="-2.32477">
        <ele>5</ele>
        <time>2019-06-30T07:01:29.000Z</time>
      </trkpt>
      <trkpt lat="47.25838" lon="-2.32474">
        <ele>5</ele>
        <time>2019-06-30T07:01:31.000Z</time>
      </trkpt>
      <trkpt lat="47.2582" lon="-2.32465">
        <ele>5</ele>
        <time>2019-06-30T07:01:35.000Z</time>
      </trkpt>
      <trkpt lat="47.25803" lon="-2.32457">
        <ele>5</ele>
        <time>2019-06-30T07:01:39.000Z</time>
      </trkpt>
      <trkpt lat="47.25798" lon="-2.32458">
        <ele>5</ele>
        <time>2019-06-30T07:01:40.000Z</time>
      </trkpt>
      <trkpt lat="47.2578" lon="-2.32453">
        <ele>5</ele>
        <time>2019-06-30T07:01:44.000Z</time>
      </trkpt>
      <trkpt lat="47.25767" lon="-2.32432">
        <ele>5</ele>
        <time>2019-06-30T07:01:48.000Z</time>
      </trkpt>
      <trkpt lat="47.25763" lon="-2.32429">
        <ele>5</ele>
        <time>2019-06-30T07:01:49.000Z</time>
      </trkpt>
      <trkpt lat="47.25753" lon="-2.32427">
        <ele>5</ele>
        <time>2019-06-30T07:01:51.000Z</time>
      </trkpt>
      <trkpt lat="47.25716" lon="-2.32426">
        <ele>5</ele>
        <time>2019-06-30T07:01:58.000Z</time>
      </trkpt>
      <trkpt lat="47.25686" lon="-2.32424">
        <ele>5</ele>
        <time>2019-06-30T07:02:04.000Z</time>
      </trkpt>
      <trkpt lat="47.25673" lon="-2.32422">
        <ele>5</ele>
        <time>2019-06-30T07:02:07.000Z</time>
      </trkpt>
      <trkpt lat="47.25665" lon="-2.32425">
        <ele>5</ele>
        <time>2019-06-30T07:02:09.000Z</time>
      </trkpt>
      <trkpt lat="47.25661" lon="-2.32443">
        <ele>5</ele>
        <time>2019-06-30T07:02:12.000Z</time>
      </trkpt>
      <trkpt lat="47.25668" lon="-2.32467">
        <ele>5</ele>
        <time>2019-06-30T07:02:16.000Z</time>
      </trkpt>
      <trkpt lat="47.25669" lon="-2.32473">
        <ele>5</ele>
        <time>2019-06-30T07:02:17.000Z</time>
      </trkpt>
      <trkpt lat="47.25683" lon="-2.32517">
        <ele>5</ele>
        <time>2019-06-30T07:02:25.000Z</time>
      </trkpt>
      <trkpt lat="47.25696" lon="-2.32555">
        <ele>5</ele>
        <time>2019-06-30T07:02:32.000Z</time>
      </trkpt>
      <trkpt lat="47.25709" lon="-2.32599">
        <ele>5</ele>
        <time>2019-06-30T07:02:40.000Z</time>
      </trkpt>
      <trkpt lat="47.25711" lon="-2.32617">
        <ele>5</ele>
        <time>2019-06-30T07:02:43.000Z</time>
      </trkpt>
      <trkpt lat="47.25705" lon="-2.32625">
        <ele>5</ele>
        <time>2019-06-30T07:02:45.000Z</time>
      </trkpt>
      <trkpt lat="47.25686" lon="-2.32632">
        <ele>5</ele>
        <time>2019-06-30T07:02:50.000Z</time>
      </trkpt>
      <trkpt lat="47.25664" lon="-2.32645">
        <ele>5</ele>
        <time>2019-06-30T07:02:56.000Z</time>
      </trkpt>
      <trkpt lat="47.25633" lon="-2.32658">
        <ele>5</ele>
        <time>2019-06-30T07:03:04.000Z</time>
      </trkpt>
      <trkpt lat="47.25601" lon="-2.32671">
        <ele>5</ele>
        <time>2019-06-30T07:03:12.000Z</time>
      </trkpt>
      <trkpt lat="47.25571" lon="-2.32683">
        <ele>5</ele>
        <time>2019-06-30T07:03:19.000Z</time>
      </trkpt>
      <trkpt lat="47.25534" lon="-2.32698">
        <ele>5</ele>
        <time>2019-06-30T07:03:27.000Z</time>
      </trkpt>
      <trkpt lat="47.25525" lon="-2.32702">
        <ele>4.5999999046326</ele>
        <time>2019-06-30T07:03:29.000Z</time>
      </trkpt>
      <trkpt lat="47.2552" lon="-2.32702">
        <ele>4.1999998092651</ele>
        <time>2019-06-30T07:03:30.000Z</time>
      </trkpt>
      <trkpt lat="47.25515" lon="-2.32702">
        <ele>3.7999999523163</ele>
        <time>2019-06-30T07:03:31.000Z</time>
      </trkpt>
      <trkpt lat="47.2551" lon="-2.32703">
        <ele>3.4000000953674</ele>
        <time>2019-06-30T07:03:32.000Z</time>
      </trkpt>
      <trkpt lat="47.25505" lon="-2.32703">
        <ele>3</ele>
        <time>2019-06-30T07:03:33.000Z</time>
      </trkpt>
      <trkpt lat="47.255" lon="-2.32703">
        <ele>3</ele>
        <time>2019-06-30T07:03:34.000Z</time>
      </trkpt>
      <trkpt lat="47.25485" lon="-2.32708">
        <ele>3</ele>
        <time>2019-06-30T07:03:37.000Z</time>
      </trkpt>
      <trkpt lat="47.25473" lon="-2.32719">
        <ele>3</ele>
        <time>2019-06-30T07:03:40.000Z</time>
      </trkpt>
      <trkpt lat="47.25469" lon="-2.32723">
        <ele>3</ele>
        <time>2019-06-30T07:03:41.000Z</time>
      </trkpt>
      <trkpt lat="47.25454" lon="-2.32741">
        <ele>2.5999999046326</ele>
        <time>2019-06-30T07:03:45.000Z</time>
      </trkpt>
      <trkpt lat="47.25451" lon="-2.32746">
        <ele>2.2000000476837</ele>
        <time>2019-06-30T07:03:46.000Z</time>
      </trkpt>
      <trkpt lat="47.25448" lon="-2.32752">
        <ele>1.7999999523163</ele>
        <time>2019-06-30T07:03:47.000Z</time>
      </trkpt>
      <trkpt lat="47.25444" lon="-2.32757">
        <ele>1.3999999761581</ele>
        <time>2019-06-30T07:03:48.000Z</time>
      </trkpt>
      <trkpt lat="47.25442" lon="-2.32763">
        <ele>1</ele>
        <time>2019-06-30T07:03:49.000Z</time>
      </trkpt>
      <trkpt lat="47.25436" lon="-2.32773">
        <ele>1</ele>
        <time>2019-06-30T07:03:51.000Z</time>
      </trkpt>
      <trkpt lat="47.25432" lon="-2.32785">
        <ele>1</ele>
        <time>2019-06-30T07:03:53.000Z</time>
      </trkpt>
      <trkpt lat="47.25429" lon="-2.32789">
        <ele>0.60000002384186</ele>
        <time>2019-06-30T07:03:54.000Z</time>
      </trkpt>
      <trkpt lat="47.25426" lon="-2.32794">
        <ele>0.20000000298023</ele>
        <time>2019-06-30T07:03:55.000Z</time>
      </trkpt>
      <trkpt lat="47.25422" lon="-2.328">
        <ele>-0.20000000298023</ele>
        <time>2019-06-30T07:03:56.000Z</time>
      </trkpt>
      <trkpt lat="47.25419" lon="-2.32805">
        <ele>-0.80000001192093</ele>
        <time>2019-06-30T07:03:57.000Z</time>
      </trkpt>
      <trkpt lat="47.25415" lon="-2.32811">
        <ele>-1.2000000476837</ele>
        <time>2019-06-30T07:03:58.000Z</time>
      </trkpt>
      <trkpt lat="47.25392" lon="-2.3284">
        <ele>-1.2000000476837</ele>
        <time>2019-06-30T07:04:04.000Z</time>
      </trkpt>
      <trkpt lat="47.25388" lon="-2.32845">
        <ele>-1.6000000238419</ele>
        <time>2019-06-30T07:04:05.000Z</time>
      </trkpt>
      <trkpt lat="47.25385" lon="-2.3285">
        <ele>-2</ele>
        <time>2019-06-30T07:04:06.000Z</time>
      </trkpt>
      <trkpt lat="47.25381" lon="-2.32854">
        <ele>-2.4000000953674</ele>
        <time>2019-06-30T07:04:07.000Z</time>
      </trkpt>
      <trkpt lat="47.25377" lon="-2.32858">
        <ele>-2.7999999523163</ele>
        <time>2019-06-30T07:04:08.000Z</time>
      </trkpt>
      <trkpt lat="47.25373" lon="-2.32863">
        <ele>-3.2000000476837</ele>
        <time>2019-06-30T07:04:09.000Z</time>
      </trkpt>
      <trkpt lat="47.25365" lon="-2.32871">
        <ele>-3.2000000476837</ele>
        <time>2019-06-30T07:04:11.000Z</time>
      </trkpt>
      <trkpt lat="47.25349" lon="-2.32887">
        <ele>-3.7999999523163</ele>
        <time>2019-06-30T07:04:15.000Z</time>
      </trkpt>
      <trkpt lat="47.25345" lon="-2.32891">
        <ele>-4.1999998092651</ele>
        <time>2019-06-30T07:04:16.000Z</time>
      </trkpt>
      <trkpt lat="47.25341" lon="-2.32895">
        <ele>-4.5999999046326</ele>
        <time>2019-06-30T07:04:17.000Z</time>
      </trkpt>
      <trkpt lat="47.25337" lon="-2.32899">
        <ele>-5</ele>
        <time>2019-06-30T07:04:18.000Z</time>
      </trkpt>
      <trkpt lat="47.25333" lon="-2.32903">
        <ele>-5.4000000953674</ele>
        <time>2019-06-30T07:04:19.000Z</time>
      </trkpt>
      <trkpt lat="47.25311" lon="-2.32927">
        <ele>-5.4000000953674</ele>
        <time>2019-06-30T07:04:25.000Z</time>
      </trkpt>
      <trkpt lat="47.25309" lon="-2.32945">
        <ele>-5.4000000953674</ele>
        <time>2019-06-30T07:04:28.000Z</time>
      </trkpt>
      <trkpt lat="47.25315" lon="-2.32963">
        <ele>-5.8000001907349</ele>
        <time>2019-06-30T07:04:31.000Z</time>
      </trkpt>
      <trkpt lat="47.25317" lon="-2.32969">
        <ele>-6.4000000953674</ele>
        <time>2019-06-30T07:04:32.000Z</time>
      </trkpt>
      <trkpt lat="47.25319" lon="-2.32975">
        <ele>-6.8000001907349</ele>
        <time>2019-06-30T07:04:33.000Z</time>
      </trkpt>
      <trkpt lat="47.25321" lon="-2.32982">
        <ele>-7.1999998092651</ele>
        <time>2019-06-30T07:04:34.000Z</time>
      </trkpt>
      <trkpt lat="47.25323" lon="-2.32988">
        <ele>-7.5999999046326</ele>
        <time>2019-06-30T07:04:35.000Z</time>
      </trkpt>
      <trkpt lat="47.2533" lon="-2.33005">
        <ele>-7.5999999046326</ele>
        <time>2019-06-30T07:04:38.000Z</time>
      </trkpt>
      <trkpt lat="47.25343" lon="-2.33035">
        <ele>-8</ele>
        <time>2019-06-30T07:04:43.000Z</time>
      </trkpt>
      <trkpt lat="47.25346" lon="-2.33041">
        <ele>-8.3999996185303</ele>
        <time>2019-06-30T07:04:44.000Z</time>
      </trkpt>
      <trkpt lat="47.25348" lon="-2.33046">
        <ele>-8.8000001907349</ele>
        <time>2019-06-30T07:04:45.000Z</time>
      </trkpt>
      <trkpt lat="47.2535" lon="-2.33052">
        <ele>-9.1999998092651</ele>
        <time>2019-06-30T07:04:46.000Z</time>
      </trkpt>
      <trkpt lat="47.25353" lon="-2.33058">
        <ele>-9.6000003814697</ele>
        <time>2019-06-30T07:04:47.000Z</time>
      </trkpt>
      <trkpt lat="47.25364" lon="-2.33095">
        <ele>-9.6000003814697</ele>
        <time>2019-06-30T07:04:53.000Z</time>
      </trkpt>
      <trkpt lat="47.25367" lon="-2.33106">
        <ele>-9.6000003814697</ele>
        <time>2019-06-30T07:04:55.000Z</time>
      </trkpt>
      <trkpt lat="47.25369" lon="-2.33111">
        <ele>-10</ele>
        <time>2019-06-30T07:04:56.000Z</time>
      </trkpt>
      <trkpt lat="47.25371" lon="-2.33116">
        <ele>-10.39999961853</ele>
        <time>2019-06-30T07:04:57.000Z</time>
      </trkpt>
      <trkpt lat="47.25373" lon="-2.3312">
        <ele>-11</ele>
        <time>2019-06-30T07:04:58.000Z</time>
      </trkpt>
      <trkpt lat="47.25375" lon="-2.33124">
        <ele>-11.39999961853</ele>
        <time>2019-06-30T07:04:59.000Z</time>
      </trkpt>
      <trkpt lat="47.25377" lon="-2.33129">
        <ele>-11.800000190735</ele>
        <time>2019-06-30T07:05:00.000Z</time>
      </trkpt>
      <trkpt lat="47.25378" lon="-2.33135">
        <ele>-12.199999809265</ele>
        <time>2019-06-30T07:05:03.000Z</time>
      </trkpt>
      <trkpt lat="47.25378" lon="-2.33135">
        <ele>-12.60000038147</ele>
        <time>2019-06-30T07:05:04.000Z</time>
      </trkpt>
      <trkpt lat="47.25378" lon="-2.33135">
        <ele>-13</ele>
        <time>2019-06-30T07:05:05.000Z</time>
      </trkpt>
      <trkpt lat="47.25384" lon="-2.33139">
        <ele>-15.800000190735</ele>
        <time>2019-06-30T07:07:05.000Z</time>
      </trkpt>
      <trkpt lat="47.25387" lon="-2.33138">
        <ele>-15.800000190735</ele>
        <time>2019-06-30T07:07:06.000Z</time>
      </trkpt>
      <trkpt lat="47.25401" lon="-2.33129">
        <ele>-15.800000190735</ele>
        <time>2019-06-30T07:07:11.000Z</time>
      </trkpt>
      <trkpt lat="47.2542" lon="-2.3312">
        <ele>-15.800000190735</ele>
        <time>2019-06-30T07:07:16.000Z</time>
      </trkpt>
      <trkpt lat="47.25425" lon="-2.33119">
        <ele>-15.800000190735</ele>
        <time>2019-06-30T07:07:17.000Z</time>
      </trkpt>
      <trkpt lat="47.25467" lon="-2.33099">
        <ele>-15.800000190735</ele>
        <time>2019-06-30T07:07:26.000Z</time>
      </trkpt>
      <trkpt lat="47.25488" lon="-2.33085">
        <ele>-15.800000190735</ele>
        <time>2019-06-30T07:07:31.000Z</time>
      </trkpt>
      <trkpt lat="47.25495" lon="-2.33078">
        <ele>-15.800000190735</ele>
        <time>2019-06-30T07:07:33.000Z</time>
      </trkpt>
      <trkpt lat="47.25514" lon="-2.33055">
        <ele>-15.800000190735</ele>
        <time>2019-06-30T07:07:38.000Z</time>
      </trkpt>
      <trkpt lat="47.25526" lon="-2.33047">
        <ele>-15.800000190735</ele>
        <time>2019-06-30T07:07:41.000Z</time>
      </trkpt>
      <trkpt lat="47.25534" lon="-2.33044">
        <ele>-15.800000190735</ele>
        <time>2019-06-30T07:07:43.000Z</time>
      </trkpt>
      <trkpt lat="47.25562" lon="-2.33037">
        <ele>-15.800000190735</ele>
        <time>2019-06-30T07:07:50.000Z</time>
      </trkpt>
      <trkpt lat="47.25569" lon="-2.33036">
        <ele>-15.39999961853</ele>
        <time>2019-06-30T07:07:52.000Z</time>
      </trkpt>
      <trkpt lat="47.25573" lon="-2.33035">
        <ele>-15</ele>
        <time>2019-06-30T07:07:53.000Z</time>
      </trkpt>
      <trkpt lat="47.25577" lon="-2.33035">
        <ele>-14.60000038147</ele>
        <time>2019-06-30T07:07:54.000Z</time>
      </trkpt>
      <trkpt lat="47.2558" lon="-2.33034">
        <ele>-13.800000190735</ele>
        <time>2019-06-30T07:07:55.000Z</time>
      </trkpt>
      <trkpt lat="47.25588" lon="-2.33033">
        <ele>-13.800000190735</ele>
        <time>2019-06-30T07:07:57.000Z</time>
      </trkpt>
      <trkpt lat="47.25608" lon="-2.33026">
        <ele>-13.800000190735</ele>
        <time>2019-06-30T07:08:03.000Z</time>
      </trkpt>
      <trkpt lat="47.25617" lon="-2.33016">
        <ele>-13.800000190735</ele>
        <time>2019-06-30T07:08:06.000Z</time>
      </trkpt>
      <trkpt lat="47.25617" lon="-2.33009">
        <ele>-13.800000190735</ele>
        <time>2019-06-30T07:08:07.000Z</time>
      </trkpt>
      <trkpt lat="47.25616" lon="-2.32998">
        <ele>-13.39999961853</ele>
        <time>2019-06-30T07:08:09.000Z</time>
      </trkpt>
      <trkpt lat="47.25614" lon="-2.32992">
        <ele>-13</ele>
        <time>2019-06-30T07:08:10.000Z</time>
      </trkpt>
      <trkpt lat="47.25613" lon="-2.32987">
        <ele>-12.60000038147</ele>
        <time>2019-06-30T07:08:11.000Z</time>
      </trkpt>
      <trkpt lat="47.25612" lon="-2.32981">
        <ele>-12.199999809265</ele>
        <time>2019-06-30T07:08:12.000Z</time>
      </trkpt>
      <trkpt lat="47.25611" lon="-2.32976">
        <ele>-11.800000190735</ele>
        <time>2019-06-30T07:08:13.000Z</time>
      </trkpt>
      <trkpt lat="47.25607" lon="-2.32949">
        <ele>-11.800000190735</ele>
        <time>2019-06-30T07:08:18.000Z</time>
      </trkpt>
      <trkpt lat="47.25599" lon="-2.32897">
        <ele>-11.800000190735</ele>
        <time>2019-06-30T07:08:27.000Z</time>
      </trkpt>
      <trkpt lat="47.25595" lon="-2.32868">
        <ele>-11.800000190735</ele>
        <time>2019-06-30T07:08:32.000Z</time>
      </trkpt>
      <trkpt lat="47.25593" lon="-2.3285">
        <ele>-11.800000190735</ele>
        <time>2019-06-30T07:08:35.000Z</time>
      </trkpt>
      <trkpt lat="47.25592" lon="-2.32845">
        <ele>-11.39999961853</ele>
        <time>2019-06-30T07:08:36.000Z</time>
      </trkpt>
      <trkpt lat="47.25591" lon="-2.3284">
        <ele>-10.800000190735</ele>
        <time>2019-06-30T07:08:37.000Z</time>
      </trkpt>
      <trkpt lat="47.25591" lon="-2.32834">
        <ele>-10.39999961853</ele>
        <time>2019-06-30T07:08:38.000Z</time>
      </trkpt>
      <trkpt lat="47.25591" lon="-2.32828">
        <ele>-10</ele>
        <time>2019-06-30T07:08:39.000Z</time>
      </trkpt>
      <trkpt lat="47.25592" lon="-2.32821">
        <ele>-9.6000003814697</ele>
        <time>2019-06-30T07:08:40.000Z</time>
      </trkpt>
      <trkpt lat="47.25593" lon="-2.32815">
        <ele>-9.6000003814697</ele>
        <time>2019-06-30T07:08:41.000Z</time>
      </trkpt>
      <trkpt lat="47.25599" lon="-2.32783">
        <ele>-9.6000003814697</ele>
        <time>2019-06-30T07:08:46.000Z</time>
      </trkpt>
      <trkpt lat="47.25601" lon="-2.32772">
        <ele>-9.6000003814697</ele>
        <time>2019-06-30T07:08:48.000Z</time>
      </trkpt>
      <trkpt lat="47.25603" lon="-2.32724">
        <ele>-9.6000003814697</ele>
        <time>2019-06-30T07:08:56.000Z</time>
      </trkpt>
      <trkpt lat="47.25604" lon="-2.32679">
        <ele>-9.6000003814697</ele>
        <time>2019-06-30T07:09:04.000Z</time>
      </trkpt>
      <trkpt lat="47.2561" lon="-2.32664">
        <ele>-9.6000003814697</ele>
        <time>2019-06-30T07:09:08.000Z</time>
      </trkpt>
      <trkpt lat="47.25626" lon="-2.32655">
        <ele>-9.6000003814697</ele>
        <time>2019-06-30T07:09:12.000Z</time>
      </trkpt>
      <trkpt lat="47.25631" lon="-2.32653">
        <ele>-9.6000003814697</ele>
        <time>2019-06-30T07:09:13.000Z</time>
      </trkpt>
      <trkpt lat="47.2566" lon="-2.32641">
        <ele>-9.6000003814697</ele>
        <time>2019-06-30T07:09:19.000Z</time>
      </trkpt>
      <trkpt lat="47.25675" lon="-2.32634">
        <ele>-9.6000003814697</ele>
        <time>2019-06-30T07:09:22.000Z</time>
      </trkpt>
      <trkpt lat="47.25691" lon="-2.32627">
        <ele>-9.6000003814697</ele>
        <time>2019-06-30T07:09:25.000Z</time>
      </trkpt>
      <trkpt lat="47.25709" lon="-2.32618">
        <ele>-9.6000003814697</ele>
        <time>2019-06-30T07:09:29.000Z</time>
      </trkpt>
      <trkpt lat="47.25711" lon="-2.32614">
        <ele>-9.6000003814697</ele>
        <time>2019-06-30T07:09:30.000Z</time>
      </trkpt>
      <trkpt lat="47.25709" lon="-2.32595">
        <ele>-9.6000003814697</ele>
        <time>2019-06-30T07:09:33.000Z</time>
      </trkpt>
      <trkpt lat="47.25706" lon="-2.32582">
        <ele>-9.6000003814697</ele>
        <time>2019-06-30T07:09:35.000Z</time>
      </trkpt>
      <trkpt lat="47.25702" lon="-2.32568">
        <ele>-9.6000003814697</ele>
        <time>2019-06-30T07:09:37.000Z</time>
      </trkpt>
      <trkpt lat="47.257" lon="-2.32562">
        <ele>-9.6000003814697</ele>
        <time>2019-06-30T07:09:38.000Z</time>
      </trkpt>
      <trkpt lat="47.25697" lon="-2.32555">
        <ele>-9.6000003814697</ele>
        <time>2019-06-30T07:09:39.000Z</time>
      </trkpt>
      <trkpt lat="47.2569" lon="-2.32534">
        <ele>-9.6000003814697</ele>
        <time>2019-06-30T07:09:42.000Z</time>
      </trkpt>
      <trkpt lat="47.25687" lon="-2.32526">
        <ele>-10</ele>
        <time>2019-06-30T07:09:43.000Z</time>
      </trkpt>
      <trkpt lat="47.25684" lon="-2.32518">
        <ele>-10.39999961853</ele>
        <time>2019-06-30T07:09:44.000Z</time>
      </trkpt>
      <trkpt lat="47.25681" lon="-2.32511">
        <ele>-10.800000190735</ele>
        <time>2019-06-30T07:09:45.000Z</time>
      </trkpt>
      <trkpt lat="47.25678" lon="-2.32503">
        <ele>-11.199999809265</ele>
        <time>2019-06-30T07:09:46.000Z</time>
      </trkpt>
      <trkpt lat="47.25676" lon="-2.32494">
        <ele>-11.800000190735</ele>
        <time>2019-06-30T07:09:47.000Z</time>
      </trkpt>
      <trkpt lat="47.25668" lon="-2.32469">
        <ele>-11.800000190735</ele>
        <time>2019-06-30T07:09:50.000Z</time>
      </trkpt>
      <trkpt lat="47.25663" lon="-2.32453">
        <ele>-11.800000190735</ele>
        <time>2019-06-30T07:09:52.000Z</time>
      </trkpt>
      <trkpt lat="47.25659" lon="-2.3243">
        <ele>-11.800000190735</ele>
        <time>2019-06-30T07:09:55.000Z</time>
      </trkpt>
      <trkpt lat="47.25657" lon="-2.32423">
        <ele>-12.199999809265</ele>
        <time>2019-06-30T07:09:56.000Z</time>
      </trkpt>
      <trkpt lat="47.25654" lon="-2.32416">
        <ele>-12.60000038147</ele>
        <time>2019-06-30T07:09:57.000Z</time>
      </trkpt>
      <trkpt lat="47.25654" lon="-2.3241">
        <ele>-13.39999961853</ele>
        <time>2019-06-30T07:09:58.000Z</time>
      </trkpt>
      <trkpt lat="47.25657" lon="-2.32404">
        <ele>-13.800000190735</ele>
        <time>2019-06-30T07:09:59.000Z</time>
      </trkpt>
      <trkpt lat="47.25666" lon="-2.32405">
        <ele>-13.800000190735</ele>
        <time>2019-06-30T07:10:01.000Z</time>
      </trkpt>
      <trkpt lat="47.25672" lon="-2.32415">
        <ele>-13.800000190735</ele>
        <time>2019-06-30T07:10:03.000Z</time>
      </trkpt>
      <trkpt lat="47.25677" lon="-2.32419">
        <ele>-13.800000190735</ele>
        <time>2019-06-30T07:10:04.000Z</time>
      </trkpt>
      <trkpt lat="47.25695" lon="-2.32422">
        <ele>-13.800000190735</ele>
        <time>2019-06-30T07:10:07.000Z</time>
      </trkpt>
      <trkpt lat="47.25735" lon="-2.32423">
        <ele>-13.800000190735</ele>
        <time>2019-06-30T07:10:14.000Z</time>
      </trkpt>
      <trkpt lat="47.2574" lon="-2.32424">
        <ele>-13.800000190735</ele>
        <time>2019-06-30T07:10:15.000Z</time>
      </trkpt>
      <trkpt lat="47.25759" lon="-2.32421">
        <ele>-13.800000190735</ele>
        <time>2019-06-30T07:10:19.000Z</time>
      </trkpt>
      <trkpt lat="47.25776" lon="-2.32413">
        <ele>-13.800000190735</ele>
        <time>2019-06-30T07:10:24.000Z</time>
      </trkpt>
      <trkpt lat="47.25781" lon="-2.32416">
        <ele>-13.800000190735</ele>
        <time>2019-06-30T07:10:25.000Z</time>
      </trkpt>
      <trkpt lat="47.25788" lon="-2.32425">
        <ele>-13.800000190735</ele>
        <time>2019-06-30T07:10:27.000Z</time>
      </trkpt>
      <trkpt lat="47.25795" lon="-2.32439">
        <ele>-13.800000190735</ele>
        <time>2019-06-30T07:10:29.000Z</time>
      </trkpt>
      <trkpt lat="47.25803" lon="-2.32451">
        <ele>-13.800000190735</ele>
        <time>2019-06-30T07:10:31.000Z</time>
      </trkpt>
      <trkpt lat="47.25826" lon="-2.32464">
        <ele>-13.800000190735</ele>
        <time>2019-06-30T07:10:35.000Z</time>
      </trkpt>
      <trkpt lat="47.25831" lon="-2.32467">
        <ele>-13.800000190735</ele>
        <time>2019-06-30T07:10:36.000Z</time>
      </trkpt>
      <trkpt lat="47.25842" lon="-2.32472">
        <ele>-13.800000190735</ele>
        <time>2019-06-30T07:10:38.000Z</time>
      </trkpt>
      <trkpt lat="47.25853" lon="-2.32474">
        <ele>-13.800000190735</ele>
        <time>2019-06-30T07:10:40.000Z</time>
      </trkpt>
      <trkpt lat="47.25859" lon="-2.32474">
        <ele>-13.800000190735</ele>
        <time>2019-06-30T07:10:41.000Z</time>
      </trkpt>
      <trkpt lat="47.25892" lon="-2.32467">
        <ele>-13.800000190735</ele>
        <time>2019-06-30T07:10:47.000Z</time>
      </trkpt>
      <trkpt lat="47.25911" lon="-2.32447">
        <ele>-13.800000190735</ele>
        <time>2019-06-30T07:10:51.000Z</time>
      </trkpt>
      <trkpt lat="47.25934" lon="-2.32416">
        <ele>-13.800000190735</ele>
        <time>2019-06-30T07:10:57.000Z</time>
      </trkpt>
      <trkpt lat="47.25959" lon="-2.32382">
        <ele>-13.800000190735</ele>
        <time>2019-06-30T07:11:04.000Z</time>
      </trkpt>
      <trkpt lat="47.25986" lon="-2.32348">
        <ele>-13.800000190735</ele>
        <time>2019-06-30T07:11:11.000Z</time>
      </trkpt>
      <trkpt lat="47.26011" lon="-2.32314">
        <ele>-13.800000190735</ele>
        <time>2019-06-30T07:11:18.000Z</time>
      </trkpt>
      <trkpt lat="47.26037" lon="-2.32284">
        <ele>-13.800000190735</ele>
        <time>2019-06-30T07:11:25.000Z</time>
      </trkpt>
      <trkpt lat="47.26063" lon="-2.32255">
        <ele>-13.800000190735</ele>
        <time>2019-06-30T07:11:32.000Z</time>
      </trkpt>
      <trkpt lat="47.26089" lon="-2.32219">
        <ele>-13.800000190735</ele>
        <time>2019-06-30T07:11:39.000Z</time>
      </trkpt>
      <trkpt lat="47.26096" lon="-2.32209">
        <ele>-13.800000190735</ele>
        <time>2019-06-30T07:11:41.000Z</time>
      </trkpt>
      <trkpt lat="47.26106" lon="-2.3219">
        <ele>-13.800000190735</ele>
        <time>2019-06-30T07:11:44.000Z</time>
      </trkpt>
      <trkpt lat="47.2612" lon="-2.32156">
        <ele>-13.800000190735</ele>
        <time>2019-06-30T07:11:49.000Z</time>
      </trkpt>
      <trkpt lat="47.26133" lon="-2.32112">
        <ele>-13.800000190735</ele>
        <time>2019-06-30T07:11:55.000Z</time>
      </trkpt>
      <trkpt lat="47.26149" lon="-2.32064">
        <ele>-13.800000190735</ele>
        <time>2019-06-30T07:12:02.000Z</time>
      </trkpt>
      <trkpt lat="47.26162" lon="-2.32024">
        <ele>-13.800000190735</ele>
        <time>2019-06-30T07:12:09.000Z</time>
      </trkpt>
      <trkpt lat="47.2617" lon="-2.32018">
        <ele>-13.800000190735</ele>
        <time>2019-06-30T07:12:12.000Z</time>
      </trkpt>
      <trkpt lat="47.2618" lon="-2.3202">
        <ele>-13.800000190735</ele>
        <time>2019-06-30T07:12:17.000Z</time>
      </trkpt>
      <trkpt lat="47.26189" lon="-2.32024">
        <ele>-13.800000190735</ele>
        <time>2019-06-30T07:12:22.000Z</time>
      </trkpt>
      <trkpt lat="47.26194" lon="-2.32021">
        <ele>-13.800000190735</ele>
        <time>2019-06-30T07:12:25.000Z</time>
      </trkpt>
      <trkpt lat="47.26195" lon="-2.32017">
        <ele>-13.800000190735</ele>
        <time>2019-06-30T07:12:26.000Z</time>
      </trkpt>
      <trkpt lat="47.26197" lon="-2.32006">
        <ele>-13.800000190735</ele>
        <time>2019-06-30T07:12:29.000Z</time>
      </trkpt>
      <trkpt lat="47.26199" lon="-2.32005">
        <ele>-13.800000190735</ele>
        <time>2019-06-30T07:12:30.000Z</time>
      </trkpt>
      <trkpt lat="47.2621" lon="-2.31997">
        <ele>-13.800000190735</ele>
        <time>2019-06-30T07:12:34.000Z</time>
      </trkpt>
      <trkpt lat="47.26213" lon="-2.31993">
        <ele>-13.39999961853</ele>
        <time>2019-06-30T07:12:35.000Z</time>
      </trkpt>
      <trkpt lat="47.26215" lon="-2.3199">
        <ele>-13</ele>
        <time>2019-06-30T07:12:36.000Z</time>
      </trkpt>
      <trkpt lat="47.26218" lon="-2.31986">
        <ele>-12.60000038147</ele>
        <time>2019-06-30T07:12:37.000Z</time>
      </trkpt>
      <trkpt lat="47.26221" lon="-2.31983">
        <ele>-12.199999809265</ele>
        <time>2019-06-30T07:12:38.000Z</time>
      </trkpt>
      <trkpt lat="47.26224" lon="-2.31982">
        <ele>-11.800000190735</ele>
        <time>2019-06-30T07:12:39.000Z</time>
      </trkpt>
      <trkpt lat="47.26228" lon="-2.31982">
        <ele>-11.800000190735</ele>
        <time>2019-06-30T07:12:40.000Z</time>
      </trkpt>
      <trkpt lat="47.26232" lon="-2.31974">
        <ele>-11.800000190735</ele>
        <time>2019-06-30T07:12:43.000Z</time>
      </trkpt>
      <trkpt lat="47.2624" lon="-2.31957">
        <ele>-11.800000190735</ele>
        <time>2019-06-30T07:12:46.000Z</time>
      </trkpt>
      <trkpt lat="47.26242" lon="-2.31952">
        <ele>-11.800000190735</ele>
        <time>2019-06-30T07:12:47.000Z</time>
      </trkpt>
      <trkpt lat="47.26257" lon="-2.31924">
        <ele>-11.800000190735</ele>
        <time>2019-06-30T07:12:53.000Z</time>
      </trkpt>
      <trkpt lat="47.26264" lon="-2.31913">
        <ele>-11.800000190735</ele>
        <time>2019-06-30T07:12:55.000Z</time>
      </trkpt>
      <trkpt lat="47.26273" lon="-2.31905">
        <ele>-11.800000190735</ele>
        <time>2019-06-30T07:12:57.000Z</time>
      </trkpt>
      <trkpt lat="47.26284" lon="-2.31901">
        <ele>-11.800000190735</ele>
        <time>2019-06-30T07:13:00.000Z</time>
      </trkpt>
      <trkpt lat="47.26289" lon="-2.31902">
        <ele>-11.800000190735</ele>
        <time>2019-06-30T07:13:01.000Z</time>
      </trkpt>
      <trkpt lat="47.26292" lon="-2.31914">
        <ele>-11.800000190735</ele>
        <time>2019-06-30T07:13:04.000Z</time>
      </trkpt>
      <trkpt lat="47.26297" lon="-2.31934">
        <ele>-11.800000190735</ele>
        <time>2019-06-30T07:13:09.000Z</time>
      </trkpt>
      <trkpt lat="47.26299" lon="-2.31935">
        <ele>-11.800000190735</ele>
        <time>2019-06-30T07:13:10.000Z</time>
      </trkpt>
      <trkpt lat="47.26308" lon="-2.31934">
        <ele>-11.800000190735</ele>
        <time>2019-06-30T07:13:13.000Z</time>
      </trkpt>
      <trkpt lat="47.26311" lon="-2.31933">
        <ele>-11.800000190735</ele>
        <time>2019-06-30T07:13:14.000Z</time>
      </trkpt>
      <trkpt lat="47.26321" lon="-2.31934">
        <ele>-11.39999961853</ele>
        <time>2019-06-30T07:13:17.000Z</time>
      </trkpt>
      <trkpt lat="47.26326" lon="-2.31939">
        <ele>-11</ele>
        <time>2019-06-30T07:13:18.000Z</time>
      </trkpt>
      <trkpt lat="47.2633" lon="-2.31942">
        <ele>-10.60000038147</ele>
        <time>2019-06-30T07:13:19.000Z</time>
      </trkpt>
      <trkpt lat="47.26335" lon="-2.31946">
        <ele>-10.199999809265</ele>
        <time>2019-06-30T07:13:20.000Z</time>
      </trkpt>
      <trkpt lat="47.2634" lon="-2.3195">
        <ele>-9.8000001907349</ele>
        <time>2019-06-30T07:13:21.000Z</time>
      </trkpt>
      <trkpt lat="47.26345" lon="-2.3196">
        <ele>-9.8000001907349</ele>
        <time>2019-06-30T07:13:23.000Z</time>
      </trkpt>
      <trkpt lat="47.26357" lon="-2.31982">
        <ele>-9.8000001907349</ele>
        <time>2019-06-30T07:13:28.000Z</time>
      </trkpt>
      <trkpt lat="47.2636" lon="-2.31984">
        <ele>-9.8000001907349</ele>
        <time>2019-06-30T07:13:29.000Z</time>
      </trkpt>
      <trkpt lat="47.26367" lon="-2.31985">
        <ele>-9.3999996185303</ele>
        <time>2019-06-30T07:13:30.000Z</time>
      </trkpt>
      <trkpt lat="47.26372" lon="-2.31985">
        <ele>-9</ele>
        <time>2019-06-30T07:13:31.000Z</time>
      </trkpt>
      <trkpt lat="47.26376" lon="-2.31986">
        <ele>-8.3999996185303</ele>
        <time>2019-06-30T07:13:32.000Z</time>
      </trkpt>
      <trkpt lat="47.2638" lon="-2.31987">
        <ele>-8</ele>
        <time>2019-06-30T07:13:33.000Z</time>
      </trkpt>
      <trkpt lat="47.26384" lon="-2.31988">
        <ele>-7.5999999046326</ele>
        <time>2019-06-30T07:13:34.000Z</time>
      </trkpt>
      <trkpt lat="47.26396" lon="-2.31989">
        <ele>-7.5999999046326</ele>
        <time>2019-06-30T07:13:37.000Z</time>
      </trkpt>
      <trkpt lat="47.26404" lon="-2.31991">
        <ele>-7.1999998092651</ele>
        <time>2019-06-30T07:13:39.000Z</time>
      </trkpt>
      <trkpt lat="47.26407" lon="-2.31991">
        <ele>-6.5999999046326</ele>
        <time>2019-06-30T07:13:40.000Z</time>
      </trkpt>
      <trkpt lat="47.2641" lon="-2.31992">
        <ele>-5.8000001907349</ele>
        <time>2019-06-30T07:13:41.000Z</time>
      </trkpt>
      <trkpt lat="47.26413" lon="-2.31992">
        <ele>-5.4000000953674</ele>
        <time>2019-06-30T07:13:42.000Z</time>
      </trkpt>
      <trkpt lat="47.26432" lon="-2.31992">
        <ele>-4.8000001907349</ele>
        <time>2019-06-30T07:13:47.000Z</time>
      </trkpt>
      <trkpt lat="47.26435" lon="-2.31991">
        <ele>-4.4000000953674</ele>
        <time>2019-06-30T07:13:48.000Z</time>
      </trkpt>
      <trkpt lat="47.26439" lon="-2.31992">
        <ele>-4</ele>
        <time>2019-06-30T07:13:49.000Z</time>
      </trkpt>
      <trkpt lat="47.26442" lon="-2.31992">
        <ele>-3.5999999046326</ele>
        <time>2019-06-30T07:13:50.000Z</time>
      </trkpt>
      <trkpt lat="47.26446" lon="-2.31992">
        <ele>-3.2000000476837</ele>
        <time>2019-06-30T07:13:51.000Z</time>
      </trkpt>
      <trkpt lat="47.26463" lon="-2.31992">
        <ele>-3.2000000476837</ele>
        <time>2019-06-30T07:13:55.000Z</time>
      </trkpt>
      <trkpt lat="47.2647" lon="-2.31993">
        <ele>-2.7999999523163</ele>
        <time>2019-06-30T07:13:57.000Z</time>
      </trkpt>
      <trkpt lat="47.26474" lon="-2.31992">
        <ele>-2.2000000476837</ele>
        <time>2019-06-30T07:13:58.000Z</time>
      </trkpt>
      <trkpt lat="47.26478" lon="-2.31992">
        <ele>-1.7999999523163</ele>
        <time>2019-06-30T07:13:59.000Z</time>
      </trkpt>
      <trkpt lat="47.26482" lon="-2.31992">
        <ele>-1.3999999761581</ele>
        <time>2019-06-30T07:14:00.000Z</time>
      </trkpt>
      <trkpt lat="47.26486" lon="-2.31992">
        <ele>-1</ele>
        <time>2019-06-30T07:14:01.000Z</time>
      </trkpt>
      <trkpt lat="47.26489" lon="-2.31992">
        <ele>-1</ele>
        <time>2019-06-30T07:14:02.000Z</time>
      </trkpt>
      <trkpt lat="47.26501" lon="-2.31992">
        <ele>-1</ele>
        <time>2019-06-30T07:14:05.000Z</time>
      </trkpt>
      <trkpt lat="47.26504" lon="-2.31991">
        <ele>-0.20000000298023</ele>
        <time>2019-06-30T07:14:06.000Z</time>
      </trkpt>
      <trkpt lat="47.26508" lon="-2.31992">
        <ele>0.20000000298023</ele>
        <time>2019-06-30T07:14:07.000Z</time>
      </trkpt>
      <trkpt lat="47.2651" lon="-2.31992">
        <ele>0.80000001192093</ele>
        <time>2019-06-30T07:14:08.000Z</time>
      </trkpt>
      <trkpt lat="47.26512" lon="-2.31993">
        <ele>1.2000000476837</ele>
        <time>2019-06-30T07:14:09.000Z</time>
      </trkpt>
      <trkpt lat="47.26518" lon="-2.31995">
        <ele>1.6000000238419</ele>
        <time>2019-06-30T07:14:11.000Z</time>
      </trkpt>
      <trkpt lat="47.2652" lon="-2.31997">
        <ele>2</ele>
        <time>2019-06-30T07:14:12.000Z</time>
      </trkpt>
      <trkpt lat="47.26523" lon="-2.31998">
        <ele>2.4000000953674</ele>
        <time>2019-06-30T07:14:13.000Z</time>
      </trkpt>
      <trkpt lat="47.26527" lon="-2.32">
        <ele>3</ele>
        <time>2019-06-30T07:14:14.000Z</time>
      </trkpt>
      <trkpt lat="47.26529" lon="-2.32004">
        <ele>3.4000000953674</ele>
        <time>2019-06-30T07:14:15.000Z</time>
      </trkpt>
      <trkpt lat="47.26534" lon="-2.32011">
        <ele>3.4000000953674</ele>
        <time>2019-06-30T07:14:17.000Z</time>
      </trkpt>
      <trkpt lat="47.26536" lon="-2.32014">
        <ele>3.4000000953674</ele>
        <time>2019-06-30T07:14:19.000Z</time>
      </trkpt>
      <trkpt lat="47.26539" lon="-2.32022">
        <ele>3.4000000953674</ele>
        <time>2019-06-30T07:14:21.000Z</time>
      </trkpt>
      <trkpt lat="47.26544" lon="-2.32032">
        <ele>3.4000000953674</ele>
        <time>2019-06-30T07:14:24.000Z</time>
      </trkpt>
      <trkpt lat="47.26547" lon="-2.32032">
        <ele>3.7999999523163</ele>
        <time>2019-06-30T07:14:25.000Z</time>
      </trkpt>
      <trkpt lat="47.2655" lon="-2.32033">
        <ele>4.1999998092651</ele>
        <time>2019-06-30T07:14:26.000Z</time>
      </trkpt>
      <trkpt lat="47.26553" lon="-2.32032">
        <ele>4.5999999046326</ele>
        <time>2019-06-30T07:14:27.000Z</time>
      </trkpt>
      <trkpt lat="47.26556" lon="-2.32032">
        <ele>5.1999998092651</ele>
        <time>2019-06-30T07:14:28.000Z</time>
      </trkpt>
      <trkpt lat="47.26559" lon="-2.32031">
        <ele>5.5999999046326</ele>
        <time>2019-06-30T07:14:29.000Z</time>
      </trkpt>
      <trkpt lat="47.26569" lon="-2.32027">
        <ele>5.5999999046326</ele>
        <time>2019-06-30T07:14:32.000Z</time>
      </trkpt>
      <trkpt lat="47.26581" lon="-2.32024">
        <ele>6</ele>
        <time>2019-06-30T07:14:36.000Z</time>
      </trkpt>
      <trkpt lat="47.26584" lon="-2.32023">
        <ele>6.4000000953674</ele>
        <time>2019-06-30T07:14:37.000Z</time>
      </trkpt>
      <trkpt lat="47.26586" lon="-2.32022">
        <ele>6.8000001907349</ele>
        <time>2019-06-30T07:14:38.000Z</time>
      </trkpt>
      <trkpt lat="47.26589" lon="-2.32021">
        <ele>7.1999998092651</ele>
        <time>2019-06-30T07:14:39.000Z</time>
      </trkpt>
      <trkpt lat="47.26592" lon="-2.3202">
        <ele>7.5999999046326</ele>
        <time>2019-06-30T07:14:40.000Z</time>
      </trkpt>
      <trkpt lat="47.26605" lon="-2.32017">
        <ele>7.5999999046326</ele>
        <time>2019-06-30T07:14:45.000Z</time>
      </trkpt>
      <trkpt lat="47.26621" lon="-2.32011">
        <ele>7.5999999046326</ele>
        <time>2019-06-30T07:14:52.000Z</time>
      </trkpt>
      <trkpt lat="47.26634" lon="-2.32005">
        <ele>7.5999999046326</ele>
        <time>2019-06-30T07:14:59.000Z</time>
      </trkpt>
      <trkpt lat="47.26637" lon="-2.32003">
        <ele>8</ele>
        <time>2019-06-30T07:15:01.000Z</time>
      </trkpt>
      <trkpt lat="47.26638" lon="-2.32002">
        <ele>8.3999996185303</ele>
        <time>2019-06-30T07:15:02.000Z</time>
      </trkpt>
      <trkpt lat="47.2664" lon="-2.32001">
        <ele>8.8000001907349</ele>
        <time>2019-06-30T07:15:03.000Z</time>
      </trkpt>
      <trkpt lat="47.26641" lon="-2.32002">
        <ele>9.1999998092651</ele>
        <time>2019-06-30T07:15:04.000Z</time>
      </trkpt>
      <trkpt lat="47.26641" lon="-2.32002">
        <ele>9.6000003814697</ele>
        <time>2019-06-30T07:15:05.000Z</time>
      </trkpt>
      <trkpt lat="47.26644" lon="-2.32003">
        <ele>9.6000003814697</ele>
        <time>2019-06-30T07:15:34.000Z</time>
      </trkpt>
      <trkpt lat="47.26649" lon="-2.3201">
        <ele>9.6000003814697</ele>
        <time>2019-06-30T07:15:36.000Z</time>
      </trkpt>
      <trkpt lat="47.26653" lon="-2.32027">
        <ele>9.6000003814697</ele>
        <time>2019-06-30T07:15:39.000Z</time>
      </trkpt>
      <trkpt lat="47.26654" lon="-2.32034">
        <ele>9.6000003814697</ele>
        <time>2019-06-30T07:15:40.000Z</time>
      </trkpt>
      <trkpt lat="47.26655" lon="-2.3204">
        <ele>9.6000003814697</ele>
        <time>2019-06-30T07:15:41.000Z</time>
      </trkpt>
      <trkpt lat="47.2666" lon="-2.32059">
        <ele>9.6000003814697</ele>
        <time>2019-06-30T07:15:44.000Z</time>
      </trkpt>
      <trkpt lat="47.26665" lon="-2.32077">
        <ele>9.6000003814697</ele>
        <time>2019-06-30T07:15:47.000Z</time>
      </trkpt>
      <trkpt lat="47.26673" lon="-2.32117">
        <ele>9.6000003814697</ele>
        <time>2019-06-30T07:15:54.000Z</time>
      </trkpt>
      <trkpt lat="47.26677" lon="-2.32125">
        <ele>9.6000003814697</ele>
        <time>2019-06-30T07:15:57.000Z</time>
      </trkpt>
      <trkpt lat="47.2668" lon="-2.32123">
        <ele>9.6000003814697</ele>
        <time>2019-06-30T07:15:58.000Z</time>
      </trkpt>
      <trkpt lat="47.26684" lon="-2.32106">
        <ele>9.6000003814697</ele>
        <time>2019-06-30T07:16:02.000Z</time>
      </trkpt>
      <trkpt lat="47.26685" lon="-2.32084">
        <ele>9.6000003814697</ele>
        <time>2019-06-30T07:16:06.000Z</time>
      </trkpt>
      <trkpt lat="47.26685" lon="-2.32073">
        <ele>9.6000003814697</ele>
        <time>2019-06-30T07:16:08.000Z</time>
      </trkpt>
      <trkpt lat="47.26686" lon="-2.32051">
        <ele>9.6000003814697</ele>
        <time>2019-06-30T07:16:13.000Z</time>
      </trkpt>
      <trkpt lat="47.2669" lon="-2.32029">
        <ele>9.6000003814697</ele>
        <time>2019-06-30T07:16:19.000Z</time>
      </trkpt>
      <trkpt lat="47.26704" lon="-2.32003">
        <ele>9.6000003814697</ele>
        <time>2019-06-30T07:16:25.000Z</time>
      </trkpt>
      <trkpt lat="47.26722" lon="-2.3199">
        <ele>9.6000003814697</ele>
        <time>2019-06-30T07:16:29.000Z</time>
      </trkpt>
      <trkpt lat="47.26748" lon="-2.31971">
        <ele>9.6000003814697</ele>
        <time>2019-06-30T07:16:34.000Z</time>
      </trkpt>
      <trkpt lat="47.26752" lon="-2.31966">
        <ele>9.6000003814697</ele>
        <time>2019-06-30T07:16:35.000Z</time>
      </trkpt>
      <trkpt lat="47.26761" lon="-2.31947">
        <ele>9.6000003814697</ele>
        <time>2019-06-30T07:16:38.000Z</time>
      </trkpt>
      <trkpt lat="47.26763" lon="-2.31941">
        <ele>9.6000003814697</ele>
        <time>2019-06-30T07:16:39.000Z</time>
      </trkpt>
      <trkpt lat="47.26761" lon="-2.31929">
        <ele>9.6000003814697</ele>
        <time>2019-06-30T07:16:41.000Z</time>
      </trkpt>
      <trkpt lat="47.2675" lon="-2.31908">
        <ele>9.6000003814697</ele>
        <time>2019-06-30T07:16:45.000Z</time>
      </trkpt>
      <trkpt lat="47.26745" lon="-2.31897">
        <ele>9.6000003814697</ele>
        <time>2019-06-30T07:16:47.000Z</time>
      </trkpt>
      <trkpt lat="47.26743" lon="-2.31892">
        <ele>9.6000003814697</ele>
        <time>2019-06-30T07:16:48.000Z</time>
      </trkpt>
      <trkpt lat="47.26735" lon="-2.31875">
        <ele>9.6000003814697</ele>
        <time>2019-06-30T07:16:52.000Z</time>
      </trkpt>
      <trkpt lat="47.26735" lon="-2.31868">
        <ele>9.6000003814697</ele>
        <time>2019-06-30T07:16:56.000Z</time>
      </trkpt>
      <trkpt lat="47.26735" lon="-2.31864">
        <ele>10</ele>
        <time>2019-06-30T07:16:58.000Z</time>
      </trkpt>
      <trkpt lat="47.26737" lon="-2.31862">
        <ele>10.800000190735</ele>
        <time>2019-06-30T07:16:59.000Z</time>
      </trkpt>
      <trkpt lat="47.26738" lon="-2.3186">
        <ele>11.199999809265</ele>
        <time>2019-06-30T07:17:00.000Z</time>
      </trkpt>
      <trkpt lat="47.2674" lon="-2.31856">
        <ele>11.60000038147</ele>
        <time>2019-06-30T07:17:01.000Z</time>
      </trkpt>
      <trkpt lat="47.26753" lon="-2.31843">
        <ele>11.60000038147</ele>
        <time>2019-06-30T07:17:05.000Z</time>
      </trkpt>
      <trkpt lat="47.26761" lon="-2.31838">
        <ele>11.60000038147</ele>
        <time>2019-06-30T07:17:07.000Z</time>
      </trkpt>
      <trkpt lat="47.26778" lon="-2.31825">
        <ele>11.60000038147</ele>
        <time>2019-06-30T07:17:11.000Z</time>
      </trkpt>
      <trkpt lat="47.26791" lon="-2.31817">
        <ele>11.60000038147</ele>
        <time>2019-06-30T07:17:14.000Z</time>
      </trkpt>
      <trkpt lat="47.26799" lon="-2.31812">
        <ele>11.60000038147</ele>
        <time>2019-06-30T07:17:16.000Z</time>
      </trkpt>
      <trkpt lat="47.26803" lon="-2.31809">
        <ele>11.60000038147</ele>
        <time>2019-06-30T07:17:17.000Z</time>
      </trkpt>
      <trkpt lat="47.26817" lon="-2.31807">
        <ele>11.60000038147</ele>
        <time>2019-06-30T07:17:22.000Z</time>
      </trkpt>
      <trkpt lat="47.26817" lon="-2.31818">
        <ele>11.60000038147</ele>
        <time>2019-06-30T07:17:25.000Z</time>
      </trkpt>
      <trkpt lat="47.26818" lon="-2.31824">
        <ele>11.60000038147</ele>
        <time>2019-06-30T07:17:26.000Z</time>
      </trkpt>
      <trkpt lat="47.26822" lon="-2.31836">
        <ele>11.60000038147</ele>
        <time>2019-06-30T07:17:28.000Z</time>
      </trkpt>
      <trkpt lat="47.26836" lon="-2.31875">
        <ele>11.60000038147</ele>
        <time>2019-06-30T07:17:33.000Z</time>
      </trkpt>
      <trkpt lat="47.2684" lon="-2.31884">
        <ele>11.60000038147</ele>
        <time>2019-06-30T07:17:34.000Z</time>
      </trkpt>
      <trkpt lat="47.26845" lon="-2.31891">
        <ele>11.199999809265</ele>
        <time>2019-06-30T07:17:35.000Z</time>
      </trkpt>
      <trkpt lat="47.26852" lon="-2.31894">
        <ele>10.60000038147</ele>
        <time>2019-06-30T07:17:36.000Z</time>
      </trkpt>
      <trkpt lat="47.26858" lon="-2.31897">
        <ele>10.199999809265</ele>
        <time>2019-06-30T07:17:37.000Z</time>
      </trkpt>
      <trkpt lat="47.26863" lon="-2.31899">
        <ele>9.6000003814697</ele>
        <time>2019-06-30T07:17:38.000Z</time>
      </trkpt>
      <trkpt lat="47.2687" lon="-2.319">
        <ele>9</ele>
        <time>2019-06-30T07:17:39.000Z</time>
      </trkpt>
      <trkpt lat="47.26876" lon="-2.31904">
        <ele>9</ele>
        <time>2019-06-30T07:17:40.000Z</time>
      </trkpt>
      <trkpt lat="47.26881" lon="-2.3191">
        <ele>8.6000003814697</ele>
        <time>2019-06-30T07:17:41.000Z</time>
      </trkpt>
      <trkpt lat="47.26886" lon="-2.31917">
        <ele>8.1999998092651</ele>
        <time>2019-06-30T07:17:42.000Z</time>
      </trkpt>
      <trkpt lat="47.2689" lon="-2.31924">
        <ele>7.8000001907349</ele>
        <time>2019-06-30T07:17:43.000Z</time>
      </trkpt>
      <trkpt lat="47.26896" lon="-2.31933">
        <ele>7.4000000953674</ele>
        <time>2019-06-30T07:17:44.000Z</time>
      </trkpt>
      <trkpt lat="47.26902" lon="-2.31941">
        <ele>7</ele>
        <time>2019-06-30T07:17:45.000Z</time>
      </trkpt>
      <trkpt lat="47.26907" lon="-2.31948">
        <ele>7</ele>
        <time>2019-06-30T07:17:46.000Z</time>
      </trkpt>
      <trkpt lat="47.26913" lon="-2.31953">
        <ele>7</ele>
        <time>2019-06-30T07:17:47.000Z</time>
      </trkpt>
      <trkpt lat="47.2692" lon="-2.31959">
        <ele>6</ele>
        <time>2019-06-30T07:17:48.000Z</time>
      </trkpt>
      <trkpt lat="47.26926" lon="-2.31965">
        <ele>5.5999999046326</ele>
        <time>2019-06-30T07:17:49.000Z</time>
      </trkpt>
      <trkpt lat="47.26931" lon="-2.31971">
        <ele>5</ele>
        <time>2019-06-30T07:17:50.000Z</time>
      </trkpt>
      <trkpt lat="47.26936" lon="-2.31979">
        <ele>4.5999999046326</ele>
        <time>2019-06-30T07:17:51.000Z</time>
      </trkpt>
      <trkpt lat="47.2695" lon="-2.32">
        <ele>4.1999998092651</ele>
        <time>2019-06-30T07:17:54.000Z</time>
      </trkpt>
      <trkpt lat="47.26955" lon="-2.32002">
        <ele>3.5999999046326</ele>
        <time>2019-06-30T07:17:55.000Z</time>
      </trkpt>
      <trkpt lat="47.26958" lon="-2.32001">
        <ele>3.2000000476837</ele>
        <time>2019-06-30T07:17:56.000Z</time>
      </trkpt>
      <trkpt lat="47.26962" lon="-2.31999">
        <ele>2.7999999523163</ele>
        <time>2019-06-30T07:17:57.000Z</time>
      </trkpt>
      <trkpt lat="47.26967" lon="-2.31996">
        <ele>2.2000000476837</ele>
        <time>2019-06-30T07:17:58.000Z</time>
      </trkpt>
      <trkpt lat="47.26987" lon="-2.31988">
        <ele>2.2000000476837</ele>
        <time>2019-06-30T07:18:02.000Z</time>
      </trkpt>
      <trkpt lat="47.26993" lon="-2.31985">
        <ele>1.7999999523163</ele>
        <time>2019-06-30T07:18:03.000Z</time>
      </trkpt>
      <trkpt lat="47.26999" lon="-2.3198">
        <ele>1.3999999761581</ele>
        <time>2019-06-30T07:18:04.000Z</time>
      </trkpt>
      <trkpt lat="47.27005" lon="-2.31975">
        <ele>1</ele>
        <time>2019-06-30T07:18:05.000Z</time>
      </trkpt>
      <trkpt lat="47.2701" lon="-2.31972">
        <ele>0.60000002384186</ele>
        <time>2019-06-30T07:18:06.000Z</time>
      </trkpt>
      <trkpt lat="47.27016" lon="-2.31969">
        <ele>0.20000000298023</ele>
        <time>2019-06-30T07:18:07.000Z</time>
      </trkpt>
      <trkpt lat="47.27032" lon="-2.31962">
        <ele>0.20000000298023</ele>
        <time>2019-06-30T07:18:10.000Z</time>
      </trkpt>
      <trkpt lat="47.27037" lon="-2.31959">
        <ele>0.20000000298023</ele>
        <time>2019-06-30T07:18:11.000Z</time>
      </trkpt>
      <trkpt lat="47.2706" lon="-2.31955">
        <ele>0.20000000298023</ele>
        <time>2019-06-30T07:18:15.000Z</time>
      </trkpt>
      <trkpt lat="47.27067" lon="-2.31958">
        <ele>-0.20000000298023</ele>
        <time>2019-06-30T07:18:18.000Z</time>
      </trkpt>
      <trkpt lat="47.27068" lon="-2.31957">
        <ele>-0.60000002384186</ele>
        <time>2019-06-30T07:18:19.000Z</time>
      </trkpt>
      <trkpt lat="47.2707" lon="-2.31956">
        <ele>-1</ele>
        <time>2019-06-30T07:18:20.000Z</time>
      </trkpt>
      <trkpt lat="47.27071" lon="-2.31954">
        <ele>-1.3999999761581</ele>
        <time>2019-06-30T07:18:21.000Z</time>
      </trkpt>
      <trkpt lat="47.27073" lon="-2.31952">
        <ele>-2</ele>
        <time>2019-06-30T07:18:22.000Z</time>
      </trkpt>
      <trkpt lat="47.27078" lon="-2.31956">
        <ele>-2</ele>
        <time>2019-06-30T07:18:26.000Z</time>
      </trkpt>
      <trkpt lat="47.27078" lon="-2.31956">
        <ele>-2</ele>
        <time>2019-06-30T07:18:28.000Z</time>
      </trkpt>
      <trkpt lat="47.27074" lon="-2.31956">
        <ele>-2</ele>
        <time>2019-06-30T07:18:34.000Z</time>
      </trkpt>
      <trkpt lat="47.27072" lon="-2.31956">
        <ele>-2</ele>
        <time>2019-06-30T07:18:35.000Z</time>
      </trkpt>
      <trkpt lat="47.27067" lon="-2.31955">
        <ele>-2</ele>
        <time>2019-06-30T07:18:39.000Z</time>
      </trkpt>
      <trkpt lat="47.27067" lon="-2.31956">
        <ele>-2</ele>
        <time>2019-06-30T07:18:40.000Z</time>
      </trkpt>
      <trkpt lat="47.27068" lon="-2.31957">
        <ele>-2</ele>
        <time>2019-06-30T07:18:41.000Z</time>
      </trkpt>
      <trkpt lat="47.27071" lon="-2.31955">
        <ele>-2</ele>
        <time>2019-06-30T07:18:44.000Z</time>
      </trkpt>
      <trkpt lat="47.27074" lon="-2.31948">
        <ele>-2</ele>
        <time>2019-06-30T07:18:47.000Z</time>
      </trkpt>
      <trkpt lat="47.27074" lon="-2.31944">
        <ele>-2</ele>
        <time>2019-06-30T07:18:48.000Z</time>
      </trkpt>
      <trkpt lat="47.27075" lon="-2.31931">
        <ele>-2</ele>
        <time>2019-06-30T07:18:52.000Z</time>
      </trkpt>
      <trkpt lat="47.27074" lon="-2.31917">
        <ele>-2</ele>
        <time>2019-06-30T07:18:56.000Z</time>
      </trkpt>
      <trkpt lat="47.27073" lon="-2.31895">
        <ele>-2</ele>
        <time>2019-06-30T07:19:02.000Z</time>
      </trkpt>
      <trkpt lat="47.27074" lon="-2.31892">
        <ele>-1.6000000238419</ele>
        <time>2019-06-30T07:19:03.000Z</time>
      </trkpt>
      <trkpt lat="47.27074" lon="-2.31889">
        <ele>-1.2000000476837</ele>
        <time>2019-06-30T07:19:04.000Z</time>
      </trkpt>
      <trkpt lat="47.27075" lon="-2.31885">
        <ele>-0.60000002384186</ele>
        <time>2019-06-30T07:19:05.000Z</time>
      </trkpt>
      <trkpt lat="47.27076" lon="-2.31881">
        <ele>-0.20000000298023</ele>
        <time>2019-06-30T07:19:06.000Z</time>
      </trkpt>
      <trkpt lat="47.27077" lon="-2.31879">
        <ele>0.20000000298023</ele>
        <time>2019-06-30T07:19:07.000Z</time>
      </trkpt>
      <trkpt lat="47.27079" lon="-2.31874">
        <ele>0.20000000298023</ele>
        <time>2019-06-30T07:19:08.000Z</time>
      </trkpt>
      <trkpt lat="47.27077" lon="-2.3187">
        <ele>0.20000000298023</ele>
        <time>2019-06-30T07:19:09.000Z</time>
      </trkpt>
      <trkpt lat="47.2707" lon="-2.31863">
        <ele>0.20000000298023</ele>
        <time>2019-06-30T07:19:11.000Z</time>
      </trkpt>
      <trkpt lat="47.27065" lon="-2.31856">
        <ele>0.20000000298023</ele>
        <time>2019-06-30T07:19:13.000Z</time>
      </trkpt>
      <trkpt lat="47.27062" lon="-2.31846">
        <ele>0.20000000298023</ele>
        <time>2019-06-30T07:19:15.000Z</time>
      </trkpt>
      <trkpt lat="47.2706" lon="-2.31815">
        <ele>0.20000000298023</ele>
        <time>2019-06-30T07:19:21.000Z</time>
      </trkpt>
      <trkpt lat="47.27056" lon="-2.31792">
        <ele>0.60000002384186</ele>
        <time>2019-06-30T07:19:27.000Z</time>
      </trkpt>
      <trkpt lat="47.27055" lon="-2.31789">
        <ele>1</ele>
        <time>2019-06-30T07:19:28.000Z</time>
      </trkpt>
      <trkpt lat="47.27055" lon="-2.31784">
        <ele>1.3999999761581</ele>
        <time>2019-06-30T07:19:29.000Z</time>
      </trkpt>
      <trkpt lat="47.27055" lon="-2.3178">
        <ele>1.7999999523163</ele>
        <time>2019-06-30T07:19:30.000Z</time>
      </trkpt>
      <trkpt lat="47.27054" lon="-2.31777">
        <ele>2.2000000476837</ele>
        <time>2019-06-30T07:19:31.000Z</time>
      </trkpt>
      <trkpt lat="47.27053" lon="-2.31771">
        <ele>2.2000000476837</ele>
        <time>2019-06-30T07:19:33.000Z</time>
      </trkpt>
      <trkpt lat="47.27052" lon="-2.3175">
        <ele>2.2000000476837</ele>
        <time>2019-06-30T07:19:39.000Z</time>
      </trkpt>
      <trkpt lat="47.27051" lon="-2.31732">
        <ele>2.2000000476837</ele>
        <time>2019-06-30T07:19:45.000Z</time>
      </trkpt>
      <trkpt lat="47.27038" lon="-2.31722">
        <ele>2.2000000476837</ele>
        <time>2019-06-30T07:19:49.000Z</time>
      </trkpt>
      <trkpt lat="47.27034" lon="-2.3172">
        <ele>2.2000000476837</ele>
        <time>2019-06-30T07:19:50.000Z</time>
      </trkpt>
      <trkpt lat="47.27026" lon="-2.31716">
        <ele>2.5999999046326</ele>
        <time>2019-06-30T07:19:53.000Z</time>
      </trkpt>
      <trkpt lat="47.27025" lon="-2.31715">
        <ele>3</ele>
        <time>2019-06-30T07:19:54.000Z</time>
      </trkpt>
      <trkpt lat="47.27024" lon="-2.31715">
        <ele>3.4000000953674</ele>
        <time>2019-06-30T07:19:55.000Z</time>
      </trkpt>
      <trkpt lat="47.27024" lon="-2.31715">
        <ele>3.7999999523163</ele>
        <time>2019-06-30T07:19:56.000Z</time>
      </trkpt>
      <trkpt lat="47.27025" lon="-2.31711">
        <ele>4.1999998092651</ele>
        <time>2019-06-30T07:20:02.000Z</time>
      </trkpt>
      <trkpt lat="47.27026" lon="-2.31708">
        <ele>4.1999998092651</ele>
        <time>2019-06-30T07:20:03.000Z</time>
      </trkpt>
      <trkpt lat="47.27031" lon="-2.3167">
        <ele>4.1999998092651</ele>
        <time>2019-06-30T07:20:11.000Z</time>
      </trkpt>
      <trkpt lat="47.27032" lon="-2.3166">
        <ele>4.8000001907349</ele>
        <time>2019-06-30T07:20:13.000Z</time>
      </trkpt>
      <trkpt lat="47.27032" lon="-2.31655">
        <ele>5.1999998092651</ele>
        <time>2019-06-30T07:20:14.000Z</time>
      </trkpt>
      <trkpt lat="47.27031" lon="-2.3165">
        <ele>5.5999999046326</ele>
        <time>2019-06-30T07:20:15.000Z</time>
      </trkpt>
      <trkpt lat="47.27031" lon="-2.31645">
        <ele>6.4000000953674</ele>
        <time>2019-06-30T07:20:16.000Z</time>
      </trkpt>
      <trkpt lat="47.2703" lon="-2.31638">
        <ele>6.4000000953674</ele>
        <time>2019-06-30T07:20:17.000Z</time>
      </trkpt>
      <trkpt lat="47.27027" lon="-2.31617">
        <ele>6.4000000953674</ele>
        <time>2019-06-30T07:20:21.000Z</time>
      </trkpt>
      <trkpt lat="47.27026" lon="-2.31608">
        <ele>6.8000001907349</ele>
        <time>2019-06-30T07:20:23.000Z</time>
      </trkpt>
      <trkpt lat="47.27026" lon="-2.31603">
        <ele>7.1999998092651</ele>
        <time>2019-06-30T07:20:24.000Z</time>
      </trkpt>
      <trkpt lat="47.27026" lon="-2.31599">
        <ele>7.5999999046326</ele>
        <time>2019-06-30T07:20:25.000Z</time>
      </trkpt>
      <trkpt lat="47.27025" lon="-2.31595">
        <ele>8</ele>
        <time>2019-06-30T07:20:26.000Z</time>
      </trkpt>
      <trkpt lat="47.27024" lon="-2.31591">
        <ele>8.6000003814697</ele>
        <time>2019-06-30T07:20:27.000Z</time>
      </trkpt>
      <trkpt lat="47.27018" lon="-2.31579">
        <ele>9</ele>
        <time>2019-06-30T07:20:30.000Z</time>
      </trkpt>
      <trkpt lat="47.27016" lon="-2.31574">
        <ele>9.3999996185303</ele>
        <time>2019-06-30T07:20:31.000Z</time>
      </trkpt>
      <trkpt lat="47.27014" lon="-2.3157">
        <ele>9.8000001907349</ele>
        <time>2019-06-30T07:20:32.000Z</time>
      </trkpt>
      <trkpt lat="47.27012" lon="-2.31566">
        <ele>10.199999809265</ele>
        <time>2019-06-30T07:20:33.000Z</time>
      </trkpt>
      <trkpt lat="47.27011" lon="-2.31563">
        <ele>10.60000038147</ele>
        <time>2019-06-30T07:20:34.000Z</time>
      </trkpt>
      <trkpt lat="47.2701" lon="-2.31555">
        <ele>10.60000038147</ele>
        <time>2019-06-30T07:20:36.000Z</time>
      </trkpt>
      <trkpt lat="47.27006" lon="-2.31541">
        <ele>10.60000038147</ele>
        <time>2019-06-30T07:20:39.000Z</time>
      </trkpt>
      <trkpt lat="47.27005" lon="-2.31536">
        <ele>11</ele>
        <time>2019-06-30T07:20:40.000Z</time>
      </trkpt>
      <trkpt lat="47.27004" lon="-2.31532">
        <ele>11.39999961853</ele>
        <time>2019-06-30T07:20:41.000Z</time>
      </trkpt>
      <trkpt lat="47.27004" lon="-2.31528">
        <ele>11.800000190735</ele>
        <time>2019-06-30T07:20:42.000Z</time>
      </trkpt>
      <trkpt lat="47.27003" lon="-2.31525">
        <ele>12.39999961853</ele>
        <time>2019-06-30T07:20:43.000Z</time>
      </trkpt>
      <trkpt lat="47.27002" lon="-2.31519">
        <ele>12.800000190735</ele>
        <time>2019-06-30T07:20:44.000Z</time>
      </trkpt>
      <trkpt lat="47.26999" lon="-2.31508">
        <ele>12.800000190735</ele>
        <time>2019-06-30T07:20:46.000Z</time>
      </trkpt>
      <trkpt lat="47.26993" lon="-2.31483">
        <ele>13.199999809265</ele>
        <time>2019-06-30T07:20:50.000Z</time>
      </trkpt>
      <trkpt lat="47.26992" lon="-2.31477">
        <ele>13.60000038147</ele>
        <time>2019-06-30T07:20:51.000Z</time>
      </trkpt>
      <trkpt lat="47.2699" lon="-2.3147">
        <ele>14</ele>
        <time>2019-06-30T07:20:52.000Z</time>
      </trkpt>
      <trkpt lat="47.26989" lon="-2.31464">
        <ele>14.39999961853</ele>
        <time>2019-06-30T07:20:53.000Z</time>
      </trkpt>
      <trkpt lat="47.26988" lon="-2.31458">
        <ele>14.800000190735</ele>
        <time>2019-06-30T07:20:54.000Z</time>
      </trkpt>
      <trkpt lat="47.26988" lon="-2.31444">
        <ele>14.800000190735</ele>
        <time>2019-06-30T07:20:56.000Z</time>
      </trkpt>
      <trkpt lat="47.26986" lon="-2.31414">
        <ele>14.800000190735</ele>
        <time>2019-06-30T07:21:01.000Z</time>
      </trkpt>
      <trkpt lat="47.26986" lon="-2.31392">
        <ele>15.60000038147</ele>
        <time>2019-06-30T07:21:05.000Z</time>
      </trkpt>
      <trkpt lat="47.26986" lon="-2.31386">
        <ele>16</ele>
        <time>2019-06-30T07:21:06.000Z</time>
      </trkpt>
      <trkpt lat="47.26985" lon="-2.31381">
        <ele>16.39999961853</ele>
        <time>2019-06-30T07:21:07.000Z</time>
      </trkpt>
      <trkpt lat="47.26985" lon="-2.31376">
        <ele>16.799999237061</ele>
        <time>2019-06-30T07:21:08.000Z</time>
      </trkpt>
      <trkpt lat="47.26985" lon="-2.31357">
        <ele>16.799999237061</ele>
        <time>2019-06-30T07:21:12.000Z</time>
      </trkpt>
      <trkpt lat="47.26982" lon="-2.31333">
        <ele>16.799999237061</ele>
        <time>2019-06-30T07:21:16.000Z</time>
      </trkpt>
      <trkpt lat="47.26981" lon="-2.31327">
        <ele>17.200000762939</ele>
        <time>2019-06-30T07:21:17.000Z</time>
      </trkpt>
      <trkpt lat="47.2698" lon="-2.31321">
        <ele>17.60000038147</ele>
        <time>2019-06-30T07:21:18.000Z</time>
      </trkpt>
      <trkpt lat="47.26978" lon="-2.31315">
        <ele>18</ele>
        <time>2019-06-30T07:21:19.000Z</time>
      </trkpt>
      <trkpt lat="47.26977" lon="-2.3131">
        <ele>18.60000038147</ele>
        <time>2019-06-30T07:21:20.000Z</time>
      </trkpt>
      <trkpt lat="47.26976" lon="-2.31304">
        <ele>19</ele>
        <time>2019-06-30T07:21:21.000Z</time>
      </trkpt>
      <trkpt lat="47.26974" lon="-2.3128">
        <ele>19</ele>
        <time>2019-06-30T07:21:25.000Z</time>
      </trkpt>
      <trkpt lat="47.26974" lon="-2.31273">
        <ele>19</ele>
        <time>2019-06-30T07:21:26.000Z</time>
      </trkpt>
      <trkpt lat="47.26976" lon="-2.31231">
        <ele>19</ele>
        <time>2019-06-30T07:21:32.000Z</time>
      </trkpt>
      <trkpt lat="47.26982" lon="-2.31197">
        <ele>19</ele>
        <time>2019-06-30T07:21:37.000Z</time>
      </trkpt>
      <trkpt lat="47.26987" lon="-2.3116">
        <ele>18.60000038147</ele>
        <time>2019-06-30T07:21:42.000Z</time>
      </trkpt>
      <trkpt lat="47.26988" lon="-2.31154">
        <ele>18.200000762939</ele>
        <time>2019-06-30T07:21:43.000Z</time>
      </trkpt>
      <trkpt lat="47.26989" lon="-2.31149">
        <ele>17.60000038147</ele>
        <time>2019-06-30T07:21:44.000Z</time>
      </trkpt>
      <trkpt lat="47.26989" lon="-2.31143">
        <ele>17.200000762939</ele>
        <time>2019-06-30T07:21:45.000Z</time>
      </trkpt>
      <trkpt lat="47.2699" lon="-2.31137">
        <ele>16.799999237061</ele>
        <time>2019-06-30T07:21:46.000Z</time>
      </trkpt>
      <trkpt lat="47.26991" lon="-2.31117">
        <ele>16.799999237061</ele>
        <time>2019-06-30T07:21:49.000Z</time>
      </trkpt>
      <trkpt lat="47.2699" lon="-2.3111">
        <ele>16.799999237061</ele>
        <time>2019-06-30T07:21:50.000Z</time>
      </trkpt>
      <trkpt lat="47.26988" lon="-2.3109">
        <ele>16.799999237061</ele>
        <time>2019-06-30T07:21:53.000Z</time>
      </trkpt>
      <trkpt lat="47.26986" lon="-2.31083">
        <ele>16.799999237061</ele>
        <time>2019-06-30T07:21:54.000Z</time>
      </trkpt>
      <trkpt lat="47.26984" lon="-2.31077">
        <ele>16</ele>
        <time>2019-06-30T07:21:55.000Z</time>
      </trkpt>
      <trkpt lat="47.26982" lon="-2.3107">
        <ele>15.60000038147</ele>
        <time>2019-06-30T07:21:56.000Z</time>
      </trkpt>
      <trkpt lat="47.2698" lon="-2.31063">
        <ele>15.199999809265</ele>
        <time>2019-06-30T07:21:57.000Z</time>
      </trkpt>
      <trkpt lat="47.26978" lon="-2.31058">
        <ele>14.800000190735</ele>
        <time>2019-06-30T07:21:58.000Z</time>
      </trkpt>
      <trkpt lat="47.26974" lon="-2.3105">
        <ele>14.800000190735</ele>
        <time>2019-06-30T07:22:01.000Z</time>
      </trkpt>
      <trkpt lat="47.2697" lon="-2.31029">
        <ele>14.800000190735</ele>
        <time>2019-06-30T07:22:08.000Z</time>
      </trkpt>
      <trkpt lat="47.26965" lon="-2.31009">
        <ele>14.800000190735</ele>
        <time>2019-06-30T07:22:13.000Z</time>
      </trkpt>
      <trkpt lat="47.26962" lon="-2.30995">
        <ele>14.800000190735</ele>
        <time>2019-06-30T07:22:17.000Z</time>
      </trkpt>
      <trkpt lat="47.26961" lon="-2.30994">
        <ele>14.800000190735</ele>
        <time>2019-06-30T07:22:18.000Z</time>
      </trkpt>
      <trkpt lat="47.26963" lon="-2.30995">
        <ele>12.60000038147</ele>
        <time>2019-06-30T07:22:31.000Z</time>
      </trkpt>
      <trkpt lat="47.26963" lon="-2.30996">
        <ele>12.60000038147</ele>
        <time>2019-06-30T07:22:32.000Z</time>
      </trkpt>
      <trkpt lat="47.26966" lon="-2.31009">
        <ele>12.60000038147</ele>
        <time>2019-06-30T07:22:36.000Z</time>
      </trkpt>
      <trkpt lat="47.26971" lon="-2.31033">
        <ele>12.60000038147</ele>
        <time>2019-06-30T07:22:41.000Z</time>
      </trkpt>
      <trkpt lat="47.26982" lon="-2.31066">
        <ele>12.60000038147</ele>
        <time>2019-06-30T07:22:47.000Z</time>
      </trkpt>
      <trkpt lat="47.26984" lon="-2.31067">
        <ele>12.60000038147</ele>
        <time>2019-06-30T07:22:48.000Z</time>
      </trkpt>
      <trkpt lat="47.2699" lon="-2.31065">
        <ele>12.60000038147</ele>
        <time>2019-06-30T07:22:50.000Z</time>
      </trkpt>
      <trkpt lat="47.26994" lon="-2.31062">
        <ele>12.60000038147</ele>
        <time>2019-06-30T07:22:51.000Z</time>
      </trkpt>
      <trkpt lat="47.27006" lon="-2.31051">
        <ele>12.60000038147</ele>
        <time>2019-06-30T07:22:54.000Z</time>
      </trkpt>
      <trkpt lat="47.27018" lon="-2.31041">
        <ele>12.60000038147</ele>
        <time>2019-06-30T07:22:57.000Z</time>
      </trkpt>
      <trkpt lat="47.2703" lon="-2.31031">
        <ele>12.60000038147</ele>
        <time>2019-06-30T07:23:00.000Z</time>
      </trkpt>
      <trkpt lat="47.27049" lon="-2.31016">
        <ele>12.60000038147</ele>
        <time>2019-06-30T07:23:04.000Z</time>
      </trkpt>
      <trkpt lat="47.27058" lon="-2.31006">
        <ele>12.199999809265</ele>
        <time>2019-06-30T07:23:06.000Z</time>
      </trkpt>
      <trkpt lat="47.2706" lon="-2.31001">
        <ele>11.800000190735</ele>
        <time>2019-06-30T07:23:07.000Z</time>
      </trkpt>
      <trkpt lat="47.27061" lon="-2.30995">
        <ele>11.39999961853</ele>
        <time>2019-06-30T07:23:08.000Z</time>
      </trkpt>
      <trkpt lat="47.27061" lon="-2.30987">
        <ele>10.60000038147</ele>
        <time>2019-06-30T07:23:09.000Z</time>
      </trkpt>
      <trkpt lat="47.27061" lon="-2.3098">
        <ele>10.60000038147</ele>
        <time>2019-06-30T07:23:10.000Z</time>
      </trkpt>
      <trkpt lat="47.27061" lon="-2.30966">
        <ele>10.60000038147</ele>
        <time>2019-06-30T07:23:12.000Z</time>
      </trkpt>
      <trkpt lat="47.27057" lon="-2.30943">
        <ele>10.60000038147</ele>
        <time>2019-06-30T07:23:16.000Z</time>
      </trkpt>
      <trkpt lat="47.27046" lon="-2.30913">
        <ele>10.60000038147</ele>
        <time>2019-06-30T07:23:21.000Z</time>
      </trkpt>
      <trkpt lat="47.27043" lon="-2.30898">
        <ele>10.60000038147</ele>
        <time>2019-06-30T07:23:23.000Z</time>
      </trkpt>
      <trkpt lat="47.27036" lon="-2.30885">
        <ele>10.60000038147</ele>
        <time>2019-06-30T07:23:25.000Z</time>
      </trkpt>
      <trkpt lat="47.27023" lon="-2.30862">
        <ele>10.60000038147</ele>
        <time>2019-06-30T07:23:29.000Z</time>
      </trkpt>
      <trkpt lat="47.27019" lon="-2.30857">
        <ele>10.60000038147</ele>
        <time>2019-06-30T07:23:30.000Z</time>
      </trkpt>
      <trkpt lat="47.27009" lon="-2.30837">
        <ele>10.60000038147</ele>
        <time>2019-06-30T07:23:33.000Z</time>
      </trkpt>
      <trkpt lat="47.27003" lon="-2.30825">
        <ele>10.60000038147</ele>
        <time>2019-06-30T07:23:35.000Z</time>
      </trkpt>
      <trkpt lat="47.26996" lon="-2.30814">
        <ele>11</ele>
        <time>2019-06-30T07:23:37.000Z</time>
      </trkpt>
      <trkpt lat="47.26992" lon="-2.30809">
        <ele>11.39999961853</ele>
        <time>2019-06-30T07:23:38.000Z</time>
      </trkpt>
      <trkpt lat="47.26989" lon="-2.30804">
        <ele>11.800000190735</ele>
        <time>2019-06-30T07:23:39.000Z</time>
      </trkpt>
      <trkpt lat="47.26986" lon="-2.30799">
        <ele>12.199999809265</ele>
        <time>2019-06-30T07:23:40.000Z</time>
      </trkpt>
      <trkpt lat="47.26984" lon="-2.30794">
        <ele>12.800000190735</ele>
        <time>2019-06-30T07:23:41.000Z</time>
      </trkpt>
      <trkpt lat="47.26977" lon="-2.30786">
        <ele>12.800000190735</ele>
        <time>2019-06-30T07:23:43.000Z</time>
      </trkpt>
      <trkpt lat="47.26972" lon="-2.30776">
        <ele>12.800000190735</ele>
        <time>2019-06-30T07:23:45.000Z</time>
      </trkpt>
      <trkpt lat="47.26958" lon="-2.30756">
        <ele>12.800000190735</ele>
        <time>2019-06-30T07:23:50.000Z</time>
      </trkpt>
      <trkpt lat="47.26953" lon="-2.3075">
        <ele>13.199999809265</ele>
        <time>2019-06-30T07:23:52.000Z</time>
      </trkpt>
      <trkpt lat="47.2695" lon="-2.30747">
        <ele>13.60000038147</ele>
        <time>2019-06-30T07:23:53.000Z</time>
      </trkpt>
      <trkpt lat="47.26948" lon="-2.30743">
        <ele>14</ele>
        <time>2019-06-30T07:23:54.000Z</time>
      </trkpt>
      <trkpt lat="47.26945" lon="-2.30739">
        <ele>14.39999961853</ele>
        <time>2019-06-30T07:23:55.000Z</time>
      </trkpt>
      <trkpt lat="47.26943" lon="-2.30735">
        <ele>14.800000190735</ele>
        <time>2019-06-30T07:23:56.000Z</time>
      </trkpt>
      <trkpt lat="47.26928" lon="-2.30713">
        <ele>14.800000190735</ele>
        <time>2019-06-30T07:24:02.000Z</time>
      </trkpt>
      <trkpt lat="47.26926" lon="-2.30709">
        <ele>15.199999809265</ele>
        <time>2019-06-30T07:24:03.000Z</time>
      </trkpt>
      <trkpt lat="47.26924" lon="-2.30706">
        <ele>15.60000038147</ele>
        <time>2019-06-30T07:24:04.000Z</time>
      </trkpt>
      <trkpt lat="47.26922" lon="-2.30702">
        <ele>16</ele>
        <time>2019-06-30T07:24:05.000Z</time>
      </trkpt>
      <trkpt lat="47.26919" lon="-2.307">
        <ele>16.39999961853</ele>
        <time>2019-06-30T07:24:06.000Z</time>
      </trkpt>
      <trkpt lat="47.26917" lon="-2.30697">
        <ele>16.799999237061</ele>
        <time>2019-06-30T07:24:07.000Z</time>
      </trkpt>
      <trkpt lat="47.26915" lon="-2.30694">
        <ele>16.799999237061</ele>
        <time>2019-06-30T07:24:08.000Z</time>
      </trkpt>
      <trkpt lat="47.26903" lon="-2.30676">
        <ele>16.799999237061</ele>
        <time>2019-06-30T07:24:14.000Z</time>
      </trkpt>
      <trkpt lat="47.26901" lon="-2.30671">
        <ele>16.799999237061</ele>
        <time>2019-06-30T07:24:17.000Z</time>
      </trkpt>
      <trkpt lat="47.26899" lon="-2.3067">
        <ele>16.799999237061</ele>
        <time>2019-06-30T07:24:24.000Z</time>
      </trkpt>
      <trkpt lat="47.26896" lon="-2.30668">
        <ele>16.799999237061</ele>
        <time>2019-06-30T07:24:26.000Z</time>
      </trkpt>
      <trkpt lat="47.26892" lon="-2.30671">
        <ele>16.799999237061</ele>
        <time>2019-06-30T07:24:28.000Z</time>
      </trkpt>
      <trkpt lat="47.26886" lon="-2.30677">
        <ele>16.799999237061</ele>
        <time>2019-06-30T07:24:30.000Z</time>
      </trkpt>
      <trkpt lat="47.2688" lon="-2.30684">
        <ele>16.799999237061</ele>
        <time>2019-06-30T07:24:32.000Z</time>
      </trkpt>
      <trkpt lat="47.26874" lon="-2.30693">
        <ele>16.799999237061</ele>
        <time>2019-06-30T07:24:34.000Z</time>
      </trkpt>
      <trkpt lat="47.26862" lon="-2.30714">
        <ele>16.799999237061</ele>
        <time>2019-06-30T07:24:38.000Z</time>
      </trkpt>
      <trkpt lat="47.26859" lon="-2.30719">
        <ele>17.200000762939</ele>
        <time>2019-06-30T07:24:39.000Z</time>
      </trkpt>
      <trkpt lat="47.26856" lon="-2.30725">
        <ele>17.799999237061</ele>
        <time>2019-06-30T07:24:40.000Z</time>
      </trkpt>
      <trkpt lat="47.26854" lon="-2.30731">
        <ele>18.200000762939</ele>
        <time>2019-06-30T07:24:41.000Z</time>
      </trkpt>
      <trkpt lat="47.26851" lon="-2.30738">
        <ele>18.60000038147</ele>
        <time>2019-06-30T07:24:42.000Z</time>
      </trkpt>
      <trkpt lat="47.26849" lon="-2.30744">
        <ele>19</ele>
        <time>2019-06-30T07:24:43.000Z</time>
      </trkpt>
      <trkpt lat="47.26844" lon="-2.30758">
        <ele>19</ele>
        <time>2019-06-30T07:24:45.000Z</time>
      </trkpt>
      <trkpt lat="47.26839" lon="-2.30772">
        <ele>19</ele>
        <time>2019-06-30T07:24:47.000Z</time>
      </trkpt>
      <trkpt lat="47.26829" lon="-2.3079">
        <ele>19</ele>
        <time>2019-06-30T07:24:50.000Z</time>
      </trkpt>
      <trkpt lat="47.26815" lon="-2.30802">
        <ele>19</ele>
        <time>2019-06-30T07:24:53.000Z</time>
      </trkpt>
      <trkpt lat="47.2681" lon="-2.30806">
        <ele>19</ele>
        <time>2019-06-30T07:24:54.000Z</time>
      </trkpt>
      <trkpt lat="47.26777" lon="-2.3084">
        <ele>19</ele>
        <time>2019-06-30T07:25:01.000Z</time>
      </trkpt>
      <trkpt lat="47.26768" lon="-2.30849">
        <ele>19</ele>
        <time>2019-06-30T07:25:03.000Z</time>
      </trkpt>
      <trkpt lat="47.26755" lon="-2.30862">
        <ele>19</ele>
        <time>2019-06-30T07:25:06.000Z</time>
      </trkpt>
      <trkpt lat="47.26746" lon="-2.3087">
        <ele>19</ele>
        <time>2019-06-30T07:25:08.000Z</time>
      </trkpt>
      <trkpt lat="47.26736" lon="-2.30869">
        <ele>19</ele>
        <time>2019-06-30T07:25:10.000Z</time>
      </trkpt>
      <trkpt lat="47.26728" lon="-2.3086">
        <ele>19</ele>
        <time>2019-06-30T07:25:12.000Z</time>
      </trkpt>
      <trkpt lat="47.26725" lon="-2.30854">
        <ele>19</ele>
        <time>2019-06-30T07:25:13.000Z</time>
      </trkpt>
      <trkpt lat="47.26722" lon="-2.30847">
        <ele>19</ele>
        <time>2019-06-30T07:25:14.000Z</time>
      </trkpt>
      <trkpt lat="47.26706" lon="-2.30811">
        <ele>19</ele>
        <time>2019-06-30T07:25:19.000Z</time>
      </trkpt>
      <trkpt lat="47.2669" lon="-2.30769">
        <ele>19</ele>
        <time>2019-06-30T07:25:24.000Z</time>
      </trkpt>
      <trkpt lat="47.26672" lon="-2.30729">
        <ele>19</ele>
        <time>2019-06-30T07:25:29.000Z</time>
      </trkpt>
      <trkpt lat="47.26664" lon="-2.30706">
        <ele>18.60000038147</ele>
        <time>2019-06-30T07:25:32.000Z</time>
      </trkpt>
      <trkpt lat="47.26662" lon="-2.30701">
        <ele>18.200000762939</ele>
        <time>2019-06-30T07:25:33.000Z</time>
      </trkpt>
      <trkpt lat="47.26659" lon="-2.30698">
        <ele>17.60000038147</ele>
        <time>2019-06-30T07:25:34.000Z</time>
      </trkpt>
      <trkpt lat="47.26656" lon="-2.30697">
        <ele>17.200000762939</ele>
        <time>2019-06-30T07:25:35.000Z</time>
      </trkpt>
      <trkpt lat="47.26654" lon="-2.30699">
        <ele>16.799999237061</ele>
        <time>2019-06-30T07:25:36.000Z</time>
      </trkpt>
      <trkpt lat="47.26648" lon="-2.30718">
        <ele>16.799999237061</ele>
        <time>2019-06-30T07:25:40.000Z</time>
      </trkpt>
      <trkpt lat="47.26645" lon="-2.30727">
        <ele>16.39999961853</ele>
        <time>2019-06-30T07:25:42.000Z</time>
      </trkpt>
      <trkpt lat="47.26642" lon="-2.30729">
        <ele>16</ele>
        <time>2019-06-30T07:25:43.000Z</time>
      </trkpt>
      <trkpt lat="47.26639" lon="-2.30732">
        <ele>15.60000038147</ele>
        <time>2019-06-30T07:25:44.000Z</time>
      </trkpt>
      <trkpt lat="47.26636" lon="-2.30735">
        <ele>15.199999809265</ele>
        <time>2019-06-30T07:25:45.000Z</time>
      </trkpt>
      <trkpt lat="47.26633" lon="-2.30739">
        <ele>14.800000190735</ele>
        <time>2019-06-30T07:25:46.000Z</time>
      </trkpt>
      <trkpt lat="47.26625" lon="-2.3075">
        <ele>14.800000190735</ele>
        <time>2019-06-30T07:25:49.000Z</time>
      </trkpt>
      <trkpt lat="47.26615" lon="-2.30763">
        <ele>14.800000190735</ele>
        <time>2019-06-30T07:25:53.000Z</time>
      </trkpt>
      <trkpt lat="47.26612" lon="-2.30768">
        <ele>14.800000190735</ele>
        <time>2019-06-30T07:25:54.000Z</time>
      </trkpt>
      <trkpt lat="47.26594" lon="-2.30784">
        <ele>14.800000190735</ele>
        <time>2019-06-30T07:25:58.000Z</time>
      </trkpt>
      <trkpt lat="47.26575" lon="-2.30809">
        <ele>14.39999961853</ele>
        <time>2019-06-30T07:26:03.000Z</time>
      </trkpt>
      <trkpt lat="47.26572" lon="-2.30815">
        <ele>14</ele>
        <time>2019-06-30T07:26:04.000Z</time>
      </trkpt>
      <trkpt lat="47.2657" lon="-2.3082">
        <ele>13.60000038147</ele>
        <time>2019-06-30T07:26:05.000Z</time>
      </trkpt>
      <trkpt lat="47.26567" lon="-2.30824">
        <ele>13.199999809265</ele>
        <time>2019-06-30T07:26:06.000Z</time>
      </trkpt>
      <trkpt lat="47.26564" lon="-2.30828">
        <ele>12.800000190735</ele>
        <time>2019-06-30T07:26:07.000Z</time>
      </trkpt>
      <trkpt lat="47.26561" lon="-2.30832">
        <ele>12.800000190735</ele>
        <time>2019-06-30T07:26:08.000Z</time>
      </trkpt>
      <trkpt lat="47.26556" lon="-2.30838">
        <ele>12.800000190735</ele>
        <time>2019-06-30T07:26:10.000Z</time>
      </trkpt>
      <trkpt lat="47.26548" lon="-2.30845">
        <ele>12.800000190735</ele>
        <time>2019-06-30T07:26:13.000Z</time>
      </trkpt>
      <trkpt lat="47.26544" lon="-2.30849">
        <ele>12.199999809265</ele>
        <time>2019-06-30T07:26:14.000Z</time>
      </trkpt>
      <trkpt lat="47.26541" lon="-2.30853">
        <ele>11.800000190735</ele>
        <time>2019-06-30T07:26:15.000Z</time>
      </trkpt>
      <trkpt lat="47.26536" lon="-2.30857">
        <ele>11.39999961853</ele>
        <time>2019-06-30T07:26:16.000Z</time>
      </trkpt>
      <trkpt lat="47.26532" lon="-2.30861">
        <ele>11</ele>
        <time>2019-06-30T07:26:17.000Z</time>
      </trkpt>
      <trkpt lat="47.26528" lon="-2.30864">
        <ele>10.60000038147</ele>
        <time>2019-06-30T07:26:18.000Z</time>
      </trkpt>
      <trkpt lat="47.26523" lon="-2.30867">
        <ele>10.60000038147</ele>
        <time>2019-06-30T07:26:19.000Z</time>
      </trkpt>
      <trkpt lat="47.26513" lon="-2.30878">
        <ele>10.60000038147</ele>
        <time>2019-06-30T07:26:22.000Z</time>
      </trkpt>
      <trkpt lat="47.2651" lon="-2.30879">
        <ele>10.60000038147</ele>
        <time>2019-06-30T07:26:23.000Z</time>
      </trkpt>
      <trkpt lat="47.26504" lon="-2.30877">
        <ele>10.60000038147</ele>
        <time>2019-06-30T07:26:25.000Z</time>
      </trkpt>
      <trkpt lat="47.26499" lon="-2.30871">
        <ele>10.60000038147</ele>
        <time>2019-06-30T07:26:29.000Z</time>
      </trkpt>
      <trkpt lat="47.26498" lon="-2.30869">
        <ele>10.60000038147</ele>
        <time>2019-06-30T07:26:31.000Z</time>
      </trkpt>
      <trkpt lat="47.2649" lon="-2.30859">
        <ele>10.60000038147</ele>
        <time>2019-06-30T07:26:45.000Z</time>
      </trkpt>
      <trkpt lat="47.26487" lon="-2.30856">
        <ele>10.60000038147</ele>
        <time>2019-06-30T07:26:47.000Z</time>
      </trkpt>
      <trkpt lat="47.26485" lon="-2.30852">
        <ele>11</ele>
        <time>2019-06-30T07:26:49.000Z</time>
      </trkpt>
      <trkpt lat="47.26484" lon="-2.30849">
        <ele>11.39999961853</ele>
        <time>2019-06-30T07:26:50.000Z</time>
      </trkpt>
      <trkpt lat="47.26482" lon="-2.30846">
        <ele>11.800000190735</ele>
        <time>2019-06-30T07:26:51.000Z</time>
      </trkpt>
      <trkpt lat="47.2648" lon="-2.30842">
        <ele>12.199999809265</ele>
        <time>2019-06-30T07:26:52.000Z</time>
      </trkpt>
      <trkpt lat="47.26479" lon="-2.30838">
        <ele>12.60000038147</ele>
        <time>2019-06-30T07:26:53.000Z</time>
      </trkpt>
      <trkpt lat="47.26473" lon="-2.30821">
        <ele>12.60000038147</ele>
        <time>2019-06-30T07:26:57.000Z</time>
      </trkpt>
      <trkpt lat="47.26472" lon="-2.30817">
        <ele>13</ele>
        <time>2019-06-30T07:26:58.000Z</time>
      </trkpt>
      <trkpt lat="47.2647" lon="-2.30813">
        <ele>13.39999961853</ele>
        <time>2019-06-30T07:26:59.000Z</time>
      </trkpt>
      <trkpt lat="47.26469" lon="-2.30809">
        <ele>14</ele>
        <time>2019-06-30T07:27:00.000Z</time>
      </trkpt>
      <trkpt lat="47.26467" lon="-2.30804">
        <ele>14.39999961853</ele>
        <time>2019-06-30T07:27:01.000Z</time>
      </trkpt>
      <trkpt lat="47.26466" lon="-2.30799">
        <ele>14.800000190735</ele>
        <time>2019-06-30T07:27:02.000Z</time>
      </trkpt>
      <trkpt lat="47.26464" lon="-2.30794">
        <ele>14.800000190735</ele>
        <time>2019-06-30T07:27:03.000Z</time>
      </trkpt>
      <trkpt lat="47.26452" lon="-2.30764">
        <ele>14.800000190735</ele>
        <time>2019-06-30T07:27:09.000Z</time>
      </trkpt>
      <trkpt lat="47.26444" lon="-2.30745">
        <ele>15.199999809265</ele>
        <time>2019-06-30T07:27:13.000Z</time>
      </trkpt>
      <trkpt lat="47.26442" lon="-2.3074">
        <ele>15.60000038147</ele>
        <time>2019-06-30T07:27:14.000Z</time>
      </trkpt>
      <trkpt lat="47.26441" lon="-2.30736">
        <ele>16</ele>
        <time>2019-06-30T07:27:15.000Z</time>
      </trkpt>
      <trkpt lat="47.26439" lon="-2.30731">
        <ele>16.39999961853</ele>
        <time>2019-06-30T07:27:16.000Z</time>
      </trkpt>
      <trkpt lat="47.26437" lon="-2.30726">
        <ele>16.799999237061</ele>
        <time>2019-06-30T07:27:17.000Z</time>
      </trkpt>
      <trkpt lat="47.2643" lon="-2.30711">
        <ele>16.799999237061</ele>
        <time>2019-06-30T07:27:20.000Z</time>
      </trkpt>
      <trkpt lat="47.26425" lon="-2.30701">
        <ele>16.799999237061</ele>
        <time>2019-06-30T07:27:22.000Z</time>
      </trkpt>
      <trkpt lat="47.26422" lon="-2.30693">
        <ele>16.799999237061</ele>
        <time>2019-06-30T07:27:24.000Z</time>
      </trkpt>
      <trkpt lat="47.26417" lon="-2.30688">
        <ele>16.799999237061</ele>
        <time>2019-06-30T07:27:26.000Z</time>
      </trkpt>
      <trkpt lat="47.2641" lon="-2.30682">
        <ele>16.799999237061</ele>
        <time>2019-06-30T07:27:28.000Z</time>
      </trkpt>
      <trkpt lat="47.26397" lon="-2.30672">
        <ele>16.799999237061</ele>
        <time>2019-06-30T07:27:31.000Z</time>
      </trkpt>
      <trkpt lat="47.26385" lon="-2.30663">
        <ele>16.799999237061</ele>
        <time>2019-06-30T07:27:34.000Z</time>
      </trkpt>
      <trkpt lat="47.26374" lon="-2.30648">
        <ele>16.799999237061</ele>
        <time>2019-06-30T07:27:38.000Z</time>
      </trkpt>
      <trkpt lat="47.26361" lon="-2.3062">
        <ele>16.799999237061</ele>
        <time>2019-06-30T07:27:44.000Z</time>
      </trkpt>
      <trkpt lat="47.26347" lon="-2.30593">
        <ele>16.799999237061</ele>
        <time>2019-06-30T07:27:50.000Z</time>
      </trkpt>
      <trkpt lat="47.26344" lon="-2.30574">
        <ele>16.799999237061</ele>
        <time>2019-06-30T07:27:55.000Z</time>
      </trkpt>
      <trkpt lat="47.26345" lon="-2.30572">
        <ele>16.799999237061</ele>
        <time>2019-06-30T07:27:56.000Z</time>
      </trkpt>
      <trkpt lat="47.26347" lon="-2.30569">
        <ele>16.799999237061</ele>
        <time>2019-06-30T07:27:58.000Z</time>
      </trkpt>
      <trkpt lat="47.26347" lon="-2.30569">
        <ele>16.799999237061</ele>
        <time>2019-06-30T07:27:59.000Z</time>
      </trkpt>
      <trkpt lat="47.26348" lon="-2.30569">
        <ele>16.799999237061</ele>
        <time>2019-06-30T07:29:10.000Z</time>
      </trkpt>
      <trkpt lat="47.26344" lon="-2.30575">
        <ele>16.799999237061</ele>
        <time>2019-06-30T07:29:13.000Z</time>
      </trkpt>
      <trkpt lat="47.2634" lon="-2.30578">
        <ele>16.799999237061</ele>
        <time>2019-06-30T07:29:16.000Z</time>
      </trkpt>
      <trkpt lat="47.26339" lon="-2.30579">
        <ele>16.799999237061</ele>
        <time>2019-06-30T07:29:29.000Z</time>
      </trkpt>
      <trkpt lat="47.26325" lon="-2.30588">
        <ele>16.799999237061</ele>
        <time>2019-06-30T07:29:34.000Z</time>
      </trkpt>
      <trkpt lat="47.26302" lon="-2.30602">
        <ele>16.799999237061</ele>
        <time>2019-06-30T07:29:40.000Z</time>
      </trkpt>
      <trkpt lat="47.26293" lon="-2.30608">
        <ele>16.799999237061</ele>
        <time>2019-06-30T07:29:42.000Z</time>
      </trkpt>
      <trkpt lat="47.26279" lon="-2.30618">
        <ele>16.799999237061</ele>
        <time>2019-06-30T07:29:45.000Z</time>
      </trkpt>
      <trkpt lat="47.2625" lon="-2.30636">
        <ele>16.39999961853</ele>
        <time>2019-06-30T07:29:50.000Z</time>
      </trkpt>
      <trkpt lat="47.26244" lon="-2.3064">
        <ele>16</ele>
        <time>2019-06-30T07:29:51.000Z</time>
      </trkpt>
      <trkpt lat="47.26238" lon="-2.30645">
        <ele>15.60000038147</ele>
        <time>2019-06-30T07:29:52.000Z</time>
      </trkpt>
      <trkpt lat="47.26231" lon="-2.30649">
        <ele>15.199999809265</ele>
        <time>2019-06-30T07:29:53.000Z</time>
      </trkpt>
      <trkpt lat="47.26225" lon="-2.30655">
        <ele>14.800000190735</ele>
        <time>2019-06-30T07:29:54.000Z</time>
      </trkpt>
      <trkpt lat="47.26212" lon="-2.30668">
        <ele>14.800000190735</ele>
        <time>2019-06-30T07:29:56.000Z</time>
      </trkpt>
      <trkpt lat="47.26201" lon="-2.30683">
        <ele>14.39999961853</ele>
        <time>2019-06-30T07:29:58.000Z</time>
      </trkpt>
      <trkpt lat="47.26195" lon="-2.30691">
        <ele>13.800000190735</ele>
        <time>2019-06-30T07:29:59.000Z</time>
      </trkpt>
      <trkpt lat="47.26189" lon="-2.30699">
        <ele>13.39999961853</ele>
        <time>2019-06-30T07:30:00.000Z</time>
      </trkpt>
      <trkpt lat="47.26183" lon="-2.30707">
        <ele>13</ele>
        <time>2019-06-30T07:30:01.000Z</time>
      </trkpt>
      <trkpt lat="47.26177" lon="-2.30715">
        <ele>12.39999961853</ele>
        <time>2019-06-30T07:30:02.000Z</time>
      </trkpt>
      <trkpt lat="47.2617" lon="-2.30724">
        <ele>12</ele>
        <time>2019-06-30T07:30:03.000Z</time>
      </trkpt>
      <trkpt lat="47.26163" lon="-2.30732">
        <ele>11.60000038147</ele>
        <time>2019-06-30T07:30:04.000Z</time>
      </trkpt>
      <trkpt lat="47.26155" lon="-2.3074">
        <ele>11.199999809265</ele>
        <time>2019-06-30T07:30:05.000Z</time>
      </trkpt>
      <trkpt lat="47.26148" lon="-2.30747">
        <ele>10.800000190735</ele>
        <time>2019-06-30T07:30:06.000Z</time>
      </trkpt>
      <trkpt lat="47.26139" lon="-2.30753">
        <ele>10.39999961853</ele>
        <time>2019-06-30T07:30:07.000Z</time>
      </trkpt>
      <trkpt lat="47.2613" lon="-2.3076">
        <ele>9.8000001907349</ele>
        <time>2019-06-30T07:30:08.000Z</time>
      </trkpt>
      <trkpt lat="47.26121" lon="-2.30767">
        <ele>9</ele>
        <time>2019-06-30T07:30:09.000Z</time>
      </trkpt>
      <trkpt lat="47.26112" lon="-2.30774">
        <ele>8.3999996185303</ele>
        <time>2019-06-30T07:30:10.000Z</time>
      </trkpt>
      <trkpt lat="47.26103" lon="-2.3078">
        <ele>8</ele>
        <time>2019-06-30T07:30:11.000Z</time>
      </trkpt>
      <trkpt lat="47.26086" lon="-2.30792">
        <ele>8</ele>
        <time>2019-06-30T07:30:13.000Z</time>
      </trkpt>
      <trkpt lat="47.26077" lon="-2.30798">
        <ele>7.5999999046326</ele>
        <time>2019-06-30T07:30:14.000Z</time>
      </trkpt>
      <trkpt lat="47.2607" lon="-2.30804">
        <ele>7.1999998092651</ele>
        <time>2019-06-30T07:30:15.000Z</time>
      </trkpt>
      <trkpt lat="47.26062" lon="-2.30809">
        <ele>6.8000001907349</ele>
        <time>2019-06-30T07:30:16.000Z</time>
      </trkpt>
      <trkpt lat="47.26055" lon="-2.30815">
        <ele>6.4000000953674</ele>
        <time>2019-06-30T07:30:17.000Z</time>
      </trkpt>
      <trkpt lat="47.26049" lon="-2.3082">
        <ele>6</ele>
        <time>2019-06-30T07:30:18.000Z</time>
      </trkpt>
      <trkpt lat="47.26043" lon="-2.30825">
        <ele>6</ele>
        <time>2019-06-30T07:30:19.000Z</time>
      </trkpt>
      <trkpt lat="47.26021" lon="-2.30849">
        <ele>6</ele>
        <time>2019-06-30T07:30:23.000Z</time>
      </trkpt>
      <trkpt lat="47.25999" lon="-2.30884">
        <ele>6</ele>
        <time>2019-06-30T07:30:28.000Z</time>
      </trkpt>
      <trkpt lat="47.25988" lon="-2.30906">
        <ele>6.4000000953674</ele>
        <time>2019-06-30T07:30:31.000Z</time>
      </trkpt>
      <trkpt lat="47.25984" lon="-2.30913">
        <ele>6.8000001907349</ele>
        <time>2019-06-30T07:30:32.000Z</time>
      </trkpt>
      <trkpt lat="47.25981" lon="-2.3092">
        <ele>7.1999998092651</ele>
        <time>2019-06-30T07:30:33.000Z</time>
      </trkpt>
      <trkpt lat="47.25978" lon="-2.30927">
        <ele>8</ele>
        <time>2019-06-30T07:30:34.000Z</time>
      </trkpt>
      <trkpt lat="47.25974" lon="-2.30933">
        <ele>8</ele>
        <time>2019-06-30T07:30:35.000Z</time>
      </trkpt>
      <trkpt lat="47.25946" lon="-2.30979">
        <ele>8</ele>
        <time>2019-06-30T07:30:42.000Z</time>
      </trkpt>
      <trkpt lat="47.25909" lon="-2.31018">
        <ele>8.3999996185303</ele>
        <time>2019-06-30T07:30:49.000Z</time>
      </trkpt>
      <trkpt lat="47.25903" lon="-2.31024">
        <ele>8.8000001907349</ele>
        <time>2019-06-30T07:30:50.000Z</time>
      </trkpt>
      <trkpt lat="47.25897" lon="-2.31029">
        <ele>9.1999998092651</ele>
        <time>2019-06-30T07:30:51.000Z</time>
      </trkpt>
      <trkpt lat="47.25892" lon="-2.31034">
        <ele>9.6000003814697</ele>
        <time>2019-06-30T07:30:52.000Z</time>
      </trkpt>
      <trkpt lat="47.25886" lon="-2.31039">
        <ele>10</ele>
        <time>2019-06-30T07:30:53.000Z</time>
      </trkpt>
      <trkpt lat="47.2587" lon="-2.31054">
        <ele>10</ele>
        <time>2019-06-30T07:30:56.000Z</time>
      </trkpt>
      <trkpt lat="47.25832" lon="-2.31091">
        <ele>10</ele>
        <time>2019-06-30T07:31:03.000Z</time>
      </trkpt>
      <trkpt lat="47.258" lon="-2.31126">
        <ele>10</ele>
        <time>2019-06-30T07:31:09.000Z</time>
      </trkpt>
      <trkpt lat="47.25791" lon="-2.31153">
        <ele>10</ele>
        <time>2019-06-30T07:31:12.000Z</time>
      </trkpt>
      <trkpt lat="47.25793" lon="-2.31184">
        <ele>10</ele>
        <time>2019-06-30T07:31:15.000Z</time>
      </trkpt>
      <trkpt lat="47.25795" lon="-2.31194">
        <ele>9.6000003814697</ele>
        <time>2019-06-30T07:31:16.000Z</time>
      </trkpt>
      <trkpt lat="47.25798" lon="-2.31204">
        <ele>9.1999998092651</ele>
        <time>2019-06-30T07:31:17.000Z</time>
      </trkpt>
      <trkpt lat="47.25801" lon="-2.31213">
        <ele>8.8000001907349</ele>
        <time>2019-06-30T07:31:18.000Z</time>
      </trkpt>
      <trkpt lat="47.25805" lon="-2.31223">
        <ele>8.3999996185303</ele>
        <time>2019-06-30T07:31:19.000Z</time>
      </trkpt>
      <trkpt lat="47.25808" lon="-2.31233">
        <ele>8</ele>
        <time>2019-06-30T07:31:20.000Z</time>
      </trkpt>
      <trkpt lat="47.25812" lon="-2.31254">
        <ele>8</ele>
        <time>2019-06-30T07:31:22.000Z</time>
      </trkpt>
      <trkpt lat="47.25815" lon="-2.31275">
        <ele>7.4000000953674</ele>
        <time>2019-06-30T07:31:24.000Z</time>
      </trkpt>
      <trkpt lat="47.25815" lon="-2.31286">
        <ele>7</ele>
        <time>2019-06-30T07:31:25.000Z</time>
      </trkpt>
      <trkpt lat="47.25816" lon="-2.31298">
        <ele>6.5999999046326</ele>
        <time>2019-06-30T07:31:26.000Z</time>
      </trkpt>
      <trkpt lat="47.25817" lon="-2.31309">
        <ele>6</ele>
        <time>2019-06-30T07:31:27.000Z</time>
      </trkpt>
      <trkpt lat="47.25817" lon="-2.31319">
        <ele>5.5999999046326</ele>
        <time>2019-06-30T07:31:28.000Z</time>
      </trkpt>
      <trkpt lat="47.25816" lon="-2.31341">
        <ele>5.5999999046326</ele>
        <time>2019-06-30T07:31:30.000Z</time>
      </trkpt>
      <trkpt lat="47.25815" lon="-2.31352">
        <ele>5.5999999046326</ele>
        <time>2019-06-30T07:31:31.000Z</time>
      </trkpt>
      <trkpt lat="47.25812" lon="-2.31362">
        <ele>5.5999999046326</ele>
        <time>2019-06-30T07:31:32.000Z</time>
      </trkpt>
      <trkpt lat="47.25803" lon="-2.31382">
        <ele>5.5999999046326</ele>
        <time>2019-06-30T07:31:34.000Z</time>
      </trkpt>
      <trkpt lat="47.25788" lon="-2.31405">
        <ele>5.5999999046326</ele>
        <time>2019-06-30T07:31:37.000Z</time>
      </trkpt>
      <trkpt lat="47.25782" lon="-2.31412">
        <ele>5.1999998092651</ele>
        <time>2019-06-30T07:31:38.000Z</time>
      </trkpt>
      <trkpt lat="47.25778" lon="-2.31419">
        <ele>4.8000001907349</ele>
        <time>2019-06-30T07:31:39.000Z</time>
      </trkpt>
      <trkpt lat="47.25773" lon="-2.31426">
        <ele>4.4000000953674</ele>
        <time>2019-06-30T07:31:40.000Z</time>
      </trkpt>
      <trkpt lat="47.25767" lon="-2.31433">
        <ele>4</ele>
        <time>2019-06-30T07:31:41.000Z</time>
      </trkpt>
      <trkpt lat="47.25762" lon="-2.3144">
        <ele>3.5999999046326</ele>
        <time>2019-06-30T07:31:42.000Z</time>
      </trkpt>
      <trkpt lat="47.25747" lon="-2.31459">
        <ele>3.5999999046326</ele>
        <time>2019-06-30T07:31:45.000Z</time>
      </trkpt>
      <trkpt lat="47.25743" lon="-2.31465">
        <ele>3.5999999046326</ele>
        <time>2019-06-30T07:31:46.000Z</time>
      </trkpt>
      <trkpt lat="47.25725" lon="-2.3149">
        <ele>4</ele>
        <time>2019-06-30T07:31:50.000Z</time>
      </trkpt>
      <trkpt lat="47.25721" lon="-2.31496">
        <ele>4.4000000953674</ele>
        <time>2019-06-30T07:31:51.000Z</time>
      </trkpt>
      <trkpt lat="47.25716" lon="-2.31501">
        <ele>4.8000001907349</ele>
        <time>2019-06-30T07:31:52.000Z</time>
      </trkpt>
      <trkpt lat="47.25712" lon="-2.31508">
        <ele>5.1999998092651</ele>
        <time>2019-06-30T07:31:53.000Z</time>
      </trkpt>
      <trkpt lat="47.25709" lon="-2.31514">
        <ele>5.5999999046326</ele>
        <time>2019-06-30T07:31:54.000Z</time>
      </trkpt>
      <trkpt lat="47.25696" lon="-2.31543">
        <ele>5.5999999046326</ele>
        <time>2019-06-30T07:31:58.000Z</time>
      </trkpt>
      <trkpt lat="47.25683" lon="-2.31592">
        <ele>5.5999999046326</ele>
        <time>2019-06-30T07:32:04.000Z</time>
      </trkpt>
      <trkpt lat="47.25671" lon="-2.31649">
        <ele>5.5999999046326</ele>
        <time>2019-06-30T07:32:11.000Z</time>
      </trkpt>
      <trkpt lat="47.2567" lon="-2.31657">
        <ele>5.5999999046326</ele>
        <time>2019-06-30T07:32:12.000Z</time>
      </trkpt>
      <trkpt lat="47.25667" lon="-2.31684">
        <ele>5.5999999046326</ele>
        <time>2019-06-30T07:32:16.000Z</time>
      </trkpt>
      <trkpt lat="47.25654" lon="-2.31696">
        <ele>5.5999999046326</ele>
        <time>2019-06-30T07:32:19.000Z</time>
      </trkpt>
      <trkpt lat="47.25646" lon="-2.31706">
        <ele>5.5999999046326</ele>
        <time>2019-06-30T07:32:21.000Z</time>
      </trkpt>
      <trkpt lat="47.25642" lon="-2.31711">
        <ele>5.5999999046326</ele>
        <time>2019-06-30T07:32:22.000Z</time>
      </trkpt>
      <trkpt lat="47.25638" lon="-2.31715">
        <ele>5.5999999046326</ele>
        <time>2019-06-30T07:32:23.000Z</time>
      </trkpt>
      <trkpt lat="47.25628" lon="-2.31732">
        <ele>6.1999998092651</ele>
        <time>2019-06-30T07:32:26.000Z</time>
      </trkpt>
      <trkpt lat="47.25626" lon="-2.3174">
        <ele>6.5999999046326</ele>
        <time>2019-06-30T07:32:27.000Z</time>
      </trkpt>
      <trkpt lat="47.25624" lon="-2.31747">
        <ele>7</ele>
        <time>2019-06-30T07:32:28.000Z</time>
      </trkpt>
      <trkpt lat="47.25621" lon="-2.31754">
        <ele>7.4000000953674</ele>
        <time>2019-06-30T07:32:29.000Z</time>
      </trkpt>
      <trkpt lat="47.25617" lon="-2.3176">
        <ele>8</ele>
        <time>2019-06-30T07:32:30.000Z</time>
      </trkpt>
      <trkpt lat="47.25613" lon="-2.31765">
        <ele>8</ele>
        <time>2019-06-30T07:32:31.000Z</time>
      </trkpt>
      <trkpt lat="47.25597" lon="-2.31768">
        <ele>8</ele>
        <time>2019-06-30T07:32:34.000Z</time>
      </trkpt>
      <trkpt lat="47.25581" lon="-2.31773">
        <ele>8</ele>
        <time>2019-06-30T07:32:37.000Z</time>
      </trkpt>
      <trkpt lat="47.25576" lon="-2.31776">
        <ele>8</ele>
        <time>2019-06-30T07:32:38.000Z</time>
      </trkpt>
      <trkpt lat="47.25572" lon="-2.31779">
        <ele>8</ele>
        <time>2019-06-30T07:32:39.000Z</time>
      </trkpt>
      <trkpt lat="47.25565" lon="-2.31793">
        <ele>8.3999996185303</ele>
        <time>2019-06-30T07:32:42.000Z</time>
      </trkpt>
      <trkpt lat="47.25564" lon="-2.31798">
        <ele>8.8000001907349</ele>
        <time>2019-06-30T07:32:43.000Z</time>
      </trkpt>
      <trkpt lat="47.25563" lon="-2.31802">
        <ele>9.1999998092651</ele>
        <time>2019-06-30T07:32:44.000Z</time>
      </trkpt>
      <trkpt lat="47.2556" lon="-2.31805">
        <ele>9.6000003814697</ele>
        <time>2019-06-30T07:32:45.000Z</time>
      </trkpt>
      <trkpt lat="47.25558" lon="-2.31808">
        <ele>10</ele>
        <time>2019-06-30T07:32:46.000Z</time>
      </trkpt>
      <trkpt lat="47.25543" lon="-2.31811">
        <ele>10</ele>
        <time>2019-06-30T07:32:50.000Z</time>
      </trkpt>
      <trkpt lat="47.25525" lon="-2.31818">
        <ele>10</ele>
        <time>2019-06-30T07:32:56.000Z</time>
      </trkpt>
      <trkpt lat="47.25523" lon="-2.31821">
        <ele>10.39999961853</ele>
        <time>2019-06-30T07:32:57.000Z</time>
      </trkpt>
      <trkpt lat="47.25522" lon="-2.31823">
        <ele>10.800000190735</ele>
        <time>2019-06-30T07:32:58.000Z</time>
      </trkpt>
      <trkpt lat="47.25521" lon="-2.31826">
        <ele>11.199999809265</ele>
        <time>2019-06-30T07:32:59.000Z</time>
      </trkpt>
      <trkpt lat="47.25519" lon="-2.31828">
        <ele>11.60000038147</ele>
        <time>2019-06-30T07:33:00.000Z</time>
      </trkpt>
      <trkpt lat="47.25518" lon="-2.31828">
        <ele>12</ele>
        <time>2019-06-30T07:33:01.000Z</time>
      </trkpt>
      <trkpt lat="47.25518" lon="-2.31828">
        <ele>12</ele>
        <time>2019-06-30T07:33:02.000Z</time>
      </trkpt>
      <trkpt lat="47.25515" lon="-2.31829">
        <ele>12</ele>
        <time>2019-06-30T07:37:27.000Z</time>
      </trkpt>
      <trkpt lat="47.2551" lon="-2.31829">
        <ele>12</ele>
        <time>2019-06-30T07:37:29.000Z</time>
      </trkpt>
      <trkpt lat="47.25492" lon="-2.31826">
        <ele>12</ele>
        <time>2019-06-30T07:37:34.000Z</time>
      </trkpt>
      <trkpt lat="47.25488" lon="-2.31827">
        <ele>12</ele>
        <time>2019-06-30T07:37:35.000Z</time>
      </trkpt>
      <trkpt lat="47.2548" lon="-2.31832">
        <ele>12.60000038147</ele>
        <time>2019-06-30T07:37:37.000Z</time>
      </trkpt>
      <trkpt lat="47.25476" lon="-2.31836">
        <ele>13</ele>
        <time>2019-06-30T07:37:38.000Z</time>
      </trkpt>
      <trkpt lat="47.25472" lon="-2.3184">
        <ele>13.39999961853</ele>
        <time>2019-06-30T07:37:39.000Z</time>
      </trkpt>
      <trkpt lat="47.25467" lon="-2.31844">
        <ele>13.800000190735</ele>
        <time>2019-06-30T07:37:40.000Z</time>
      </trkpt>
      <trkpt lat="47.25463" lon="-2.31846">
        <ele>14.199999809265</ele>
        <time>2019-06-30T07:37:41.000Z</time>
      </trkpt>
      <trkpt lat="47.25458" lon="-2.31843">
        <ele>14.199999809265</ele>
        <time>2019-06-30T07:37:42.000Z</time>
      </trkpt>
      <trkpt lat="47.2545" lon="-2.31823">
        <ele>14.199999809265</ele>
        <time>2019-06-30T07:37:45.000Z</time>
      </trkpt>
      <trkpt lat="47.25446" lon="-2.318">
        <ele>14.199999809265</ele>
        <time>2019-06-30T07:37:48.000Z</time>
      </trkpt>
      <trkpt lat="47.25441" lon="-2.31778">
        <ele>14.199999809265</ele>
        <time>2019-06-30T07:37:51.000Z</time>
      </trkpt>
      <trkpt lat="47.25439" lon="-2.3177">
        <ele>14.199999809265</ele>
        <time>2019-06-30T07:37:52.000Z</time>
      </trkpt>
      <trkpt lat="47.2543" lon="-2.31742">
        <ele>14.199999809265</ele>
        <time>2019-06-30T07:37:56.000Z</time>
      </trkpt>
      <trkpt lat="47.25415" lon="-2.31696">
        <ele>14.199999809265</ele>
        <time>2019-06-30T07:38:03.000Z</time>
      </trkpt>
      <trkpt lat="47.25397" lon="-2.31658">
        <ele>14.199999809265</ele>
        <time>2019-06-30T07:38:09.000Z</time>
      </trkpt>
      <trkpt lat="47.25389" lon="-2.31641">
        <ele>14.60000038147</ele>
        <time>2019-06-30T07:38:12.000Z</time>
      </trkpt>
      <trkpt lat="47.25386" lon="-2.31636">
        <ele>15</ele>
        <time>2019-06-30T07:38:13.000Z</time>
      </trkpt>
      <trkpt lat="47.25383" lon="-2.31631">
        <ele>15.39999961853</ele>
        <time>2019-06-30T07:38:14.000Z</time>
      </trkpt>
      <trkpt lat="47.2538" lon="-2.31626">
        <ele>15.800000190735</ele>
        <time>2019-06-30T07:38:15.000Z</time>
      </trkpt>
      <trkpt lat="47.25377" lon="-2.31621">
        <ele>16.39999961853</ele>
        <time>2019-06-30T07:38:16.000Z</time>
      </trkpt>
      <trkpt lat="47.25374" lon="-2.31616">
        <ele>16.39999961853</ele>
        <time>2019-06-30T07:38:17.000Z</time>
      </trkpt>
      <trkpt lat="47.25362" lon="-2.31597">
        <ele>16.39999961853</ele>
        <time>2019-06-30T07:38:21.000Z</time>
      </trkpt>
      <trkpt lat="47.25344" lon="-2.31564">
        <ele>16.39999961853</ele>
        <time>2019-06-30T07:38:27.000Z</time>
      </trkpt>
      <trkpt lat="47.25341" lon="-2.31558">
        <ele>16.39999961853</ele>
        <time>2019-06-30T07:38:28.000Z</time>
      </trkpt>
      <trkpt lat="47.25337" lon="-2.31545">
        <ele>16.39999961853</ele>
        <time>2019-06-30T07:38:30.000Z</time>
      </trkpt>
      <trkpt lat="47.25334" lon="-2.31532">
        <ele>16.799999237061</ele>
        <time>2019-06-30T07:38:32.000Z</time>
      </trkpt>
      <trkpt lat="47.25332" lon="-2.31526">
        <ele>17.200000762939</ele>
        <time>2019-06-30T07:38:33.000Z</time>
      </trkpt>
      <trkpt lat="47.2533" lon="-2.3152">
        <ele>17.60000038147</ele>
        <time>2019-06-30T07:38:34.000Z</time>
      </trkpt>
      <trkpt lat="47.25329" lon="-2.31514">
        <ele>18</ele>
        <time>2019-06-30T07:38:35.000Z</time>
      </trkpt>
      <trkpt lat="47.25328" lon="-2.31507">
        <ele>18.39999961853</ele>
        <time>2019-06-30T07:38:36.000Z</time>
      </trkpt>
      <trkpt lat="47.25322" lon="-2.31466">
        <ele>18.39999961853</ele>
        <time>2019-06-30T07:38:42.000Z</time>
      </trkpt>
      <trkpt lat="47.25319" lon="-2.31446">
        <ele>18.39999961853</ele>
        <time>2019-06-30T07:38:45.000Z</time>
      </trkpt>
      <trkpt lat="47.25316" lon="-2.31432">
        <ele>18.39999961853</ele>
        <time>2019-06-30T07:38:47.000Z</time>
      </trkpt>
      <trkpt lat="47.25317" lon="-2.31425">
        <ele>18.39999961853</ele>
        <time>2019-06-30T07:38:48.000Z</time>
      </trkpt>
      <trkpt lat="47.25325" lon="-2.31398">
        <ele>18.39999961853</ele>
        <time>2019-06-30T07:38:52.000Z</time>
      </trkpt>
      <trkpt lat="47.25327" lon="-2.31391">
        <ele>18.39999961853</ele>
        <time>2019-06-30T07:38:53.000Z</time>
      </trkpt>
      <trkpt lat="47.25329" lon="-2.31384">
        <ele>18.39999961853</ele>
        <time>2019-06-30T07:38:54.000Z</time>
      </trkpt>
      <trkpt lat="47.25334" lon="-2.31351">
        <ele>18.39999961853</ele>
        <time>2019-06-30T07:38:58.000Z</time>
      </trkpt>
      <trkpt lat="47.25342" lon="-2.31283">
        <ele>18.39999961853</ele>
        <time>2019-06-30T07:39:05.000Z</time>
      </trkpt>
      <trkpt lat="47.25343" lon="-2.31229">
        <ele>18</ele>
        <time>2019-06-30T07:39:10.000Z</time>
      </trkpt>
      <trkpt lat="47.25343" lon="-2.31218">
        <ele>17.60000038147</ele>
        <time>2019-06-30T07:39:11.000Z</time>
      </trkpt>
      <trkpt lat="47.25342" lon="-2.31207">
        <ele>16.799999237061</ele>
        <time>2019-06-30T07:39:12.000Z</time>
      </trkpt>
      <trkpt lat="47.25342" lon="-2.31195">
        <ele>16.39999961853</ele>
        <time>2019-06-30T07:39:13.000Z</time>
      </trkpt>
      <trkpt lat="47.25338" lon="-2.31164">
        <ele>16.39999961853</ele>
        <time>2019-06-30T07:39:16.000Z</time>
      </trkpt>
      <trkpt lat="47.25334" lon="-2.31156">
        <ele>16</ele>
        <time>2019-06-30T07:39:17.000Z</time>
      </trkpt>
      <trkpt lat="47.2533" lon="-2.31149">
        <ele>15.60000038147</ele>
        <time>2019-06-30T07:39:18.000Z</time>
      </trkpt>
      <trkpt lat="47.25325" lon="-2.31142">
        <ele>15</ele>
        <time>2019-06-30T07:39:19.000Z</time>
      </trkpt>
      <trkpt lat="47.25323" lon="-2.31135">
        <ele>14.60000038147</ele>
        <time>2019-06-30T07:39:20.000Z</time>
      </trkpt>
      <trkpt lat="47.2532" lon="-2.31127">
        <ele>14.199999809265</ele>
        <time>2019-06-30T07:39:21.000Z</time>
      </trkpt>
      <trkpt lat="47.25321" lon="-2.31105">
        <ele>14.199999809265</ele>
        <time>2019-06-30T07:39:24.000Z</time>
      </trkpt>
      <trkpt lat="47.25324" lon="-2.31083">
        <ele>14.199999809265</ele>
        <time>2019-06-30T07:39:28.000Z</time>
      </trkpt>
      <trkpt lat="47.25327" lon="-2.3108">
        <ele>14.199999809265</ele>
        <time>2019-06-30T07:39:29.000Z</time>
      </trkpt>
      <trkpt lat="47.25346" lon="-2.31069">
        <ele>14.199999809265</ele>
        <time>2019-06-30T07:39:34.000Z</time>
      </trkpt>
      <trkpt lat="47.2535" lon="-2.31068">
        <ele>14.199999809265</ele>
        <time>2019-06-30T07:39:35.000Z</time>
      </trkpt>
      <trkpt lat="47.2537" lon="-2.31065">
        <ele>14.199999809265</ele>
        <time>2019-06-30T07:39:39.000Z</time>
      </trkpt>
      <trkpt lat="47.25401" lon="-2.31062">
        <ele>14.199999809265</ele>
        <time>2019-06-30T07:39:45.000Z</time>
      </trkpt>
      <trkpt lat="47.25412" lon="-2.31059">
        <ele>14.199999809265</ele>
        <time>2019-06-30T07:39:47.000Z</time>
      </trkpt>
      <trkpt lat="47.25438" lon="-2.31053">
        <ele>14.199999809265</ele>
        <time>2019-06-30T07:39:53.000Z</time>
      </trkpt>
      <trkpt lat="47.25464" lon="-2.31042">
        <ele>14.199999809265</ele>
        <time>2019-06-30T07:39:59.000Z</time>
      </trkpt>
      <trkpt lat="47.25469" lon="-2.31039">
        <ele>14.199999809265</ele>
        <time>2019-06-30T07:40:00.000Z</time>
      </trkpt>
      <trkpt lat="47.25487" lon="-2.31029">
        <ele>14.199999809265</ele>
        <time>2019-06-30T07:40:04.000Z</time>
      </trkpt>
      <trkpt lat="47.25492" lon="-2.31027">
        <ele>14.199999809265</ele>
        <time>2019-06-30T07:40:07.000Z</time>
      </trkpt>
      <trkpt lat="47.25498" lon="-2.31027">
        <ele>14.199999809265</ele>
        <time>2019-06-30T07:40:13.000Z</time>
      </trkpt>
      <trkpt lat="47.25506" lon="-2.31028">
        <ele>14.199999809265</ele>
        <time>2019-06-30T07:40:20.000Z</time>
      </trkpt>
      <trkpt lat="47.25508" lon="-2.31028">
        <ele>14.199999809265</ele>
        <time>2019-06-30T07:40:24.000Z</time>
      </trkpt>
      <trkpt lat="47.25511" lon="-2.31029">
        <ele>14.199999809265</ele>
        <time>2019-06-30T07:40:27.000Z</time>
      </trkpt>
      <trkpt lat="47.25513" lon="-2.3103">
        <ele>14.199999809265</ele>
        <time>2019-06-30T07:40:29.000Z</time>
      </trkpt>
      <trkpt lat="47.25518" lon="-2.31028">
        <ele>14.199999809265</ele>
        <time>2019-06-30T07:40:31.000Z</time>
      </trkpt>
      <trkpt lat="47.2552" lon="-2.31027">
        <ele>14.199999809265</ele>
        <time>2019-06-30T07:40:32.000Z</time>
      </trkpt>
      <trkpt lat="47.25521" lon="-2.31028">
        <ele>13.800000190735</ele>
        <time>2019-06-30T07:40:33.000Z</time>
      </trkpt>
      <trkpt lat="47.25523" lon="-2.31029">
        <ele>13.39999961853</ele>
        <time>2019-06-30T07:40:34.000Z</time>
      </trkpt>
      <trkpt lat="47.25524" lon="-2.3103">
        <ele>13</ele>
        <time>2019-06-30T07:40:35.000Z</time>
      </trkpt>
      <trkpt lat="47.25525" lon="-2.31032">
        <ele>12.60000038147</ele>
        <time>2019-06-30T07:40:36.000Z</time>
      </trkpt>
      <trkpt lat="47.25524" lon="-2.31032">
        <ele>12.199999809265</ele>
        <time>2019-06-30T07:40:37.000Z</time>
      </trkpt>
      <trkpt lat="47.25523" lon="-2.31032">
        <ele>12.199999809265</ele>
        <time>2019-06-30T07:40:38.000Z</time>
      </trkpt>
      <trkpt lat="47.2552" lon="-2.31027">
        <ele>12.199999809265</ele>
        <time>2019-06-30T07:40:40.000Z</time>
      </trkpt>
      <trkpt lat="47.25515" lon="-2.31008">
        <ele>12.60000038147</ele>
        <time>2019-06-30T07:40:46.000Z</time>
      </trkpt>
      <trkpt lat="47.25515" lon="-2.31002">
        <ele>13</ele>
        <time>2019-06-30T07:40:47.000Z</time>
      </trkpt>
      <trkpt lat="47.25516" lon="-2.30997">
        <ele>13.39999961853</ele>
        <time>2019-06-30T07:40:48.000Z</time>
      </trkpt>
      <trkpt lat="47.25517" lon="-2.30991">
        <ele>14</ele>
        <time>2019-06-30T07:40:49.000Z</time>
      </trkpt>
      <trkpt lat="47.25518" lon="-2.30985">
        <ele>14.39999961853</ele>
        <time>2019-06-30T07:40:50.000Z</time>
      </trkpt>
      <trkpt lat="47.25522" lon="-2.30966">
        <ele>14.39999961853</ele>
        <time>2019-06-30T07:40:53.000Z</time>
      </trkpt>
      <trkpt lat="47.25525" lon="-2.30948">
        <ele>14.39999961853</ele>
        <time>2019-06-30T07:40:56.000Z</time>
      </trkpt>
      <trkpt lat="47.25531" lon="-2.3093">
        <ele>14.39999961853</ele>
        <time>2019-06-30T07:41:01.000Z</time>
      </trkpt>
      <trkpt lat="47.25546" lon="-2.30916">
        <ele>14.39999961853</ele>
        <time>2019-06-30T07:41:07.000Z</time>
      </trkpt>
      <trkpt lat="47.25565" lon="-2.30915">
        <ele>14.39999961853</ele>
        <time>2019-06-30T07:41:12.000Z</time>
      </trkpt>
      <trkpt lat="47.25586" lon="-2.30907">
        <ele>14.39999961853</ele>
        <time>2019-06-30T07:41:18.000Z</time>
      </trkpt>
      <trkpt lat="47.25596" lon="-2.30885">
        <ele>14.39999961853</ele>
        <time>2019-06-30T07:41:23.000Z</time>
      </trkpt>
      <trkpt lat="47.25599" lon="-2.30873">
        <ele>14.39999961853</ele>
        <time>2019-06-30T07:41:25.000Z</time>
      </trkpt>
      <trkpt lat="47.25602" lon="-2.30847">
        <ele>14.39999961853</ele>
        <time>2019-06-30T07:41:29.000Z</time>
      </trkpt>
      <trkpt lat="47.25605" lon="-2.308">
        <ele>14.39999961853</ele>
        <time>2019-06-30T07:41:36.000Z</time>
      </trkpt>
      <trkpt lat="47.25609" lon="-2.30746">
        <ele>14.39999961853</ele>
        <time>2019-06-30T07:41:44.000Z</time>
      </trkpt>
      <trkpt lat="47.25616" lon="-2.30717">
        <ele>14.39999961853</ele>
        <time>2019-06-30T07:41:48.000Z</time>
      </trkpt>
      <trkpt lat="47.2562" lon="-2.30704">
        <ele>14.39999961853</ele>
        <time>2019-06-30T07:41:50.000Z</time>
      </trkpt>
      <trkpt lat="47.25627" lon="-2.30686">
        <ele>14.39999961853</ele>
        <time>2019-06-30T07:41:54.000Z</time>
      </trkpt>
      <trkpt lat="47.25635" lon="-2.30677">
        <ele>14.39999961853</ele>
        <time>2019-06-30T07:42:00.000Z</time>
      </trkpt>
      <trkpt lat="47.25637" lon="-2.30674">
        <ele>14.39999961853</ele>
        <time>2019-06-30T07:42:02.000Z</time>
      </trkpt>
      <trkpt lat="47.25638" lon="-2.30669">
        <ele>14.39999961853</ele>
        <time>2019-06-30T07:42:04.000Z</time>
      </trkpt>
      <trkpt lat="47.25639" lon="-2.30661">
        <ele>14.39999961853</ele>
        <time>2019-06-30T07:42:06.000Z</time>
      </trkpt>
      <trkpt lat="47.25641" lon="-2.30652">
        <ele>14.39999961853</ele>
        <time>2019-06-30T07:42:08.000Z</time>
      </trkpt>
      <trkpt lat="47.25645" lon="-2.3064">
        <ele>14.39999961853</ele>
        <time>2019-06-30T07:42:12.000Z</time>
      </trkpt>
      <trkpt lat="47.25645" lon="-2.30636">
        <ele>14.39999961853</ele>
        <time>2019-06-30T07:42:14.000Z</time>
      </trkpt>
      <trkpt lat="47.25643" lon="-2.3063">
        <ele>14.39999961853</ele>
        <time>2019-06-30T07:42:16.000Z</time>
      </trkpt>
      <trkpt lat="47.25637" lon="-2.3062">
        <ele>14.39999961853</ele>
        <time>2019-06-30T07:42:18.000Z</time>
      </trkpt>
      <trkpt lat="47.2563" lon="-2.3061">
        <ele>14.39999961853</ele>
        <time>2019-06-30T07:42:20.000Z</time>
      </trkpt>
      <trkpt lat="47.25606" lon="-2.30585">
        <ele>14.39999961853</ele>
        <time>2019-06-30T07:42:26.000Z</time>
      </trkpt>
      <trkpt lat="47.25597" lon="-2.30579">
        <ele>14.39999961853</ele>
        <time>2019-06-30T07:42:28.000Z</time>
      </trkpt>
      <trkpt lat="47.25583" lon="-2.30571">
        <ele>14.39999961853</ele>
        <time>2019-06-30T07:42:31.000Z</time>
      </trkpt>
      <trkpt lat="47.25579" lon="-2.3057">
        <ele>14.39999961853</ele>
        <time>2019-06-30T07:42:32.000Z</time>
      </trkpt>
      <trkpt lat="47.25571" lon="-2.30567">
        <ele>14.39999961853</ele>
        <time>2019-06-30T07:42:34.000Z</time>
      </trkpt>
      <trkpt lat="47.25559" lon="-2.30566">
        <ele>14.39999961853</ele>
        <time>2019-06-30T07:42:37.000Z</time>
      </trkpt>
      <trkpt lat="47.25532" lon="-2.30564">
        <ele>14.39999961853</ele>
        <time>2019-06-30T07:42:44.000Z</time>
      </trkpt>
      <trkpt lat="47.2553" lon="-2.30559">
        <ele>14.39999961853</ele>
        <time>2019-06-30T07:42:45.000Z</time>
      </trkpt>
      <trkpt lat="47.25529" lon="-2.30553">
        <ele>14.800000190735</ele>
        <time>2019-06-30T07:42:46.000Z</time>
      </trkpt>
      <trkpt lat="47.25528" lon="-2.30547">
        <ele>15.199999809265</ele>
        <time>2019-06-30T07:42:47.000Z</time>
      </trkpt>
      <trkpt lat="47.25527" lon="-2.30541">
        <ele>15.60000038147</ele>
        <time>2019-06-30T07:42:48.000Z</time>
      </trkpt>
      <trkpt lat="47.25527" lon="-2.30535">
        <ele>16</ele>
        <time>2019-06-30T07:42:49.000Z</time>
      </trkpt>
      <trkpt lat="47.25527" lon="-2.30529">
        <ele>16.39999961853</ele>
        <time>2019-06-30T07:42:50.000Z</time>
      </trkpt>
      <trkpt lat="47.25526" lon="-2.3051">
        <ele>16.39999961853</ele>
        <time>2019-06-30T07:42:53.000Z</time>
      </trkpt>
      <trkpt lat="47.25524" lon="-2.3046">
        <ele>16.39999961853</ele>
        <time>2019-06-30T07:43:01.000Z</time>
      </trkpt>
      <trkpt lat="47.25521" lon="-2.30422">
        <ele>16.39999961853</ele>
        <time>2019-06-30T07:43:07.000Z</time>
      </trkpt>
      <trkpt lat="47.25523" lon="-2.3039">
        <ele>16.39999961853</ele>
        <time>2019-06-30T07:43:13.000Z</time>
      </trkpt>
      <trkpt lat="47.25533" lon="-2.30381">
        <ele>16.39999961853</ele>
        <time>2019-06-30T07:43:16.000Z</time>
      </trkpt>
      <trkpt lat="47.25537" lon="-2.30379">
        <ele>16.39999961853</ele>
        <time>2019-06-30T07:43:17.000Z</time>
      </trkpt>
      <trkpt lat="47.2556" lon="-2.30373">
        <ele>16.39999961853</ele>
        <time>2019-06-30T07:43:22.000Z</time>
      </trkpt>
      <trkpt lat="47.25593" lon="-2.30364">
        <ele>16.39999961853</ele>
        <time>2019-06-30T07:43:29.000Z</time>
      </trkpt>
      <trkpt lat="47.25625" lon="-2.30358">
        <ele>16.39999961853</ele>
        <time>2019-06-30T07:43:35.000Z</time>
      </trkpt>
      <trkpt lat="47.25629" lon="-2.30355">
        <ele>16.39999961853</ele>
        <time>2019-06-30T07:43:36.000Z</time>
      </trkpt>
      <trkpt lat="47.25632" lon="-2.30344">
        <ele>16.39999961853</ele>
        <time>2019-06-30T07:43:38.000Z</time>
      </trkpt>
      <trkpt lat="47.25631" lon="-2.30326">
        <ele>16.39999961853</ele>
        <time>2019-06-30T07:43:41.000Z</time>
      </trkpt>
      <trkpt lat="47.25629" lon="-2.30313">
        <ele>16.39999961853</ele>
        <time>2019-06-30T07:43:43.000Z</time>
      </trkpt>
      <trkpt lat="47.25622" lon="-2.30263">
        <ele>16.39999961853</ele>
        <time>2019-06-30T07:43:50.000Z</time>
      </trkpt>
      <trkpt lat="47.25614" lon="-2.30236">
        <ele>16.39999961853</ele>
        <time>2019-06-30T07:43:54.000Z</time>
      </trkpt>
      <trkpt lat="47.25608" lon="-2.30223">
        <ele>16.39999961853</ele>
        <time>2019-06-30T07:43:56.000Z</time>
      </trkpt>
      <trkpt lat="47.25591" lon="-2.30202">
        <ele>16.39999961853</ele>
        <time>2019-06-30T07:44:00.000Z</time>
      </trkpt>
      <trkpt lat="47.25587" lon="-2.30198">
        <ele>16.39999961853</ele>
        <time>2019-06-30T07:44:01.000Z</time>
      </trkpt>
      <trkpt lat="47.25583" lon="-2.30195">
        <ele>16.39999961853</ele>
        <time>2019-06-30T07:44:02.000Z</time>
      </trkpt>
      <trkpt lat="47.25569" lon="-2.30189">
        <ele>16.39999961853</ele>
        <time>2019-06-30T07:44:05.000Z</time>
      </trkpt>
      <trkpt lat="47.25564" lon="-2.30188">
        <ele>16.39999961853</ele>
        <time>2019-06-30T07:44:06.000Z</time>
      </trkpt>
      <trkpt lat="47.2555" lon="-2.30192">
        <ele>16.39999961853</ele>
        <time>2019-06-30T07:44:09.000Z</time>
      </trkpt>
      <trkpt lat="47.25545" lon="-2.30195">
        <ele>16.39999961853</ele>
        <time>2019-06-30T07:44:10.000Z</time>
      </trkpt>
      <trkpt lat="47.25536" lon="-2.30198">
        <ele>16.39999961853</ele>
        <time>2019-06-30T07:44:12.000Z</time>
      </trkpt>
      <trkpt lat="47.2553" lon="-2.30201">
        <ele>16.39999961853</ele>
        <time>2019-06-30T07:44:14.000Z</time>
      </trkpt>
      <trkpt lat="47.25517" lon="-2.30199">
        <ele>16.39999961853</ele>
        <time>2019-06-30T07:44:18.000Z</time>
      </trkpt>
      <trkpt lat="47.25509" lon="-2.30201">
        <ele>16.39999961853</ele>
        <time>2019-06-30T07:44:21.000Z</time>
      </trkpt>
      <trkpt lat="47.25505" lon="-2.30204">
        <ele>16.39999961853</ele>
        <time>2019-06-30T07:44:22.000Z</time>
      </trkpt>
      <trkpt lat="47.25502" lon="-2.30206">
        <ele>16.799999237061</ele>
        <time>2019-06-30T07:44:23.000Z</time>
      </trkpt>
      <trkpt lat="47.25499" lon="-2.30209">
        <ele>17.200000762939</ele>
        <time>2019-06-30T07:44:24.000Z</time>
      </trkpt>
      <trkpt lat="47.25495" lon="-2.30211">
        <ele>17.60000038147</ele>
        <time>2019-06-30T07:44:25.000Z</time>
      </trkpt>
      <trkpt lat="47.25492" lon="-2.30215">
        <ele>18</ele>
        <time>2019-06-30T07:44:26.000Z</time>
      </trkpt>
      <trkpt lat="47.2549" lon="-2.30218">
        <ele>18.39999961853</ele>
        <time>2019-06-30T07:44:27.000Z</time>
      </trkpt>
      <trkpt lat="47.25482" lon="-2.30239">
        <ele>18.39999961853</ele>
        <time>2019-06-30T07:44:31.000Z</time>
      </trkpt>
      <trkpt lat="47.25479" lon="-2.30242">
        <ele>18.39999961853</ele>
        <time>2019-06-30T07:44:32.000Z</time>
      </trkpt>
      <trkpt lat="47.25474" lon="-2.30246">
        <ele>18.39999961853</ele>
        <time>2019-06-30T07:44:34.000Z</time>
      </trkpt>
      <trkpt lat="47.25463" lon="-2.30242">
        <ele>18.39999961853</ele>
        <time>2019-06-30T07:44:37.000Z</time>
      </trkpt>
      <trkpt lat="47.25455" lon="-2.3024">
        <ele>18.39999961853</ele>
        <time>2019-06-30T07:44:39.000Z</time>
      </trkpt>
      <trkpt lat="47.25446" lon="-2.30238">
        <ele>18.799999237061</ele>
        <time>2019-06-30T07:44:41.000Z</time>
      </trkpt>
      <trkpt lat="47.25441" lon="-2.30237">
        <ele>19.200000762939</ele>
        <time>2019-06-30T07:44:42.000Z</time>
      </trkpt>
      <trkpt lat="47.25437" lon="-2.30236">
        <ele>19.60000038147</ele>
        <time>2019-06-30T07:44:43.000Z</time>
      </trkpt>
      <trkpt lat="47.25433" lon="-2.30233">
        <ele>20</ele>
        <time>2019-06-30T07:44:44.000Z</time>
      </trkpt>
      <trkpt lat="47.25428" lon="-2.30232">
        <ele>20.39999961853</ele>
        <time>2019-06-30T07:44:45.000Z</time>
      </trkpt>
      <trkpt lat="47.25416" lon="-2.30229">
        <ele>20.39999961853</ele>
        <time>2019-06-30T07:44:47.000Z</time>
      </trkpt>
      <trkpt lat="47.25397" lon="-2.30221">
        <ele>20.39999961853</ele>
        <time>2019-06-30T07:44:51.000Z</time>
      </trkpt>
      <trkpt lat="47.25373" lon="-2.30213">
        <ele>20.39999961853</ele>
        <time>2019-06-30T07:44:57.000Z</time>
      </trkpt>
      <trkpt lat="47.25348" lon="-2.30212">
        <ele>20.799999237061</ele>
        <time>2019-06-30T07:45:02.000Z</time>
      </trkpt>
      <trkpt lat="47.25343" lon="-2.30212">
        <ele>21.200000762939</ele>
        <time>2019-06-30T07:45:03.000Z</time>
      </trkpt>
      <trkpt lat="47.25338" lon="-2.30212">
        <ele>21.60000038147</ele>
        <time>2019-06-30T07:45:04.000Z</time>
      </trkpt>
      <trkpt lat="47.25333" lon="-2.30211">
        <ele>22</ele>
        <time>2019-06-30T07:45:05.000Z</time>
      </trkpt>
      <trkpt lat="47.25328" lon="-2.30211">
        <ele>22.39999961853</ele>
        <time>2019-06-30T07:45:06.000Z</time>
      </trkpt>
      <trkpt lat="47.25319" lon="-2.30209">
        <ele>22.39999961853</ele>
        <time>2019-06-30T07:45:08.000Z</time>
      </trkpt>
      <trkpt lat="47.25315" lon="-2.30207">
        <ele>22.39999961853</ele>
        <time>2019-06-30T07:45:09.000Z</time>
      </trkpt>
      <trkpt lat="47.25309" lon="-2.30209">
        <ele>22.39999961853</ele>
        <time>2019-06-30T07:45:11.000Z</time>
      </trkpt>
      <trkpt lat="47.25308" lon="-2.30212">
        <ele>22.39999961853</ele>
        <time>2019-06-30T07:45:12.000Z</time>
      </trkpt>
      <trkpt lat="47.25299" lon="-2.30211">
        <ele>22.39999961853</ele>
        <time>2019-06-30T07:45:15.000Z</time>
      </trkpt>
      <trkpt lat="47.25295" lon="-2.30209">
        <ele>22.39999961853</ele>
        <time>2019-06-30T07:45:16.000Z</time>
      </trkpt>
      <trkpt lat="47.25279" lon="-2.30202">
        <ele>22.39999961853</ele>
        <time>2019-06-30T07:45:20.000Z</time>
      </trkpt>
      <trkpt lat="47.2527" lon="-2.30199">
        <ele>22.799999237061</ele>
        <time>2019-06-30T07:45:22.000Z</time>
      </trkpt>
      <trkpt lat="47.25267" lon="-2.30197">
        <ele>23.200000762939</ele>
        <time>2019-06-30T07:45:23.000Z</time>
      </trkpt>
      <trkpt lat="47.25263" lon="-2.30194">
        <ele>24</ele>
        <time>2019-06-30T07:45:24.000Z</time>
      </trkpt>
      <trkpt lat="47.25261" lon="-2.30192">
        <ele>24.39999961853</ele>
        <time>2019-06-30T07:45:25.000Z</time>
      </trkpt>
      <trkpt lat="47.25258" lon="-2.30191">
        <ele>24.39999961853</ele>
        <time>2019-06-30T07:45:26.000Z</time>
      </trkpt>
      <trkpt lat="47.25236" lon="-2.30182">
        <ele>24.39999961853</ele>
        <time>2019-06-30T07:45:32.000Z</time>
      </trkpt>
      <trkpt lat="47.25222" lon="-2.30171">
        <ele>25</ele>
        <time>2019-06-30T07:45:36.000Z</time>
      </trkpt>
      <trkpt lat="47.25217" lon="-2.30166">
        <ele>25.39999961853</ele>
        <time>2019-06-30T07:45:37.000Z</time>
      </trkpt>
      <trkpt lat="47.25213" lon="-2.30162">
        <ele>25.799999237061</ele>
        <time>2019-06-30T07:45:38.000Z</time>
      </trkpt>
      <trkpt lat="47.25208" lon="-2.30158">
        <ele>26.39999961853</ele>
        <time>2019-06-30T07:45:39.000Z</time>
      </trkpt>
      <trkpt lat="47.25204" lon="-2.30154">
        <ele>26.799999237061</ele>
        <time>2019-06-30T07:45:40.000Z</time>
      </trkpt>
      <trkpt lat="47.252" lon="-2.30151">
        <ele>26.799999237061</ele>
        <time>2019-06-30T07:45:41.000Z</time>
      </trkpt>
      <trkpt lat="47.25197" lon="-2.30145">
        <ele>26.799999237061</ele>
        <time>2019-06-30T07:45:42.000Z</time>
      </trkpt>
      <trkpt lat="47.25188" lon="-2.30128">
        <ele>26.799999237061</ele>
        <time>2019-06-30T07:45:45.000Z</time>
      </trkpt>
      <trkpt lat="47.25181" lon="-2.30123">
        <ele>26.799999237061</ele>
        <time>2019-06-30T07:45:47.000Z</time>
      </trkpt>
      <trkpt lat="47.25176" lon="-2.30122">
        <ele>26.799999237061</ele>
        <time>2019-06-30T07:45:48.000Z</time>
      </trkpt>
      <trkpt lat="47.2517" lon="-2.30122">
        <ele>27.200000762939</ele>
        <time>2019-06-30T07:45:49.000Z</time>
      </trkpt>
      <trkpt lat="47.25165" lon="-2.30124">
        <ele>27.60000038147</ele>
        <time>2019-06-30T07:45:50.000Z</time>
      </trkpt>
      <trkpt lat="47.2516" lon="-2.30125">
        <ele>28</ele>
        <time>2019-06-30T07:45:51.000Z</time>
      </trkpt>
      <trkpt lat="47.25155" lon="-2.30127">
        <ele>28.39999961853</ele>
        <time>2019-06-30T07:45:52.000Z</time>
      </trkpt>
      <trkpt lat="47.2515" lon="-2.30127">
        <ele>29</ele>
        <time>2019-06-30T07:45:53.000Z</time>
      </trkpt>
      <trkpt lat="47.25131" lon="-2.3013">
        <ele>29</ele>
        <time>2019-06-30T07:45:57.000Z</time>
      </trkpt>
      <trkpt lat="47.25127" lon="-2.3013">
        <ele>29</ele>
        <time>2019-06-30T07:45:58.000Z</time>
      </trkpt>
      <trkpt lat="47.25108" lon="-2.30133">
        <ele>29</ele>
        <time>2019-06-30T07:46:03.000Z</time>
      </trkpt>
      <trkpt lat="47.25087" lon="-2.30135">
        <ele>29.39999961853</ele>
        <time>2019-06-30T07:46:08.000Z</time>
      </trkpt>
      <trkpt lat="47.25083" lon="-2.30134">
        <ele>29.799999237061</ele>
        <time>2019-06-30T07:46:09.000Z</time>
      </trkpt>
      <trkpt lat="47.2508" lon="-2.30135">
        <ele>30.200000762939</ele>
        <time>2019-06-30T07:46:10.000Z</time>
      </trkpt>
      <trkpt lat="47.25077" lon="-2.30136">
        <ele>30.60000038147</ele>
        <time>2019-06-30T07:46:11.000Z</time>
      </trkpt>
      <trkpt lat="47.25074" lon="-2.30137">
        <ele>31</ele>
        <time>2019-06-30T07:46:12.000Z</time>
      </trkpt>
      <trkpt lat="47.2507" lon="-2.30138">
        <ele>31</ele>
        <time>2019-06-30T07:46:14.000Z</time>
      </trkpt>
      <trkpt lat="47.25067" lon="-2.30137">
        <ele>31</ele>
        <time>2019-06-30T07:46:16.000Z</time>
      </trkpt>
      <trkpt lat="47.25067" lon="-2.30134">
        <ele>31</ele>
        <time>2019-06-30T07:46:18.000Z</time>
      </trkpt>
      <trkpt lat="47.25067" lon="-2.30133">
        <ele>31</ele>
        <time>2019-06-30T07:46:19.000Z</time>
      </trkpt>
      <trkpt lat="47.25066" lon="-2.30129">
        <ele>31</ele>
        <time>2019-06-30T07:46:42.000Z</time>
      </trkpt>
      <trkpt lat="47.25066" lon="-2.30123">
        <ele>31</ele>
        <time>2019-06-30T07:46:44.000Z</time>
      </trkpt>
      <trkpt lat="47.25067" lon="-2.30107">
        <ele>31</ele>
        <time>2019-06-30T07:46:49.000Z</time>
      </trkpt>
      <trkpt lat="47.2507" lon="-2.30082">
        <ele>31.39999961853</ele>
        <time>2019-06-30T07:46:55.000Z</time>
      </trkpt>
      <trkpt lat="47.25071" lon="-2.30079">
        <ele>31.799999237061</ele>
        <time>2019-06-30T07:46:56.000Z</time>
      </trkpt>
      <trkpt lat="47.25071" lon="-2.30076">
        <ele>32.200000762939</ele>
        <time>2019-06-30T07:46:57.000Z</time>
      </trkpt>
      <trkpt lat="47.25072" lon="-2.30073">
        <ele>32.599998474121</ele>
        <time>2019-06-30T07:46:58.000Z</time>
      </trkpt>
      <trkpt lat="47.25072" lon="-2.30071">
        <ele>33</ele>
        <time>2019-06-30T07:46:59.000Z</time>
      </trkpt>
      <trkpt lat="47.25072" lon="-2.30068">
        <ele>33</ele>
        <time>2019-06-30T07:47:00.000Z</time>
      </trkpt>
      <trkpt lat="47.25072" lon="-2.30061">
        <ele>33</ele>
        <time>2019-06-30T07:47:03.000Z</time>
      </trkpt>
      <trkpt lat="47.25069" lon="-2.30059">
        <ele>33</ele>
        <time>2019-06-30T07:47:05.000Z</time>
      </trkpt>
      <trkpt lat="47.25063" lon="-2.30058">
        <ele>33</ele>
        <time>2019-06-30T07:47:08.000Z</time>
      </trkpt>
      <trkpt lat="47.25058" lon="-2.30057">
        <ele>33</ele>
        <time>2019-06-30T07:47:10.000Z</time>
      </trkpt>
      <trkpt lat="47.25041" lon="-2.30056">
        <ele>33</ele>
        <time>2019-06-30T07:47:16.000Z</time>
      </trkpt>
      <trkpt lat="47.25017" lon="-2.30054">
        <ele>33</ele>
        <time>2019-06-30T07:47:23.000Z</time>
      </trkpt>
      <trkpt lat="47.2501" lon="-2.30054">
        <ele>33.400001525879</ele>
        <time>2019-06-30T07:47:25.000Z</time>
      </trkpt>
      <trkpt lat="47.25007" lon="-2.30054">
        <ele>33.799999237061</ele>
        <time>2019-06-30T07:47:26.000Z</time>
      </trkpt>
      <trkpt lat="47.25003" lon="-2.30054">
        <ele>34.200000762939</ele>
        <time>2019-06-30T07:47:27.000Z</time>
      </trkpt>
      <trkpt lat="47.24999" lon="-2.30054">
        <ele>35</ele>
        <time>2019-06-30T07:47:28.000Z</time>
      </trkpt>
      <trkpt lat="47.24995" lon="-2.30055">
        <ele>35</ele>
        <time>2019-06-30T07:47:29.000Z</time>
      </trkpt>
      <trkpt lat="47.24967" lon="-2.30057">
        <ele>35</ele>
        <time>2019-06-30T07:47:36.000Z</time>
      </trkpt>
      <trkpt lat="47.24941" lon="-2.30057">
        <ele>35</ele>
        <time>2019-06-30T07:47:42.000Z</time>
      </trkpt>
      <trkpt lat="47.24937" lon="-2.30058">
        <ele>35</ele>
        <time>2019-06-30T07:47:43.000Z</time>
      </trkpt>
      <trkpt lat="47.24916" lon="-2.30057">
        <ele>35</ele>
        <time>2019-06-30T07:47:49.000Z</time>
      </trkpt>
      <trkpt lat="47.24903" lon="-2.30052">
        <ele>35</ele>
        <time>2019-06-30T07:47:53.000Z</time>
      </trkpt>
      <trkpt lat="47.24902" lon="-2.30047">
        <ele>35</ele>
        <time>2019-06-30T07:47:54.000Z</time>
      </trkpt>
      <trkpt lat="47.24902" lon="-2.30029">
        <ele>35</ele>
        <time>2019-06-30T07:47:57.000Z</time>
      </trkpt>
      <trkpt lat="47.24901" lon="-2.30022">
        <ele>35</ele>
        <time>2019-06-30T07:47:58.000Z</time>
      </trkpt>
      <trkpt lat="47.24899" lon="-2.30008">
        <ele>35.400001525879</ele>
        <time>2019-06-30T07:48:00.000Z</time>
      </trkpt>
      <trkpt lat="47.24897" lon="-2.30001">
        <ele>35.799999237061</ele>
        <time>2019-06-30T07:48:01.000Z</time>
      </trkpt>
      <trkpt lat="47.24895" lon="-2.29993">
        <ele>36.400001525879</ele>
        <time>2019-06-30T07:48:02.000Z</time>
      </trkpt>
      <trkpt lat="47.24893" lon="-2.29986">
        <ele>36.799999237061</ele>
        <time>2019-06-30T07:48:03.000Z</time>
      </trkpt>
      <trkpt lat="47.24891" lon="-2.29978">
        <ele>37.200000762939</ele>
        <time>2019-06-30T07:48:04.000Z</time>
      </trkpt>
      <trkpt lat="47.24885" lon="-2.29955">
        <ele>37.200000762939</ele>
        <time>2019-06-30T07:48:07.000Z</time>
      </trkpt>
      <trkpt lat="47.24878" lon="-2.29914">
        <ele>37.200000762939</ele>
        <time>2019-06-30T07:48:12.000Z</time>
      </trkpt>
      <trkpt lat="47.24877" lon="-2.29898">
        <ele>37.200000762939</ele>
        <time>2019-06-30T07:48:14.000Z</time>
      </trkpt>
      <trkpt lat="47.24875" lon="-2.29874">
        <ele>37.200000762939</ele>
        <time>2019-06-30T07:48:17.000Z</time>
      </trkpt>
      <trkpt lat="47.24874" lon="-2.29867">
        <ele>37.200000762939</ele>
        <time>2019-06-30T07:48:18.000Z</time>
      </trkpt>
      <trkpt lat="47.24872" lon="-2.2986">
        <ele>37.200000762939</ele>
        <time>2019-06-30T07:48:19.000Z</time>
      </trkpt>
      <trkpt lat="47.24869" lon="-2.29846">
        <ele>37.200000762939</ele>
        <time>2019-06-30T07:48:21.000Z</time>
      </trkpt>
      <trkpt lat="47.24865" lon="-2.29834">
        <ele>37.200000762939</ele>
        <time>2019-06-30T07:48:23.000Z</time>
      </trkpt>
      <trkpt lat="47.24863" lon="-2.29833">
        <ele>37.200000762939</ele>
        <time>2019-06-30T07:48:24.000Z</time>
      </trkpt>
      <trkpt lat="47.24851" lon="-2.29837">
        <ele>37.200000762939</ele>
        <time>2019-06-30T07:48:27.000Z</time>
      </trkpt>
      <trkpt lat="47.24846" lon="-2.2984">
        <ele>37.200000762939</ele>
        <time>2019-06-30T07:48:28.000Z</time>
      </trkpt>
      <trkpt lat="47.24832" lon="-2.29848">
        <ele>37.200000762939</ele>
        <time>2019-06-30T07:48:31.000Z</time>
      </trkpt>
      <trkpt lat="47.24821" lon="-2.2985">
        <ele>37.200000762939</ele>
        <time>2019-06-30T07:48:33.000Z</time>
      </trkpt>
      <trkpt lat="47.24798" lon="-2.29858">
        <ele>37.200000762939</ele>
        <time>2019-06-30T07:48:37.000Z</time>
      </trkpt>
      <trkpt lat="47.24792" lon="-2.29862">
        <ele>37.200000762939</ele>
        <time>2019-06-30T07:48:38.000Z</time>
      </trkpt>
      <trkpt lat="47.24773" lon="-2.29876">
        <ele>37.200000762939</ele>
        <time>2019-06-30T07:48:42.000Z</time>
      </trkpt>
      <trkpt lat="47.24748" lon="-2.29899">
        <ele>37.200000762939</ele>
        <time>2019-06-30T07:48:48.000Z</time>
      </trkpt>
      <trkpt lat="47.24746" lon="-2.29906">
        <ele>37.200000762939</ele>
        <time>2019-06-30T07:48:49.000Z</time>
      </trkpt>
      <trkpt lat="47.24745" lon="-2.29924">
        <ele>37.200000762939</ele>
        <time>2019-06-30T07:48:52.000Z</time>
      </trkpt>
      <trkpt lat="47.24745" lon="-2.29929">
        <ele>37.200000762939</ele>
        <time>2019-06-30T07:48:53.000Z</time>
      </trkpt>
      <trkpt lat="47.24744" lon="-2.29946">
        <ele>36.799999237061</ele>
        <time>2019-06-30T07:48:56.000Z</time>
      </trkpt>
      <trkpt lat="47.24744" lon="-2.29952">
        <ele>36.400001525879</ele>
        <time>2019-06-30T07:48:57.000Z</time>
      </trkpt>
      <trkpt lat="47.24744" lon="-2.29956">
        <ele>36</ele>
        <time>2019-06-30T07:48:58.000Z</time>
      </trkpt>
      <trkpt lat="47.24744" lon="-2.29961">
        <ele>35.599998474121</ele>
        <time>2019-06-30T07:48:59.000Z</time>
      </trkpt>
      <trkpt lat="47.24744" lon="-2.29966">
        <ele>35.200000762939</ele>
        <time>2019-06-30T07:49:00.000Z</time>
      </trkpt>
      <trkpt lat="47.2474" lon="-2.29986">
        <ele>35.200000762939</ele>
        <time>2019-06-30T07:49:04.000Z</time>
      </trkpt>
      <trkpt lat="47.24728" lon="-2.30011">
        <ele>35.200000762939</ele>
        <time>2019-06-30T07:49:10.000Z</time>
      </trkpt>
      <trkpt lat="47.24708" lon="-2.30032">
        <ele>35.200000762939</ele>
        <time>2019-06-30T07:49:16.000Z</time>
      </trkpt>
      <trkpt lat="47.24699" lon="-2.30042">
        <ele>34.799999237061</ele>
        <time>2019-06-30T07:49:19.000Z</time>
      </trkpt>
      <trkpt lat="47.24695" lon="-2.30045">
        <ele>34.400001525879</ele>
        <time>2019-06-30T07:49:20.000Z</time>
      </trkpt>
      <trkpt lat="47.24692" lon="-2.30048">
        <ele>33.799999237061</ele>
        <time>2019-06-30T07:49:21.000Z</time>
      </trkpt>
      <trkpt lat="47.24688" lon="-2.30051">
        <ele>33.400001525879</ele>
        <time>2019-06-30T07:49:22.000Z</time>
      </trkpt>
      <trkpt lat="47.24685" lon="-2.30054">
        <ele>33</ele>
        <time>2019-06-30T07:49:23.000Z</time>
      </trkpt>
      <trkpt lat="47.24681" lon="-2.30057">
        <ele>33</ele>
        <time>2019-06-30T07:49:24.000Z</time>
      </trkpt>
      <trkpt lat="47.24652" lon="-2.30079">
        <ele>33</ele>
        <time>2019-06-30T07:49:32.000Z</time>
      </trkpt>
      <trkpt lat="47.24651" lon="-2.30081">
        <ele>32.599998474121</ele>
        <time>2019-06-30T07:49:33.000Z</time>
      </trkpt>
      <trkpt lat="47.24649" lon="-2.30082">
        <ele>32.200000762939</ele>
        <time>2019-06-30T07:49:34.000Z</time>
      </trkpt>
      <trkpt lat="47.24647" lon="-2.30084">
        <ele>31.799999237061</ele>
        <time>2019-06-30T07:49:35.000Z</time>
      </trkpt>
      <trkpt lat="47.24645" lon="-2.30086">
        <ele>31.39999961853</ele>
        <time>2019-06-30T07:49:36.000Z</time>
      </trkpt>
      <trkpt lat="47.24642" lon="-2.30087">
        <ele>31</ele>
        <time>2019-06-30T07:49:37.000Z</time>
      </trkpt>
      <trkpt lat="47.24627" lon="-2.30102">
        <ele>31</ele>
        <time>2019-06-30T07:49:41.000Z</time>
      </trkpt>
      <trkpt lat="47.24597" lon="-2.30132">
        <ele>31</ele>
        <time>2019-06-30T07:49:48.000Z</time>
      </trkpt>
      <trkpt lat="47.2459" lon="-2.30142">
        <ele>31</ele>
        <time>2019-06-30T07:49:50.000Z</time>
      </trkpt>
      <trkpt lat="47.2458" lon="-2.30159">
        <ele>31</ele>
        <time>2019-06-30T07:49:53.000Z</time>
      </trkpt>
      <trkpt lat="47.24555" lon="-2.30196">
        <ele>31</ele>
        <time>2019-06-30T07:50:00.000Z</time>
      </trkpt>
      <trkpt lat="47.24528" lon="-2.30225">
        <ele>31</ele>
        <time>2019-06-30T07:50:07.000Z</time>
      </trkpt>
      <trkpt lat="47.24515" lon="-2.30237">
        <ele>30.60000038147</ele>
        <time>2019-06-30T07:50:10.000Z</time>
      </trkpt>
      <trkpt lat="47.24511" lon="-2.30242">
        <ele>30.200000762939</ele>
        <time>2019-06-30T07:50:11.000Z</time>
      </trkpt>
      <trkpt lat="47.24506" lon="-2.30245">
        <ele>29.799999237061</ele>
        <time>2019-06-30T07:50:12.000Z</time>
      </trkpt>
      <trkpt lat="47.24501" lon="-2.30249">
        <ele>29.39999961853</ele>
        <time>2019-06-30T07:50:13.000Z</time>
      </trkpt>
      <trkpt lat="47.24495" lon="-2.30253">
        <ele>29</ele>
        <time>2019-06-30T07:50:14.000Z</time>
      </trkpt>
      <trkpt lat="47.24491" lon="-2.30257">
        <ele>29</ele>
        <time>2019-06-30T07:50:15.000Z</time>
      </trkpt>
      <trkpt lat="47.24479" lon="-2.30273">
        <ele>29</ele>
        <time>2019-06-30T07:50:18.000Z</time>
      </trkpt>
      <trkpt lat="47.24476" lon="-2.30279">
        <ele>28.60000038147</ele>
        <time>2019-06-30T07:50:19.000Z</time>
      </trkpt>
      <trkpt lat="47.24472" lon="-2.30286">
        <ele>27.799999237061</ele>
        <time>2019-06-30T07:50:20.000Z</time>
      </trkpt>
      <trkpt lat="47.2447" lon="-2.30295">
        <ele>27.39999961853</ele>
        <time>2019-06-30T07:50:21.000Z</time>
      </trkpt>
      <trkpt lat="47.24468" lon="-2.30304">
        <ele>27</ele>
        <time>2019-06-30T07:50:22.000Z</time>
      </trkpt>
      <trkpt lat="47.24465" lon="-2.30334">
        <ele>27</ele>
        <time>2019-06-30T07:50:25.000Z</time>
      </trkpt>
      <trkpt lat="47.24464" lon="-2.30355">
        <ele>27</ele>
        <time>2019-06-30T07:50:27.000Z</time>
      </trkpt>
      <trkpt lat="47.24462" lon="-2.30389">
        <ele>26.60000038147</ele>
        <time>2019-06-30T07:50:30.000Z</time>
      </trkpt>
      <trkpt lat="47.24461" lon="-2.30401">
        <ele>26</ele>
        <time>2019-06-30T07:50:31.000Z</time>
      </trkpt>
      <trkpt lat="47.24461" lon="-2.30414">
        <ele>25.60000038147</ele>
        <time>2019-06-30T07:50:32.000Z</time>
      </trkpt>
      <trkpt lat="47.2446" lon="-2.30426">
        <ele>25.200000762939</ele>
        <time>2019-06-30T07:50:33.000Z</time>
      </trkpt>
      <trkpt lat="47.24461" lon="-2.30439">
        <ele>24.799999237061</ele>
        <time>2019-06-30T07:50:34.000Z</time>
      </trkpt>
      <trkpt lat="47.24464" lon="-2.30461">
        <ele>24.200000762939</ele>
        <time>2019-06-30T07:50:36.000Z</time>
      </trkpt>
      <trkpt lat="47.24468" lon="-2.30469">
        <ele>23.799999237061</ele>
        <time>2019-06-30T07:50:37.000Z</time>
      </trkpt>
      <trkpt lat="47.24473" lon="-2.30476">
        <ele>23.39999961853</ele>
        <time>2019-06-30T07:50:38.000Z</time>
      </trkpt>
      <trkpt lat="47.24477" lon="-2.30483">
        <ele>23</ele>
        <time>2019-06-30T07:50:39.000Z</time>
      </trkpt>
      <trkpt lat="47.2448" lon="-2.30492">
        <ele>22.60000038147</ele>
        <time>2019-06-30T07:50:40.000Z</time>
      </trkpt>
      <trkpt lat="47.24479" lon="-2.30521">
        <ele>22.60000038147</ele>
        <time>2019-06-30T07:50:43.000Z</time>
      </trkpt>
      <trkpt lat="47.24467" lon="-2.30547">
        <ele>22.60000038147</ele>
        <time>2019-06-30T07:50:47.000Z</time>
      </trkpt>
      <trkpt lat="47.24458" lon="-2.30555">
        <ele>22.60000038147</ele>
        <time>2019-06-30T07:50:49.000Z</time>
      </trkpt>
      <trkpt lat="47.24453" lon="-2.30559">
        <ele>22</ele>
        <time>2019-06-30T07:50:50.000Z</time>
      </trkpt>
      <trkpt lat="47.24448" lon="-2.30562">
        <ele>21.60000038147</ele>
        <time>2019-06-30T07:50:51.000Z</time>
      </trkpt>
      <trkpt lat="47.24444" lon="-2.30566">
        <ele>21.200000762939</ele>
        <time>2019-06-30T07:50:52.000Z</time>
      </trkpt>
      <trkpt lat="47.24439" lon="-2.30569">
        <ele>20.60000038147</ele>
        <time>2019-06-30T07:50:53.000Z</time>
      </trkpt>
      <trkpt lat="47.24434" lon="-2.30572">
        <ele>20.200000762939</ele>
        <time>2019-06-30T07:50:54.000Z</time>
      </trkpt>
      <trkpt lat="47.24424" lon="-2.30579">
        <ele>19.799999237061</ele>
        <time>2019-06-30T07:50:56.000Z</time>
      </trkpt>
      <trkpt lat="47.2442" lon="-2.30581">
        <ele>19.39999961853</ele>
        <time>2019-06-30T07:50:57.000Z</time>
      </trkpt>
      <trkpt lat="47.24415" lon="-2.30584">
        <ele>19</ele>
        <time>2019-06-30T07:50:58.000Z</time>
      </trkpt>
      <trkpt lat="47.24409" lon="-2.30583">
        <ele>18.60000038147</ele>
        <time>2019-06-30T07:50:59.000Z</time>
      </trkpt>
      <trkpt lat="47.24405" lon="-2.30583">
        <ele>18.200000762939</ele>
        <time>2019-06-30T07:51:00.000Z</time>
      </trkpt>
      <trkpt lat="47.2439" lon="-2.30576">
        <ele>18.200000762939</ele>
        <time>2019-06-30T07:51:03.000Z</time>
      </trkpt>
      <trkpt lat="47.2438" lon="-2.30568">
        <ele>18.200000762939</ele>
        <time>2019-06-30T07:51:05.000Z</time>
      </trkpt>
      <trkpt lat="47.24372" lon="-2.30557">
        <ele>18.200000762939</ele>
        <time>2019-06-30T07:51:07.000Z</time>
      </trkpt>
      <trkpt lat="47.24367" lon="-2.30537">
        <ele>18.200000762939</ele>
        <time>2019-06-30T07:51:10.000Z</time>
      </trkpt>
      <trkpt lat="47.24368" lon="-2.30523">
        <ele>18.200000762939</ele>
        <time>2019-06-30T07:51:12.000Z</time>
      </trkpt>
      <trkpt lat="47.24369" lon="-2.30517">
        <ele>18.200000762939</ele>
        <time>2019-06-30T07:51:13.000Z</time>
      </trkpt>
      <trkpt lat="47.24369" lon="-2.3051">
        <ele>18.200000762939</ele>
        <time>2019-06-30T07:51:14.000Z</time>
      </trkpt>
      <trkpt lat="47.24375" lon="-2.30482">
        <ele>18.60000038147</ele>
        <time>2019-06-30T07:51:19.000Z</time>
      </trkpt>
      <trkpt lat="47.24377" lon="-2.30475">
        <ele>19</ele>
        <time>2019-06-30T07:51:20.000Z</time>
      </trkpt>
      <trkpt lat="47.24378" lon="-2.3047">
        <ele>19.39999961853</ele>
        <time>2019-06-30T07:51:21.000Z</time>
      </trkpt>
      <trkpt lat="47.24378" lon="-2.30465">
        <ele>20</ele>
        <time>2019-06-30T07:51:22.000Z</time>
      </trkpt>
      <trkpt lat="47.24378" lon="-2.3046">
        <ele>20.39999961853</ele>
        <time>2019-06-30T07:51:23.000Z</time>
      </trkpt>
      <trkpt lat="47.24377" lon="-2.30455">
        <ele>20.39999961853</ele>
        <time>2019-06-30T07:51:24.000Z</time>
      </trkpt>
      <trkpt lat="47.24376" lon="-2.30453">
        <ele>20.39999961853</ele>
        <time>2019-06-30T07:51:25.000Z</time>
      </trkpt>
      <trkpt lat="47.24371" lon="-2.30451">
        <ele>20.39999961853</ele>
        <time>2019-06-30T07:51:27.000Z</time>
      </trkpt>
      <trkpt lat="47.24358" lon="-2.30454">
        <ele>20.799999237061</ele>
        <time>2019-06-30T07:51:31.000Z</time>
      </trkpt>
      <trkpt lat="47.24356" lon="-2.30454">
        <ele>21.200000762939</ele>
        <time>2019-06-30T07:51:32.000Z</time>
      </trkpt>
      <trkpt lat="47.24353" lon="-2.30453">
        <ele>21.60000038147</ele>
        <time>2019-06-30T07:51:33.000Z</time>
      </trkpt>
      <trkpt lat="47.24349" lon="-2.30451">
        <ele>22.39999961853</ele>
        <time>2019-06-30T07:51:34.000Z</time>
      </trkpt>
      <trkpt lat="47.24346" lon="-2.30448">
        <ele>22.39999961853</ele>
        <time>2019-06-30T07:51:35.000Z</time>
      </trkpt>
      <trkpt lat="47.2434" lon="-2.30444">
        <ele>22.39999961853</ele>
        <time>2019-06-30T07:51:37.000Z</time>
      </trkpt>
      <trkpt lat="47.24333" lon="-2.30439">
        <ele>22.39999961853</ele>
        <time>2019-06-30T07:51:40.000Z</time>
      </trkpt>
      <trkpt lat="47.24318" lon="-2.3043">
        <ele>22.39999961853</ele>
        <time>2019-06-30T07:51:46.000Z</time>
      </trkpt>
      <trkpt lat="47.24315" lon="-2.30428">
        <ele>22.799999237061</ele>
        <time>2019-06-30T07:51:48.000Z</time>
      </trkpt>
      <trkpt lat="47.24314" lon="-2.30427">
        <ele>23.200000762939</ele>
        <time>2019-06-30T07:51:49.000Z</time>
      </trkpt>
      <trkpt lat="47.24312" lon="-2.30427">
        <ele>23.60000038147</ele>
        <time>2019-06-30T07:51:50.000Z</time>
      </trkpt>
      <trkpt lat="47.24311" lon="-2.30427">
        <ele>24</ele>
        <time>2019-06-30T07:51:51.000Z</time>
      </trkpt>
      <trkpt lat="47.24308" lon="-2.30426">
        <ele>24.39999961853</ele>
        <time>2019-06-30T07:51:52.000Z</time>
      </trkpt>
      <trkpt lat="47.24292" lon="-2.30417">
        <ele>24.39999961853</ele>
        <time>2019-06-30T07:51:57.000Z</time>
      </trkpt>
      <trkpt lat="47.24271" lon="-2.30394">
        <ele>24.39999961853</ele>
        <time>2019-06-30T07:52:04.000Z</time>
      </trkpt>
      <trkpt lat="47.24252" lon="-2.30364">
        <ele>24.39999961853</ele>
        <time>2019-06-30T07:52:10.000Z</time>
      </trkpt>
      <trkpt lat="47.24239" lon="-2.30335">
        <ele>24.39999961853</ele>
        <time>2019-06-30T07:52:15.000Z</time>
      </trkpt>
      <trkpt lat="47.24228" lon="-2.30329">
        <ele>24.39999961853</ele>
        <time>2019-06-30T07:52:19.000Z</time>
      </trkpt>
      <trkpt lat="47.24212" lon="-2.30335">
        <ele>24.39999961853</ele>
        <time>2019-06-30T07:52:23.000Z</time>
      </trkpt>
      <trkpt lat="47.24207" lon="-2.30334">
        <ele>24</ele>
        <time>2019-06-30T07:52:24.000Z</time>
      </trkpt>
      <trkpt lat="47.24202" lon="-2.30332">
        <ele>23.39999961853</ele>
        <time>2019-06-30T07:52:25.000Z</time>
      </trkpt>
      <trkpt lat="47.24199" lon="-2.30329">
        <ele>23</ele>
        <time>2019-06-30T07:52:26.000Z</time>
      </trkpt>
      <trkpt lat="47.24198" lon="-2.30322">
        <ele>22.39999961853</ele>
        <time>2019-06-30T07:52:27.000Z</time>
      </trkpt>
      <trkpt lat="47.24197" lon="-2.30315">
        <ele>22</ele>
        <time>2019-06-30T07:52:28.000Z</time>
      </trkpt>
      <trkpt lat="47.24194" lon="-2.30293">
        <ele>22</ele>
        <time>2019-06-30T07:52:31.000Z</time>
      </trkpt>
      <trkpt lat="47.24191" lon="-2.30266">
        <ele>21.60000038147</ele>
        <time>2019-06-30T07:52:35.000Z</time>
      </trkpt>
      <trkpt lat="47.2419" lon="-2.30259">
        <ele>21.200000762939</ele>
        <time>2019-06-30T07:52:36.000Z</time>
      </trkpt>
      <trkpt lat="47.24189" lon="-2.30253">
        <ele>20.799999237061</ele>
        <time>2019-06-30T07:52:37.000Z</time>
      </trkpt>
      <trkpt lat="47.24189" lon="-2.30247">
        <ele>20.39999961853</ele>
        <time>2019-06-30T07:52:38.000Z</time>
      </trkpt>
      <trkpt lat="47.24188" lon="-2.30243">
        <ele>20</ele>
        <time>2019-06-30T07:52:39.000Z</time>
      </trkpt>
      <trkpt lat="47.24187" lon="-2.30239">
        <ele>20</ele>
        <time>2019-06-30T07:52:40.000Z</time>
      </trkpt>
      <trkpt lat="47.24183" lon="-2.30239">
        <ele>20</ele>
        <time>2019-06-30T07:52:41.000Z</time>
      </trkpt>
      <trkpt lat="47.24174" lon="-2.30245">
        <ele>20</ele>
        <time>2019-06-30T07:52:44.000Z</time>
      </trkpt>
      <trkpt lat="47.24165" lon="-2.30243">
        <ele>20</ele>
        <time>2019-06-30T07:52:47.000Z</time>
      </trkpt>
      <trkpt lat="47.24162" lon="-2.30239">
        <ele>20</ele>
        <time>2019-06-30T07:52:48.000Z</time>
      </trkpt>
      <trkpt lat="47.24156" lon="-2.30231">
        <ele>20</ele>
        <time>2019-06-30T07:52:52.000Z</time>
      </trkpt>
      <trkpt lat="47.24155" lon="-2.30229">
        <ele>20</ele>
        <time>2019-06-30T07:52:53.000Z</time>
      </trkpt>
      <trkpt lat="47.24149" lon="-2.3021">
        <ele>20</ele>
        <time>2019-06-30T07:52:58.000Z</time>
      </trkpt>
      <trkpt lat="47.24147" lon="-2.302">
        <ele>20.39999961853</ele>
        <time>2019-06-30T07:53:00.000Z</time>
      </trkpt>
      <trkpt lat="47.24145" lon="-2.30196">
        <ele>20.799999237061</ele>
        <time>2019-06-30T07:53:01.000Z</time>
      </trkpt>
      <trkpt lat="47.24144" lon="-2.30192">
        <ele>21.200000762939</ele>
        <time>2019-06-30T07:53:02.000Z</time>
      </trkpt>
      <trkpt lat="47.24143" lon="-2.3019">
        <ele>21.60000038147</ele>
        <time>2019-06-30T07:53:03.000Z</time>
      </trkpt>
      <trkpt lat="47.24143" lon="-2.30188">
        <ele>22</ele>
        <time>2019-06-30T07:53:04.000Z</time>
      </trkpt>
      <trkpt lat="47.24141" lon="-2.30181">
        <ele>22</ele>
        <time>2019-06-30T07:53:10.000Z</time>
      </trkpt>
      <trkpt lat="47.24135" lon="-2.3017">
        <ele>22.60000038147</ele>
        <time>2019-06-30T07:53:15.000Z</time>
      </trkpt>
      <trkpt lat="47.24133" lon="-2.30169">
        <ele>23</ele>
        <time>2019-06-30T07:53:16.000Z</time>
      </trkpt>
      <trkpt lat="47.24132" lon="-2.30167">
        <ele>23.60000038147</ele>
        <time>2019-06-30T07:53:17.000Z</time>
      </trkpt>
      <trkpt lat="47.24131" lon="-2.30165">
        <ele>24</ele>
        <time>2019-06-30T07:53:18.000Z</time>
      </trkpt>
      <trkpt lat="47.24131" lon="-2.30165">
        <ele>24.39999961853</ele>
        <time>2019-06-30T07:53:19.000Z</time>
      </trkpt>
      <trkpt lat="47.24129" lon="-2.30162">
        <ele>24.799999237061</ele>
        <time>2019-06-30T07:53:20.000Z</time>
      </trkpt>
      <trkpt lat="47.24127" lon="-2.30161">
        <ele>25.200000762939</ele>
        <time>2019-06-30T07:53:21.000Z</time>
      </trkpt>
      <trkpt lat="47.24126" lon="-2.30161">
        <ele>25.799999237061</ele>
        <time>2019-06-30T07:53:22.000Z</time>
      </trkpt>
      <trkpt lat="47.24125" lon="-2.3016">
        <ele>26.200000762939</ele>
        <time>2019-06-30T07:53:23.000Z</time>
      </trkpt>
      <trkpt lat="47.24117" lon="-2.3016">
        <ele>26.60000038147</ele>
        <time>2019-06-30T07:53:59.000Z</time>
      </trkpt>
      <trkpt lat="47.24115" lon="-2.3016">
        <ele>26.60000038147</ele>
        <time>2019-06-30T07:54:00.000Z</time>
      </trkpt>
      <trkpt lat="47.24108" lon="-2.30159">
        <ele>27</ele>
        <time>2019-06-30T07:54:03.000Z</time>
      </trkpt>
      <trkpt lat="47.24106" lon="-2.30159">
        <ele>27.39999961853</ele>
        <time>2019-06-30T07:54:04.000Z</time>
      </trkpt>
      <trkpt lat="47.24103" lon="-2.3016">
        <ele>27.799999237061</ele>
        <time>2019-06-30T07:54:05.000Z</time>
      </trkpt>
      <trkpt lat="47.24102" lon="-2.3016">
        <ele>28.200000762939</ele>
        <time>2019-06-30T07:54:06.000Z</time>
      </trkpt>
      <trkpt lat="47.24101" lon="-2.30161">
        <ele>28.60000038147</ele>
        <time>2019-06-30T07:54:07.000Z</time>
      </trkpt>
      <trkpt lat="47.24092" lon="-2.30163">
        <ele>28.60000038147</ele>
        <time>2019-06-30T07:54:10.000Z</time>
      </trkpt>
      <trkpt lat="47.24089" lon="-2.30164">
        <ele>28.60000038147</ele>
        <time>2019-06-30T07:54:11.000Z</time>
      </trkpt>
      <trkpt lat="47.24082" lon="-2.3017">
        <ele>28.60000038147</ele>
        <time>2019-06-30T07:54:14.000Z</time>
      </trkpt>
      <trkpt lat="47.24063" lon="-2.30177">
        <ele>28.60000038147</ele>
        <time>2019-06-30T07:54:20.000Z</time>
      </trkpt>
      <trkpt lat="47.24051" lon="-2.30187">
        <ele>28.60000038147</ele>
        <time>2019-06-30T07:54:24.000Z</time>
      </trkpt>
      <trkpt lat="47.24037" lon="-2.3019">
        <ele>28.60000038147</ele>
        <time>2019-06-30T07:54:29.000Z</time>
      </trkpt>
      <trkpt lat="47.24028" lon="-2.30178">
        <ele>28.60000038147</ele>
        <time>2019-06-30T07:54:33.000Z</time>
      </trkpt>
      <trkpt lat="47.24019" lon="-2.30169">
        <ele>28.60000038147</ele>
        <time>2019-06-30T07:54:36.000Z</time>
      </trkpt>
      <trkpt lat="47.24017" lon="-2.30167">
        <ele>29</ele>
        <time>2019-06-30T07:54:37.000Z</time>
      </trkpt>
      <trkpt lat="47.24014" lon="-2.30163">
        <ele>29.39999961853</ele>
        <time>2019-06-30T07:54:38.000Z</time>
      </trkpt>
      <trkpt lat="47.24012" lon="-2.30161">
        <ele>30</ele>
        <time>2019-06-30T07:54:39.000Z</time>
      </trkpt>
      <trkpt lat="47.24008" lon="-2.30159">
        <ele>30.39999961853</ele>
        <time>2019-06-30T07:54:40.000Z</time>
      </trkpt>
      <trkpt lat="47.24005" lon="-2.30157">
        <ele>30.799999237061</ele>
        <time>2019-06-30T07:54:41.000Z</time>
      </trkpt>
      <trkpt lat="47.24001" lon="-2.30156">
        <ele>30.799999237061</ele>
        <time>2019-06-30T07:54:42.000Z</time>
      </trkpt>
      <trkpt lat="47.23988" lon="-2.30152">
        <ele>30.799999237061</ele>
        <time>2019-06-30T07:54:46.000Z</time>
      </trkpt>
      <trkpt lat="47.23981" lon="-2.30147">
        <ele>30.799999237061</ele>
        <time>2019-06-30T07:54:50.000Z</time>
      </trkpt>
      <trkpt lat="47.2398" lon="-2.30143">
        <ele>30.799999237061</ele>
        <time>2019-06-30T07:54:51.000Z</time>
      </trkpt>
      <trkpt lat="47.2398" lon="-2.30138">
        <ele>30.799999237061</ele>
        <time>2019-06-30T07:54:54.000Z</time>
      </trkpt>
      <trkpt lat="47.23983" lon="-2.30116">
        <ele>30.799999237061</ele>
        <time>2019-06-30T07:54:59.000Z</time>
      </trkpt>
      <trkpt lat="47.23988" lon="-2.3009">
        <ele>30.799999237061</ele>
        <time>2019-06-30T07:55:04.000Z</time>
      </trkpt>
      <trkpt lat="47.23992" lon="-2.3006">
        <ele>30.799999237061</ele>
        <time>2019-06-30T07:55:10.000Z</time>
      </trkpt>
      <trkpt lat="47.23994" lon="-2.30057">
        <ele>30.799999237061</ele>
        <time>2019-06-30T07:55:11.000Z</time>
      </trkpt>
      <trkpt lat="47.23999" lon="-2.30049">
        <ele>30.799999237061</ele>
        <time>2019-06-30T07:55:14.000Z</time>
      </trkpt>
      <trkpt lat="47.24001" lon="-2.30045">
        <ele>30.799999237061</ele>
        <time>2019-06-30T07:55:15.000Z</time>
      </trkpt>
      <trkpt lat="47.24011" lon="-2.30024">
        <ele>30.799999237061</ele>
        <time>2019-06-30T07:55:21.000Z</time>
      </trkpt>
      <trkpt lat="47.2402" lon="-2.30005">
        <ele>30.799999237061</ele>
        <time>2019-06-30T07:55:26.000Z</time>
      </trkpt>
      <trkpt lat="47.24021" lon="-2.29999">
        <ele>30.799999237061</ele>
        <time>2019-06-30T07:55:27.000Z</time>
      </trkpt>
      <trkpt lat="47.24028" lon="-2.29983">
        <ele>30.799999237061</ele>
        <time>2019-06-30T07:55:31.000Z</time>
      </trkpt>
      <trkpt lat="47.24031" lon="-2.29983">
        <ele>30.799999237061</ele>
        <time>2019-06-30T07:55:32.000Z</time>
      </trkpt>
      <trkpt lat="47.24046" lon="-2.29984">
        <ele>30.799999237061</ele>
        <time>2019-06-30T07:55:36.000Z</time>
      </trkpt>
      <trkpt lat="47.24058" lon="-2.29986">
        <ele>30.799999237061</ele>
        <time>2019-06-30T07:55:40.000Z</time>
      </trkpt>
      <trkpt lat="47.24068" lon="-2.2999">
        <ele>30.799999237061</ele>
        <time>2019-06-30T07:55:45.000Z</time>
      </trkpt>
      <trkpt lat="47.24078" lon="-2.30002">
        <ele>30.799999237061</ele>
        <time>2019-06-30T07:55:50.000Z</time>
      </trkpt>
      <trkpt lat="47.24086" lon="-2.30006">
        <ele>30.799999237061</ele>
        <time>2019-06-30T07:55:53.000Z</time>
      </trkpt>
      <trkpt lat="47.2409" lon="-2.30011">
        <ele>30.799999237061</ele>
        <time>2019-06-30T07:55:55.000Z</time>
      </trkpt>
      <trkpt lat="47.24098" lon="-2.30008">
        <ele>30.799999237061</ele>
        <time>2019-06-30T07:55:56.000Z</time>
      </trkpt>
      <trkpt lat="47.24105" lon="-2.30005">
        <ele>30.799999237061</ele>
        <time>2019-06-30T07:55:58.000Z</time>
      </trkpt>
      <trkpt lat="47.24115" lon="-2.29998">
        <ele>30.799999237061</ele>
        <time>2019-06-30T07:56:03.000Z</time>
      </trkpt>
      <trkpt lat="47.24116" lon="-2.29997">
        <ele>30.799999237061</ele>
        <time>2019-06-30T07:56:05.000Z</time>
      </trkpt>
      <trkpt lat="47.24118" lon="-2.29994">
        <ele>30.799999237061</ele>
        <time>2019-06-30T07:56:16.000Z</time>
      </trkpt>
      <trkpt lat="47.24119" lon="-2.29993">
        <ele>30.799999237061</ele>
        <time>2019-06-30T07:56:17.000Z</time>
      </trkpt>
      <trkpt lat="47.24127" lon="-2.29989">
        <ele>30.799999237061</ele>
        <time>2019-06-30T07:56:21.000Z</time>
      </trkpt>
      <trkpt lat="47.24141" lon="-2.29987">
        <ele>30.799999237061</ele>
        <time>2019-06-30T07:56:26.000Z</time>
      </trkpt>
      <trkpt lat="47.2415" lon="-2.2998">
        <ele>31.60000038147</ele>
        <time>2019-06-30T07:56:32.000Z</time>
      </trkpt>
      <trkpt lat="47.24151" lon="-2.2998">
        <ele>32</ele>
        <time>2019-06-30T07:56:33.000Z</time>
      </trkpt>
      <trkpt lat="47.24153" lon="-2.29983">
        <ele>32.400001525879</ele>
        <time>2019-06-30T07:56:34.000Z</time>
      </trkpt>
      <trkpt lat="47.24155" lon="-2.29986">
        <ele>32.799999237061</ele>
        <time>2019-06-30T07:56:35.000Z</time>
      </trkpt>
      <trkpt lat="47.24157" lon="-2.29989">
        <ele>32.799999237061</ele>
        <time>2019-06-30T07:56:36.000Z</time>
      </trkpt>
      <trkpt lat="47.24163" lon="-2.30004">
        <ele>32.799999237061</ele>
        <time>2019-06-30T07:56:43.000Z</time>
      </trkpt>
      <trkpt lat="47.24158" lon="-2.30006">
        <ele>32.799999237061</ele>
        <time>2019-06-30T07:56:47.000Z</time>
      </trkpt>
      <trkpt lat="47.24154" lon="-2.30007">
        <ele>32.799999237061</ele>
        <time>2019-06-30T07:56:49.000Z</time>
      </trkpt>
      <trkpt lat="47.24149" lon="-2.30008">
        <ele>32.799999237061</ele>
        <time>2019-06-30T07:56:51.000Z</time>
      </trkpt>
      <trkpt lat="47.24143" lon="-2.3001">
        <ele>32.799999237061</ele>
        <time>2019-06-30T07:56:55.000Z</time>
      </trkpt>
      <trkpt lat="47.24142" lon="-2.30007">
        <ele>32.799999237061</ele>
        <time>2019-06-30T07:56:57.000Z</time>
      </trkpt>
      <trkpt lat="47.24135" lon="-2.29998">
        <ele>32.799999237061</ele>
        <time>2019-06-30T07:57:01.000Z</time>
      </trkpt>
      <trkpt lat="47.24131" lon="-2.29993">
        <ele>32.799999237061</ele>
        <time>2019-06-30T07:57:04.000Z</time>
      </trkpt>
      <trkpt lat="47.24127" lon="-2.29993">
        <ele>32.799999237061</ele>
        <time>2019-06-30T07:57:05.000Z</time>
      </trkpt>
      <trkpt lat="47.24123" lon="-2.29993">
        <ele>32.799999237061</ele>
        <time>2019-06-30T07:57:07.000Z</time>
      </trkpt>
      <trkpt lat="47.2412" lon="-2.29993">
        <ele>32.799999237061</ele>
        <time>2019-06-30T07:57:08.000Z</time>
      </trkpt>
      <trkpt lat="47.24108" lon="-2.29992">
        <ele>32.799999237061</ele>
        <time>2019-06-30T07:57:12.000Z</time>
      </trkpt>
      <trkpt lat="47.241" lon="-2.2999">
        <ele>32.799999237061</ele>
        <time>2019-06-30T07:57:14.000Z</time>
      </trkpt>
      <trkpt lat="47.24094" lon="-2.29987">
        <ele>32.799999237061</ele>
        <time>2019-06-30T07:57:16.000Z</time>
      </trkpt>
      <trkpt lat="47.24073" lon="-2.29973">
        <ele>32.799999237061</ele>
        <time>2019-06-30T07:57:23.000Z</time>
      </trkpt>
      <trkpt lat="47.24056" lon="-2.29947">
        <ele>32.799999237061</ele>
        <time>2019-06-30T07:57:29.000Z</time>
      </trkpt>
      <trkpt lat="47.24058" lon="-2.29928">
        <ele>32.799999237061</ele>
        <time>2019-06-30T07:57:34.000Z</time>
      </trkpt>
      <trkpt lat="47.24056" lon="-2.29922">
        <ele>32.799999237061</ele>
        <time>2019-06-30T07:57:36.000Z</time>
      </trkpt>
      <trkpt lat="47.24053" lon="-2.29916">
        <ele>32.799999237061</ele>
        <time>2019-06-30T07:57:38.000Z</time>
      </trkpt>
      <trkpt lat="47.24045" lon="-2.29902">
        <ele>32.799999237061</ele>
        <time>2019-06-30T07:57:42.000Z</time>
      </trkpt>
      <trkpt lat="47.24041" lon="-2.29881">
        <ele>32.799999237061</ele>
        <time>2019-06-30T07:57:47.000Z</time>
      </trkpt>
      <trkpt lat="47.24041" lon="-2.29863">
        <ele>32.799999237061</ele>
        <time>2019-06-30T07:57:51.000Z</time>
      </trkpt>
      <trkpt lat="47.24042" lon="-2.29856">
        <ele>32.799999237061</ele>
        <time>2019-06-30T07:57:52.000Z</time>
      </trkpt>
      <trkpt lat="47.24046" lon="-2.29824">
        <ele>32.799999237061</ele>
        <time>2019-06-30T07:57:58.000Z</time>
      </trkpt>
      <trkpt lat="47.24063" lon="-2.29796">
        <ele>32.799999237061</ele>
        <time>2019-06-30T07:58:03.000Z</time>
      </trkpt>
      <trkpt lat="47.24068" lon="-2.29775">
        <ele>32.799999237061</ele>
        <time>2019-06-30T07:58:06.000Z</time>
      </trkpt>
      <trkpt lat="47.24069" lon="-2.29762">
        <ele>32.799999237061</ele>
        <time>2019-06-30T07:58:08.000Z</time>
      </trkpt>
      <trkpt lat="47.24062" lon="-2.29721">
        <ele>32.799999237061</ele>
        <time>2019-06-30T07:58:16.000Z</time>
      </trkpt>
      <trkpt lat="47.2406" lon="-2.2971">
        <ele>33.200000762939</ele>
        <time>2019-06-30T07:58:18.000Z</time>
      </trkpt>
      <trkpt lat="47.24059" lon="-2.29705">
        <ele>33.599998474121</ele>
        <time>2019-06-30T07:58:19.000Z</time>
      </trkpt>
      <trkpt lat="47.24058" lon="-2.297">
        <ele>34</ele>
        <time>2019-06-30T07:58:20.000Z</time>
      </trkpt>
      <trkpt lat="47.24057" lon="-2.29695">
        <ele>34.400001525879</ele>
        <time>2019-06-30T07:58:21.000Z</time>
      </trkpt>
      <trkpt lat="47.24055" lon="-2.29691">
        <ele>34.799999237061</ele>
        <time>2019-06-30T07:58:22.000Z</time>
      </trkpt>
      <trkpt lat="47.24051" lon="-2.29672">
        <ele>34.799999237061</ele>
        <time>2019-06-30T07:58:25.000Z</time>
      </trkpt>
      <trkpt lat="47.24046" lon="-2.29637">
        <ele>34.799999237061</ele>
        <time>2019-06-30T07:58:31.000Z</time>
      </trkpt>
      <trkpt lat="47.24049" lon="-2.29623">
        <ele>34.799999237061</ele>
        <time>2019-06-30T07:58:34.000Z</time>
      </trkpt>
      <trkpt lat="47.24052" lon="-2.29619">
        <ele>34.799999237061</ele>
        <time>2019-06-30T07:58:35.000Z</time>
      </trkpt>
      <trkpt lat="47.24065" lon="-2.29607">
        <ele>34.799999237061</ele>
        <time>2019-06-30T07:58:38.000Z</time>
      </trkpt>
      <trkpt lat="47.2407" lon="-2.29604">
        <ele>34.799999237061</ele>
        <time>2019-06-30T07:58:39.000Z</time>
      </trkpt>
      <trkpt lat="47.24081" lon="-2.29597">
        <ele>34.799999237061</ele>
        <time>2019-06-30T07:58:41.000Z</time>
      </trkpt>
      <trkpt lat="47.24096" lon="-2.29587">
        <ele>34.799999237061</ele>
        <time>2019-06-30T07:58:44.000Z</time>
      </trkpt>
      <trkpt lat="47.24101" lon="-2.29583">
        <ele>34.799999237061</ele>
        <time>2019-06-30T07:58:45.000Z</time>
      </trkpt>
      <trkpt lat="47.24106" lon="-2.29572">
        <ele>34.799999237061</ele>
        <time>2019-06-30T07:58:47.000Z</time>
      </trkpt>
      <trkpt lat="47.2411" lon="-2.29549">
        <ele>34.799999237061</ele>
        <time>2019-06-30T07:58:51.000Z</time>
      </trkpt>
      <trkpt lat="47.2411" lon="-2.29543">
        <ele>34.799999237061</ele>
        <time>2019-06-30T07:58:52.000Z</time>
      </trkpt>
      <trkpt lat="47.24098" lon="-2.29503">
        <ele>34.799999237061</ele>
        <time>2019-06-30T07:58:58.000Z</time>
      </trkpt>
      <trkpt lat="47.24097" lon="-2.29485">
        <ele>34.400001525879</ele>
        <time>2019-06-30T07:59:01.000Z</time>
      </trkpt>
      <trkpt lat="47.24099" lon="-2.29482">
        <ele>34</ele>
        <time>2019-06-30T07:59:02.000Z</time>
      </trkpt>
      <trkpt lat="47.24101" lon="-2.29479">
        <ele>33.400001525879</ele>
        <time>2019-06-30T07:59:03.000Z</time>
      </trkpt>
      <trkpt lat="47.24103" lon="-2.29476">
        <ele>33</ele>
        <time>2019-06-30T07:59:04.000Z</time>
      </trkpt>
      <trkpt lat="47.24105" lon="-2.29474">
        <ele>32.599998474121</ele>
        <time>2019-06-30T07:59:05.000Z</time>
      </trkpt>
      <trkpt lat="47.24106" lon="-2.29473">
        <ele>32.599998474121</ele>
        <time>2019-06-30T07:59:06.000Z</time>
      </trkpt>
      <trkpt lat="47.2412" lon="-2.29463">
        <ele>32.599998474121</ele>
        <time>2019-06-30T07:59:12.000Z</time>
      </trkpt>
      <trkpt lat="47.24144" lon="-2.2945">
        <ele>32.599998474121</ele>
        <time>2019-06-30T07:59:20.000Z</time>
      </trkpt>
      <trkpt lat="47.24163" lon="-2.29441">
        <ele>32.599998474121</ele>
        <time>2019-06-30T07:59:27.000Z</time>
      </trkpt>
      <trkpt lat="47.24176" lon="-2.2944">
        <ele>32.599998474121</ele>
        <time>2019-06-30T07:59:30.000Z</time>
      </trkpt>
      <trkpt lat="47.24182" lon="-2.29442">
        <ele>32.599998474121</ele>
        <time>2019-06-30T07:59:31.000Z</time>
      </trkpt>
      <trkpt lat="47.242" lon="-2.29447">
        <ele>32.599998474121</ele>
        <time>2019-06-30T07:59:34.000Z</time>
      </trkpt>
      <trkpt lat="47.24211" lon="-2.29454">
        <ele>32.599998474121</ele>
        <time>2019-06-30T07:59:36.000Z</time>
      </trkpt>
      <trkpt lat="47.24222" lon="-2.29459">
        <ele>32.599998474121</ele>
        <time>2019-06-30T07:59:38.000Z</time>
      </trkpt>
      <trkpt lat="47.24235" lon="-2.29463">
        <ele>32.599998474121</ele>
        <time>2019-06-30T07:59:40.000Z</time>
      </trkpt>
      <trkpt lat="47.24258" lon="-2.29454">
        <ele>32.599998474121</ele>
        <time>2019-06-30T07:59:44.000Z</time>
      </trkpt>
      <trkpt lat="47.24266" lon="-2.29447">
        <ele>32.200000762939</ele>
        <time>2019-06-30T07:59:46.000Z</time>
      </trkpt>
      <trkpt lat="47.24269" lon="-2.29444">
        <ele>31.799999237061</ele>
        <time>2019-06-30T07:59:47.000Z</time>
      </trkpt>
      <trkpt lat="47.24273" lon="-2.2944">
        <ele>31.39999961853</ele>
        <time>2019-06-30T07:59:48.000Z</time>
      </trkpt>
      <trkpt lat="47.24276" lon="-2.29436">
        <ele>31</ele>
        <time>2019-06-30T07:59:49.000Z</time>
      </trkpt>
      <trkpt lat="47.2428" lon="-2.29434">
        <ele>30.60000038147</ele>
        <time>2019-06-30T07:59:50.000Z</time>
      </trkpt>
      <trkpt lat="47.24287" lon="-2.29431">
        <ele>30.60000038147</ele>
        <time>2019-06-30T07:59:52.000Z</time>
      </trkpt>
      <trkpt lat="47.24292" lon="-2.2943">
        <ele>30.60000038147</ele>
        <time>2019-06-30T07:59:53.000Z</time>
      </trkpt>
      <trkpt lat="47.24304" lon="-2.29434">
        <ele>30.60000038147</ele>
        <time>2019-06-30T07:59:55.000Z</time>
      </trkpt>
      <trkpt lat="47.24331" lon="-2.29454">
        <ele>30.60000038147</ele>
        <time>2019-06-30T08:00:00.000Z</time>
      </trkpt>
      <trkpt lat="47.24345" lon="-2.29466">
        <ele>30.60000038147</ele>
        <time>2019-06-30T08:00:03.000Z</time>
      </trkpt>
      <trkpt lat="47.24355" lon="-2.29469">
        <ele>30.60000038147</ele>
        <time>2019-06-30T08:00:05.000Z</time>
      </trkpt>
      <trkpt lat="47.24366" lon="-2.29462">
        <ele>30.60000038147</ele>
        <time>2019-06-30T08:00:07.000Z</time>
      </trkpt>
      <trkpt lat="47.2437" lon="-2.29459">
        <ele>30.60000038147</ele>
        <time>2019-06-30T08:00:08.000Z</time>
      </trkpt>
      <trkpt lat="47.24385" lon="-2.29441">
        <ele>30.60000038147</ele>
        <time>2019-06-30T08:00:13.000Z</time>
      </trkpt>
      <trkpt lat="47.24398" lon="-2.29432">
        <ele>30.60000038147</ele>
        <time>2019-06-30T08:00:18.000Z</time>
      </trkpt>
      <trkpt lat="47.24412" lon="-2.29433">
        <ele>30.60000038147</ele>
        <time>2019-06-30T08:00:22.000Z</time>
      </trkpt>
      <trkpt lat="47.24429" lon="-2.29432">
        <ele>30.60000038147</ele>
        <time>2019-06-30T08:00:26.000Z</time>
      </trkpt>
      <trkpt lat="47.24434" lon="-2.29431">
        <ele>30.60000038147</ele>
        <time>2019-06-30T08:00:27.000Z</time>
      </trkpt>
      <trkpt lat="47.24439" lon="-2.2943">
        <ele>31</ele>
        <time>2019-06-30T08:00:28.000Z</time>
      </trkpt>
      <trkpt lat="47.24443" lon="-2.29429">
        <ele>31.60000038147</ele>
        <time>2019-06-30T08:00:29.000Z</time>
      </trkpt>
      <trkpt lat="47.24448" lon="-2.29428">
        <ele>32</ele>
        <time>2019-06-30T08:00:30.000Z</time>
      </trkpt>
      <trkpt lat="47.24452" lon="-2.29428">
        <ele>32.400001525879</ele>
        <time>2019-06-30T08:00:31.000Z</time>
      </trkpt>
      <trkpt lat="47.24457" lon="-2.29427">
        <ele>33</ele>
        <time>2019-06-30T08:00:32.000Z</time>
      </trkpt>
      <trkpt lat="47.24466" lon="-2.29426">
        <ele>33</ele>
        <time>2019-06-30T08:00:34.000Z</time>
      </trkpt>
      <trkpt lat="47.2449" lon="-2.29424">
        <ele>33.400001525879</ele>
        <time>2019-06-30T08:00:39.000Z</time>
      </trkpt>
      <trkpt lat="47.24494" lon="-2.29423">
        <ele>33.799999237061</ele>
        <time>2019-06-30T08:00:40.000Z</time>
      </trkpt>
      <trkpt lat="47.24498" lon="-2.29422">
        <ele>34.200000762939</ele>
        <time>2019-06-30T08:00:41.000Z</time>
      </trkpt>
      <trkpt lat="47.24502" lon="-2.29421">
        <ele>34.599998474121</ele>
        <time>2019-06-30T08:00:42.000Z</time>
      </trkpt>
      <trkpt lat="47.24505" lon="-2.29421">
        <ele>35</ele>
        <time>2019-06-30T08:00:43.000Z</time>
      </trkpt>
      <trkpt lat="47.24511" lon="-2.29419">
        <ele>35</ele>
        <time>2019-06-30T08:00:46.000Z</time>
      </trkpt>
      <trkpt lat="47.24516" lon="-2.29417">
        <ele>35</ele>
        <time>2019-06-30T08:00:50.000Z</time>
      </trkpt>
      <trkpt lat="47.24518" lon="-2.29411">
        <ele>35</ele>
        <time>2019-06-30T08:01:15.000Z</time>
      </trkpt>
      <trkpt lat="47.24519" lon="-2.29391">
        <ele>35</ele>
        <time>2019-06-30T08:01:20.000Z</time>
      </trkpt>
      <trkpt lat="47.24515" lon="-2.29365">
        <ele>35</ele>
        <time>2019-06-30T08:01:25.000Z</time>
      </trkpt>
      <trkpt lat="47.24512" lon="-2.2934">
        <ele>35</ele>
        <time>2019-06-30T08:01:29.000Z</time>
      </trkpt>
      <trkpt lat="47.24513" lon="-2.29333">
        <ele>35</ele>
        <time>2019-06-30T08:01:30.000Z</time>
      </trkpt>
      <trkpt lat="47.24513" lon="-2.2931">
        <ele>35</ele>
        <time>2019-06-30T08:01:33.000Z</time>
      </trkpt>
      <trkpt lat="47.24512" lon="-2.29287">
        <ele>35</ele>
        <time>2019-06-30T08:01:36.000Z</time>
      </trkpt>
      <trkpt lat="47.24512" lon="-2.29243">
        <ele>35</ele>
        <time>2019-06-30T08:01:41.000Z</time>
      </trkpt>
      <trkpt lat="47.24513" lon="-2.29234">
        <ele>35.400001525879</ele>
        <time>2019-06-30T08:01:42.000Z</time>
      </trkpt>
      <trkpt lat="47.24513" lon="-2.29225">
        <ele>35.799999237061</ele>
        <time>2019-06-30T08:01:43.000Z</time>
      </trkpt>
      <trkpt lat="47.24514" lon="-2.29216">
        <ele>36.200000762939</ele>
        <time>2019-06-30T08:01:44.000Z</time>
      </trkpt>
      <trkpt lat="47.24515" lon="-2.29208">
        <ele>36.799999237061</ele>
        <time>2019-06-30T08:01:45.000Z</time>
      </trkpt>
      <trkpt lat="47.24517" lon="-2.29198">
        <ele>37.200000762939</ele>
        <time>2019-06-30T08:01:46.000Z</time>
      </trkpt>
      <trkpt lat="47.2452" lon="-2.2918">
        <ele>37.200000762939</ele>
        <time>2019-06-30T08:01:48.000Z</time>
      </trkpt>
      <trkpt lat="47.24522" lon="-2.29171">
        <ele>37.200000762939</ele>
        <time>2019-06-30T08:01:49.000Z</time>
      </trkpt>
      <trkpt lat="47.24531" lon="-2.29138">
        <ele>37.200000762939</ele>
        <time>2019-06-30T08:01:53.000Z</time>
      </trkpt>
      <trkpt lat="47.24547" lon="-2.29069">
        <ele>37.200000762939</ele>
        <time>2019-06-30T08:02:01.000Z</time>
      </trkpt>
      <trkpt lat="47.24553" lon="-2.29015">
        <ele>37.200000762939</ele>
        <time>2019-06-30T08:02:07.000Z</time>
      </trkpt>
      <trkpt lat="47.24553" lon="-2.29006">
        <ele>37.200000762939</ele>
        <time>2019-06-30T08:02:08.000Z</time>
      </trkpt>
      <trkpt lat="47.24548" lon="-2.28977">
        <ele>36.799999237061</ele>
        <time>2019-06-30T08:02:11.000Z</time>
      </trkpt>
      <trkpt lat="47.24546" lon="-2.28968">
        <ele>36.200000762939</ele>
        <time>2019-06-30T08:02:12.000Z</time>
      </trkpt>
      <trkpt lat="47.24543" lon="-2.28959">
        <ele>35.799999237061</ele>
        <time>2019-06-30T08:02:13.000Z</time>
      </trkpt>
      <trkpt lat="47.24541" lon="-2.2895">
        <ele>35.400001525879</ele>
        <time>2019-06-30T08:02:14.000Z</time>
      </trkpt>
      <trkpt lat="47.24538" lon="-2.28941">
        <ele>35</ele>
        <time>2019-06-30T08:02:15.000Z</time>
      </trkpt>
      <trkpt lat="47.24525" lon="-2.28905">
        <ele>35</ele>
        <time>2019-06-30T08:02:19.000Z</time>
      </trkpt>
      <trkpt lat="47.24516" lon="-2.2888">
        <ele>35</ele>
        <time>2019-06-30T08:02:22.000Z</time>
      </trkpt>
      <trkpt lat="47.24512" lon="-2.28874">
        <ele>34.599998474121</ele>
        <time>2019-06-30T08:02:23.000Z</time>
      </trkpt>
      <trkpt lat="47.24506" lon="-2.28871">
        <ele>34.200000762939</ele>
        <time>2019-06-30T08:02:24.000Z</time>
      </trkpt>
      <trkpt lat="47.24499" lon="-2.28871">
        <ele>33.599998474121</ele>
        <time>2019-06-30T08:02:25.000Z</time>
      </trkpt>
      <trkpt lat="47.24493" lon="-2.28875">
        <ele>33.200000762939</ele>
        <time>2019-06-30T08:02:26.000Z</time>
      </trkpt>
      <trkpt lat="47.24487" lon="-2.28879">
        <ele>32.599998474121</ele>
        <time>2019-06-30T08:02:27.000Z</time>
      </trkpt>
      <trkpt lat="47.24482" lon="-2.28883">
        <ele>32.200000762939</ele>
        <time>2019-06-30T08:02:28.000Z</time>
      </trkpt>
      <trkpt lat="47.24476" lon="-2.28886">
        <ele>31.60000038147</ele>
        <time>2019-06-30T08:02:29.000Z</time>
      </trkpt>
      <trkpt lat="47.2447" lon="-2.28889">
        <ele>31</ele>
        <time>2019-06-30T08:02:30.000Z</time>
      </trkpt>
      <trkpt lat="47.24464" lon="-2.28892">
        <ele>30.60000038147</ele>
        <time>2019-06-30T08:02:31.000Z</time>
      </trkpt>
      <trkpt lat="47.24439" lon="-2.28898">
        <ele>30.60000038147</ele>
        <time>2019-06-30T08:02:35.000Z</time>
      </trkpt>
      <trkpt lat="47.24409" lon="-2.28899">
        <ele>30.200000762939</ele>
        <time>2019-06-30T08:02:39.000Z</time>
      </trkpt>
      <trkpt lat="47.24401" lon="-2.289">
        <ele>29.60000038147</ele>
        <time>2019-06-30T08:02:40.000Z</time>
      </trkpt>
      <trkpt lat="47.24393" lon="-2.289">
        <ele>29.200000762939</ele>
        <time>2019-06-30T08:02:41.000Z</time>
      </trkpt>
      <trkpt lat="47.24385" lon="-2.28901">
        <ele>28.799999237061</ele>
        <time>2019-06-30T08:02:42.000Z</time>
      </trkpt>
      <trkpt lat="47.24378" lon="-2.28902">
        <ele>28.39999961853</ele>
        <time>2019-06-30T08:02:43.000Z</time>
      </trkpt>
      <trkpt lat="47.24363" lon="-2.28904">
        <ele>28</ele>
        <time>2019-06-30T08:02:45.000Z</time>
      </trkpt>
      <trkpt lat="47.24357" lon="-2.28902">
        <ele>27.60000038147</ele>
        <time>2019-06-30T08:02:46.000Z</time>
      </trkpt>
      <trkpt lat="47.24352" lon="-2.28899">
        <ele>27.200000762939</ele>
        <time>2019-06-30T08:02:47.000Z</time>
      </trkpt>
      <trkpt lat="47.24347" lon="-2.28894">
        <ele>26.799999237061</ele>
        <time>2019-06-30T08:02:48.000Z</time>
      </trkpt>
      <trkpt lat="47.24342" lon="-2.28888">
        <ele>26.39999961853</ele>
        <time>2019-06-30T08:02:49.000Z</time>
      </trkpt>
      <trkpt lat="47.24337" lon="-2.28882">
        <ele>26.39999961853</ele>
        <time>2019-06-30T08:02:50.000Z</time>
      </trkpt>
      <trkpt lat="47.24332" lon="-2.28874">
        <ele>26.39999961853</ele>
        <time>2019-06-30T08:02:51.000Z</time>
      </trkpt>
      <trkpt lat="47.24328" lon="-2.28866">
        <ele>26.39999961853</ele>
        <time>2019-06-30T08:02:52.000Z</time>
      </trkpt>
      <trkpt lat="47.24302" lon="-2.28808">
        <ele>26</ele>
        <time>2019-06-30T08:02:58.000Z</time>
      </trkpt>
      <trkpt lat="47.24298" lon="-2.288">
        <ele>25.39999961853</ele>
        <time>2019-06-30T08:02:59.000Z</time>
      </trkpt>
      <trkpt lat="47.24292" lon="-2.28792">
        <ele>25</ele>
        <time>2019-06-30T08:03:00.000Z</time>
      </trkpt>
      <trkpt lat="47.24287" lon="-2.28785">
        <ele>24.60000038147</ele>
        <time>2019-06-30T08:03:01.000Z</time>
      </trkpt>
      <trkpt lat="47.2428" lon="-2.2878">
        <ele>24.200000762939</ele>
        <time>2019-06-30T08:03:02.000Z</time>
      </trkpt>
      <trkpt lat="47.24266" lon="-2.28775">
        <ele>24.200000762939</ele>
        <time>2019-06-30T08:03:04.000Z</time>
      </trkpt>
      <trkpt lat="47.24259" lon="-2.28773">
        <ele>24.200000762939</ele>
        <time>2019-06-30T08:03:05.000Z</time>
      </trkpt>
      <trkpt lat="47.24252" lon="-2.28771">
        <ele>23.60000038147</ele>
        <time>2019-06-30T08:03:06.000Z</time>
      </trkpt>
      <trkpt lat="47.24245" lon="-2.28769">
        <ele>23.200000762939</ele>
        <time>2019-06-30T08:03:07.000Z</time>
      </trkpt>
      <trkpt lat="47.24238" lon="-2.28769">
        <ele>22.39999961853</ele>
        <time>2019-06-30T08:03:08.000Z</time>
      </trkpt>
      <trkpt lat="47.24233" lon="-2.2877">
        <ele>22</ele>
        <time>2019-06-30T08:03:09.000Z</time>
      </trkpt>
      <trkpt lat="47.24222" lon="-2.28773">
        <ele>22</ele>
        <time>2019-06-30T08:03:12.000Z</time>
      </trkpt>
      <trkpt lat="47.24217" lon="-2.28762">
        <ele>22</ele>
        <time>2019-06-30T08:03:15.000Z</time>
      </trkpt>
      <trkpt lat="47.24214" lon="-2.28746">
        <ele>22</ele>
        <time>2019-06-30T08:03:18.000Z</time>
      </trkpt>
      <trkpt lat="47.24213" lon="-2.28735">
        <ele>22</ele>
        <time>2019-06-30T08:03:20.000Z</time>
      </trkpt>
      <trkpt lat="47.24211" lon="-2.28703">
        <ele>22</ele>
        <time>2019-06-30T08:03:27.000Z</time>
      </trkpt>
      <trkpt lat="47.24223" lon="-2.28678">
        <ele>21.200000762939</ele>
        <time>2019-06-30T08:03:33.000Z</time>
      </trkpt>
      <trkpt lat="47.24226" lon="-2.28676">
        <ele>20.799999237061</ele>
        <time>2019-06-30T08:03:34.000Z</time>
      </trkpt>
      <trkpt lat="47.2423" lon="-2.28677">
        <ele>20.39999961853</ele>
        <time>2019-06-30T08:03:35.000Z</time>
      </trkpt>
      <trkpt lat="47.24233" lon="-2.28677">
        <ele>20</ele>
        <time>2019-06-30T08:03:36.000Z</time>
      </trkpt>
      <trkpt lat="47.24252" lon="-2.28676">
        <ele>20</ele>
        <time>2019-06-30T08:03:41.000Z</time>
      </trkpt>
      <trkpt lat="47.24274" lon="-2.28676">
        <ele>20</ele>
        <time>2019-06-30T08:03:47.000Z</time>
      </trkpt>
      <trkpt lat="47.2429" lon="-2.28672">
        <ele>20</ele>
        <time>2019-06-30T08:03:51.000Z</time>
      </trkpt>
      <trkpt lat="47.24295" lon="-2.28671">
        <ele>20.39999961853</ele>
        <time>2019-06-30T08:03:52.000Z</time>
      </trkpt>
      <trkpt lat="47.24299" lon="-2.28669">
        <ele>20.799999237061</ele>
        <time>2019-06-30T08:03:53.000Z</time>
      </trkpt>
      <trkpt lat="47.24303" lon="-2.28668">
        <ele>21.200000762939</ele>
        <time>2019-06-30T08:03:54.000Z</time>
      </trkpt>
      <trkpt lat="47.24317" lon="-2.28661">
        <ele>22.200000762939</ele>
        <time>2019-06-30T08:03:55.000Z</time>
      </trkpt>
      <trkpt lat="47.24333" lon="-2.28653">
        <ele>22.200000762939</ele>
        <time>2019-06-30T08:04:01.000Z</time>
      </trkpt>
      <trkpt lat="47.24345" lon="-2.28647">
        <ele>22.200000762939</ele>
        <time>2019-06-30T08:04:05.000Z</time>
      </trkpt>
      <trkpt lat="47.24347" lon="-2.28644">
        <ele>22.200000762939</ele>
        <time>2019-06-30T08:04:06.000Z</time>
      </trkpt>
      <trkpt lat="47.2435" lon="-2.28642">
        <ele>22.60000038147</ele>
        <time>2019-06-30T08:04:07.000Z</time>
      </trkpt>
      <trkpt lat="47.24352" lon="-2.28639">
        <ele>23</ele>
        <time>2019-06-30T08:04:08.000Z</time>
      </trkpt>
      <trkpt lat="47.24356" lon="-2.28636">
        <ele>23.39999961853</ele>
        <time>2019-06-30T08:04:09.000Z</time>
      </trkpt>
      <trkpt lat="47.2436" lon="-2.28633">
        <ele>23.799999237061</ele>
        <time>2019-06-30T08:04:10.000Z</time>
      </trkpt>
      <trkpt lat="47.24364" lon="-2.28631">
        <ele>24.200000762939</ele>
        <time>2019-06-30T08:04:11.000Z</time>
      </trkpt>
      <trkpt lat="47.24377" lon="-2.28623">
        <ele>24.200000762939</ele>
        <time>2019-06-30T08:04:15.000Z</time>
      </trkpt>
      <trkpt lat="47.24394" lon="-2.28614">
        <ele>24.200000762939</ele>
        <time>2019-06-30T08:04:20.000Z</time>
      </trkpt>
      <trkpt lat="47.24397" lon="-2.28612">
        <ele>24.200000762939</ele>
        <time>2019-06-30T08:04:21.000Z</time>
      </trkpt>
      <trkpt lat="47.244" lon="-2.28611">
        <ele>24.60000038147</ele>
        <time>2019-06-30T08:04:22.000Z</time>
      </trkpt>
      <trkpt lat="47.24403" lon="-2.28609">
        <ele>25</ele>
        <time>2019-06-30T08:04:23.000Z</time>
      </trkpt>
      <trkpt lat="47.24406" lon="-2.28608">
        <ele>25.39999961853</ele>
        <time>2019-06-30T08:04:24.000Z</time>
      </trkpt>
      <trkpt lat="47.24408" lon="-2.28606">
        <ele>25.799999237061</ele>
        <time>2019-06-30T08:04:25.000Z</time>
      </trkpt>
      <trkpt lat="47.24411" lon="-2.28605">
        <ele>26.200000762939</ele>
        <time>2019-06-30T08:04:26.000Z</time>
      </trkpt>
      <trkpt lat="47.24417" lon="-2.28601">
        <ele>26.200000762939</ele>
        <time>2019-06-30T08:04:28.000Z</time>
      </trkpt>
      <trkpt lat="47.24439" lon="-2.28592">
        <ele>26.200000762939</ele>
        <time>2019-06-30T08:04:33.000Z</time>
      </trkpt>
      <trkpt lat="47.24453" lon="-2.28589">
        <ele>26.200000762939</ele>
        <time>2019-06-30T08:04:36.000Z</time>
      </trkpt>
      <trkpt lat="47.24467" lon="-2.28593">
        <ele>26.200000762939</ele>
        <time>2019-06-30T08:04:39.000Z</time>
      </trkpt>
      <trkpt lat="47.24478" lon="-2.28605">
        <ele>26.200000762939</ele>
        <time>2019-06-30T08:04:42.000Z</time>
      </trkpt>
      <trkpt lat="47.24485" lon="-2.28614">
        <ele>26.200000762939</ele>
        <time>2019-06-30T08:04:44.000Z</time>
      </trkpt>
      <trkpt lat="47.24495" lon="-2.28628">
        <ele>26.60000038147</ele>
        <time>2019-06-30T08:04:47.000Z</time>
      </trkpt>
      <trkpt lat="47.24498" lon="-2.28632">
        <ele>27</ele>
        <time>2019-06-30T08:04:48.000Z</time>
      </trkpt>
      <trkpt lat="47.24502" lon="-2.28635">
        <ele>27.39999961853</ele>
        <time>2019-06-30T08:04:49.000Z</time>
      </trkpt>
      <trkpt lat="47.24505" lon="-2.28638">
        <ele>27.799999237061</ele>
        <time>2019-06-30T08:04:50.000Z</time>
      </trkpt>
      <trkpt lat="47.24508" lon="-2.28641">
        <ele>28.39999961853</ele>
        <time>2019-06-30T08:04:51.000Z</time>
      </trkpt>
      <trkpt lat="47.24522" lon="-2.28642">
        <ele>28.39999961853</ele>
        <time>2019-06-30T08:04:55.000Z</time>
      </trkpt>
      <trkpt lat="47.24541" lon="-2.28629">
        <ele>28.39999961853</ele>
        <time>2019-06-30T08:05:01.000Z</time>
      </trkpt>
      <trkpt lat="47.24548" lon="-2.28612">
        <ele>28.799999237061</ele>
        <time>2019-06-30T08:05:05.000Z</time>
      </trkpt>
      <trkpt lat="47.2455" lon="-2.28607">
        <ele>29.200000762939</ele>
        <time>2019-06-30T08:05:06.000Z</time>
      </trkpt>
      <trkpt lat="47.24553" lon="-2.28603">
        <ele>29.60000038147</ele>
        <time>2019-06-30T08:05:07.000Z</time>
      </trkpt>
      <trkpt lat="47.24557" lon="-2.286">
        <ele>30</ele>
        <time>2019-06-30T08:05:08.000Z</time>
      </trkpt>
      <trkpt lat="47.24561" lon="-2.28597">
        <ele>30.60000038147</ele>
        <time>2019-06-30T08:05:09.000Z</time>
      </trkpt>
      <trkpt lat="47.24587" lon="-2.28582">
        <ele>30.60000038147</ele>
        <time>2019-06-30T08:05:15.000Z</time>
      </trkpt>
      <trkpt lat="47.24591" lon="-2.28578">
        <ele>30.60000038147</ele>
        <time>2019-06-30T08:05:16.000Z</time>
      </trkpt>
      <trkpt lat="47.24613" lon="-2.28559">
        <ele>30.60000038147</ele>
        <time>2019-06-30T08:05:21.000Z</time>
      </trkpt>
      <trkpt lat="47.24617" lon="-2.28556">
        <ele>31</ele>
        <time>2019-06-30T08:05:22.000Z</time>
      </trkpt>
      <trkpt lat="47.24621" lon="-2.28553">
        <ele>31.39999961853</ele>
        <time>2019-06-30T08:05:23.000Z</time>
      </trkpt>
      <trkpt lat="47.24625" lon="-2.2855">
        <ele>31.799999237061</ele>
        <time>2019-06-30T08:05:24.000Z</time>
      </trkpt>
      <trkpt lat="47.2463" lon="-2.28547">
        <ele>32.200000762939</ele>
        <time>2019-06-30T08:05:25.000Z</time>
      </trkpt>
      <trkpt lat="47.24634" lon="-2.28544">
        <ele>32.599998474121</ele>
        <time>2019-06-30T08:05:26.000Z</time>
      </trkpt>
      <trkpt lat="47.24638" lon="-2.28541">
        <ele>32.599998474121</ele>
        <time>2019-06-30T08:05:27.000Z</time>
      </trkpt>
      <trkpt lat="47.2465" lon="-2.28534">
        <ele>32.599998474121</ele>
        <time>2019-06-30T08:05:30.000Z</time>
      </trkpt>
      <trkpt lat="47.2466" lon="-2.28532">
        <ele>32.599998474121</ele>
        <time>2019-06-30T08:05:32.000Z</time>
      </trkpt>
      <trkpt lat="47.24678" lon="-2.28541">
        <ele>32.599998474121</ele>
        <time>2019-06-30T08:05:36.000Z</time>
      </trkpt>
      <trkpt lat="47.24683" lon="-2.28545">
        <ele>32.599998474121</ele>
        <time>2019-06-30T08:05:37.000Z</time>
      </trkpt>
      <trkpt lat="47.24693" lon="-2.28552">
        <ele>33.200000762939</ele>
        <time>2019-06-30T08:05:39.000Z</time>
      </trkpt>
      <trkpt lat="47.24698" lon="-2.28556">
        <ele>33.599998474121</ele>
        <time>2019-06-30T08:05:40.000Z</time>
      </trkpt>
      <trkpt lat="47.24703" lon="-2.2856">
        <ele>34</ele>
        <time>2019-06-30T08:05:41.000Z</time>
      </trkpt>
      <trkpt lat="47.24708" lon="-2.28565">
        <ele>34.400001525879</ele>
        <time>2019-06-30T08:05:42.000Z</time>
      </trkpt>
      <trkpt lat="47.24713" lon="-2.28569">
        <ele>34.799999237061</ele>
        <time>2019-06-30T08:05:43.000Z</time>
      </trkpt>
      <trkpt lat="47.24721" lon="-2.28575">
        <ele>34.799999237061</ele>
        <time>2019-06-30T08:05:45.000Z</time>
      </trkpt>
      <trkpt lat="47.24729" lon="-2.2858">
        <ele>34.799999237061</ele>
        <time>2019-06-30T08:05:47.000Z</time>
      </trkpt>
      <trkpt lat="47.24736" lon="-2.28582">
        <ele>34.799999237061</ele>
        <time>2019-06-30T08:05:50.000Z</time>
      </trkpt>
      <trkpt lat="47.24738" lon="-2.28581">
        <ele>34.799999237061</ele>
        <time>2019-06-30T08:05:52.000Z</time>
      </trkpt>
      <trkpt lat="47.2474" lon="-2.28579">
        <ele>34.799999237061</ele>
        <time>2019-06-30T08:06:19.000Z</time>
      </trkpt>
      <trkpt lat="47.24744" lon="-2.28574">
        <ele>34.799999237061</ele>
        <time>2019-06-30T08:06:21.000Z</time>
      </trkpt>
      <trkpt lat="47.24756" lon="-2.28555">
        <ele>34.799999237061</ele>
        <time>2019-06-30T08:06:26.000Z</time>
      </trkpt>
      <trkpt lat="47.24759" lon="-2.28552">
        <ele>34.799999237061</ele>
        <time>2019-06-30T08:06:27.000Z</time>
      </trkpt>
      <trkpt lat="47.24782" lon="-2.28529">
        <ele>34.799999237061</ele>
        <time>2019-06-30T08:06:33.000Z</time>
      </trkpt>
      <trkpt lat="47.24808" lon="-2.28507">
        <ele>34.799999237061</ele>
        <time>2019-06-30T08:06:39.000Z</time>
      </trkpt>
      <trkpt lat="47.24838" lon="-2.28485">
        <ele>34.799999237061</ele>
        <time>2019-06-30T08:06:45.000Z</time>
      </trkpt>
      <trkpt lat="47.24863" lon="-2.28462">
        <ele>34.400001525879</ele>
        <time>2019-06-30T08:06:50.000Z</time>
      </trkpt>
      <trkpt lat="47.24867" lon="-2.28456">
        <ele>33.599998474121</ele>
        <time>2019-06-30T08:06:51.000Z</time>
      </trkpt>
      <trkpt lat="47.24871" lon="-2.28451">
        <ele>33.200000762939</ele>
        <time>2019-06-30T08:06:52.000Z</time>
      </trkpt>
      <trkpt lat="47.24876" lon="-2.28446">
        <ele>32.799999237061</ele>
        <time>2019-06-30T08:06:53.000Z</time>
      </trkpt>
      <trkpt lat="47.24885" lon="-2.28436">
        <ele>32.799999237061</ele>
        <time>2019-06-30T08:06:55.000Z</time>
      </trkpt>
      <trkpt lat="47.2489" lon="-2.28431">
        <ele>32.799999237061</ele>
        <time>2019-06-30T08:06:56.000Z</time>
      </trkpt>
      <trkpt lat="47.24901" lon="-2.28424">
        <ele>32.400001525879</ele>
        <time>2019-06-30T08:06:58.000Z</time>
      </trkpt>
      <trkpt lat="47.24907" lon="-2.28421">
        <ele>32</ele>
        <time>2019-06-30T08:06:59.000Z</time>
      </trkpt>
      <trkpt lat="47.24914" lon="-2.28418">
        <ele>31.60000038147</ele>
        <time>2019-06-30T08:07:00.000Z</time>
      </trkpt>
      <trkpt lat="47.24921" lon="-2.28416">
        <ele>31</ele>
        <time>2019-06-30T08:07:01.000Z</time>
      </trkpt>
      <trkpt lat="47.24927" lon="-2.28414">
        <ele>30.60000038147</ele>
        <time>2019-06-30T08:07:02.000Z</time>
      </trkpt>
      <trkpt lat="47.24955" lon="-2.28405">
        <ele>30.60000038147</ele>
        <time>2019-06-30T08:07:06.000Z</time>
      </trkpt>
      <trkpt lat="47.24963" lon="-2.28402">
        <ele>30.200000762939</ele>
        <time>2019-06-30T08:07:07.000Z</time>
      </trkpt>
      <trkpt lat="47.24969" lon="-2.28398">
        <ele>29.799999237061</ele>
        <time>2019-06-30T08:07:08.000Z</time>
      </trkpt>
      <trkpt lat="47.24976" lon="-2.28392">
        <ele>29.39999961853</ele>
        <time>2019-06-30T08:07:09.000Z</time>
      </trkpt>
      <trkpt lat="47.24982" lon="-2.28386">
        <ele>28.799999237061</ele>
        <time>2019-06-30T08:07:10.000Z</time>
      </trkpt>
      <trkpt lat="47.24987" lon="-2.28377">
        <ele>28.39999961853</ele>
        <time>2019-06-30T08:07:11.000Z</time>
      </trkpt>
      <trkpt lat="47.24991" lon="-2.28368">
        <ele>28</ele>
        <time>2019-06-30T08:07:12.000Z</time>
      </trkpt>
      <trkpt lat="47.24994" lon="-2.28359">
        <ele>27.60000038147</ele>
        <time>2019-06-30T08:07:13.000Z</time>
      </trkpt>
      <trkpt lat="47.24998" lon="-2.2835">
        <ele>27.200000762939</ele>
        <time>2019-06-30T08:07:14.000Z</time>
      </trkpt>
      <trkpt lat="47.25003" lon="-2.28343">
        <ele>26.799999237061</ele>
        <time>2019-06-30T08:07:15.000Z</time>
      </trkpt>
      <trkpt lat="47.25007" lon="-2.28337">
        <ele>26.39999961853</ele>
        <time>2019-06-30T08:07:16.000Z</time>
      </trkpt>
      <trkpt lat="47.25012" lon="-2.28332">
        <ele>26.39999961853</ele>
        <time>2019-06-30T08:07:17.000Z</time>
      </trkpt>
      <trkpt lat="47.25028" lon="-2.28313">
        <ele>26.39999961853</ele>
        <time>2019-06-30T08:07:21.000Z</time>
      </trkpt>
      <trkpt lat="47.25031" lon="-2.28299">
        <ele>26.799999237061</ele>
        <time>2019-06-30T08:07:23.000Z</time>
      </trkpt>
      <trkpt lat="47.25032" lon="-2.28291">
        <ele>27.200000762939</ele>
        <time>2019-06-30T08:07:24.000Z</time>
      </trkpt>
      <trkpt lat="47.25033" lon="-2.28283">
        <ele>27.60000038147</ele>
        <time>2019-06-30T08:07:25.000Z</time>
      </trkpt>
      <trkpt lat="47.25033" lon="-2.28273">
        <ele>28</ele>
        <time>2019-06-30T08:07:26.000Z</time>
      </trkpt>
      <trkpt lat="47.25034" lon="-2.28264">
        <ele>28.60000038147</ele>
        <time>2019-06-30T08:07:27.000Z</time>
      </trkpt>
      <trkpt lat="47.25038" lon="-2.28238">
        <ele>28.60000038147</ele>
        <time>2019-06-30T08:07:30.000Z</time>
      </trkpt>
      <trkpt lat="47.2504" lon="-2.2823">
        <ele>28.60000038147</ele>
        <time>2019-06-30T08:07:31.000Z</time>
      </trkpt>
      <trkpt lat="47.25047" lon="-2.28201">
        <ele>28.60000038147</ele>
        <time>2019-06-30T08:07:35.000Z</time>
      </trkpt>
      <trkpt lat="47.25058" lon="-2.28162">
        <ele>28.60000038147</ele>
        <time>2019-06-30T08:07:41.000Z</time>
      </trkpt>
      <trkpt lat="47.25071" lon="-2.2812">
        <ele>28.60000038147</ele>
        <time>2019-06-30T08:07:48.000Z</time>
      </trkpt>
      <trkpt lat="47.25072" lon="-2.281">
        <ele>28.60000038147</ele>
        <time>2019-06-30T08:07:51.000Z</time>
      </trkpt>
      <trkpt lat="47.25075" lon="-2.28093">
        <ele>28.60000038147</ele>
        <time>2019-06-30T08:07:52.000Z</time>
      </trkpt>
      <trkpt lat="47.2509" lon="-2.28059">
        <ele>28.60000038147</ele>
        <time>2019-06-30T08:07:57.000Z</time>
      </trkpt>
      <trkpt lat="47.25092" lon="-2.28052">
        <ele>28.60000038147</ele>
        <time>2019-06-30T08:07:58.000Z</time>
      </trkpt>
      <trkpt lat="47.25098" lon="-2.28037">
        <ele>29</ele>
        <time>2019-06-30T08:08:00.000Z</time>
      </trkpt>
      <trkpt lat="47.25101" lon="-2.2803">
        <ele>29.39999961853</ele>
        <time>2019-06-30T08:08:01.000Z</time>
      </trkpt>
      <trkpt lat="47.25104" lon="-2.28023">
        <ele>29.799999237061</ele>
        <time>2019-06-30T08:08:02.000Z</time>
      </trkpt>
      <trkpt lat="47.25106" lon="-2.28016">
        <ele>30.200000762939</ele>
        <time>2019-06-30T08:08:03.000Z</time>
      </trkpt>
      <trkpt lat="47.25108" lon="-2.28009">
        <ele>30.60000038147</ele>
        <time>2019-06-30T08:08:04.000Z</time>
      </trkpt>
      <trkpt lat="47.25128" lon="-2.27972">
        <ele>30.60000038147</ele>
        <time>2019-06-30T08:08:10.000Z</time>
      </trkpt>
      <trkpt lat="47.25154" lon="-2.27945">
        <ele>30.60000038147</ele>
        <time>2019-06-30T08:08:16.000Z</time>
      </trkpt>
      <trkpt lat="47.25177" lon="-2.27929">
        <ele>30.60000038147</ele>
        <time>2019-06-30T08:08:21.000Z</time>
      </trkpt>
      <trkpt lat="47.25181" lon="-2.27925">
        <ele>31</ele>
        <time>2019-06-30T08:08:22.000Z</time>
      </trkpt>
      <trkpt lat="47.25186" lon="-2.27921">
        <ele>31.39999961853</ele>
        <time>2019-06-30T08:08:23.000Z</time>
      </trkpt>
      <trkpt lat="47.25191" lon="-2.27918">
        <ele>32</ele>
        <time>2019-06-30T08:08:24.000Z</time>
      </trkpt>
      <trkpt lat="47.25196" lon="-2.27915">
        <ele>32.400001525879</ele>
        <time>2019-06-30T08:08:25.000Z</time>
      </trkpt>
      <trkpt lat="47.25201" lon="-2.27912">
        <ele>32.799999237061</ele>
        <time>2019-06-30T08:08:26.000Z</time>
      </trkpt>
      <trkpt lat="47.2521" lon="-2.27907">
        <ele>32.799999237061</ele>
        <time>2019-06-30T08:08:28.000Z</time>
      </trkpt>
      <trkpt lat="47.2524" lon="-2.27892">
        <ele>32.799999237061</ele>
        <time>2019-06-30T08:08:34.000Z</time>
      </trkpt>
      <trkpt lat="47.25276" lon="-2.27875">
        <ele>32.799999237061</ele>
        <time>2019-06-30T08:08:41.000Z</time>
      </trkpt>
      <trkpt lat="47.25299" lon="-2.2787">
        <ele>33.200000762939</ele>
        <time>2019-06-30T08:08:45.000Z</time>
      </trkpt>
      <trkpt lat="47.25304" lon="-2.27869">
        <ele>33.599998474121</ele>
        <time>2019-06-30T08:08:46.000Z</time>
      </trkpt>
      <trkpt lat="47.25309" lon="-2.27868">
        <ele>34</ele>
        <time>2019-06-30T08:08:47.000Z</time>
      </trkpt>
      <trkpt lat="47.25315" lon="-2.27867">
        <ele>34.400001525879</ele>
        <time>2019-06-30T08:08:48.000Z</time>
      </trkpt>
      <trkpt lat="47.25321" lon="-2.27867">
        <ele>35</ele>
        <time>2019-06-30T08:08:49.000Z</time>
      </trkpt>
      <trkpt lat="47.25348" lon="-2.27862">
        <ele>35</ele>
        <time>2019-06-30T08:08:54.000Z</time>
      </trkpt>
      <trkpt lat="47.25381" lon="-2.27853">
        <ele>35</ele>
        <time>2019-06-30T08:09:00.000Z</time>
      </trkpt>
      <trkpt lat="47.25395" lon="-2.27846">
        <ele>35</ele>
        <time>2019-06-30T08:09:03.000Z</time>
      </trkpt>
      <trkpt lat="47.25404" lon="-2.27841">
        <ele>35</ele>
        <time>2019-06-30T08:09:05.000Z</time>
      </trkpt>
      <trkpt lat="47.25434" lon="-2.27822">
        <ele>35</ele>
        <time>2019-06-30T08:09:11.000Z</time>
      </trkpt>
      <trkpt lat="47.25447" lon="-2.27811">
        <ele>35</ele>
        <time>2019-06-30T08:09:14.000Z</time>
      </trkpt>
      <trkpt lat="47.25459" lon="-2.27799">
        <ele>35</ele>
        <time>2019-06-30T08:09:17.000Z</time>
      </trkpt>
      <trkpt lat="47.25467" lon="-2.27789">
        <ele>35.400001525879</ele>
        <time>2019-06-30T08:09:19.000Z</time>
      </trkpt>
      <trkpt lat="47.25471" lon="-2.27785">
        <ele>35.799999237061</ele>
        <time>2019-06-30T08:09:20.000Z</time>
      </trkpt>
      <trkpt lat="47.25475" lon="-2.27781">
        <ele>36.200000762939</ele>
        <time>2019-06-30T08:09:21.000Z</time>
      </trkpt>
      <trkpt lat="47.25479" lon="-2.27776">
        <ele>36.599998474121</ele>
        <time>2019-06-30T08:09:22.000Z</time>
      </trkpt>
      <trkpt lat="47.25483" lon="-2.27772">
        <ele>37.200000762939</ele>
        <time>2019-06-30T08:09:23.000Z</time>
      </trkpt>
      <trkpt lat="47.25488" lon="-2.27769">
        <ele>37.200000762939</ele>
        <time>2019-06-30T08:09:24.000Z</time>
      </trkpt>
      <trkpt lat="47.25502" lon="-2.27755">
        <ele>37.200000762939</ele>
        <time>2019-06-30T08:09:28.000Z</time>
      </trkpt>
      <trkpt lat="47.25505" lon="-2.27745">
        <ele>37.200000762939</ele>
        <time>2019-06-30T08:09:30.000Z</time>
      </trkpt>
      <trkpt lat="47.25505" lon="-2.27739">
        <ele>37.200000762939</ele>
        <time>2019-06-30T08:09:31.000Z</time>
      </trkpt>
      <trkpt lat="47.25502" lon="-2.27714">
        <ele>37.599998474121</ele>
        <time>2019-06-30T08:09:34.000Z</time>
      </trkpt>
      <trkpt lat="47.255" lon="-2.27706">
        <ele>38</ele>
        <time>2019-06-30T08:09:35.000Z</time>
      </trkpt>
      <trkpt lat="47.25499" lon="-2.27698">
        <ele>38.400001525879</ele>
        <time>2019-06-30T08:09:36.000Z</time>
      </trkpt>
      <trkpt lat="47.25497" lon="-2.2769">
        <ele>39</ele>
        <time>2019-06-30T08:09:37.000Z</time>
      </trkpt>
      <trkpt lat="47.25495" lon="-2.27682">
        <ele>39.400001525879</ele>
        <time>2019-06-30T08:09:38.000Z</time>
      </trkpt>
      <trkpt lat="47.25491" lon="-2.2766">
        <ele>39.400001525879</ele>
        <time>2019-06-30T08:09:41.000Z</time>
      </trkpt>
      <trkpt lat="47.25489" lon="-2.27644">
        <ele>39.400001525879</ele>
        <time>2019-06-30T08:09:45.000Z</time>
      </trkpt>
      <trkpt lat="47.25485" lon="-2.27629">
        <ele>39.400001525879</ele>
        <time>2019-06-30T08:09:50.000Z</time>
      </trkpt>
      <trkpt lat="47.25475" lon="-2.27613">
        <ele>39.400001525879</ele>
        <time>2019-06-30T08:09:54.000Z</time>
      </trkpt>
      <trkpt lat="47.25471" lon="-2.27609">
        <ele>39.400001525879</ele>
        <time>2019-06-30T08:09:55.000Z</time>
      </trkpt>
      <trkpt lat="47.25464" lon="-2.27592">
        <ele>39.400001525879</ele>
        <time>2019-06-30T08:09:58.000Z</time>
      </trkpt>
      <trkpt lat="47.25455" lon="-2.2756">
        <ele>39.400001525879</ele>
        <time>2019-06-30T08:10:03.000Z</time>
      </trkpt>
      <trkpt lat="47.25449" lon="-2.27537">
        <ele>39</ele>
        <time>2019-06-30T08:10:07.000Z</time>
      </trkpt>
      <trkpt lat="47.25448" lon="-2.27532">
        <ele>38.599998474121</ele>
        <time>2019-06-30T08:10:08.000Z</time>
      </trkpt>
      <trkpt lat="47.25447" lon="-2.27528">
        <ele>37.799999237061</ele>
        <time>2019-06-30T08:10:09.000Z</time>
      </trkpt>
      <trkpt lat="47.25445" lon="-2.27524">
        <ele>37.400001525879</ele>
        <time>2019-06-30T08:10:10.000Z</time>
      </trkpt>
      <trkpt lat="47.25439" lon="-2.27504">
        <ele>37.400001525879</ele>
        <time>2019-06-30T08:10:15.000Z</time>
      </trkpt>
      <trkpt lat="47.25429" lon="-2.27489">
        <ele>37.400001525879</ele>
        <time>2019-06-30T08:10:18.000Z</time>
      </trkpt>
      <trkpt lat="47.25423" lon="-2.27476">
        <ele>37.400001525879</ele>
        <time>2019-06-30T08:10:20.000Z</time>
      </trkpt>
      <trkpt lat="47.25416" lon="-2.27457">
        <ele>37.400001525879</ele>
        <time>2019-06-30T08:10:24.000Z</time>
      </trkpt>
      <trkpt lat="47.25404" lon="-2.27427">
        <ele>37.400001525879</ele>
        <time>2019-06-30T08:10:31.000Z</time>
      </trkpt>
      <trkpt lat="47.25397" lon="-2.27401">
        <ele>37.400001525879</ele>
        <time>2019-06-30T08:10:37.000Z</time>
      </trkpt>
      <trkpt lat="47.25393" lon="-2.27386">
        <ele>37.400001525879</ele>
        <time>2019-06-30T08:10:42.000Z</time>
      </trkpt>
      <trkpt lat="47.2539" lon="-2.27384">
        <ele>37.400001525879</ele>
        <time>2019-06-30T08:10:45.000Z</time>
      </trkpt>
      <trkpt lat="47.25388" lon="-2.27383">
        <ele>37.400001525879</ele>
        <time>2019-06-30T08:10:52.000Z</time>
      </trkpt>
      <trkpt lat="47.25386" lon="-2.27382">
        <ele>37.400001525879</ele>
        <time>2019-06-30T08:10:53.000Z</time>
      </trkpt>
      <trkpt lat="47.25372" lon="-2.27376">
        <ele>37.400001525879</ele>
        <time>2019-06-30T08:10:57.000Z</time>
      </trkpt>
      <trkpt lat="47.2537" lon="-2.27373">
        <ele>37.400001525879</ele>
        <time>2019-06-30T08:10:58.000Z</time>
      </trkpt>
      <trkpt lat="47.25369" lon="-2.27356">
        <ele>37.400001525879</ele>
        <time>2019-06-30T08:11:01.000Z</time>
      </trkpt>
      <trkpt lat="47.25367" lon="-2.2735">
        <ele>37.400001525879</ele>
        <time>2019-06-30T08:11:02.000Z</time>
      </trkpt>
      <trkpt lat="47.25358" lon="-2.27345">
        <ele>37.400001525879</ele>
        <time>2019-06-30T08:11:04.000Z</time>
      </trkpt>
      <trkpt lat="47.25349" lon="-2.27338">
        <ele>37.400001525879</ele>
        <time>2019-06-30T08:11:06.000Z</time>
      </trkpt>
      <trkpt lat="47.25345" lon="-2.27334">
        <ele>37.400001525879</ele>
        <time>2019-06-30T08:11:07.000Z</time>
      </trkpt>
      <trkpt lat="47.25343" lon="-2.27329">
        <ele>37.400001525879</ele>
        <time>2019-06-30T08:11:08.000Z</time>
      </trkpt>
      <trkpt lat="47.25343" lon="-2.2731">
        <ele>37.400001525879</ele>
        <time>2019-06-30T08:11:11.000Z</time>
      </trkpt>
      <trkpt lat="47.25336" lon="-2.27285">
        <ele>37.400001525879</ele>
        <time>2019-06-30T08:11:15.000Z</time>
      </trkpt>
      <trkpt lat="47.25333" lon="-2.2728">
        <ele>37.400001525879</ele>
        <time>2019-06-30T08:11:16.000Z</time>
      </trkpt>
      <trkpt lat="47.25325" lon="-2.27269">
        <ele>37.400001525879</ele>
        <time>2019-06-30T08:11:19.000Z</time>
      </trkpt>
      <trkpt lat="47.25311" lon="-2.2725">
        <ele>37.400001525879</ele>
        <time>2019-06-30T08:11:24.000Z</time>
      </trkpt>
      <trkpt lat="47.25298" lon="-2.27221">
        <ele>37.400001525879</ele>
        <time>2019-06-30T08:11:29.000Z</time>
      </trkpt>
      <trkpt lat="47.25296" lon="-2.27215">
        <ele>37.400001525879</ele>
        <time>2019-06-30T08:11:30.000Z</time>
      </trkpt>
      <trkpt lat="47.2529" lon="-2.27198">
        <ele>37.400001525879</ele>
        <time>2019-06-30T08:11:33.000Z</time>
      </trkpt>
      <trkpt lat="47.25281" lon="-2.27182">
        <ele>37.400001525879</ele>
        <time>2019-06-30T08:11:36.000Z</time>
      </trkpt>
      <trkpt lat="47.25255" lon="-2.27144">
        <ele>37.400001525879</ele>
        <time>2019-06-30T08:11:43.000Z</time>
      </trkpt>
      <trkpt lat="47.25251" lon="-2.2714">
        <ele>37.400001525879</ele>
        <time>2019-06-30T08:11:44.000Z</time>
      </trkpt>
      <trkpt lat="47.25247" lon="-2.27134">
        <ele>37.400001525879</ele>
        <time>2019-06-30T08:11:45.000Z</time>
      </trkpt>
      <trkpt lat="47.25236" lon="-2.27115">
        <ele>37.400001525879</ele>
        <time>2019-06-30T08:11:48.000Z</time>
      </trkpt>
      <trkpt lat="47.25213" lon="-2.2707">
        <ele>37.400001525879</ele>
        <time>2019-06-30T08:11:55.000Z</time>
      </trkpt>
      <trkpt lat="47.25196" lon="-2.27035">
        <ele>37.400001525879</ele>
        <time>2019-06-30T08:12:00.000Z</time>
      </trkpt>
      <trkpt lat="47.25192" lon="-2.27028">
        <ele>37.400001525879</ele>
        <time>2019-06-30T08:12:01.000Z</time>
      </trkpt>
      <trkpt lat="47.25177" lon="-2.27004">
        <ele>37.400001525879</ele>
        <time>2019-06-30T08:12:05.000Z</time>
      </trkpt>
      <trkpt lat="47.25175" lon="-2.26983">
        <ele>37.400001525879</ele>
        <time>2019-06-30T08:12:08.000Z</time>
      </trkpt>
      <trkpt lat="47.25169" lon="-2.26979">
        <ele>37.400001525879</ele>
        <time>2019-06-30T08:12:11.000Z</time>
      </trkpt>
      <trkpt lat="47.25164" lon="-2.26977">
        <ele>37.400001525879</ele>
        <time>2019-06-30T08:12:14.000Z</time>
      </trkpt>
      <trkpt lat="47.25162" lon="-2.26974">
        <ele>37.400001525879</ele>
        <time>2019-06-30T08:12:15.000Z</time>
      </trkpt>
      <trkpt lat="47.25158" lon="-2.26963">
        <ele>37.400001525879</ele>
        <time>2019-06-30T08:12:17.000Z</time>
      </trkpt>
      <trkpt lat="47.25151" lon="-2.26954">
        <ele>37.400001525879</ele>
        <time>2019-06-30T08:12:19.000Z</time>
      </trkpt>
      <trkpt lat="47.25142" lon="-2.26945">
        <ele>37.400001525879</ele>
        <time>2019-06-30T08:12:21.000Z</time>
      </trkpt>
      <trkpt lat="47.25134" lon="-2.26932">
        <ele>37.400001525879</ele>
        <time>2019-06-30T08:12:23.000Z</time>
      </trkpt>
      <trkpt lat="47.25125" lon="-2.26908">
        <ele>37.799999237061</ele>
        <time>2019-06-30T08:12:26.000Z</time>
      </trkpt>
      <trkpt lat="47.2512" lon="-2.26903">
        <ele>38.200000762939</ele>
        <time>2019-06-30T08:12:27.000Z</time>
      </trkpt>
      <trkpt lat="47.25114" lon="-2.26901">
        <ele>38.599998474121</ele>
        <time>2019-06-30T08:12:28.000Z</time>
      </trkpt>
      <trkpt lat="47.25108" lon="-2.269">
        <ele>39</ele>
        <time>2019-06-30T08:12:29.000Z</time>
      </trkpt>
      <trkpt lat="47.25104" lon="-2.26897">
        <ele>39.400001525879</ele>
        <time>2019-06-30T08:12:30.000Z</time>
      </trkpt>
      <trkpt lat="47.25087" lon="-2.26876">
        <ele>39.400001525879</ele>
        <time>2019-06-30T08:12:34.000Z</time>
      </trkpt>
      <trkpt lat="47.25067" lon="-2.26865">
        <ele>39.400001525879</ele>
        <time>2019-06-30T08:12:38.000Z</time>
      </trkpt>
      <trkpt lat="47.25055" lon="-2.26862">
        <ele>39.400001525879</ele>
        <time>2019-06-30T08:12:42.000Z</time>
      </trkpt>
      <trkpt lat="47.25043" lon="-2.26863">
        <ele>39.400001525879</ele>
        <time>2019-06-30T08:12:47.000Z</time>
      </trkpt>
      <trkpt lat="47.25031" lon="-2.26867">
        <ele>39.400001525879</ele>
        <time>2019-06-30T08:12:50.000Z</time>
      </trkpt>
      <trkpt lat="47.25021" lon="-2.26869">
        <ele>39.400001525879</ele>
        <time>2019-06-30T08:12:52.000Z</time>
      </trkpt>
      <trkpt lat="47.24991" lon="-2.26876">
        <ele>39.400001525879</ele>
        <time>2019-06-30T08:12:58.000Z</time>
      </trkpt>
      <trkpt lat="47.24981" lon="-2.26875">
        <ele>39.400001525879</ele>
        <time>2019-06-30T08:13:00.000Z</time>
      </trkpt>
      <trkpt lat="47.24972" lon="-2.26871">
        <ele>39.400001525879</ele>
        <time>2019-06-30T08:13:02.000Z</time>
      </trkpt>
      <trkpt lat="47.24951" lon="-2.26853">
        <ele>39.400001525879</ele>
        <time>2019-06-30T08:13:07.000Z</time>
      </trkpt>
      <trkpt lat="47.24942" lon="-2.2685">
        <ele>39.400001525879</ele>
        <time>2019-06-30T08:13:09.000Z</time>
      </trkpt>
      <trkpt lat="47.24933" lon="-2.26845">
        <ele>39.400001525879</ele>
        <time>2019-06-30T08:13:11.000Z</time>
      </trkpt>
      <trkpt lat="47.24929" lon="-2.2684">
        <ele>39.400001525879</ele>
        <time>2019-06-30T08:13:12.000Z</time>
      </trkpt>
      <trkpt lat="47.24911" lon="-2.2683">
        <ele>39.400001525879</ele>
        <time>2019-06-30T08:13:16.000Z</time>
      </trkpt>
      <trkpt lat="47.24894" lon="-2.26826">
        <ele>39.400001525879</ele>
        <time>2019-06-30T08:13:20.000Z</time>
      </trkpt>
      <trkpt lat="47.24889" lon="-2.26823">
        <ele>39.400001525879</ele>
        <time>2019-06-30T08:13:21.000Z</time>
      </trkpt>
      <trkpt lat="47.24883" lon="-2.2682">
        <ele>39</ele>
        <time>2019-06-30T08:13:22.000Z</time>
      </trkpt>
      <trkpt lat="47.24878" lon="-2.26817">
        <ele>38.599998474121</ele>
        <time>2019-06-30T08:13:23.000Z</time>
      </trkpt>
      <trkpt lat="47.24873" lon="-2.26815">
        <ele>38.200000762939</ele>
        <time>2019-06-30T08:13:24.000Z</time>
      </trkpt>
      <trkpt lat="47.24867" lon="-2.26813">
        <ele>37.799999237061</ele>
        <time>2019-06-30T08:13:25.000Z</time>
      </trkpt>
      <trkpt lat="47.24862" lon="-2.26809">
        <ele>37.400001525879</ele>
        <time>2019-06-30T08:13:26.000Z</time>
      </trkpt>
      <trkpt lat="47.24856" lon="-2.26805">
        <ele>37.400001525879</ele>
        <time>2019-06-30T08:13:27.000Z</time>
      </trkpt>
      <trkpt lat="47.2485" lon="-2.26803">
        <ele>37.400001525879</ele>
        <time>2019-06-30T08:13:28.000Z</time>
      </trkpt>
      <trkpt lat="47.24837" lon="-2.26805">
        <ele>37.400001525879</ele>
        <time>2019-06-30T08:13:30.000Z</time>
      </trkpt>
      <trkpt lat="47.24818" lon="-2.26802">
        <ele>37.400001525879</ele>
        <time>2019-06-30T08:13:33.000Z</time>
      </trkpt>
      <trkpt lat="47.24812" lon="-2.26799">
        <ele>37.400001525879</ele>
        <time>2019-06-30T08:13:34.000Z</time>
      </trkpt>
      <trkpt lat="47.2478" lon="-2.26787">
        <ele>37</ele>
        <time>2019-06-30T08:13:39.000Z</time>
      </trkpt>
      <trkpt lat="47.24775" lon="-2.26786">
        <ele>36.599998474121</ele>
        <time>2019-06-30T08:13:40.000Z</time>
      </trkpt>
      <trkpt lat="47.2477" lon="-2.26785">
        <ele>36.200000762939</ele>
        <time>2019-06-30T08:13:41.000Z</time>
      </trkpt>
      <trkpt lat="47.24764" lon="-2.26784">
        <ele>35.799999237061</ele>
        <time>2019-06-30T08:13:42.000Z</time>
      </trkpt>
      <trkpt lat="47.24758" lon="-2.26783">
        <ele>35.400001525879</ele>
        <time>2019-06-30T08:13:43.000Z</time>
      </trkpt>
      <trkpt lat="47.24745" lon="-2.26782">
        <ele>35.400001525879</ele>
        <time>2019-06-30T08:13:45.000Z</time>
      </trkpt>
      <trkpt lat="47.2473" lon="-2.26781">
        <ele>35</ele>
        <time>2019-06-30T08:13:47.000Z</time>
      </trkpt>
      <trkpt lat="47.24722" lon="-2.26781">
        <ele>34.400001525879</ele>
        <time>2019-06-30T08:13:48.000Z</time>
      </trkpt>
      <trkpt lat="47.24715" lon="-2.26781">
        <ele>34</ele>
        <time>2019-06-30T08:13:49.000Z</time>
      </trkpt>
      <trkpt lat="47.24708" lon="-2.26781">
        <ele>33.599998474121</ele>
        <time>2019-06-30T08:13:50.000Z</time>
      </trkpt>
      <trkpt lat="47.24701" lon="-2.26782">
        <ele>33.200000762939</ele>
        <time>2019-06-30T08:13:51.000Z</time>
      </trkpt>
      <trkpt lat="47.24682" lon="-2.26785">
        <ele>33.200000762939</ele>
        <time>2019-06-30T08:13:54.000Z</time>
      </trkpt>
      <trkpt lat="47.24677" lon="-2.26791">
        <ele>33.200000762939</ele>
        <time>2019-06-30T08:13:55.000Z</time>
      </trkpt>
      <trkpt lat="47.24659" lon="-2.26808">
        <ele>33.200000762939</ele>
        <time>2019-06-30T08:13:59.000Z</time>
      </trkpt>
      <trkpt lat="47.24647" lon="-2.26814">
        <ele>33.200000762939</ele>
        <time>2019-06-30T08:14:01.000Z</time>
      </trkpt>
      <trkpt lat="47.24641" lon="-2.26816">
        <ele>32.799999237061</ele>
        <time>2019-06-30T08:14:02.000Z</time>
      </trkpt>
      <trkpt lat="47.24636" lon="-2.26818">
        <ele>32.400001525879</ele>
        <time>2019-06-30T08:14:03.000Z</time>
      </trkpt>
      <trkpt lat="47.2463" lon="-2.26822">
        <ele>32</ele>
        <time>2019-06-30T08:14:04.000Z</time>
      </trkpt>
      <trkpt lat="47.24624" lon="-2.26826">
        <ele>31.60000038147</ele>
        <time>2019-06-30T08:14:05.000Z</time>
      </trkpt>
      <trkpt lat="47.2462" lon="-2.2683">
        <ele>31.200000762939</ele>
        <time>2019-06-30T08:14:06.000Z</time>
      </trkpt>
      <trkpt lat="47.24615" lon="-2.26834">
        <ele>31.200000762939</ele>
        <time>2019-06-30T08:14:07.000Z</time>
      </trkpt>
      <trkpt lat="47.24606" lon="-2.26844">
        <ele>31.200000762939</ele>
        <time>2019-06-30T08:14:09.000Z</time>
      </trkpt>
      <trkpt lat="47.24597" lon="-2.26849">
        <ele>30.799999237061</ele>
        <time>2019-06-30T08:14:11.000Z</time>
      </trkpt>
      <trkpt lat="47.24593" lon="-2.26849">
        <ele>30.39999961853</ele>
        <time>2019-06-30T08:14:12.000Z</time>
      </trkpt>
      <trkpt lat="47.24588" lon="-2.2685">
        <ele>29.799999237061</ele>
        <time>2019-06-30T08:14:13.000Z</time>
      </trkpt>
      <trkpt lat="47.24583" lon="-2.26853">
        <ele>29.39999961853</ele>
        <time>2019-06-30T08:14:14.000Z</time>
      </trkpt>
      <trkpt lat="47.24578" lon="-2.26856">
        <ele>29</ele>
        <time>2019-06-30T08:14:15.000Z</time>
      </trkpt>
      <trkpt lat="47.24573" lon="-2.2686">
        <ele>29</ele>
        <time>2019-06-30T08:14:16.000Z</time>
      </trkpt>
      <trkpt lat="47.24553" lon="-2.26876">
        <ele>29</ele>
        <time>2019-06-30T08:14:20.000Z</time>
      </trkpt>
      <trkpt lat="47.24548" lon="-2.2688">
        <ele>29</ele>
        <time>2019-06-30T08:14:21.000Z</time>
      </trkpt>
      <trkpt lat="47.24539" lon="-2.26888">
        <ele>28.60000038147</ele>
        <time>2019-06-30T08:14:23.000Z</time>
      </trkpt>
      <trkpt lat="47.24536" lon="-2.26893">
        <ele>28.200000762939</ele>
        <time>2019-06-30T08:14:24.000Z</time>
      </trkpt>
      <trkpt lat="47.24533" lon="-2.26897">
        <ele>27.799999237061</ele>
        <time>2019-06-30T08:14:25.000Z</time>
      </trkpt>
      <trkpt lat="47.2453" lon="-2.26902">
        <ele>27.39999961853</ele>
        <time>2019-06-30T08:14:26.000Z</time>
      </trkpt>
      <trkpt lat="47.24527" lon="-2.26908">
        <ele>27</ele>
        <time>2019-06-30T08:14:27.000Z</time>
      </trkpt>
      <trkpt lat="47.24516" lon="-2.26925">
        <ele>27</ele>
        <time>2019-06-30T08:14:30.000Z</time>
      </trkpt>
      <trkpt lat="47.24512" lon="-2.26928">
        <ele>27</ele>
        <time>2019-06-30T08:14:31.000Z</time>
      </trkpt>
      <trkpt lat="47.245" lon="-2.26939">
        <ele>27</ele>
        <time>2019-06-30T08:14:34.000Z</time>
      </trkpt>
      <trkpt lat="47.24488" lon="-2.26946">
        <ele>27</ele>
        <time>2019-06-30T08:14:37.000Z</time>
      </trkpt>
      <trkpt lat="47.24482" lon="-2.26946">
        <ele>27</ele>
        <time>2019-06-30T08:14:38.000Z</time>
      </trkpt>
      <trkpt lat="47.24465" lon="-2.26943">
        <ele>27</ele>
        <time>2019-06-30T08:14:42.000Z</time>
      </trkpt>
      <trkpt lat="47.24446" lon="-2.26943">
        <ele>27</ele>
        <time>2019-06-30T08:14:46.000Z</time>
      </trkpt>
      <trkpt lat="47.24442" lon="-2.26946">
        <ele>27</ele>
        <time>2019-06-30T08:14:47.000Z</time>
      </trkpt>
      <trkpt lat="47.24425" lon="-2.26959">
        <ele>27</ele>
        <time>2019-06-30T08:14:51.000Z</time>
      </trkpt>
      <trkpt lat="47.24421" lon="-2.26964">
        <ele>27</ele>
        <time>2019-06-30T08:14:52.000Z</time>
      </trkpt>
      <trkpt lat="47.24412" lon="-2.26974">
        <ele>27</ele>
        <time>2019-06-30T08:14:54.000Z</time>
      </trkpt>
      <trkpt lat="47.24403" lon="-2.26988">
        <ele>27</ele>
        <time>2019-06-30T08:14:56.000Z</time>
      </trkpt>
      <trkpt lat="47.24399" lon="-2.26994">
        <ele>27</ele>
        <time>2019-06-30T08:14:57.000Z</time>
      </trkpt>
      <trkpt lat="47.2438" lon="-2.2702">
        <ele>27</ele>
        <time>2019-06-30T08:15:01.000Z</time>
      </trkpt>
      <trkpt lat="47.2436" lon="-2.27048">
        <ele>27</ele>
        <time>2019-06-30T08:15:05.000Z</time>
      </trkpt>
      <trkpt lat="47.2435" lon="-2.27061">
        <ele>27</ele>
        <time>2019-06-30T08:15:07.000Z</time>
      </trkpt>
      <trkpt lat="47.24338" lon="-2.27071">
        <ele>26.39999961853</ele>
        <time>2019-06-30T08:15:09.000Z</time>
      </trkpt>
      <trkpt lat="47.24332" lon="-2.27077">
        <ele>26</ele>
        <time>2019-06-30T08:15:10.000Z</time>
      </trkpt>
      <trkpt lat="47.24327" lon="-2.27082">
        <ele>25.60000038147</ele>
        <time>2019-06-30T08:15:11.000Z</time>
      </trkpt>
      <trkpt lat="47.24321" lon="-2.27088">
        <ele>25.200000762939</ele>
        <time>2019-06-30T08:15:12.000Z</time>
      </trkpt>
      <trkpt lat="47.24316" lon="-2.27095">
        <ele>24.799999237061</ele>
        <time>2019-06-30T08:15:13.000Z</time>
      </trkpt>
      <trkpt lat="47.24312" lon="-2.27101">
        <ele>24.799999237061</ele>
        <time>2019-06-30T08:15:14.000Z</time>
      </trkpt>
      <trkpt lat="47.24303" lon="-2.27112">
        <ele>24.799999237061</ele>
        <time>2019-06-30T08:15:16.000Z</time>
      </trkpt>
      <trkpt lat="47.24291" lon="-2.27119">
        <ele>24.799999237061</ele>
        <time>2019-06-30T08:15:19.000Z</time>
      </trkpt>
      <trkpt lat="47.24273" lon="-2.27118">
        <ele>24.799999237061</ele>
        <time>2019-06-30T08:15:23.000Z</time>
      </trkpt>
      <trkpt lat="47.2427" lon="-2.2712">
        <ele>24.799999237061</ele>
        <time>2019-06-30T08:15:24.000Z</time>
      </trkpt>
      <trkpt lat="47.24266" lon="-2.2712">
        <ele>24.39999961853</ele>
        <time>2019-06-30T08:15:26.000Z</time>
      </trkpt>
      <trkpt lat="47.24265" lon="-2.27121">
        <ele>24</ele>
        <time>2019-06-30T08:15:27.000Z</time>
      </trkpt>
      <trkpt lat="47.24263" lon="-2.27122">
        <ele>23.60000038147</ele>
        <time>2019-06-30T08:15:28.000Z</time>
      </trkpt>
      <trkpt lat="47.24261" lon="-2.27121">
        <ele>23</ele>
        <time>2019-06-30T08:15:29.000Z</time>
      </trkpt>
      <trkpt lat="47.24261" lon="-2.27119">
        <ele>22.60000038147</ele>
        <time>2019-06-30T08:15:30.000Z</time>
      </trkpt>
      <trkpt lat="47.24265" lon="-2.27113">
        <ele>22.60000038147</ele>
        <time>2019-06-30T08:15:33.000Z</time>
      </trkpt>
      <trkpt lat="47.24273" lon="-2.27114">
        <ele>22.60000038147</ele>
        <time>2019-06-30T08:15:36.000Z</time>
      </trkpt>
      <trkpt lat="47.24278" lon="-2.27115">
        <ele>22.60000038147</ele>
        <time>2019-06-30T08:15:38.000Z</time>
      </trkpt>
      <trkpt lat="47.24285" lon="-2.27114">
        <ele>22.60000038147</ele>
        <time>2019-06-30T08:15:42.000Z</time>
      </trkpt>
      <trkpt lat="47.24293" lon="-2.27113">
        <ele>22.60000038147</ele>
        <time>2019-06-30T08:15:48.000Z</time>
      </trkpt>
      <trkpt lat="47.24299" lon="-2.27112">
        <ele>22.60000038147</ele>
        <time>2019-06-30T08:15:53.000Z</time>
      </trkpt>
      <trkpt lat="47.24296" lon="-2.27114">
        <ele>22.60000038147</ele>
        <time>2019-06-30T08:15:59.000Z</time>
      </trkpt>
      <trkpt lat="47.24283" lon="-2.27119">
        <ele>22.60000038147</ele>
        <time>2019-06-30T08:16:03.000Z</time>
      </trkpt>
      <trkpt lat="47.24279" lon="-2.27118">
        <ele>22.60000038147</ele>
        <time>2019-06-30T08:16:04.000Z</time>
      </trkpt>
      <trkpt lat="47.24267" lon="-2.2712">
        <ele>22.60000038147</ele>
        <time>2019-06-30T08:16:06.000Z</time>
      </trkpt>
      <trkpt lat="47.24261" lon="-2.27122">
        <ele>22.60000038147</ele>
        <time>2019-06-30T08:16:07.000Z</time>
      </trkpt>
      <trkpt lat="47.24224" lon="-2.27141">
        <ele>22.60000038147</ele>
        <time>2019-06-30T08:16:13.000Z</time>
      </trkpt>
      <trkpt lat="47.24206" lon="-2.27153">
        <ele>22.60000038147</ele>
        <time>2019-06-30T08:16:16.000Z</time>
      </trkpt>
      <trkpt lat="47.24194" lon="-2.27158">
        <ele>22.60000038147</ele>
        <time>2019-06-30T08:16:18.000Z</time>
      </trkpt>
      <trkpt lat="47.24171" lon="-2.27169">
        <ele>22.60000038147</ele>
        <time>2019-06-30T08:16:23.000Z</time>
      </trkpt>
      <trkpt lat="47.24161" lon="-2.27174">
        <ele>22.60000038147</ele>
        <time>2019-06-30T08:16:25.000Z</time>
      </trkpt>
      <trkpt lat="47.24146" lon="-2.27179">
        <ele>22.60000038147</ele>
        <time>2019-06-30T08:16:28.000Z</time>
      </trkpt>
      <trkpt lat="47.24137" lon="-2.27183">
        <ele>22.200000762939</ele>
        <time>2019-06-30T08:16:30.000Z</time>
      </trkpt>
      <trkpt lat="47.24132" lon="-2.27185">
        <ele>21.799999237061</ele>
        <time>2019-06-30T08:16:31.000Z</time>
      </trkpt>
      <trkpt lat="47.24128" lon="-2.27188">
        <ele>21.39999961853</ele>
        <time>2019-06-30T08:16:32.000Z</time>
      </trkpt>
      <trkpt lat="47.24124" lon="-2.2719">
        <ele>21</ele>
        <time>2019-06-30T08:16:33.000Z</time>
      </trkpt>
      <trkpt lat="47.2412" lon="-2.27192">
        <ele>20.60000038147</ele>
        <time>2019-06-30T08:16:34.000Z</time>
      </trkpt>
      <trkpt lat="47.2411" lon="-2.27194">
        <ele>20.60000038147</ele>
        <time>2019-06-30T08:16:38.000Z</time>
      </trkpt>
      <trkpt lat="47.24108" lon="-2.27194">
        <ele>20.60000038147</ele>
        <time>2019-06-30T08:16:39.000Z</time>
      </trkpt>
      <trkpt lat="47.24099" lon="-2.27192">
        <ele>20.60000038147</ele>
        <time>2019-06-30T08:16:43.000Z</time>
      </trkpt>
      <trkpt lat="47.24096" lon="-2.2718">
        <ele>20.60000038147</ele>
        <time>2019-06-30T08:16:46.000Z</time>
      </trkpt>
      <trkpt lat="47.24096" lon="-2.2716">
        <ele>20.60000038147</ele>
        <time>2019-06-30T08:16:51.000Z</time>
      </trkpt>
      <trkpt lat="47.24094" lon="-2.27121">
        <ele>20.60000038147</ele>
        <time>2019-06-30T08:16:57.000Z</time>
      </trkpt>
      <trkpt lat="47.24095" lon="-2.27072">
        <ele>20.60000038147</ele>
        <time>2019-06-30T08:17:03.000Z</time>
      </trkpt>
      <trkpt lat="47.24096" lon="-2.27054">
        <ele>20.200000762939</ele>
        <time>2019-06-30T08:17:05.000Z</time>
      </trkpt>
      <trkpt lat="47.24097" lon="-2.27046">
        <ele>19.799999237061</ele>
        <time>2019-06-30T08:17:06.000Z</time>
      </trkpt>
      <trkpt lat="47.24097" lon="-2.2704">
        <ele>19.39999961853</ele>
        <time>2019-06-30T08:17:07.000Z</time>
      </trkpt>
      <trkpt lat="47.24097" lon="-2.27034">
        <ele>19</ele>
        <time>2019-06-30T08:17:08.000Z</time>
      </trkpt>
      <trkpt lat="47.24094" lon="-2.27032">
        <ele>18.60000038147</ele>
        <time>2019-06-30T08:17:09.000Z</time>
      </trkpt>
      <trkpt lat="47.2409" lon="-2.27032">
        <ele>18.60000038147</ele>
        <time>2019-06-30T08:17:10.000Z</time>
      </trkpt>
      <trkpt lat="47.24079" lon="-2.27036">
        <ele>18.200000762939</ele>
        <time>2019-06-30T08:17:13.000Z</time>
      </trkpt>
      <trkpt lat="47.24077" lon="-2.27037">
        <ele>17.799999237061</ele>
        <time>2019-06-30T08:17:14.000Z</time>
      </trkpt>
      <trkpt lat="47.24075" lon="-2.27038">
        <ele>17.200000762939</ele>
        <time>2019-06-30T08:17:15.000Z</time>
      </trkpt>
      <trkpt lat="47.24074" lon="-2.27039">
        <ele>16.799999237061</ele>
        <time>2019-06-30T08:17:16.000Z</time>
      </trkpt>
      <trkpt lat="47.24072" lon="-2.2704">
        <ele>16.39999961853</ele>
        <time>2019-06-30T08:17:17.000Z</time>
      </trkpt>
      <trkpt lat="47.24067" lon="-2.27041">
        <ele>16.39999961853</ele>
        <time>2019-06-30T08:17:19.000Z</time>
      </trkpt>
      <trkpt lat="47.24062" lon="-2.27035">
        <ele>16.39999961853</ele>
        <time>2019-06-30T08:17:21.000Z</time>
      </trkpt>
      <trkpt lat="47.24059" lon="-2.2703">
        <ele>16.39999961853</ele>
        <time>2019-06-30T08:17:22.000Z</time>
      </trkpt>
      <trkpt lat="47.24053" lon="-2.27007">
        <ele>16.39999961853</ele>
        <time>2019-06-30T08:17:25.000Z</time>
      </trkpt>
      <trkpt lat="47.24038" lon="-2.26998">
        <ele>16.39999961853</ele>
        <time>2019-06-30T08:17:28.000Z</time>
      </trkpt>
      <trkpt lat="47.2402" lon="-2.26983">
        <ele>16.39999961853</ele>
        <time>2019-06-30T08:17:32.000Z</time>
      </trkpt>
      <trkpt lat="47.24015" lon="-2.26978">
        <ele>16.39999961853</ele>
        <time>2019-06-30T08:17:33.000Z</time>
      </trkpt>
      <trkpt lat="47.23999" lon="-2.26962">
        <ele>16.39999961853</ele>
        <time>2019-06-30T08:17:37.000Z</time>
      </trkpt>
      <trkpt lat="47.23994" lon="-2.26959">
        <ele>16.39999961853</ele>
        <time>2019-06-30T08:17:38.000Z</time>
      </trkpt>
      <trkpt lat="47.23979" lon="-2.26949">
        <ele>16.39999961853</ele>
        <time>2019-06-30T08:17:41.000Z</time>
      </trkpt>
      <trkpt lat="47.23966" lon="-2.26942">
        <ele>16.39999961853</ele>
        <time>2019-06-30T08:17:44.000Z</time>
      </trkpt>
      <trkpt lat="47.23963" lon="-2.26938">
        <ele>16.39999961853</ele>
        <time>2019-06-30T08:17:45.000Z</time>
      </trkpt>
      <trkpt lat="47.23953" lon="-2.26925">
        <ele>16.39999961853</ele>
        <time>2019-06-30T08:17:48.000Z</time>
      </trkpt>
      <trkpt lat="47.23949" lon="-2.26923">
        <ele>16.39999961853</ele>
        <time>2019-06-30T08:17:49.000Z</time>
      </trkpt>
      <trkpt lat="47.23945" lon="-2.26916">
        <ele>16.39999961853</ele>
        <time>2019-06-30T08:17:51.000Z</time>
      </trkpt>
      <trkpt lat="47.23945" lon="-2.26902">
        <ele>16.39999961853</ele>
        <time>2019-06-30T08:17:54.000Z</time>
      </trkpt>
      <trkpt lat="47.23936" lon="-2.26891">
        <ele>16.39999961853</ele>
        <time>2019-06-30T08:17:57.000Z</time>
      </trkpt>
      <trkpt lat="47.23928" lon="-2.26888">
        <ele>16.39999961853</ele>
        <time>2019-06-30T08:17:59.000Z</time>
      </trkpt>
      <trkpt lat="47.23916" lon="-2.26883">
        <ele>16.799999237061</ele>
        <time>2019-06-30T08:18:02.000Z</time>
      </trkpt>
      <trkpt lat="47.23912" lon="-2.26882">
        <ele>17.200000762939</ele>
        <time>2019-06-30T08:18:03.000Z</time>
      </trkpt>
      <trkpt lat="47.23908" lon="-2.2688">
        <ele>17.60000038147</ele>
        <time>2019-06-30T08:18:04.000Z</time>
      </trkpt>
      <trkpt lat="47.23903" lon="-2.26878">
        <ele>18</ele>
        <time>2019-06-30T08:18:05.000Z</time>
      </trkpt>
      <trkpt lat="47.23899" lon="-2.26877">
        <ele>18.39999961853</ele>
        <time>2019-06-30T08:18:06.000Z</time>
      </trkpt>
      <trkpt lat="47.23884" lon="-2.26873">
        <ele>18.39999961853</ele>
        <time>2019-06-30T08:18:10.000Z</time>
      </trkpt>
      <trkpt lat="47.23877" lon="-2.2687">
        <ele>18</ele>
        <time>2019-06-30T08:18:12.000Z</time>
      </trkpt>
      <trkpt lat="47.23874" lon="-2.26869">
        <ele>17.60000038147</ele>
        <time>2019-06-30T08:18:13.000Z</time>
      </trkpt>
      <trkpt lat="47.23872" lon="-2.26865">
        <ele>17.200000762939</ele>
        <time>2019-06-30T08:18:14.000Z</time>
      </trkpt>
      <trkpt lat="47.23869" lon="-2.26862">
        <ele>16.799999237061</ele>
        <time>2019-06-30T08:18:15.000Z</time>
      </trkpt>
      <trkpt lat="47.23868" lon="-2.26857">
        <ele>16.39999961853</ele>
        <time>2019-06-30T08:18:16.000Z</time>
      </trkpt>
      <trkpt lat="47.23871" lon="-2.2684">
        <ele>16.39999961853</ele>
        <time>2019-06-30T08:18:19.000Z</time>
      </trkpt>
      <trkpt lat="47.23885" lon="-2.26836">
        <ele>16.39999961853</ele>
        <time>2019-06-30T08:18:22.000Z</time>
      </trkpt>
      <trkpt lat="47.239" lon="-2.26823">
        <ele>16.39999961853</ele>
        <time>2019-06-30T08:18:26.000Z</time>
      </trkpt>
      <trkpt lat="47.23898" lon="-2.26801">
        <ele>16.39999961853</ele>
        <time>2019-06-30T08:18:29.000Z</time>
      </trkpt>
      <trkpt lat="47.23896" lon="-2.26795">
        <ele>16.39999961853</ele>
        <time>2019-06-30T08:18:30.000Z</time>
      </trkpt>
      <trkpt lat="47.23895" lon="-2.26789">
        <ele>16.39999961853</ele>
        <time>2019-06-30T08:18:31.000Z</time>
      </trkpt>
      <trkpt lat="47.23895" lon="-2.26776">
        <ele>16.39999961853</ele>
        <time>2019-06-30T08:18:33.000Z</time>
      </trkpt>
      <trkpt lat="47.23898" lon="-2.26771">
        <ele>16.39999961853</ele>
        <time>2019-06-30T08:18:34.000Z</time>
      </trkpt>
      <trkpt lat="47.23912" lon="-2.26754">
        <ele>16.39999961853</ele>
        <time>2019-06-30T08:18:38.000Z</time>
      </trkpt>
      <trkpt lat="47.23916" lon="-2.26752">
        <ele>16.799999237061</ele>
        <time>2019-06-30T08:18:39.000Z</time>
      </trkpt>
      <trkpt lat="47.23919" lon="-2.26751">
        <ele>17.200000762939</ele>
        <time>2019-06-30T08:18:40.000Z</time>
      </trkpt>
      <trkpt lat="47.23923" lon="-2.2675">
        <ele>17.60000038147</ele>
        <time>2019-06-30T08:18:41.000Z</time>
      </trkpt>
      <trkpt lat="47.23927" lon="-2.26751">
        <ele>18</ele>
        <time>2019-06-30T08:18:42.000Z</time>
      </trkpt>
      <trkpt lat="47.2393" lon="-2.26753">
        <ele>18.60000038147</ele>
        <time>2019-06-30T08:18:43.000Z</time>
      </trkpt>
      <trkpt lat="47.23933" lon="-2.26759">
        <ele>18.60000038147</ele>
        <time>2019-06-30T08:18:45.000Z</time>
      </trkpt>
      <trkpt lat="47.23933" lon="-2.26761">
        <ele>18.60000038147</ele>
        <time>2019-06-30T08:18:46.000Z</time>
      </trkpt>
      <trkpt lat="47.23934" lon="-2.26767">
        <ele>18.60000038147</ele>
        <time>2019-06-30T08:18:48.000Z</time>
      </trkpt>
      <trkpt lat="47.23933" lon="-2.26769">
        <ele>18.60000038147</ele>
        <time>2019-06-30T08:18:49.000Z</time>
      </trkpt>
      <trkpt lat="47.23931" lon="-2.26783">
        <ele>18.60000038147</ele>
        <time>2019-06-30T08:18:54.000Z</time>
      </trkpt>
      <trkpt lat="47.23927" lon="-2.26797">
        <ele>18.60000038147</ele>
        <time>2019-06-30T08:19:00.000Z</time>
      </trkpt>
      <trkpt lat="47.23925" lon="-2.26796">
        <ele>18.60000038147</ele>
        <time>2019-06-30T08:19:01.000Z</time>
      </trkpt>
      <trkpt lat="47.2392" lon="-2.26792">
        <ele>18.60000038147</ele>
        <time>2019-06-30T08:19:04.000Z</time>
      </trkpt>
      <trkpt lat="47.23907" lon="-2.26784">
        <ele>18.60000038147</ele>
        <time>2019-06-30T08:19:08.000Z</time>
      </trkpt>
      <trkpt lat="47.23905" lon="-2.26783">
        <ele>18.60000038147</ele>
        <time>2019-06-30T08:19:09.000Z</time>
      </trkpt>
      <trkpt lat="47.23903" lon="-2.26781">
        <ele>19.39999961853</ele>
        <time>2019-06-30T08:19:12.000Z</time>
      </trkpt>
      <trkpt lat="47.23903" lon="-2.2678">
        <ele>19.799999237061</ele>
        <time>2019-06-30T08:19:13.000Z</time>
      </trkpt>
      <trkpt lat="47.23902" lon="-2.26779">
        <ele>20.200000762939</ele>
        <time>2019-06-30T08:19:14.000Z</time>
      </trkpt>
      <trkpt lat="47.23899" lon="-2.26776">
        <ele>19.799999237061</ele>
        <time>2019-06-30T08:19:15.000Z</time>
      </trkpt>
      <trkpt lat="47.23897" lon="-2.26771">
        <ele>19.60000038147</ele>
        <time>2019-06-30T08:19:16.000Z</time>
      </trkpt>
      <trkpt lat="47.23895" lon="-2.26766">
        <ele>19.200000762939</ele>
        <time>2019-06-30T08:19:17.000Z</time>
      </trkpt>
      <trkpt lat="47.23893" lon="-2.26761">
        <ele>18.799999237061</ele>
        <time>2019-06-30T08:19:18.000Z</time>
      </trkpt>
      <trkpt lat="47.23892" lon="-2.26755">
        <ele>18.39999961853</ele>
        <time>2019-06-30T08:19:19.000Z</time>
      </trkpt>
      <trkpt lat="47.23893" lon="-2.26751">
        <ele>18</ele>
        <time>2019-06-30T08:19:20.000Z</time>
      </trkpt>
      <trkpt lat="47.23896" lon="-2.26747">
        <ele>17.39999961853</ele>
        <time>2019-06-30T08:19:21.000Z</time>
      </trkpt>
      <trkpt lat="47.23898" lon="-2.26746">
        <ele>17</ele>
        <time>2019-06-30T08:19:22.000Z</time>
      </trkpt>
      <trkpt lat="47.239" lon="-2.26745">
        <ele>16.39999961853</ele>
        <time>2019-06-30T08:19:23.000Z</time>
      </trkpt>
      <trkpt lat="47.23902" lon="-2.26745">
        <ele>16.39999961853</ele>
        <time>2019-06-30T08:19:24.000Z</time>
      </trkpt>
      <trkpt lat="47.23905" lon="-2.26744">
        <ele>16.39999961853</ele>
        <time>2019-06-30T08:19:28.000Z</time>
      </trkpt>
      <trkpt lat="47.23909" lon="-2.26745">
        <ele>16.39999961853</ele>
        <time>2019-06-30T08:20:13.000Z</time>
      </trkpt>
      <trkpt lat="47.2391" lon="-2.26746">
        <ele>16.39999961853</ele>
        <time>2019-06-30T08:20:14.000Z</time>
      </trkpt>
      <trkpt lat="47.23912" lon="-2.26747">
        <ele>16.39999961853</ele>
        <time>2019-06-30T08:20:15.000Z</time>
      </trkpt>
      <trkpt lat="47.23915" lon="-2.26747">
        <ele>16.39999961853</ele>
        <time>2019-06-30T08:20:16.000Z</time>
      </trkpt>
      <trkpt lat="47.23916" lon="-2.26747">
        <ele>16.39999961853</ele>
        <time>2019-06-30T08:20:17.000Z</time>
      </trkpt>
      <trkpt lat="47.2392" lon="-2.26747">
        <ele>16.39999961853</ele>
        <time>2019-06-30T08:20:19.000Z</time>
      </trkpt>
      <trkpt lat="47.23925" lon="-2.26748">
        <ele>16.39999961853</ele>
        <time>2019-06-30T08:20:21.000Z</time>
      </trkpt>
      <trkpt lat="47.23936" lon="-2.26746">
        <ele>16.39999961853</ele>
        <time>2019-06-30T08:20:25.000Z</time>
      </trkpt>
      <trkpt lat="47.23939" lon="-2.26744">
        <ele>16.39999961853</ele>
        <time>2019-06-30T08:20:26.000Z</time>
      </trkpt>
      <trkpt lat="47.23946" lon="-2.26739">
        <ele>16.799999237061</ele>
        <time>2019-06-30T08:20:28.000Z</time>
      </trkpt>
      <trkpt lat="47.23951" lon="-2.26737">
        <ele>17.200000762939</ele>
        <time>2019-06-30T08:20:29.000Z</time>
      </trkpt>
      <trkpt lat="47.23955" lon="-2.26736">
        <ele>17.60000038147</ele>
        <time>2019-06-30T08:20:30.000Z</time>
      </trkpt>
      <trkpt lat="47.2396" lon="-2.26736">
        <ele>18</ele>
        <time>2019-06-30T08:20:31.000Z</time>
      </trkpt>
      <trkpt lat="47.23964" lon="-2.26736">
        <ele>18.39999961853</ele>
        <time>2019-06-30T08:20:32.000Z</time>
      </trkpt>
      <trkpt lat="47.23971" lon="-2.26737">
        <ele>18.39999961853</ele>
        <time>2019-06-30T08:20:34.000Z</time>
      </trkpt>
      <trkpt lat="47.2399" lon="-2.26738">
        <ele>18.799999237061</ele>
        <time>2019-06-30T08:20:39.000Z</time>
      </trkpt>
      <trkpt lat="47.23994" lon="-2.26738">
        <ele>19.39999961853</ele>
        <time>2019-06-30T08:20:40.000Z</time>
      </trkpt>
      <trkpt lat="47.23998" lon="-2.26738">
        <ele>19.799999237061</ele>
        <time>2019-06-30T08:20:41.000Z</time>
      </trkpt>
      <trkpt lat="47.24002" lon="-2.26739">
        <ele>20.200000762939</ele>
        <time>2019-06-30T08:20:42.000Z</time>
      </trkpt>
      <trkpt lat="47.24006" lon="-2.26739">
        <ele>20.60000038147</ele>
        <time>2019-06-30T08:20:43.000Z</time>
      </trkpt>
      <trkpt lat="47.24017" lon="-2.26738">
        <ele>20.60000038147</ele>
        <time>2019-06-30T08:20:46.000Z</time>
      </trkpt>
      <trkpt lat="47.24021" lon="-2.26737">
        <ele>21</ele>
        <time>2019-06-30T08:20:47.000Z</time>
      </trkpt>
      <trkpt lat="47.24025" lon="-2.26736">
        <ele>21.39999961853</ele>
        <time>2019-06-30T08:20:48.000Z</time>
      </trkpt>
      <trkpt lat="47.24029" lon="-2.26735">
        <ele>22</ele>
        <time>2019-06-30T08:20:49.000Z</time>
      </trkpt>
      <trkpt lat="47.24032" lon="-2.26733">
        <ele>22.39999961853</ele>
        <time>2019-06-30T08:20:50.000Z</time>
      </trkpt>
      <trkpt lat="47.24035" lon="-2.26731">
        <ele>22.799999237061</ele>
        <time>2019-06-30T08:20:51.000Z</time>
      </trkpt>
      <trkpt lat="47.24039" lon="-2.26729">
        <ele>22.799999237061</ele>
        <time>2019-06-30T08:20:52.000Z</time>
      </trkpt>
      <trkpt lat="47.24055" lon="-2.26714">
        <ele>22.799999237061</ele>
        <time>2019-06-30T08:20:58.000Z</time>
      </trkpt>
      <trkpt lat="47.24061" lon="-2.26707">
        <ele>23.200000762939</ele>
        <time>2019-06-30T08:21:01.000Z</time>
      </trkpt>
      <trkpt lat="47.24063" lon="-2.26705">
        <ele>23.60000038147</ele>
        <time>2019-06-30T08:21:02.000Z</time>
      </trkpt>
      <trkpt lat="47.24065" lon="-2.26702">
        <ele>24.200000762939</ele>
        <time>2019-06-30T08:21:03.000Z</time>
      </trkpt>
      <trkpt lat="47.24067" lon="-2.267">
        <ele>24.60000038147</ele>
        <time>2019-06-30T08:21:04.000Z</time>
      </trkpt>
      <trkpt lat="47.24068" lon="-2.26698">
        <ele>25</ele>
        <time>2019-06-30T08:21:05.000Z</time>
      </trkpt>
      <trkpt lat="47.24074" lon="-2.26689">
        <ele>25.39999961853</ele>
        <time>2019-06-30T08:21:08.000Z</time>
      </trkpt>
      <trkpt lat="47.24076" lon="-2.26685">
        <ele>25.799999237061</ele>
        <time>2019-06-30T08:21:09.000Z</time>
      </trkpt>
      <trkpt lat="47.24078" lon="-2.2668">
        <ele>26.200000762939</ele>
        <time>2019-06-30T08:21:10.000Z</time>
      </trkpt>
      <trkpt lat="47.2408" lon="-2.26676">
        <ele>26.60000038147</ele>
        <time>2019-06-30T08:21:11.000Z</time>
      </trkpt>
      <trkpt lat="47.24081" lon="-2.26672">
        <ele>27.200000762939</ele>
        <time>2019-06-30T08:21:12.000Z</time>
      </trkpt>
      <trkpt lat="47.24087" lon="-2.26662">
        <ele>27.200000762939</ele>
        <time>2019-06-30T08:21:15.000Z</time>
      </trkpt>
      <trkpt lat="47.24094" lon="-2.26651">
        <ele>27.200000762939</ele>
        <time>2019-06-30T08:21:19.000Z</time>
      </trkpt>
      <trkpt lat="47.24096" lon="-2.26651">
        <ele>27.200000762939</ele>
        <time>2019-06-30T08:21:20.000Z</time>
      </trkpt>
      <trkpt lat="47.24106" lon="-2.26651">
        <ele>27.200000762939</ele>
        <time>2019-06-30T08:21:25.000Z</time>
      </trkpt>
      <trkpt lat="47.24112" lon="-2.26639">
        <ele>27.200000762939</ele>
        <time>2019-06-30T08:21:29.000Z</time>
      </trkpt>
      <trkpt lat="47.24118" lon="-2.2664">
        <ele>27.200000762939</ele>
        <time>2019-06-30T08:21:33.000Z</time>
      </trkpt>
      <trkpt lat="47.2412" lon="-2.26631">
        <ele>27.200000762939</ele>
        <time>2019-06-30T08:21:36.000Z</time>
      </trkpt>
      <trkpt lat="47.24124" lon="-2.26617">
        <ele>27.200000762939</ele>
        <time>2019-06-30T08:21:39.000Z</time>
      </trkpt>
      <trkpt lat="47.24126" lon="-2.26612">
        <ele>26.60000038147</ele>
        <time>2019-06-30T08:21:40.000Z</time>
      </trkpt>
      <trkpt lat="47.24128" lon="-2.26608">
        <ele>26.200000762939</ele>
        <time>2019-06-30T08:21:41.000Z</time>
      </trkpt>
      <trkpt lat="47.24129" lon="-2.26604">
        <ele>25.799999237061</ele>
        <time>2019-06-30T08:21:42.000Z</time>
      </trkpt>
      <trkpt lat="47.2413" lon="-2.26602">
        <ele>25.39999961853</ele>
        <time>2019-06-30T08:21:43.000Z</time>
      </trkpt>
      <trkpt lat="47.24131" lon="-2.26599">
        <ele>25</ele>
        <time>2019-06-30T08:21:44.000Z</time>
      </trkpt>
      <trkpt lat="47.24132" lon="-2.26598">
        <ele>25</ele>
        <time>2019-06-30T08:21:45.000Z</time>
      </trkpt>
      <trkpt lat="47.24137" lon="-2.26592">
        <ele>25</ele>
        <time>2019-06-30T08:21:49.000Z</time>
      </trkpt>
      <trkpt lat="47.24137" lon="-2.26589">
        <ele>25</ele>
        <time>2019-06-30T08:21:50.000Z</time>
      </trkpt>
      <trkpt lat="47.24137" lon="-2.26581">
        <ele>24.60000038147</ele>
        <time>2019-06-30T08:21:53.000Z</time>
      </trkpt>
      <trkpt lat="47.24138" lon="-2.2658">
        <ele>24.200000762939</ele>
        <time>2019-06-30T08:21:54.000Z</time>
      </trkpt>
      <trkpt lat="47.2414" lon="-2.26578">
        <ele>23.799999237061</ele>
        <time>2019-06-30T08:21:55.000Z</time>
      </trkpt>
      <trkpt lat="47.24142" lon="-2.26578">
        <ele>23.39999961853</ele>
        <time>2019-06-30T08:21:56.000Z</time>
      </trkpt>
      <trkpt lat="47.24144" lon="-2.26578">
        <ele>23</ele>
        <time>2019-06-30T08:21:57.000Z</time>
      </trkpt>
      <trkpt lat="47.24147" lon="-2.26578">
        <ele>23</ele>
        <time>2019-06-30T08:21:59.000Z</time>
      </trkpt>
      <trkpt lat="47.24149" lon="-2.26579">
        <ele>23</ele>
        <time>2019-06-30T08:22:02.000Z</time>
      </trkpt>
      <trkpt lat="47.24152" lon="-2.2658">
        <ele>23</ele>
        <time>2019-06-30T08:22:10.000Z</time>
      </trkpt>
      <trkpt lat="47.24152" lon="-2.2658">
        <ele>23</ele>
        <time>2019-06-30T08:22:11.000Z</time>
      </trkpt>
      <trkpt lat="47.24155" lon="-2.26581">
        <ele>23</ele>
        <time>2019-06-30T08:22:13.000Z</time>
      </trkpt>
      <trkpt lat="47.24158" lon="-2.26587">
        <ele>23.39999961853</ele>
        <time>2019-06-30T08:22:16.000Z</time>
      </trkpt>
      <trkpt lat="47.24158" lon="-2.26589">
        <ele>23.799999237061</ele>
        <time>2019-06-30T08:22:17.000Z</time>
      </trkpt>
      <trkpt lat="47.24158" lon="-2.26592">
        <ele>24.200000762939</ele>
        <time>2019-06-30T08:22:18.000Z</time>
      </trkpt>
      <trkpt lat="47.24158" lon="-2.26594">
        <ele>24.60000038147</ele>
        <time>2019-06-30T08:22:19.000Z</time>
      </trkpt>
      <trkpt lat="47.24158" lon="-2.26596">
        <ele>25.200000762939</ele>
        <time>2019-06-30T08:22:20.000Z</time>
      </trkpt>
      <trkpt lat="47.24158" lon="-2.26598">
        <ele>25.200000762939</ele>
        <time>2019-06-30T08:22:21.000Z</time>
      </trkpt>
      <trkpt lat="47.24156" lon="-2.26607">
        <ele>25.60000038147</ele>
        <time>2019-06-30T08:22:25.000Z</time>
      </trkpt>
      <trkpt lat="47.24155" lon="-2.26609">
        <ele>26</ele>
        <time>2019-06-30T08:22:26.000Z</time>
      </trkpt>
      <trkpt lat="47.24156" lon="-2.26612">
        <ele>26.39999961853</ele>
        <time>2019-06-30T08:22:27.000Z</time>
      </trkpt>
      <trkpt lat="47.24158" lon="-2.26613">
        <ele>26.799999237061</ele>
        <time>2019-06-30T08:22:28.000Z</time>
      </trkpt>
      <trkpt lat="47.24161" lon="-2.26614">
        <ele>27.200000762939</ele>
        <time>2019-06-30T08:22:29.000Z</time>
      </trkpt>
      <trkpt lat="47.24167" lon="-2.26613">
        <ele>27.200000762939</ele>
        <time>2019-06-30T08:22:31.000Z</time>
      </trkpt>
      <trkpt lat="47.2417" lon="-2.26613">
        <ele>27.60000038147</ele>
        <time>2019-06-30T08:22:32.000Z</time>
      </trkpt>
      <trkpt lat="47.24174" lon="-2.26612">
        <ele>28.200000762939</ele>
        <time>2019-06-30T08:22:33.000Z</time>
      </trkpt>
      <trkpt lat="47.24177" lon="-2.26613">
        <ele>28.60000038147</ele>
        <time>2019-06-30T08:22:34.000Z</time>
      </trkpt>
      <trkpt lat="47.2418" lon="-2.26614">
        <ele>29</ele>
        <time>2019-06-30T08:22:35.000Z</time>
      </trkpt>
      <trkpt lat="47.24183" lon="-2.26615">
        <ele>29.39999961853</ele>
        <time>2019-06-30T08:22:36.000Z</time>
      </trkpt>
      <trkpt lat="47.24196" lon="-2.26621">
        <ele>29.39999961853</ele>
        <time>2019-06-30T08:22:41.000Z</time>
      </trkpt>
      <trkpt lat="47.24211" lon="-2.26628">
        <ele>29.39999961853</ele>
        <time>2019-06-30T08:22:47.000Z</time>
      </trkpt>
      <trkpt lat="47.24221" lon="-2.26626">
        <ele>29.39999961853</ele>
        <time>2019-06-30T08:22:52.000Z</time>
      </trkpt>
      <trkpt lat="47.24232" lon="-2.26616">
        <ele>29.39999961853</ele>
        <time>2019-06-30T08:22:58.000Z</time>
      </trkpt>
      <trkpt lat="47.24236" lon="-2.26612">
        <ele>29.39999961853</ele>
        <time>2019-06-30T08:23:00.000Z</time>
      </trkpt>
      <trkpt lat="47.24243" lon="-2.26607">
        <ele>29.39999961853</ele>
        <time>2019-06-30T08:23:03.000Z</time>
      </trkpt>
      <trkpt lat="47.24254" lon="-2.26595">
        <ele>29.39999961853</ele>
        <time>2019-06-30T08:23:09.000Z</time>
      </trkpt>
      <trkpt lat="47.24265" lon="-2.26585">
        <ele>29.39999961853</ele>
        <time>2019-06-30T08:23:16.000Z</time>
      </trkpt>
      <trkpt lat="47.24277" lon="-2.26574">
        <ele>29.39999961853</ele>
        <time>2019-06-30T08:23:21.000Z</time>
      </trkpt>
      <trkpt lat="47.24294" lon="-2.26557">
        <ele>29.39999961853</ele>
        <time>2019-06-30T08:23:27.000Z</time>
      </trkpt>
      <trkpt lat="47.24317" lon="-2.26536">
        <ele>29.39999961853</ele>
        <time>2019-06-30T08:23:33.000Z</time>
      </trkpt>
      <trkpt lat="47.2434" lon="-2.26515">
        <ele>29.39999961853</ele>
        <time>2019-06-30T08:23:40.000Z</time>
      </trkpt>
      <trkpt lat="47.24358" lon="-2.265">
        <ele>29.39999961853</ele>
        <time>2019-06-30T08:23:45.000Z</time>
      </trkpt>
      <trkpt lat="47.24382" lon="-2.26481">
        <ele>29.39999961853</ele>
        <time>2019-06-30T08:23:51.000Z</time>
      </trkpt>
      <trkpt lat="47.24386" lon="-2.26477">
        <ele>29.39999961853</ele>
        <time>2019-06-30T08:23:52.000Z</time>
      </trkpt>
      <trkpt lat="47.2441" lon="-2.26462">
        <ele>29.39999961853</ele>
        <time>2019-06-30T08:23:57.000Z</time>
      </trkpt>
      <trkpt lat="47.2444" lon="-2.26443">
        <ele>29.39999961853</ele>
        <time>2019-06-30T08:24:03.000Z</time>
      </trkpt>
      <trkpt lat="47.24469" lon="-2.26426">
        <ele>29.39999961853</ele>
        <time>2019-06-30T08:24:09.000Z</time>
      </trkpt>
      <trkpt lat="47.24507" lon="-2.26407">
        <ele>29.39999961853</ele>
        <time>2019-06-30T08:24:17.000Z</time>
      </trkpt>
      <trkpt lat="47.2454" lon="-2.26394">
        <ele>29.39999961853</ele>
        <time>2019-06-30T08:24:23.000Z</time>
      </trkpt>
      <trkpt lat="47.2458" lon="-2.26378">
        <ele>29.39999961853</ele>
        <time>2019-06-30T08:24:30.000Z</time>
      </trkpt>
      <trkpt lat="47.24591" lon="-2.26376">
        <ele>29.39999961853</ele>
        <time>2019-06-30T08:24:32.000Z</time>
      </trkpt>
      <trkpt lat="47.24601" lon="-2.26375">
        <ele>29.39999961853</ele>
        <time>2019-06-30T08:24:34.000Z</time>
      </trkpt>
      <trkpt lat="47.24606" lon="-2.26375">
        <ele>29.39999961853</ele>
        <time>2019-06-30T08:24:35.000Z</time>
      </trkpt>
      <trkpt lat="47.24618" lon="-2.26376">
        <ele>29.39999961853</ele>
        <time>2019-06-30T08:24:37.000Z</time>
      </trkpt>
      <trkpt lat="47.24635" lon="-2.26378">
        <ele>29.39999961853</ele>
        <time>2019-06-30T08:24:40.000Z</time>
      </trkpt>
      <trkpt lat="47.24641" lon="-2.2638">
        <ele>29.39999961853</ele>
        <time>2019-06-30T08:24:41.000Z</time>
      </trkpt>
      <trkpt lat="47.24663" lon="-2.2639">
        <ele>29.39999961853</ele>
        <time>2019-06-30T08:24:45.000Z</time>
      </trkpt>
      <trkpt lat="47.24676" lon="-2.26397">
        <ele>29.39999961853</ele>
        <time>2019-06-30T08:24:48.000Z</time>
      </trkpt>
      <trkpt lat="47.24692" lon="-2.26404">
        <ele>29.39999961853</ele>
        <time>2019-06-30T08:24:51.000Z</time>
      </trkpt>
      <trkpt lat="47.24716" lon="-2.26416">
        <ele>29.39999961853</ele>
        <time>2019-06-30T08:24:56.000Z</time>
      </trkpt>
      <trkpt lat="47.24749" lon="-2.26433">
        <ele>29.39999961853</ele>
        <time>2019-06-30T08:25:03.000Z</time>
      </trkpt>
      <trkpt lat="47.24789" lon="-2.2645">
        <ele>29.39999961853</ele>
        <time>2019-06-30T08:25:11.000Z</time>
      </trkpt>
      <trkpt lat="47.24794" lon="-2.26452">
        <ele>29.799999237061</ele>
        <time>2019-06-30T08:25:12.000Z</time>
      </trkpt>
      <trkpt lat="47.24799" lon="-2.26454">
        <ele>30.200000762939</ele>
        <time>2019-06-30T08:25:13.000Z</time>
      </trkpt>
      <trkpt lat="47.24804" lon="-2.26455">
        <ele>30.60000038147</ele>
        <time>2019-06-30T08:25:14.000Z</time>
      </trkpt>
      <trkpt lat="47.24809" lon="-2.26455">
        <ele>31</ele>
        <time>2019-06-30T08:25:15.000Z</time>
      </trkpt>
      <trkpt lat="47.24815" lon="-2.26455">
        <ele>31.39999961853</ele>
        <time>2019-06-30T08:25:16.000Z</time>
      </trkpt>
      <trkpt lat="47.24852" lon="-2.26451">
        <ele>31.39999961853</ele>
        <time>2019-06-30T08:25:23.000Z</time>
      </trkpt>
      <trkpt lat="47.24893" lon="-2.2644">
        <ele>31.39999961853</ele>
        <time>2019-06-30T08:25:31.000Z</time>
      </trkpt>
      <trkpt lat="47.24908" lon="-2.26435">
        <ele>31.799999237061</ele>
        <time>2019-06-30T08:25:34.000Z</time>
      </trkpt>
      <trkpt lat="47.24913" lon="-2.26433">
        <ele>32.400001525879</ele>
        <time>2019-06-30T08:25:35.000Z</time>
      </trkpt>
      <trkpt lat="47.24918" lon="-2.26431">
        <ele>32.799999237061</ele>
        <time>2019-06-30T08:25:36.000Z</time>
      </trkpt>
      <trkpt lat="47.24923" lon="-2.26429">
        <ele>33.200000762939</ele>
        <time>2019-06-30T08:25:37.000Z</time>
      </trkpt>
      <trkpt lat="47.24927" lon="-2.26427">
        <ele>33.599998474121</ele>
        <time>2019-06-30T08:25:38.000Z</time>
      </trkpt>
      <trkpt lat="47.24931" lon="-2.26424">
        <ele>33.599998474121</ele>
        <time>2019-06-30T08:25:39.000Z</time>
      </trkpt>
      <trkpt lat="47.24939" lon="-2.26423">
        <ele>33.599998474121</ele>
        <time>2019-06-30T08:25:41.000Z</time>
      </trkpt>
      <trkpt lat="47.24943" lon="-2.26424">
        <ele>33.599998474121</ele>
        <time>2019-06-30T08:25:42.000Z</time>
      </trkpt>
      <trkpt lat="47.2496" lon="-2.26421">
        <ele>33.599998474121</ele>
        <time>2019-06-30T08:25:47.000Z</time>
      </trkpt>
      <trkpt lat="47.24962" lon="-2.26417">
        <ele>33.599998474121</ele>
        <time>2019-06-30T08:25:48.000Z</time>
      </trkpt>
      <trkpt lat="47.24963" lon="-2.26403">
        <ele>33.599998474121</ele>
        <time>2019-06-30T08:25:51.000Z</time>
      </trkpt>
      <trkpt lat="47.24971" lon="-2.26393">
        <ele>33.200000762939</ele>
        <time>2019-06-30T08:25:54.000Z</time>
      </trkpt>
      <trkpt lat="47.24974" lon="-2.26391">
        <ele>32.799999237061</ele>
        <time>2019-06-30T08:25:55.000Z</time>
      </trkpt>
      <trkpt lat="47.24978" lon="-2.26388">
        <ele>32.400001525879</ele>
        <time>2019-06-30T08:25:56.000Z</time>
      </trkpt>
      <trkpt lat="47.24983" lon="-2.26385">
        <ele>32</ele>
        <time>2019-06-30T08:25:57.000Z</time>
      </trkpt>
      <trkpt lat="47.24987" lon="-2.26381">
        <ele>31.60000038147</ele>
        <time>2019-06-30T08:25:58.000Z</time>
      </trkpt>
      <trkpt lat="47.24993" lon="-2.26376">
        <ele>31.60000038147</ele>
        <time>2019-06-30T08:26:00.000Z</time>
      </trkpt>
      <trkpt lat="47.25013" lon="-2.26361">
        <ele>31.60000038147</ele>
        <time>2019-06-30T08:26:06.000Z</time>
      </trkpt>
      <trkpt lat="47.25025" lon="-2.26356">
        <ele>31.200000762939</ele>
        <time>2019-06-30T08:26:09.000Z</time>
      </trkpt>
      <trkpt lat="47.2503" lon="-2.26355">
        <ele>30.799999237061</ele>
        <time>2019-06-30T08:26:10.000Z</time>
      </trkpt>
      <trkpt lat="47.25034" lon="-2.26353">
        <ele>30.39999961853</ele>
        <time>2019-06-30T08:26:11.000Z</time>
      </trkpt>
      <trkpt lat="47.25039" lon="-2.26351">
        <ele>29.60000038147</ele>
        <time>2019-06-30T08:26:12.000Z</time>
      </trkpt>
      <trkpt lat="47.25043" lon="-2.26348">
        <ele>29.60000038147</ele>
        <time>2019-06-30T08:26:13.000Z</time>
      </trkpt>
      <trkpt lat="47.25051" lon="-2.2633">
        <ele>29.60000038147</ele>
        <time>2019-06-30T08:26:16.000Z</time>
      </trkpt>
      <trkpt lat="47.25052" lon="-2.2631">
        <ele>29.60000038147</ele>
        <time>2019-06-30T08:26:19.000Z</time>
      </trkpt>
      <trkpt lat="47.25052" lon="-2.26304">
        <ele>29.60000038147</ele>
        <time>2019-06-30T08:26:20.000Z</time>
      </trkpt>
      <trkpt lat="47.25052" lon="-2.2629">
        <ele>29.60000038147</ele>
        <time>2019-06-30T08:26:22.000Z</time>
      </trkpt>
      <trkpt lat="47.25055" lon="-2.26272">
        <ele>29.60000038147</ele>
        <time>2019-06-30T08:26:25.000Z</time>
      </trkpt>
      <trkpt lat="47.25056" lon="-2.26266">
        <ele>29.60000038147</ele>
        <time>2019-06-30T08:26:26.000Z</time>
      </trkpt>
      <trkpt lat="47.25065" lon="-2.26247">
        <ele>29.60000038147</ele>
        <time>2019-06-30T08:26:30.000Z</time>
      </trkpt>
      <trkpt lat="47.25067" lon="-2.26244">
        <ele>29.60000038147</ele>
        <time>2019-06-30T08:26:31.000Z</time>
      </trkpt>
      <trkpt lat="47.25076" lon="-2.2622">
        <ele>29.60000038147</ele>
        <time>2019-06-30T08:26:37.000Z</time>
      </trkpt>
      <trkpt lat="47.25076" lon="-2.26185">
        <ele>29.60000038147</ele>
        <time>2019-06-30T08:26:44.000Z</time>
      </trkpt>
      <trkpt lat="47.25076" lon="-2.26147">
        <ele>29.60000038147</ele>
        <time>2019-06-30T08:26:52.000Z</time>
      </trkpt>
      <trkpt lat="47.25077" lon="-2.26114">
        <ele>29.60000038147</ele>
        <time>2019-06-30T08:26:57.000Z</time>
      </trkpt>
      <trkpt lat="47.25078" lon="-2.26107">
        <ele>29.60000038147</ele>
        <time>2019-06-30T08:26:58.000Z</time>
      </trkpt>
      <trkpt lat="47.25084" lon="-2.26078">
        <ele>29.60000038147</ele>
        <time>2019-06-30T08:27:02.000Z</time>
      </trkpt>
      <trkpt lat="47.25086" lon="-2.2607">
        <ele>29</ele>
        <time>2019-06-30T08:27:03.000Z</time>
      </trkpt>
      <trkpt lat="47.25088" lon="-2.26062">
        <ele>28.60000038147</ele>
        <time>2019-06-30T08:27:04.000Z</time>
      </trkpt>
      <trkpt lat="47.25089" lon="-2.26053">
        <ele>28.200000762939</ele>
        <time>2019-06-30T08:27:05.000Z</time>
      </trkpt>
      <trkpt lat="47.2509" lon="-2.26043">
        <ele>27.799999237061</ele>
        <time>2019-06-30T08:27:06.000Z</time>
      </trkpt>
      <trkpt lat="47.25092" lon="-2.26034">
        <ele>27.39999961853</ele>
        <time>2019-06-30T08:27:07.000Z</time>
      </trkpt>
      <trkpt lat="47.25097" lon="-2.26015">
        <ele>27.39999961853</ele>
        <time>2019-06-30T08:27:09.000Z</time>
      </trkpt>
      <trkpt lat="47.25109" lon="-2.25966">
        <ele>26.799999237061</ele>
        <time>2019-06-30T08:27:14.000Z</time>
      </trkpt>
      <trkpt lat="47.25112" lon="-2.25958">
        <ele>26.39999961853</ele>
        <time>2019-06-30T08:27:15.000Z</time>
      </trkpt>
      <trkpt lat="47.25116" lon="-2.25952">
        <ele>26</ele>
        <time>2019-06-30T08:27:16.000Z</time>
      </trkpt>
      <trkpt lat="47.2512" lon="-2.25946">
        <ele>25.60000038147</ele>
        <time>2019-06-30T08:27:17.000Z</time>
      </trkpt>
      <trkpt lat="47.25125" lon="-2.2594">
        <ele>25.200000762939</ele>
        <time>2019-06-30T08:27:18.000Z</time>
      </trkpt>
      <trkpt lat="47.25133" lon="-2.25929">
        <ele>25.200000762939</ele>
        <time>2019-06-30T08:27:20.000Z</time>
      </trkpt>
      <trkpt lat="47.25153" lon="-2.25896">
        <ele>25.200000762939</ele>
        <time>2019-06-30T08:27:26.000Z</time>
      </trkpt>
      <trkpt lat="47.25164" lon="-2.25859">
        <ele>25.200000762939</ele>
        <time>2019-06-30T08:27:31.000Z</time>
      </trkpt>
      <trkpt lat="47.25167" lon="-2.25843">
        <ele>25.200000762939</ele>
        <time>2019-06-30T08:27:33.000Z</time>
      </trkpt>
      <trkpt lat="47.2517" lon="-2.25821">
        <ele>25.200000762939</ele>
        <time>2019-06-30T08:27:36.000Z</time>
      </trkpt>
      <trkpt lat="47.25173" lon="-2.25806">
        <ele>25.200000762939</ele>
        <time>2019-06-30T08:27:38.000Z</time>
      </trkpt>
      <trkpt lat="47.25182" lon="-2.25792">
        <ele>25.200000762939</ele>
        <time>2019-06-30T08:27:41.000Z</time>
      </trkpt>
      <trkpt lat="47.25199" lon="-2.25783">
        <ele>25.200000762939</ele>
        <time>2019-06-30T08:27:45.000Z</time>
      </trkpt>
      <trkpt lat="47.25213" lon="-2.25787">
        <ele>25.200000762939</ele>
        <time>2019-06-30T08:27:48.000Z</time>
      </trkpt>
      <trkpt lat="47.25224" lon="-2.25792">
        <ele>25.200000762939</ele>
        <time>2019-06-30T08:27:50.000Z</time>
      </trkpt>
      <trkpt lat="47.2524" lon="-2.25801">
        <ele>25.200000762939</ele>
        <time>2019-06-30T08:27:54.000Z</time>
      </trkpt>
      <trkpt lat="47.25247" lon="-2.25808">
        <ele>25.200000762939</ele>
        <time>2019-06-30T08:27:56.000Z</time>
      </trkpt>
      <trkpt lat="47.25256" lon="-2.25818">
        <ele>25.200000762939</ele>
        <time>2019-06-30T08:27:59.000Z</time>
      </trkpt>
      <trkpt lat="47.25277" lon="-2.25839">
        <ele>25.200000762939</ele>
        <time>2019-06-30T08:28:04.000Z</time>
      </trkpt>
      <trkpt lat="47.2528" lon="-2.2585">
        <ele>25.200000762939</ele>
        <time>2019-06-30T08:28:06.000Z</time>
      </trkpt>
      <trkpt lat="47.25281" lon="-2.25855">
        <ele>25.200000762939</ele>
        <time>2019-06-30T08:28:07.000Z</time>
      </trkpt>
      <trkpt lat="47.25292" lon="-2.25862">
        <ele>25.200000762939</ele>
        <time>2019-06-30T08:28:10.000Z</time>
      </trkpt>
      <trkpt lat="47.25298" lon="-2.25864">
        <ele>25.200000762939</ele>
        <time>2019-06-30T08:28:11.000Z</time>
      </trkpt>
      <trkpt lat="47.25303" lon="-2.25864">
        <ele>25.200000762939</ele>
        <time>2019-06-30T08:28:12.000Z</time>
      </trkpt>
      <trkpt lat="47.25314" lon="-2.25864">
        <ele>25.200000762939</ele>
        <time>2019-06-30T08:28:14.000Z</time>
      </trkpt>
      <trkpt lat="47.25318" lon="-2.25863">
        <ele>25.200000762939</ele>
        <time>2019-06-30T08:28:15.000Z</time>
      </trkpt>
      <trkpt lat="47.25322" lon="-2.25864">
        <ele>24.200000762939</ele>
        <time>2019-06-30T08:28:16.000Z</time>
      </trkpt>
      <trkpt lat="47.25325" lon="-2.25865">
        <ele>23.799999237061</ele>
        <time>2019-06-30T08:28:17.000Z</time>
      </trkpt>
      <trkpt lat="47.25326" lon="-2.25865">
        <ele>23.200000762939</ele>
        <time>2019-06-30T08:28:18.000Z</time>
      </trkpt>
      <trkpt lat="47.25329" lon="-2.25866">
        <ele>22.799999237061</ele>
        <time>2019-06-30T08:28:19.000Z</time>
      </trkpt>
      <trkpt lat="47.25331" lon="-2.25867">
        <ele>22.799999237061</ele>
        <time>2019-06-30T08:28:20.000Z</time>
      </trkpt>
      <trkpt lat="47.25336" lon="-2.25868">
        <ele>22.799999237061</ele>
        <time>2019-06-30T08:28:24.000Z</time>
      </trkpt>
      <trkpt lat="47.25336" lon="-2.25867">
        <ele>22.799999237061</ele>
        <time>2019-06-30T08:28:25.000Z</time>
      </trkpt>
      <trkpt lat="47.25338" lon="-2.25865">
        <ele>22.799999237061</ele>
        <time>2019-06-30T08:28:26.000Z</time>
      </trkpt>
      <trkpt lat="47.25339" lon="-2.25863">
        <ele>22.39999961853</ele>
        <time>2019-06-30T08:28:27.000Z</time>
      </trkpt>
      <trkpt lat="47.2534" lon="-2.25859">
        <ele>22</ele>
        <time>2019-06-30T08:28:28.000Z</time>
      </trkpt>
      <trkpt lat="47.2534" lon="-2.25854">
        <ele>21.60000038147</ele>
        <time>2019-06-30T08:28:29.000Z</time>
      </trkpt>
      <trkpt lat="47.25341" lon="-2.25849">
        <ele>21.200000762939</ele>
        <time>2019-06-30T08:28:30.000Z</time>
      </trkpt>
      <trkpt lat="47.25342" lon="-2.25845">
        <ele>20.799999237061</ele>
        <time>2019-06-30T08:28:31.000Z</time>
      </trkpt>
      <trkpt lat="47.25341" lon="-2.2583">
        <ele>20.39999961853</ele>
        <time>2019-06-30T08:28:34.000Z</time>
      </trkpt>
      <trkpt lat="47.25341" lon="-2.25824">
        <ele>20</ele>
        <time>2019-06-30T08:28:35.000Z</time>
      </trkpt>
      <trkpt lat="47.25342" lon="-2.25817">
        <ele>19.60000038147</ele>
        <time>2019-06-30T08:28:36.000Z</time>
      </trkpt>
      <trkpt lat="47.25343" lon="-2.2581">
        <ele>19.200000762939</ele>
        <time>2019-06-30T08:28:37.000Z</time>
      </trkpt>
      <trkpt lat="47.25344" lon="-2.25801">
        <ele>18.60000038147</ele>
        <time>2019-06-30T08:28:38.000Z</time>
      </trkpt>
      <trkpt lat="47.25344" lon="-2.25795">
        <ele>18.60000038147</ele>
        <time>2019-06-30T08:28:39.000Z</time>
      </trkpt>
      <trkpt lat="47.25346" lon="-2.25766">
        <ele>18.60000038147</ele>
        <time>2019-06-30T08:28:43.000Z</time>
      </trkpt>
      <trkpt lat="47.25345" lon="-2.25735">
        <ele>18.60000038147</ele>
        <time>2019-06-30T08:28:47.000Z</time>
      </trkpt>
      <trkpt lat="47.25345" lon="-2.25729">
        <ele>18.60000038147</ele>
        <time>2019-06-30T08:28:48.000Z</time>
      </trkpt>
      <trkpt lat="47.25347" lon="-2.25698">
        <ele>18.60000038147</ele>
        <time>2019-06-30T08:28:52.000Z</time>
      </trkpt>
      <trkpt lat="47.25346" lon="-2.2569">
        <ele>18.60000038147</ele>
        <time>2019-06-30T08:28:53.000Z</time>
      </trkpt>
      <trkpt lat="47.25342" lon="-2.2565">
        <ele>18.60000038147</ele>
        <time>2019-06-30T08:28:58.000Z</time>
      </trkpt>
      <trkpt lat="47.25338" lon="-2.25625">
        <ele>18.60000038147</ele>
        <time>2019-06-30T08:29:02.000Z</time>
      </trkpt>
      <trkpt lat="47.25334" lon="-2.25596">
        <ele>18.60000038147</ele>
        <time>2019-06-30T08:29:07.000Z</time>
      </trkpt>
      <trkpt lat="47.25333" lon="-2.25581">
        <ele>18.60000038147</ele>
        <time>2019-06-30T08:29:09.000Z</time>
      </trkpt>
      <trkpt lat="47.25332" lon="-2.25574">
        <ele>18.60000038147</ele>
        <time>2019-06-30T08:29:10.000Z</time>
      </trkpt>
      <trkpt lat="47.25331" lon="-2.25566">
        <ele>18.200000762939</ele>
        <time>2019-06-30T08:29:11.000Z</time>
      </trkpt>
      <trkpt lat="47.2533" lon="-2.25558">
        <ele>17.799999237061</ele>
        <time>2019-06-30T08:29:12.000Z</time>
      </trkpt>
      <trkpt lat="47.2533" lon="-2.25551">
        <ele>17.39999961853</ele>
        <time>2019-06-30T08:29:13.000Z</time>
      </trkpt>
      <trkpt lat="47.25329" lon="-2.25542">
        <ele>17</ele>
        <time>2019-06-30T08:29:14.000Z</time>
      </trkpt>
      <trkpt lat="47.25329" lon="-2.25533">
        <ele>16.60000038147</ele>
        <time>2019-06-30T08:29:15.000Z</time>
      </trkpt>
      <trkpt lat="47.25327" lon="-2.25523">
        <ele>16.60000038147</ele>
        <time>2019-06-30T08:29:16.000Z</time>
      </trkpt>
      <trkpt lat="47.25326" lon="-2.25504">
        <ele>16.200000762939</ele>
        <time>2019-06-30T08:29:18.000Z</time>
      </trkpt>
      <trkpt lat="47.25325" lon="-2.25495">
        <ele>15.60000038147</ele>
        <time>2019-06-30T08:29:19.000Z</time>
      </trkpt>
      <trkpt lat="47.25324" lon="-2.25487">
        <ele>15.199999809265</ele>
        <time>2019-06-30T08:29:20.000Z</time>
      </trkpt>
      <trkpt lat="47.25324" lon="-2.2548">
        <ele>14.60000038147</ele>
        <time>2019-06-30T08:29:21.000Z</time>
      </trkpt>
      <trkpt lat="47.25324" lon="-2.25473">
        <ele>14</ele>
        <time>2019-06-30T08:29:22.000Z</time>
      </trkpt>
      <trkpt lat="47.25323" lon="-2.25468">
        <ele>13.39999961853</ele>
        <time>2019-06-30T08:29:23.000Z</time>
      </trkpt>
      <trkpt lat="47.25322" lon="-2.25463">
        <ele>12.800000190735</ele>
        <time>2019-06-30T08:29:24.000Z</time>
      </trkpt>
      <trkpt lat="47.25322" lon="-2.25459">
        <ele>12.199999809265</ele>
        <time>2019-06-30T08:29:25.000Z</time>
      </trkpt>
      <trkpt lat="47.25322" lon="-2.25455">
        <ele>11.60000038147</ele>
        <time>2019-06-30T08:29:26.000Z</time>
      </trkpt>
      <trkpt lat="47.25322" lon="-2.25452">
        <ele>11</ele>
        <time>2019-06-30T08:29:27.000Z</time>
      </trkpt>
      <trkpt lat="47.25321" lon="-2.25449">
        <ele>10.60000038147</ele>
        <time>2019-06-30T08:29:28.000Z</time>
      </trkpt>
      <trkpt lat="47.25321" lon="-2.25447">
        <ele>10</ele>
        <time>2019-06-30T08:29:29.000Z</time>
      </trkpt>
      <trkpt lat="47.25325" lon="-2.25433">
        <ele>9</ele>
        <time>2019-06-30T08:29:41.000Z</time>
      </trkpt>
      <trkpt lat="47.25327" lon="-2.25429">
        <ele>8.6000003814697</ele>
        <time>2019-06-30T08:29:42.000Z</time>
      </trkpt>
      <trkpt lat="47.25328" lon="-2.25427">
        <ele>8.1999998092651</ele>
        <time>2019-06-30T08:29:43.000Z</time>
      </trkpt>
      <trkpt lat="47.2533" lon="-2.25427">
        <ele>7.8000001907349</ele>
        <time>2019-06-30T08:29:44.000Z</time>
      </trkpt>
      <trkpt lat="47.25333" lon="-2.25426">
        <ele>7.4000000953674</ele>
        <time>2019-06-30T08:29:45.000Z</time>
      </trkpt>
      <trkpt lat="47.25336" lon="-2.25426">
        <ele>7</ele>
        <time>2019-06-30T08:29:46.000Z</time>
      </trkpt>
      <trkpt lat="47.25339" lon="-2.25421">
        <ele>6.5999999046326</ele>
        <time>2019-06-30T08:29:47.000Z</time>
      </trkpt>
      <trkpt lat="47.25342" lon="-2.25413">
        <ele>6</ele>
        <time>2019-06-30T08:29:48.000Z</time>
      </trkpt>
      <trkpt lat="47.25345" lon="-2.25406">
        <ele>5.4000000953674</ele>
        <time>2019-06-30T08:29:49.000Z</time>
      </trkpt>
      <trkpt lat="47.25348" lon="-2.25399">
        <ele>5</ele>
        <time>2019-06-30T08:29:50.000Z</time>
      </trkpt>
      <trkpt lat="47.2535" lon="-2.25393">
        <ele>4.4000000953674</ele>
        <time>2019-06-30T08:29:51.000Z</time>
      </trkpt>
      <trkpt lat="47.25354" lon="-2.25388">
        <ele>4</ele>
        <time>2019-06-30T08:29:52.000Z</time>
      </trkpt>
      <trkpt lat="47.25358" lon="-2.25385">
        <ele>3.5999999046326</ele>
        <time>2019-06-30T08:29:53.000Z</time>
      </trkpt>
      <trkpt lat="47.25363" lon="-2.25383">
        <ele>3.2000000476837</ele>
        <time>2019-06-30T08:29:54.000Z</time>
      </trkpt>
      <trkpt lat="47.25366" lon="-2.25382">
        <ele>2.4000000953674</ele>
        <time>2019-06-30T08:29:55.000Z</time>
      </trkpt>
      <trkpt lat="47.25369" lon="-2.25382">
        <ele>2.4000000953674</ele>
        <time>2019-06-30T08:29:56.000Z</time>
      </trkpt>
      <trkpt lat="47.25378" lon="-2.2538">
        <ele>2.4000000953674</ele>
        <time>2019-06-30T08:29:59.000Z</time>
      </trkpt>
      <trkpt lat="47.25385" lon="-2.25377">
        <ele>2.4000000953674</ele>
        <time>2019-06-30T08:30:04.000Z</time>
      </trkpt>
      <trkpt lat="47.25388" lon="-2.25385">
        <ele>2.4000000953674</ele>
        <time>2019-06-30T08:30:11.000Z</time>
      </trkpt>
      <trkpt lat="47.25391" lon="-2.25386">
        <ele>2.4000000953674</ele>
        <time>2019-06-30T08:30:13.000Z</time>
      </trkpt>
      <trkpt lat="47.25394" lon="-2.25388">
        <ele>2.7999999523163</ele>
        <time>2019-06-30T08:30:16.000Z</time>
      </trkpt>
      <trkpt lat="47.25396" lon="-2.25389">
        <ele>3.2000000476837</ele>
        <time>2019-06-30T08:30:17.000Z</time>
      </trkpt>
      <trkpt lat="47.25398" lon="-2.25391">
        <ele>3.5999999046326</ele>
        <time>2019-06-30T08:30:18.000Z</time>
      </trkpt>
      <trkpt lat="47.25401" lon="-2.25393">
        <ele>4.1999998092651</ele>
        <time>2019-06-30T08:30:19.000Z</time>
      </trkpt>
      <trkpt lat="47.25403" lon="-2.25395">
        <ele>4.5999999046326</ele>
        <time>2019-06-30T08:30:20.000Z</time>
      </trkpt>
      <trkpt lat="47.25412" lon="-2.25399">
        <ele>4.5999999046326</ele>
        <time>2019-06-30T08:30:23.000Z</time>
      </trkpt>
      <trkpt lat="47.25415" lon="-2.25399">
        <ele>5</ele>
        <time>2019-06-30T08:30:24.000Z</time>
      </trkpt>
      <trkpt lat="47.25417" lon="-2.254">
        <ele>5.4000000953674</ele>
        <time>2019-06-30T08:30:25.000Z</time>
      </trkpt>
      <trkpt lat="47.2542" lon="-2.25401">
        <ele>5.8000001907349</ele>
        <time>2019-06-30T08:30:26.000Z</time>
      </trkpt>
      <trkpt lat="47.25421" lon="-2.25402">
        <ele>6.1999998092651</ele>
        <time>2019-06-30T08:30:27.000Z</time>
      </trkpt>
      <trkpt lat="47.25422" lon="-2.25402">
        <ele>6.5999999046326</ele>
        <time>2019-06-30T08:30:28.000Z</time>
      </trkpt>
      <trkpt lat="47.25427" lon="-2.25404">
        <ele>6.5999999046326</ele>
        <time>2019-06-30T08:30:32.000Z</time>
      </trkpt>
      <trkpt lat="47.25428" lon="-2.25403">
        <ele>7</ele>
        <time>2019-06-30T08:30:33.000Z</time>
      </trkpt>
      <trkpt lat="47.25429" lon="-2.25403">
        <ele>7.4000000953674</ele>
        <time>2019-06-30T08:30:34.000Z</time>
      </trkpt>
      <trkpt lat="47.25431" lon="-2.25402">
        <ele>7.8000001907349</ele>
        <time>2019-06-30T08:30:35.000Z</time>
      </trkpt>
      <trkpt lat="47.25432" lon="-2.25401">
        <ele>8.1999998092651</ele>
        <time>2019-06-30T08:30:36.000Z</time>
      </trkpt>
      <trkpt lat="47.25434" lon="-2.25399">
        <ele>8.6000003814697</ele>
        <time>2019-06-30T08:30:37.000Z</time>
      </trkpt>
      <trkpt lat="47.25435" lon="-2.25398">
        <ele>8.6000003814697</ele>
        <time>2019-06-30T08:30:38.000Z</time>
      </trkpt>
      <trkpt lat="47.25443" lon="-2.254">
        <ele>8.6000003814697</ele>
        <time>2019-06-30T08:30:42.000Z</time>
      </trkpt>
      <trkpt lat="47.25448" lon="-2.25404">
        <ele>9</ele>
        <time>2019-06-30T08:30:45.000Z</time>
      </trkpt>
      <trkpt lat="47.25449" lon="-2.25405">
        <ele>9.3999996185303</ele>
        <time>2019-06-30T08:30:46.000Z</time>
      </trkpt>
      <trkpt lat="47.25451" lon="-2.25407">
        <ele>9.8000001907349</ele>
        <time>2019-06-30T08:30:47.000Z</time>
      </trkpt>
      <trkpt lat="47.25452" lon="-2.25408">
        <ele>10.199999809265</ele>
        <time>2019-06-30T08:30:48.000Z</time>
      </trkpt>
      <trkpt lat="47.25453" lon="-2.25409">
        <ele>10.60000038147</ele>
        <time>2019-06-30T08:30:49.000Z</time>
      </trkpt>
      <trkpt lat="47.25457" lon="-2.25406">
        <ele>10.60000038147</ele>
        <time>2019-06-30T08:30:52.000Z</time>
      </trkpt>
      <trkpt lat="47.25464" lon="-2.25404">
        <ele>11</ele>
        <time>2019-06-30T08:30:56.000Z</time>
      </trkpt>
      <trkpt lat="47.25466" lon="-2.25403">
        <ele>11.39999961853</ele>
        <time>2019-06-30T08:30:57.000Z</time>
      </trkpt>
      <trkpt lat="47.25467" lon="-2.25402">
        <ele>12</ele>
        <time>2019-06-30T08:30:58.000Z</time>
      </trkpt>
      <trkpt lat="47.25469" lon="-2.25402">
        <ele>12.39999961853</ele>
        <time>2019-06-30T08:30:59.000Z</time>
      </trkpt>
      <trkpt lat="47.2547" lon="-2.25403">
        <ele>12.800000190735</ele>
        <time>2019-06-30T08:31:00.000Z</time>
      </trkpt>
      <trkpt lat="47.25473" lon="-2.25404">
        <ele>12.800000190735</ele>
        <time>2019-06-30T08:31:02.000Z</time>
      </trkpt>
      <trkpt lat="47.25474" lon="-2.25408">
        <ele>12.800000190735</ele>
        <time>2019-06-30T08:31:04.000Z</time>
      </trkpt>
      <trkpt lat="47.25474" lon="-2.25409">
        <ele>12.800000190735</ele>
        <time>2019-06-30T08:31:06.000Z</time>
      </trkpt>
      <trkpt lat="47.25483" lon="-2.25416">
        <ele>15</ele>
        <time>2019-06-30T08:31:13.000Z</time>
      </trkpt>
      <trkpt lat="47.25485" lon="-2.25419">
        <ele>15</ele>
        <time>2019-06-30T08:31:14.000Z</time>
      </trkpt>
      <trkpt lat="47.25488" lon="-2.2543">
        <ele>15</ele>
        <time>2019-06-30T08:31:19.000Z</time>
      </trkpt>
      <trkpt lat="47.25488" lon="-2.25433">
        <ele>15</ele>
        <time>2019-06-30T08:31:22.000Z</time>
      </trkpt>
      <trkpt lat="47.2549" lon="-2.2544">
        <ele>15</ele>
        <time>2019-06-30T08:31:30.000Z</time>
      </trkpt>
      <trkpt lat="47.25492" lon="-2.25443">
        <ele>15</ele>
        <time>2019-06-30T08:31:31.000Z</time>
      </trkpt>
      <trkpt lat="47.25499" lon="-2.25453">
        <ele>15</ele>
        <time>2019-06-30T08:31:35.000Z</time>
      </trkpt>
      <trkpt lat="47.255" lon="-2.25455">
        <ele>15.39999961853</ele>
        <time>2019-06-30T08:31:36.000Z</time>
      </trkpt>
      <trkpt lat="47.255" lon="-2.25458">
        <ele>15.800000190735</ele>
        <time>2019-06-30T08:31:37.000Z</time>
      </trkpt>
      <trkpt lat="47.25499" lon="-2.25461">
        <ele>16.200000762939</ele>
        <time>2019-06-30T08:31:38.000Z</time>
      </trkpt>
      <trkpt lat="47.255" lon="-2.25465">
        <ele>16.799999237061</ele>
        <time>2019-06-30T08:31:39.000Z</time>
      </trkpt>
      <trkpt lat="47.255" lon="-2.25469">
        <ele>17.200000762939</ele>
        <time>2019-06-30T08:31:40.000Z</time>
      </trkpt>
      <trkpt lat="47.25501" lon="-2.25483">
        <ele>17.200000762939</ele>
        <time>2019-06-30T08:31:43.000Z</time>
      </trkpt>
      <trkpt lat="47.255" lon="-2.25487">
        <ele>17.200000762939</ele>
        <time>2019-06-30T08:31:44.000Z</time>
      </trkpt>
      <trkpt lat="47.25495" lon="-2.2552">
        <ele>17.200000762939</ele>
        <time>2019-06-30T08:31:50.000Z</time>
      </trkpt>
      <trkpt lat="47.2549" lon="-2.25547">
        <ele>17.200000762939</ele>
        <time>2019-06-30T08:31:56.000Z</time>
      </trkpt>
      <trkpt lat="47.25487" lon="-2.25573">
        <ele>17.200000762939</ele>
        <time>2019-06-30T08:32:01.000Z</time>
      </trkpt>
      <trkpt lat="47.25487" lon="-2.25605">
        <ele>17.200000762939</ele>
        <time>2019-06-30T08:32:07.000Z</time>
      </trkpt>
      <trkpt lat="47.25488" lon="-2.25635">
        <ele>17.200000762939</ele>
        <time>2019-06-30T08:32:11.000Z</time>
      </trkpt>
      <trkpt lat="47.25487" lon="-2.25644">
        <ele>17.200000762939</ele>
        <time>2019-06-30T08:32:12.000Z</time>
      </trkpt>
      <trkpt lat="47.25488" lon="-2.2566">
        <ele>17.200000762939</ele>
        <time>2019-06-30T08:32:14.000Z</time>
      </trkpt>
      <trkpt lat="47.25494" lon="-2.25678">
        <ele>17.200000762939</ele>
        <time>2019-06-30T08:32:17.000Z</time>
      </trkpt>
      <trkpt lat="47.25502" lon="-2.25687">
        <ele>17.200000762939</ele>
        <time>2019-06-30T08:32:20.000Z</time>
      </trkpt>
      <trkpt lat="47.25506" lon="-2.25693">
        <ele>17.200000762939</ele>
        <time>2019-06-30T08:32:23.000Z</time>
      </trkpt>
      <trkpt lat="47.25506" lon="-2.25695">
        <ele>17.200000762939</ele>
        <time>2019-06-30T08:32:24.000Z</time>
      </trkpt>
      <trkpt lat="47.2551" lon="-2.25698">
        <ele>17.200000762939</ele>
        <time>2019-06-30T08:32:29.000Z</time>
      </trkpt>
      <trkpt lat="47.25511" lon="-2.25698">
        <ele>17.200000762939</ele>
        <time>2019-06-30T08:32:33.000Z</time>
      </trkpt>
      <trkpt lat="47.2551" lon="-2.25702">
        <ele>17.200000762939</ele>
        <time>2019-06-30T08:32:38.000Z</time>
      </trkpt>
      <trkpt lat="47.25511" lon="-2.25708">
        <ele>17.200000762939</ele>
        <time>2019-06-30T08:32:40.000Z</time>
      </trkpt>
      <trkpt lat="47.25508" lon="-2.25725">
        <ele>17.200000762939</ele>
        <time>2019-06-30T08:32:44.000Z</time>
      </trkpt>
      <trkpt lat="47.25508" lon="-2.25737">
        <ele>17.200000762939</ele>
        <time>2019-06-30T08:32:47.000Z</time>
      </trkpt>
      <trkpt lat="47.25508" lon="-2.25741">
        <ele>18</ele>
        <time>2019-06-30T08:32:48.000Z</time>
      </trkpt>
      <trkpt lat="47.25507" lon="-2.25742">
        <ele>18.60000038147</ele>
        <time>2019-06-30T08:32:49.000Z</time>
      </trkpt>
      <trkpt lat="47.25505" lon="-2.25742">
        <ele>19</ele>
        <time>2019-06-30T08:32:50.000Z</time>
      </trkpt>
      <trkpt lat="47.25504" lon="-2.2574">
        <ele>19.39999961853</ele>
        <time>2019-06-30T08:32:51.000Z</time>
      </trkpt>
      <trkpt lat="47.25501" lon="-2.25741">
        <ele>19.39999961853</ele>
        <time>2019-06-30T08:32:53.000Z</time>
      </trkpt>
      <trkpt lat="47.25496" lon="-2.25746">
        <ele>19.39999961853</ele>
        <time>2019-06-30T08:32:56.000Z</time>
      </trkpt>
      <trkpt lat="47.25496" lon="-2.25748">
        <ele>19.39999961853</ele>
        <time>2019-06-30T08:32:57.000Z</time>
      </trkpt>
      <trkpt lat="47.25492" lon="-2.25752">
        <ele>19.39999961853</ele>
        <time>2019-06-30T08:33:02.000Z</time>
      </trkpt>
      <trkpt lat="47.25486" lon="-2.25767">
        <ele>19.39999961853</ele>
        <time>2019-06-30T08:33:23.000Z</time>
      </trkpt>
      <trkpt lat="47.25482" lon="-2.25774">
        <ele>19.39999961853</ele>
        <time>2019-06-30T08:33:26.000Z</time>
      </trkpt>
      <trkpt lat="47.25477" lon="-2.25798">
        <ele>19.39999961853</ele>
        <time>2019-06-30T08:33:31.000Z</time>
      </trkpt>
      <trkpt lat="47.25472" lon="-2.2582">
        <ele>19.39999961853</ele>
        <time>2019-06-30T08:33:35.000Z</time>
      </trkpt>
      <trkpt lat="47.25465" lon="-2.25852">
        <ele>19.39999961853</ele>
        <time>2019-06-30T08:33:41.000Z</time>
      </trkpt>
      <trkpt lat="47.25459" lon="-2.25851">
        <ele>19.39999961853</ele>
        <time>2019-06-30T08:33:45.000Z</time>
      </trkpt>
      <trkpt lat="47.25451" lon="-2.25853">
        <ele>19</ele>
        <time>2019-06-30T08:33:49.000Z</time>
      </trkpt>
      <trkpt lat="47.25449" lon="-2.25853">
        <ele>18.60000038147</ele>
        <time>2019-06-30T08:33:50.000Z</time>
      </trkpt>
      <trkpt lat="47.25447" lon="-2.25854">
        <ele>18.200000762939</ele>
        <time>2019-06-30T08:33:51.000Z</time>
      </trkpt>
      <trkpt lat="47.25446" lon="-2.25856">
        <ele>17.60000038147</ele>
        <time>2019-06-30T08:33:52.000Z</time>
      </trkpt>
      <trkpt lat="47.25445" lon="-2.25859">
        <ele>17.200000762939</ele>
        <time>2019-06-30T08:33:53.000Z</time>
      </trkpt>
      <trkpt lat="47.25443" lon="-2.25867">
        <ele>17.200000762939</ele>
        <time>2019-06-30T08:33:55.000Z</time>
      </trkpt>
      <trkpt lat="47.25435" lon="-2.25883">
        <ele>16.799999237061</ele>
        <time>2019-06-30T08:33:59.000Z</time>
      </trkpt>
      <trkpt lat="47.25434" lon="-2.25887">
        <ele>16.200000762939</ele>
        <time>2019-06-30T08:34:00.000Z</time>
      </trkpt>
      <trkpt lat="47.25434" lon="-2.25891">
        <ele>15.800000190735</ele>
        <time>2019-06-30T08:34:01.000Z</time>
      </trkpt>
      <trkpt lat="47.25434" lon="-2.25895">
        <ele>15.39999961853</ele>
        <time>2019-06-30T08:34:02.000Z</time>
      </trkpt>
      <trkpt lat="47.25434" lon="-2.25898">
        <ele>15</ele>
        <time>2019-06-30T08:34:03.000Z</time>
      </trkpt>
      <trkpt lat="47.25433" lon="-2.25903">
        <ele>15</ele>
        <time>2019-06-30T08:34:04.000Z</time>
      </trkpt>
      <trkpt lat="47.25433" lon="-2.25907">
        <ele>15</ele>
        <time>2019-06-30T08:34:05.000Z</time>
      </trkpt>
      <trkpt lat="47.25431" lon="-2.25928">
        <ele>15</ele>
        <time>2019-06-30T08:34:10.000Z</time>
      </trkpt>
      <trkpt lat="47.25431" lon="-2.25937">
        <ele>15</ele>
        <time>2019-06-30T08:34:13.000Z</time>
      </trkpt>
      <trkpt lat="47.25427" lon="-2.25942">
        <ele>15</ele>
        <time>2019-06-30T08:34:14.000Z</time>
      </trkpt>
      <trkpt lat="47.25414" lon="-2.25957">
        <ele>15</ele>
        <time>2019-06-30T08:34:17.000Z</time>
      </trkpt>
      <trkpt lat="47.25405" lon="-2.25977">
        <ele>15</ele>
        <time>2019-06-30T08:34:21.000Z</time>
      </trkpt>
      <trkpt lat="47.25399" lon="-2.25984">
        <ele>15</ele>
        <time>2019-06-30T08:34:25.000Z</time>
      </trkpt>
      <trkpt lat="47.2539" lon="-2.2599">
        <ele>15</ele>
        <time>2019-06-30T08:34:32.000Z</time>
      </trkpt>
      <trkpt lat="47.2539" lon="-2.2599">
        <ele>15.39999961853</ele>
        <time>2019-06-30T08:34:33.000Z</time>
      </trkpt>
      <trkpt lat="47.25388" lon="-2.25991">
        <ele>15.800000190735</ele>
        <time>2019-06-30T08:34:34.000Z</time>
      </trkpt>
      <trkpt lat="47.25387" lon="-2.25991">
        <ele>16.200000762939</ele>
        <time>2019-06-30T08:34:35.000Z</time>
      </trkpt>
      <trkpt lat="47.25387" lon="-2.25992">
        <ele>16.60000038147</ele>
        <time>2019-06-30T08:34:36.000Z</time>
      </trkpt>
      <trkpt lat="47.25379" lon="-2.25989">
        <ele>19</ele>
        <time>2019-06-30T08:34:43.000Z</time>
      </trkpt>
      <trkpt lat="47.25378" lon="-2.25987">
        <ele>19</ele>
        <time>2019-06-30T08:34:44.000Z</time>
      </trkpt>
      <trkpt lat="47.25372" lon="-2.25983">
        <ele>19</ele>
        <time>2019-06-30T08:34:47.000Z</time>
      </trkpt>
      <trkpt lat="47.25366" lon="-2.25983">
        <ele>19</ele>
        <time>2019-06-30T08:34:49.000Z</time>
      </trkpt>
      <trkpt lat="47.25361" lon="-2.25985">
        <ele>19.39999961853</ele>
        <time>2019-06-30T08:34:51.000Z</time>
      </trkpt>
      <trkpt lat="47.2536" lon="-2.25985">
        <ele>20.39999961853</ele>
        <time>2019-06-30T08:34:52.000Z</time>
      </trkpt>
      <trkpt lat="47.25359" lon="-2.25987">
        <ele>20.799999237061</ele>
        <time>2019-06-30T08:34:53.000Z</time>
      </trkpt>
      <trkpt lat="47.25358" lon="-2.25988">
        <ele>21.200000762939</ele>
        <time>2019-06-30T08:34:54.000Z</time>
      </trkpt>
      <trkpt lat="47.25357" lon="-2.25989">
        <ele>21.200000762939</ele>
        <time>2019-06-30T08:34:55.000Z</time>
      </trkpt>
      <trkpt lat="47.25357" lon="-2.25997">
        <ele>21.200000762939</ele>
        <time>2019-06-30T08:34:59.000Z</time>
      </trkpt>
      <trkpt lat="47.25358" lon="-2.25999">
        <ele>21.200000762939</ele>
        <time>2019-06-30T08:35:00.000Z</time>
      </trkpt>
      <trkpt lat="47.25358" lon="-2.26002">
        <ele>21.60000038147</ele>
        <time>2019-06-30T08:35:01.000Z</time>
      </trkpt>
      <trkpt lat="47.25358" lon="-2.26004">
        <ele>22</ele>
        <time>2019-06-30T08:35:02.000Z</time>
      </trkpt>
      <trkpt lat="47.25357" lon="-2.26005">
        <ele>22.39999961853</ele>
        <time>2019-06-30T08:35:03.000Z</time>
      </trkpt>
      <trkpt lat="47.25356" lon="-2.26007">
        <ele>23</ele>
        <time>2019-06-30T08:35:04.000Z</time>
      </trkpt>
      <trkpt lat="47.25354" lon="-2.2601">
        <ele>23.39999961853</ele>
        <time>2019-06-30T08:35:05.000Z</time>
      </trkpt>
      <trkpt lat="47.25348" lon="-2.26017">
        <ele>23.39999961853</ele>
        <time>2019-06-30T08:35:09.000Z</time>
      </trkpt>
      <trkpt lat="47.25346" lon="-2.26019">
        <ele>23.799999237061</ele>
        <time>2019-06-30T08:35:11.000Z</time>
      </trkpt>
      <trkpt lat="47.25344" lon="-2.26021">
        <ele>24.200000762939</ele>
        <time>2019-06-30T08:35:12.000Z</time>
      </trkpt>
      <trkpt lat="47.2534" lon="-2.26024">
        <ele>24.60000038147</ele>
        <time>2019-06-30T08:35:13.000Z</time>
      </trkpt>
      <trkpt lat="47.25336" lon="-2.26028">
        <ele>25</ele>
        <time>2019-06-30T08:35:14.000Z</time>
      </trkpt>
      <trkpt lat="47.25333" lon="-2.26028">
        <ele>25.39999961853</ele>
        <time>2019-06-30T08:35:15.000Z</time>
      </trkpt>
      <trkpt lat="47.25329" lon="-2.2603">
        <ele>25.39999961853</ele>
        <time>2019-06-30T08:35:18.000Z</time>
      </trkpt>
      <trkpt lat="47.25328" lon="-2.2603">
        <ele>25.39999961853</ele>
        <time>2019-06-30T08:35:20.000Z</time>
      </trkpt>
      <trkpt lat="47.25324" lon="-2.26025">
        <ele>25.39999961853</ele>
        <time>2019-06-30T08:35:23.000Z</time>
      </trkpt>
      <trkpt lat="47.25322" lon="-2.26018">
        <ele>25.39999961853</ele>
        <time>2019-06-30T08:35:27.000Z</time>
      </trkpt>
      <trkpt lat="47.25321" lon="-2.26018">
        <ele>25.39999961853</ele>
        <time>2019-06-30T08:35:29.000Z</time>
      </trkpt>
      <trkpt lat="47.25324" lon="-2.26011">
        <ele>25.39999961853</ele>
        <time>2019-06-30T08:35:55.000Z</time>
      </trkpt>
      <trkpt lat="47.25326" lon="-2.26011">
        <ele>25.39999961853</ele>
        <time>2019-06-30T08:35:56.000Z</time>
      </trkpt>
      <trkpt lat="47.25334" lon="-2.26011">
        <ele>25.39999961853</ele>
        <time>2019-06-30T08:36:00.000Z</time>
      </trkpt>
      <trkpt lat="47.25337" lon="-2.26012">
        <ele>25.39999961853</ele>
        <time>2019-06-30T08:36:01.000Z</time>
      </trkpt>
      <trkpt lat="47.2535" lon="-2.26014">
        <ele>25.39999961853</ele>
        <time>2019-06-30T08:36:05.000Z</time>
      </trkpt>
      <trkpt lat="47.25363" lon="-2.26017">
        <ele>25.39999961853</ele>
        <time>2019-06-30T08:36:08.000Z</time>
      </trkpt>
      <trkpt lat="47.25375" lon="-2.26024">
        <ele>25.39999961853</ele>
        <time>2019-06-30T08:36:11.000Z</time>
      </trkpt>
      <trkpt lat="47.25379" lon="-2.26027">
        <ele>24.799999237061</ele>
        <time>2019-06-30T08:36:12.000Z</time>
      </trkpt>
      <trkpt lat="47.25382" lon="-2.2603">
        <ele>24.39999961853</ele>
        <time>2019-06-30T08:36:13.000Z</time>
      </trkpt>
      <trkpt lat="47.25385" lon="-2.26033">
        <ele>23.799999237061</ele>
        <time>2019-06-30T08:36:14.000Z</time>
      </trkpt>
      <trkpt lat="47.25387" lon="-2.26037">
        <ele>23.39999961853</ele>
        <time>2019-06-30T08:36:15.000Z</time>
      </trkpt>
      <trkpt lat="47.25388" lon="-2.26039">
        <ele>22.799999237061</ele>
        <time>2019-06-30T08:36:16.000Z</time>
      </trkpt>
      <trkpt lat="47.25389" lon="-2.26051">
        <ele>22.799999237061</ele>
        <time>2019-06-30T08:36:19.000Z</time>
      </trkpt>
      <trkpt lat="47.2539" lon="-2.26069">
        <ele>22.799999237061</ele>
        <time>2019-06-30T08:36:22.000Z</time>
      </trkpt>
      <trkpt lat="47.2539" lon="-2.26076">
        <ele>22.39999961853</ele>
        <time>2019-06-30T08:36:23.000Z</time>
      </trkpt>
      <trkpt lat="47.25391" lon="-2.26082">
        <ele>22</ele>
        <time>2019-06-30T08:36:24.000Z</time>
      </trkpt>
      <trkpt lat="47.25392" lon="-2.26087">
        <ele>21.60000038147</ele>
        <time>2019-06-30T08:36:25.000Z</time>
      </trkpt>
      <trkpt lat="47.25392" lon="-2.26093">
        <ele>21.200000762939</ele>
        <time>2019-06-30T08:36:26.000Z</time>
      </trkpt>
      <trkpt lat="47.25393" lon="-2.26098">
        <ele>20.799999237061</ele>
        <time>2019-06-30T08:36:27.000Z</time>
      </trkpt>
      <trkpt lat="47.25392" lon="-2.26108">
        <ele>20.799999237061</ele>
        <time>2019-06-30T08:36:29.000Z</time>
      </trkpt>
      <trkpt lat="47.25388" lon="-2.26118">
        <ele>20.799999237061</ele>
        <time>2019-06-30T08:36:32.000Z</time>
      </trkpt>
      <trkpt lat="47.25386" lon="-2.2612">
        <ele>20.799999237061</ele>
        <time>2019-06-30T08:36:33.000Z</time>
      </trkpt>
      <trkpt lat="47.25382" lon="-2.26125">
        <ele>21.200000762939</ele>
        <time>2019-06-30T08:36:35.000Z</time>
      </trkpt>
      <trkpt lat="47.2538" lon="-2.26128">
        <ele>21.799999237061</ele>
        <time>2019-06-30T08:36:36.000Z</time>
      </trkpt>
      <trkpt lat="47.25378" lon="-2.26131">
        <ele>22.200000762939</ele>
        <time>2019-06-30T08:36:37.000Z</time>
      </trkpt>
      <trkpt lat="47.25377" lon="-2.26135">
        <ele>22.60000038147</ele>
        <time>2019-06-30T08:36:38.000Z</time>
      </trkpt>
      <trkpt lat="47.25376" lon="-2.26138">
        <ele>23</ele>
        <time>2019-06-30T08:36:39.000Z</time>
      </trkpt>
      <trkpt lat="47.25374" lon="-2.26143">
        <ele>23</ele>
        <time>2019-06-30T08:36:41.000Z</time>
      </trkpt>
      <trkpt lat="47.25372" lon="-2.26144">
        <ele>23</ele>
        <time>2019-06-30T08:36:42.000Z</time>
      </trkpt>
      <trkpt lat="47.25365" lon="-2.26149">
        <ele>23</ele>
        <time>2019-06-30T08:36:47.000Z</time>
      </trkpt>
      <trkpt lat="47.2536" lon="-2.26149">
        <ele>23</ele>
        <time>2019-06-30T08:36:53.000Z</time>
      </trkpt>
      <trkpt lat="47.25359" lon="-2.26149">
        <ele>23.39999961853</ele>
        <time>2019-06-30T08:36:54.000Z</time>
      </trkpt>
      <trkpt lat="47.25358" lon="-2.26149">
        <ele>24</ele>
        <time>2019-06-30T08:36:55.000Z</time>
      </trkpt>
      <trkpt lat="47.25357" lon="-2.26149">
        <ele>24.799999237061</ele>
        <time>2019-06-30T08:36:56.000Z</time>
      </trkpt>
      <trkpt lat="47.25355" lon="-2.2615">
        <ele>25.200000762939</ele>
        <time>2019-06-30T08:36:57.000Z</time>
      </trkpt>
      <trkpt lat="47.25352" lon="-2.26152">
        <ele>25.200000762939</ele>
        <time>2019-06-30T08:36:59.000Z</time>
      </trkpt>
      <trkpt lat="47.25351" lon="-2.26157">
        <ele>25.60000038147</ele>
        <time>2019-06-30T08:37:01.000Z</time>
      </trkpt>
      <trkpt lat="47.25351" lon="-2.2616">
        <ele>26.200000762939</ele>
        <time>2019-06-30T08:37:02.000Z</time>
      </trkpt>
      <trkpt lat="47.25351" lon="-2.26162">
        <ele>26.60000038147</ele>
        <time>2019-06-30T08:37:03.000Z</time>
      </trkpt>
      <trkpt lat="47.2535" lon="-2.26165">
        <ele>27</ele>
        <time>2019-06-30T08:37:04.000Z</time>
      </trkpt>
      <trkpt lat="47.25349" lon="-2.26167">
        <ele>27.39999961853</ele>
        <time>2019-06-30T08:37:05.000Z</time>
      </trkpt>
      <trkpt lat="47.25343" lon="-2.26168">
        <ele>27.39999961853</ele>
        <time>2019-06-30T08:37:09.000Z</time>
      </trkpt>
      <trkpt lat="47.25342" lon="-2.26167">
        <ele>27.799999237061</ele>
        <time>2019-06-30T08:37:10.000Z</time>
      </trkpt>
      <trkpt lat="47.25341" lon="-2.26165">
        <ele>28.200000762939</ele>
        <time>2019-06-30T08:37:11.000Z</time>
      </trkpt>
      <trkpt lat="47.25341" lon="-2.26164">
        <ele>28.60000038147</ele>
        <time>2019-06-30T08:37:12.000Z</time>
      </trkpt>
      <trkpt lat="47.2534" lon="-2.26164">
        <ele>29</ele>
        <time>2019-06-30T08:37:13.000Z</time>
      </trkpt>
      <trkpt lat="47.25339" lon="-2.2616">
        <ele>29.39999961853</ele>
        <time>2019-06-30T08:37:43.000Z</time>
      </trkpt>
      <trkpt lat="47.25339" lon="-2.26154">
        <ele>29.39999961853</ele>
        <time>2019-06-30T08:37:47.000Z</time>
      </trkpt>
      <trkpt lat="47.25339" lon="-2.26153">
        <ele>29.39999961853</ele>
        <time>2019-06-30T08:37:48.000Z</time>
      </trkpt>
      <trkpt lat="47.25341" lon="-2.26152">
        <ele>29.39999961853</ele>
        <time>2019-06-30T08:37:50.000Z</time>
      </trkpt>
      <trkpt lat="47.25342" lon="-2.26152">
        <ele>29</ele>
        <time>2019-06-30T08:37:51.000Z</time>
      </trkpt>
      <trkpt lat="47.25343" lon="-2.26152">
        <ele>28.60000038147</ele>
        <time>2019-06-30T08:37:52.000Z</time>
      </trkpt>
      <trkpt lat="47.25344" lon="-2.26152">
        <ele>28.200000762939</ele>
        <time>2019-06-30T08:37:53.000Z</time>
      </trkpt>
      <trkpt lat="47.25346" lon="-2.26152">
        <ele>27.799999237061</ele>
        <time>2019-06-30T08:37:54.000Z</time>
      </trkpt>
      <trkpt lat="47.25348" lon="-2.26152">
        <ele>27.39999961853</ele>
        <time>2019-06-30T08:37:55.000Z</time>
      </trkpt>
      <trkpt lat="47.25355" lon="-2.26152">
        <ele>27.39999961853</ele>
        <time>2019-06-30T08:37:58.000Z</time>
      </trkpt>
      <trkpt lat="47.2536" lon="-2.26148">
        <ele>27</ele>
        <time>2019-06-30T08:38:00.000Z</time>
      </trkpt>
      <trkpt lat="47.25362" lon="-2.26146">
        <ele>26.60000038147</ele>
        <time>2019-06-30T08:38:01.000Z</time>
      </trkpt>
      <trkpt lat="47.25364" lon="-2.26145">
        <ele>26.200000762939</ele>
        <time>2019-06-30T08:38:02.000Z</time>
      </trkpt>
      <trkpt lat="47.25366" lon="-2.26144">
        <ele>25.799999237061</ele>
        <time>2019-06-30T08:38:03.000Z</time>
      </trkpt>
      <trkpt lat="47.25367" lon="-2.26143">
        <ele>25.200000762939</ele>
        <time>2019-06-30T08:38:04.000Z</time>
      </trkpt>
      <trkpt lat="47.25373" lon="-2.26138">
        <ele>25.200000762939</ele>
        <time>2019-06-30T08:38:09.000Z</time>
      </trkpt>
      <trkpt lat="47.25377" lon="-2.26139">
        <ele>25.200000762939</ele>
        <time>2019-06-30T08:38:12.000Z</time>
      </trkpt>
      <trkpt lat="47.25379" lon="-2.26135">
        <ele>25.200000762939</ele>
        <time>2019-06-30T08:38:14.000Z</time>
      </trkpt>
      <trkpt lat="47.25383" lon="-2.26122">
        <ele>24.799999237061</ele>
        <time>2019-06-30T08:38:19.000Z</time>
      </trkpt>
      <trkpt lat="47.25384" lon="-2.26121">
        <ele>24.39999961853</ele>
        <time>2019-06-30T08:38:20.000Z</time>
      </trkpt>
      <trkpt lat="47.25386" lon="-2.26122">
        <ele>24</ele>
        <time>2019-06-30T08:38:21.000Z</time>
      </trkpt>
      <trkpt lat="47.25388" lon="-2.26122">
        <ele>23.60000038147</ele>
        <time>2019-06-30T08:38:22.000Z</time>
      </trkpt>
      <trkpt lat="47.2539" lon="-2.26122">
        <ele>23.200000762939</ele>
        <time>2019-06-30T08:38:23.000Z</time>
      </trkpt>
      <trkpt lat="47.25396" lon="-2.26115">
        <ele>22.799999237061</ele>
        <time>2019-06-30T08:38:27.000Z</time>
      </trkpt>
      <trkpt lat="47.25398" lon="-2.26115">
        <ele>22.39999961853</ele>
        <time>2019-06-30T08:38:28.000Z</time>
      </trkpt>
      <trkpt lat="47.254" lon="-2.26116">
        <ele>22</ele>
        <time>2019-06-30T08:38:29.000Z</time>
      </trkpt>
      <trkpt lat="47.25402" lon="-2.26118">
        <ele>21.60000038147</ele>
        <time>2019-06-30T08:38:30.000Z</time>
      </trkpt>
      <trkpt lat="47.25405" lon="-2.26121">
        <ele>21.200000762939</ele>
        <time>2019-06-30T08:38:31.000Z</time>
      </trkpt>
      <trkpt lat="47.25419" lon="-2.26151">
        <ele>21.200000762939</ele>
        <time>2019-06-30T08:38:36.000Z</time>
      </trkpt>
      <trkpt lat="47.25422" lon="-2.26158">
        <ele>20.799999237061</ele>
        <time>2019-06-30T08:38:37.000Z</time>
      </trkpt>
      <trkpt lat="47.25423" lon="-2.26164">
        <ele>20.200000762939</ele>
        <time>2019-06-30T08:38:38.000Z</time>
      </trkpt>
      <trkpt lat="47.25425" lon="-2.2617">
        <ele>19.799999237061</ele>
        <time>2019-06-30T08:38:39.000Z</time>
      </trkpt>
      <trkpt lat="47.25427" lon="-2.26176">
        <ele>19.39999961853</ele>
        <time>2019-06-30T08:38:40.000Z</time>
      </trkpt>
      <trkpt lat="47.25428" lon="-2.26182">
        <ele>19</ele>
        <time>2019-06-30T08:38:41.000Z</time>
      </trkpt>
      <trkpt lat="47.25428" lon="-2.26213">
        <ele>19</ele>
        <time>2019-06-30T08:38:46.000Z</time>
      </trkpt>
      <trkpt lat="47.25426" lon="-2.26226">
        <ele>19.39999961853</ele>
        <time>2019-06-30T08:38:49.000Z</time>
      </trkpt>
      <trkpt lat="47.25426" lon="-2.26231">
        <ele>20</ele>
        <time>2019-06-30T08:38:50.000Z</time>
      </trkpt>
      <trkpt lat="47.25425" lon="-2.26236">
        <ele>20.39999961853</ele>
        <time>2019-06-30T08:38:51.000Z</time>
      </trkpt>
      <trkpt lat="47.25425" lon="-2.26241">
        <ele>20.799999237061</ele>
        <time>2019-06-30T08:38:52.000Z</time>
      </trkpt>
      <trkpt lat="47.25426" lon="-2.26246">
        <ele>21.39999961853</ele>
        <time>2019-06-30T08:38:53.000Z</time>
      </trkpt>
      <trkpt lat="47.25425" lon="-2.26252">
        <ele>21.39999961853</ele>
        <time>2019-06-30T08:38:54.000Z</time>
      </trkpt>
      <trkpt lat="47.25423" lon="-2.26265">
        <ele>21.39999961853</ele>
        <time>2019-06-30T08:38:56.000Z</time>
      </trkpt>
      <trkpt lat="47.2542" lon="-2.26276">
        <ele>21.799999237061</ele>
        <time>2019-06-30T08:38:58.000Z</time>
      </trkpt>
      <trkpt lat="47.2542" lon="-2.26282">
        <ele>22.60000038147</ele>
        <time>2019-06-30T08:38:59.000Z</time>
      </trkpt>
      <trkpt lat="47.25421" lon="-2.26289">
        <ele>23.200000762939</ele>
        <time>2019-06-30T08:39:00.000Z</time>
      </trkpt>
      <trkpt lat="47.25423" lon="-2.26294">
        <ele>23.60000038147</ele>
        <time>2019-06-30T08:39:01.000Z</time>
      </trkpt>
      <trkpt lat="47.25428" lon="-2.26308">
        <ele>23.60000038147</ele>
        <time>2019-06-30T08:39:05.000Z</time>
      </trkpt>
      <trkpt lat="47.25426" lon="-2.2631">
        <ele>23.60000038147</ele>
        <time>2019-06-30T08:39:06.000Z</time>
      </trkpt>
      <trkpt lat="47.25424" lon="-2.26311">
        <ele>23.60000038147</ele>
        <time>2019-06-30T08:39:07.000Z</time>
      </trkpt>
      <trkpt lat="47.25421" lon="-2.26314">
        <ele>23.60000038147</ele>
        <time>2019-06-30T08:39:08.000Z</time>
      </trkpt>
      <trkpt lat="47.25413" lon="-2.26323">
        <ele>24</ele>
        <time>2019-06-30T08:39:11.000Z</time>
      </trkpt>
      <trkpt lat="47.25411" lon="-2.26325">
        <ele>24.60000038147</ele>
        <time>2019-06-30T08:39:12.000Z</time>
      </trkpt>
      <trkpt lat="47.25409" lon="-2.26327">
        <ele>25</ele>
        <time>2019-06-30T08:39:13.000Z</time>
      </trkpt>
      <trkpt lat="47.25408" lon="-2.26328">
        <ele>25.39999961853</ele>
        <time>2019-06-30T08:39:14.000Z</time>
      </trkpt>
      <trkpt lat="47.25407" lon="-2.26328">
        <ele>26</ele>
        <time>2019-06-30T08:39:15.000Z</time>
      </trkpt>
      <trkpt lat="47.25406" lon="-2.26329">
        <ele>26.60000038147</ele>
        <time>2019-06-30T08:39:16.000Z</time>
      </trkpt>
      <trkpt lat="47.25406" lon="-2.26331">
        <ele>27.200000762939</ele>
        <time>2019-06-30T08:39:17.000Z</time>
      </trkpt>
      <trkpt lat="47.25406" lon="-2.26333">
        <ele>27.60000038147</ele>
        <time>2019-06-30T08:39:18.000Z</time>
      </trkpt>
      <trkpt lat="47.25407" lon="-2.26335">
        <ele>28.200000762939</ele>
        <time>2019-06-30T08:39:19.000Z</time>
      </trkpt>
      <trkpt lat="47.25409" lon="-2.26346">
        <ele>28.200000762939</ele>
        <time>2019-06-30T08:39:23.000Z</time>
      </trkpt>
      <trkpt lat="47.2541" lon="-2.26349">
        <ele>28.200000762939</ele>
        <time>2019-06-30T08:39:24.000Z</time>
      </trkpt>
      <trkpt lat="47.25416" lon="-2.2636">
        <ele>28.200000762939</ele>
        <time>2019-06-30T08:39:28.000Z</time>
      </trkpt>
      <trkpt lat="47.25421" lon="-2.26375">
        <ele>28.200000762939</ele>
        <time>2019-06-30T08:39:31.000Z</time>
      </trkpt>
      <trkpt lat="47.25422" lon="-2.26383">
        <ele>28.200000762939</ele>
        <time>2019-06-30T08:39:33.000Z</time>
      </trkpt>
      <trkpt lat="47.25426" lon="-2.26387">
        <ele>28.200000762939</ele>
        <time>2019-06-30T08:39:35.000Z</time>
      </trkpt>
      <trkpt lat="47.25429" lon="-2.26387">
        <ele>28.200000762939</ele>
        <time>2019-06-30T08:39:38.000Z</time>
      </trkpt>
      <trkpt lat="47.25424" lon="-2.26381">
        <ele>28.60000038147</ele>
        <time>2019-06-30T08:39:43.000Z</time>
      </trkpt>
      <trkpt lat="47.25424" lon="-2.2638">
        <ele>29</ele>
        <time>2019-06-30T08:39:44.000Z</time>
      </trkpt>
      <trkpt lat="47.25424" lon="-2.26378">
        <ele>29.39999961853</ele>
        <time>2019-06-30T08:39:45.000Z</time>
      </trkpt>
      <trkpt lat="47.25424" lon="-2.26377">
        <ele>29.799999237061</ele>
        <time>2019-06-30T08:39:46.000Z</time>
      </trkpt>
      <trkpt lat="47.25425" lon="-2.26375">
        <ele>30.200000762939</ele>
        <time>2019-06-30T08:39:47.000Z</time>
      </trkpt>
      <trkpt lat="47.25423" lon="-2.26369">
        <ele>30.200000762939</ele>
        <time>2019-06-30T08:39:49.000Z</time>
      </trkpt>
      <trkpt lat="47.25422" lon="-2.26368">
        <ele>30.200000762939</ele>
        <time>2019-06-30T08:39:50.000Z</time>
      </trkpt>
      <trkpt lat="47.254" lon="-2.26356">
        <ele>32.200000762939</ele>
        <time>2019-06-30T08:52:54.000Z</time>
      </trkpt>
      <trkpt lat="47.25401" lon="-2.2636">
        <ele>32.200000762939</ele>
        <time>2019-06-30T08:52:56.000Z</time>
      </trkpt>
      <trkpt lat="47.25405" lon="-2.26376">
        <ele>32.200000762939</ele>
        <time>2019-06-30T08:53:01.000Z</time>
      </trkpt>
      <trkpt lat="47.25405" lon="-2.26382">
        <ele>32.200000762939</ele>
        <time>2019-06-30T08:53:02.000Z</time>
      </trkpt>
      <trkpt lat="47.25404" lon="-2.26393">
        <ele>32.200000762939</ele>
        <time>2019-06-30T08:53:04.000Z</time>
      </trkpt>
      <trkpt lat="47.25405" lon="-2.26404">
        <ele>32.200000762939</ele>
        <time>2019-06-30T08:53:06.000Z</time>
      </trkpt>
      <trkpt lat="47.25407" lon="-2.26417">
        <ele>32.200000762939</ele>
        <time>2019-06-30T08:53:09.000Z</time>
      </trkpt>
      <trkpt lat="47.2541" lon="-2.26449">
        <ele>32.200000762939</ele>
        <time>2019-06-30T08:53:15.000Z</time>
      </trkpt>
      <trkpt lat="47.25412" lon="-2.26468">
        <ele>32.599998474121</ele>
        <time>2019-06-30T08:53:18.000Z</time>
      </trkpt>
      <trkpt lat="47.25413" lon="-2.26474">
        <ele>33</ele>
        <time>2019-06-30T08:53:19.000Z</time>
      </trkpt>
      <trkpt lat="47.25413" lon="-2.26479">
        <ele>33.400001525879</ele>
        <time>2019-06-30T08:53:20.000Z</time>
      </trkpt>
      <trkpt lat="47.25413" lon="-2.26484">
        <ele>33.799999237061</ele>
        <time>2019-06-30T08:53:21.000Z</time>
      </trkpt>
      <trkpt lat="47.25414" lon="-2.26489">
        <ele>34.200000762939</ele>
        <time>2019-06-30T08:53:22.000Z</time>
      </trkpt>
      <trkpt lat="47.2542" lon="-2.26512">
        <ele>34.200000762939</ele>
        <time>2019-06-30T08:53:27.000Z</time>
      </trkpt>
      <trkpt lat="47.25429" lon="-2.26544">
        <ele>34.200000762939</ele>
        <time>2019-06-30T08:53:32.000Z</time>
      </trkpt>
      <trkpt lat="47.25438" lon="-2.26574">
        <ele>34.200000762939</ele>
        <time>2019-06-30T08:53:36.000Z</time>
      </trkpt>
      <trkpt lat="47.25443" lon="-2.26598">
        <ele>34.200000762939</ele>
        <time>2019-06-30T08:53:39.000Z</time>
      </trkpt>
      <trkpt lat="47.25444" lon="-2.26608">
        <ele>34.200000762939</ele>
        <time>2019-06-30T08:53:41.000Z</time>
      </trkpt>
      <trkpt lat="47.25445" lon="-2.2664">
        <ele>34.799999237061</ele>
        <time>2019-06-30T08:53:47.000Z</time>
      </trkpt>
      <trkpt lat="47.25446" lon="-2.26644">
        <ele>35.200000762939</ele>
        <time>2019-06-30T08:53:48.000Z</time>
      </trkpt>
      <trkpt lat="47.25447" lon="-2.26649">
        <ele>36</ele>
        <time>2019-06-30T08:53:49.000Z</time>
      </trkpt>
      <trkpt lat="47.25449" lon="-2.26654">
        <ele>36.400001525879</ele>
        <time>2019-06-30T08:53:50.000Z</time>
      </trkpt>
      <trkpt lat="47.25453" lon="-2.26663">
        <ele>36.400001525879</ele>
        <time>2019-06-30T08:53:52.000Z</time>
      </trkpt>
      <trkpt lat="47.25459" lon="-2.26671">
        <ele>36.400001525879</ele>
        <time>2019-06-30T08:53:54.000Z</time>
      </trkpt>
      <trkpt lat="47.25471" lon="-2.26685">
        <ele>36.400001525879</ele>
        <time>2019-06-30T08:53:57.000Z</time>
      </trkpt>
      <trkpt lat="47.25485" lon="-2.26705">
        <ele>36.400001525879</ele>
        <time>2019-06-30T08:54:01.000Z</time>
      </trkpt>
      <trkpt lat="47.25484" lon="-2.26711">
        <ele>36.400001525879</ele>
        <time>2019-06-30T08:54:02.000Z</time>
      </trkpt>
      <trkpt lat="47.25485" lon="-2.26737">
        <ele>36.400001525879</ele>
        <time>2019-06-30T08:54:06.000Z</time>
      </trkpt>
      <trkpt lat="47.25487" lon="-2.26742">
        <ele>36.400001525879</ele>
        <time>2019-06-30T08:54:07.000Z</time>
      </trkpt>
      <trkpt lat="47.25498" lon="-2.26772">
        <ele>36.400001525879</ele>
        <time>2019-06-30T08:54:13.000Z</time>
      </trkpt>
      <trkpt lat="47.25506" lon="-2.26785">
        <ele>36.799999237061</ele>
        <time>2019-06-30T08:54:16.000Z</time>
      </trkpt>
      <trkpt lat="47.25509" lon="-2.26789">
        <ele>37.400001525879</ele>
        <time>2019-06-30T08:54:17.000Z</time>
      </trkpt>
      <trkpt lat="47.25511" lon="-2.26793">
        <ele>37.799999237061</ele>
        <time>2019-06-30T08:54:18.000Z</time>
      </trkpt>
      <trkpt lat="47.25512" lon="-2.26798">
        <ele>38.200000762939</ele>
        <time>2019-06-30T08:54:19.000Z</time>
      </trkpt>
      <trkpt lat="47.25514" lon="-2.26802">
        <ele>38.599998474121</ele>
        <time>2019-06-30T08:54:20.000Z</time>
      </trkpt>
      <trkpt lat="47.25532" lon="-2.26826">
        <ele>38.599998474121</ele>
        <time>2019-06-30T08:54:26.000Z</time>
      </trkpt>
      <trkpt lat="47.25551" lon="-2.26844">
        <ele>38.599998474121</ele>
        <time>2019-06-30T08:54:32.000Z</time>
      </trkpt>
      <trkpt lat="47.25554" lon="-2.26846">
        <ele>39</ele>
        <time>2019-06-30T08:54:33.000Z</time>
      </trkpt>
      <trkpt lat="47.25557" lon="-2.26849">
        <ele>39.599998474121</ele>
        <time>2019-06-30T08:54:34.000Z</time>
      </trkpt>
      <trkpt lat="47.25559" lon="-2.26854">
        <ele>40</ele>
        <time>2019-06-30T08:54:35.000Z</time>
      </trkpt>
      <trkpt lat="47.25559" lon="-2.26859">
        <ele>40.400001525879</ele>
        <time>2019-06-30T08:54:36.000Z</time>
      </trkpt>
      <trkpt lat="47.25561" lon="-2.26862">
        <ele>40.799999237061</ele>
        <time>2019-06-30T08:54:37.000Z</time>
      </trkpt>
      <trkpt lat="47.25566" lon="-2.2687">
        <ele>40.799999237061</ele>
        <time>2019-06-30T08:54:40.000Z</time>
      </trkpt>
      <trkpt lat="47.25573" lon="-2.26873">
        <ele>40.799999237061</ele>
        <time>2019-06-30T08:54:42.000Z</time>
      </trkpt>
      <trkpt lat="47.25577" lon="-2.26874">
        <ele>41.200000762939</ele>
        <time>2019-06-30T08:54:43.000Z</time>
      </trkpt>
      <trkpt lat="47.25581" lon="-2.26875">
        <ele>41.599998474121</ele>
        <time>2019-06-30T08:54:44.000Z</time>
      </trkpt>
      <trkpt lat="47.25585" lon="-2.26876">
        <ele>42.200000762939</ele>
        <time>2019-06-30T08:54:45.000Z</time>
      </trkpt>
      <trkpt lat="47.25589" lon="-2.26877">
        <ele>42.599998474121</ele>
        <time>2019-06-30T08:54:46.000Z</time>
      </trkpt>
      <trkpt lat="47.25593" lon="-2.26878">
        <ele>43</ele>
        <time>2019-06-30T08:54:47.000Z</time>
      </trkpt>
      <trkpt lat="47.25597" lon="-2.26879">
        <ele>43</ele>
        <time>2019-06-30T08:54:48.000Z</time>
      </trkpt>
      <trkpt lat="47.25607" lon="-2.26883">
        <ele>43.400001525879</ele>
        <time>2019-06-30T08:54:51.000Z</time>
      </trkpt>
      <trkpt lat="47.25611" lon="-2.26882">
        <ele>43.799999237061</ele>
        <time>2019-06-30T08:54:52.000Z</time>
      </trkpt>
      <trkpt lat="47.25614" lon="-2.26882">
        <ele>44.200000762939</ele>
        <time>2019-06-30T08:54:53.000Z</time>
      </trkpt>
      <trkpt lat="47.25618" lon="-2.26879">
        <ele>44.599998474121</ele>
        <time>2019-06-30T08:54:54.000Z</time>
      </trkpt>
      <trkpt lat="47.2562" lon="-2.26875">
        <ele>45.200000762939</ele>
        <time>2019-06-30T08:54:55.000Z</time>
      </trkpt>
      <trkpt lat="47.25627" lon="-2.26859">
        <ele>45.200000762939</ele>
        <time>2019-06-30T08:54:58.000Z</time>
      </trkpt>
      <trkpt lat="47.2563" lon="-2.26853">
        <ele>45.200000762939</ele>
        <time>2019-06-30T08:54:59.000Z</time>
      </trkpt>
      <trkpt lat="47.25637" lon="-2.26841">
        <ele>45.200000762939</ele>
        <time>2019-06-30T08:55:01.000Z</time>
      </trkpt>
      <trkpt lat="47.25645" lon="-2.26831">
        <ele>45.200000762939</ele>
        <time>2019-06-30T08:55:03.000Z</time>
      </trkpt>
      <trkpt lat="47.25674" lon="-2.26814">
        <ele>45.200000762939</ele>
        <time>2019-06-30T08:55:09.000Z</time>
      </trkpt>
      <trkpt lat="47.25696" lon="-2.26817">
        <ele>45.200000762939</ele>
        <time>2019-06-30T08:55:14.000Z</time>
      </trkpt>
      <trkpt lat="47.25708" lon="-2.26822">
        <ele>45.200000762939</ele>
        <time>2019-06-30T08:55:17.000Z</time>
      </trkpt>
      <trkpt lat="47.25715" lon="-2.26828">
        <ele>45.200000762939</ele>
        <time>2019-06-30T08:55:19.000Z</time>
      </trkpt>
      <trkpt lat="47.25719" lon="-2.26831">
        <ele>45.200000762939</ele>
        <time>2019-06-30T08:55:20.000Z</time>
      </trkpt>
      <trkpt lat="47.25723" lon="-2.26835">
        <ele>45.200000762939</ele>
        <time>2019-06-30T08:55:21.000Z</time>
      </trkpt>
      <trkpt lat="47.25733" lon="-2.2685">
        <ele>45.200000762939</ele>
        <time>2019-06-30T08:55:24.000Z</time>
      </trkpt>
      <trkpt lat="47.25741" lon="-2.26866">
        <ele>45.200000762939</ele>
        <time>2019-06-30T08:55:27.000Z</time>
      </trkpt>
      <trkpt lat="47.25746" lon="-2.26885">
        <ele>45.200000762939</ele>
        <time>2019-06-30T08:55:30.000Z</time>
      </trkpt>
      <trkpt lat="47.25746" lon="-2.26891">
        <ele>45.200000762939</ele>
        <time>2019-06-30T08:55:31.000Z</time>
      </trkpt>
      <trkpt lat="47.25752" lon="-2.26899">
        <ele>45.200000762939</ele>
        <time>2019-06-30T08:55:33.000Z</time>
      </trkpt>
      <trkpt lat="47.25764" lon="-2.26897">
        <ele>45.200000762939</ele>
        <time>2019-06-30T08:55:36.000Z</time>
      </trkpt>
      <trkpt lat="47.25784" lon="-2.26891">
        <ele>45.200000762939</ele>
        <time>2019-06-30T08:55:40.000Z</time>
      </trkpt>
      <trkpt lat="47.25788" lon="-2.26889">
        <ele>45.200000762939</ele>
        <time>2019-06-30T08:55:41.000Z</time>
      </trkpt>
      <trkpt lat="47.25823" lon="-2.2687">
        <ele>45.200000762939</ele>
        <time>2019-06-30T08:55:48.000Z</time>
      </trkpt>
      <trkpt lat="47.25857" lon="-2.26855">
        <ele>45.200000762939</ele>
        <time>2019-06-30T08:55:54.000Z</time>
      </trkpt>
      <trkpt lat="47.25902" lon="-2.26834">
        <ele>44.599998474121</ele>
        <time>2019-06-30T08:56:02.000Z</time>
      </trkpt>
      <trkpt lat="47.25907" lon="-2.2683">
        <ele>44.200000762939</ele>
        <time>2019-06-30T08:56:03.000Z</time>
      </trkpt>
      <trkpt lat="47.25913" lon="-2.26826">
        <ele>43.799999237061</ele>
        <time>2019-06-30T08:56:04.000Z</time>
      </trkpt>
      <trkpt lat="47.25919" lon="-2.26821">
        <ele>43.400001525879</ele>
        <time>2019-06-30T08:56:05.000Z</time>
      </trkpt>
      <trkpt lat="47.25924" lon="-2.26817">
        <ele>43</ele>
        <time>2019-06-30T08:56:06.000Z</time>
      </trkpt>
      <trkpt lat="47.2593" lon="-2.26815">
        <ele>43</ele>
        <time>2019-06-30T08:56:07.000Z</time>
      </trkpt>
      <trkpt lat="47.25944" lon="-2.26815">
        <ele>43</ele>
        <time>2019-06-30T08:56:09.000Z</time>
      </trkpt>
      <trkpt lat="47.2595" lon="-2.26813">
        <ele>43</ele>
        <time>2019-06-30T08:56:10.000Z</time>
      </trkpt>
      <trkpt lat="47.25957" lon="-2.26812">
        <ele>43</ele>
        <time>2019-06-30T08:56:11.000Z</time>
      </trkpt>
      <trkpt lat="47.2597" lon="-2.26809">
        <ele>42.599998474121</ele>
        <time>2019-06-30T08:56:13.000Z</time>
      </trkpt>
      <trkpt lat="47.25976" lon="-2.26808">
        <ele>42</ele>
        <time>2019-06-30T08:56:14.000Z</time>
      </trkpt>
      <trkpt lat="47.25982" lon="-2.26809">
        <ele>41.599998474121</ele>
        <time>2019-06-30T08:56:15.000Z</time>
      </trkpt>
      <trkpt lat="47.25986" lon="-2.26814">
        <ele>41.200000762939</ele>
        <time>2019-06-30T08:56:16.000Z</time>
      </trkpt>
      <trkpt lat="47.25989" lon="-2.2682">
        <ele>40.599998474121</ele>
        <time>2019-06-30T08:56:17.000Z</time>
      </trkpt>
      <trkpt lat="47.2599" lon="-2.26834">
        <ele>40.599998474121</ele>
        <time>2019-06-30T08:56:19.000Z</time>
      </trkpt>
      <trkpt lat="47.25991" lon="-2.26848">
        <ele>40.599998474121</ele>
        <time>2019-06-30T08:56:21.000Z</time>
      </trkpt>
      <trkpt lat="47.25992" lon="-2.26877">
        <ele>40.599998474121</ele>
        <time>2019-06-30T08:56:25.000Z</time>
      </trkpt>
      <trkpt lat="47.25995" lon="-2.26891">
        <ele>40.599998474121</ele>
        <time>2019-06-30T08:56:27.000Z</time>
      </trkpt>
      <trkpt lat="47.26002" lon="-2.26909">
        <ele>40.599998474121</ele>
        <time>2019-06-30T08:56:30.000Z</time>
      </trkpt>
      <trkpt lat="47.26017" lon="-2.26936">
        <ele>40.599998474121</ele>
        <time>2019-06-30T08:56:35.000Z</time>
      </trkpt>
      <trkpt lat="47.26021" lon="-2.2694">
        <ele>40.599998474121</ele>
        <time>2019-06-30T08:56:36.000Z</time>
      </trkpt>
      <trkpt lat="47.2604" lon="-2.26962">
        <ele>40.599998474121</ele>
        <time>2019-06-30T08:56:41.000Z</time>
      </trkpt>
      <trkpt lat="47.26048" lon="-2.26971">
        <ele>40.599998474121</ele>
        <time>2019-06-30T08:56:43.000Z</time>
      </trkpt>
      <trkpt lat="47.26058" lon="-2.26987">
        <ele>40.599998474121</ele>
        <time>2019-06-30T08:56:46.000Z</time>
      </trkpt>
      <trkpt lat="47.26061" lon="-2.26992">
        <ele>40.599998474121</ele>
        <time>2019-06-30T08:56:47.000Z</time>
      </trkpt>
      <trkpt lat="47.26068" lon="-2.27003">
        <ele>40.599998474121</ele>
        <time>2019-06-30T08:56:49.000Z</time>
      </trkpt>
      <trkpt lat="47.26077" lon="-2.27019">
        <ele>40.599998474121</ele>
        <time>2019-06-30T08:56:52.000Z</time>
      </trkpt>
      <trkpt lat="47.26092" lon="-2.27058">
        <ele>40.599998474121</ele>
        <time>2019-06-30T08:56:58.000Z</time>
      </trkpt>
      <trkpt lat="47.26094" lon="-2.27072">
        <ele>40.599998474121</ele>
        <time>2019-06-30T08:57:00.000Z</time>
      </trkpt>
      <trkpt lat="47.26098" lon="-2.27091">
        <ele>40.599998474121</ele>
        <time>2019-06-30T08:57:03.000Z</time>
      </trkpt>
      <trkpt lat="47.26101" lon="-2.2712">
        <ele>40.599998474121</ele>
        <time>2019-06-30T08:57:08.000Z</time>
      </trkpt>
      <trkpt lat="47.26103" lon="-2.27133">
        <ele>40.599998474121</ele>
        <time>2019-06-30T08:57:10.000Z</time>
      </trkpt>
      <trkpt lat="47.2611" lon="-2.27153">
        <ele>40.599998474121</ele>
        <time>2019-06-30T08:57:13.000Z</time>
      </trkpt>
      <trkpt lat="47.26129" lon="-2.27201">
        <ele>40.599998474121</ele>
        <time>2019-06-30T08:57:20.000Z</time>
      </trkpt>
      <trkpt lat="47.26141" lon="-2.27231">
        <ele>40.599998474121</ele>
        <time>2019-06-30T08:57:25.000Z</time>
      </trkpt>
      <trkpt lat="47.26148" lon="-2.27251">
        <ele>40.599998474121</ele>
        <time>2019-06-30T08:57:28.000Z</time>
      </trkpt>
      <trkpt lat="47.2615" lon="-2.27258">
        <ele>40.599998474121</ele>
        <time>2019-06-30T08:57:29.000Z</time>
      </trkpt>
      <trkpt lat="47.26152" lon="-2.27273">
        <ele>40.599998474121</ele>
        <time>2019-06-30T08:57:31.000Z</time>
      </trkpt>
      <trkpt lat="47.26151" lon="-2.27297">
        <ele>40.599998474121</ele>
        <time>2019-06-30T08:57:34.000Z</time>
      </trkpt>
      <trkpt lat="47.26157" lon="-2.27314">
        <ele>40.599998474121</ele>
        <time>2019-06-30T08:57:37.000Z</time>
      </trkpt>
      <trkpt lat="47.26164" lon="-2.27318">
        <ele>40.599998474121</ele>
        <time>2019-06-30T08:57:39.000Z</time>
      </trkpt>
      <trkpt lat="47.26169" lon="-2.27319">
        <ele>40.599998474121</ele>
        <time>2019-06-30T08:57:40.000Z</time>
      </trkpt>
      <trkpt lat="47.26205" lon="-2.27313">
        <ele>40.599998474121</ele>
        <time>2019-06-30T08:57:47.000Z</time>
      </trkpt>
      <trkpt lat="47.26238" lon="-2.27318">
        <ele>40.599998474121</ele>
        <time>2019-06-30T08:57:52.000Z</time>
      </trkpt>
      <trkpt lat="47.26245" lon="-2.2732">
        <ele>40.599998474121</ele>
        <time>2019-06-30T08:57:53.000Z</time>
      </trkpt>
      <trkpt lat="47.26265" lon="-2.27321">
        <ele>40.599998474121</ele>
        <time>2019-06-30T08:57:56.000Z</time>
      </trkpt>
      <trkpt lat="47.26292" lon="-2.27325">
        <ele>40.599998474121</ele>
        <time>2019-06-30T08:58:00.000Z</time>
      </trkpt>
      <trkpt lat="47.26299" lon="-2.27326">
        <ele>40.200000762939</ele>
        <time>2019-06-30T08:58:01.000Z</time>
      </trkpt>
      <trkpt lat="47.26306" lon="-2.27327">
        <ele>39.799999237061</ele>
        <time>2019-06-30T08:58:02.000Z</time>
      </trkpt>
      <trkpt lat="47.26313" lon="-2.27328">
        <ele>39.400001525879</ele>
        <time>2019-06-30T08:58:03.000Z</time>
      </trkpt>
      <trkpt lat="47.26319" lon="-2.27328">
        <ele>39</ele>
        <time>2019-06-30T08:58:04.000Z</time>
      </trkpt>
      <trkpt lat="47.26327" lon="-2.27328">
        <ele>38.599998474121</ele>
        <time>2019-06-30T08:58:05.000Z</time>
      </trkpt>
      <trkpt lat="47.2634" lon="-2.27331">
        <ele>38.599998474121</ele>
        <time>2019-06-30T08:58:07.000Z</time>
      </trkpt>
      <trkpt lat="47.26378" lon="-2.27333">
        <ele>38.599998474121</ele>
        <time>2019-06-30T08:58:13.000Z</time>
      </trkpt>
      <trkpt lat="47.26405" lon="-2.27333">
        <ele>38.599998474121</ele>
        <time>2019-06-30T08:58:17.000Z</time>
      </trkpt>
      <trkpt lat="47.26411" lon="-2.27335">
        <ele>38.599998474121</ele>
        <time>2019-06-30T08:58:18.000Z</time>
      </trkpt>
      <trkpt lat="47.26424" lon="-2.27339">
        <ele>38.599998474121</ele>
        <time>2019-06-30T08:58:20.000Z</time>
      </trkpt>
      <trkpt lat="47.26435" lon="-2.2735">
        <ele>37.799999237061</ele>
        <time>2019-06-30T08:58:22.000Z</time>
      </trkpt>
      <trkpt lat="47.26441" lon="-2.27358">
        <ele>37.200000762939</ele>
        <time>2019-06-30T08:58:23.000Z</time>
      </trkpt>
      <trkpt lat="47.26446" lon="-2.27366">
        <ele>36.799999237061</ele>
        <time>2019-06-30T08:58:24.000Z</time>
      </trkpt>
      <trkpt lat="47.26451" lon="-2.27374">
        <ele>36.400001525879</ele>
        <time>2019-06-30T08:58:25.000Z</time>
      </trkpt>
      <trkpt lat="47.2646" lon="-2.2739">
        <ele>36.400001525879</ele>
        <time>2019-06-30T08:58:27.000Z</time>
      </trkpt>
      <trkpt lat="47.26472" lon="-2.27425">
        <ele>36.400001525879</ele>
        <time>2019-06-30T08:58:31.000Z</time>
      </trkpt>
      <trkpt lat="47.26475" lon="-2.27434">
        <ele>36</ele>
        <time>2019-06-30T08:58:32.000Z</time>
      </trkpt>
      <trkpt lat="47.26477" lon="-2.27444">
        <ele>35.599998474121</ele>
        <time>2019-06-30T08:58:33.000Z</time>
      </trkpt>
      <trkpt lat="47.26479" lon="-2.27454">
        <ele>35.200000762939</ele>
        <time>2019-06-30T08:58:34.000Z</time>
      </trkpt>
      <trkpt lat="47.26482" lon="-2.27464">
        <ele>34.799999237061</ele>
        <time>2019-06-30T08:58:35.000Z</time>
      </trkpt>
      <trkpt lat="47.26485" lon="-2.27473">
        <ele>34.400001525879</ele>
        <time>2019-06-30T08:58:36.000Z</time>
      </trkpt>
      <trkpt lat="47.26487" lon="-2.27482">
        <ele>34.400001525879</ele>
        <time>2019-06-30T08:58:37.000Z</time>
      </trkpt>
      <trkpt lat="47.26495" lon="-2.27529">
        <ele>34.400001525879</ele>
        <time>2019-06-30T08:58:42.000Z</time>
      </trkpt>
      <trkpt lat="47.26499" lon="-2.27568">
        <ele>33.599998474121</ele>
        <time>2019-06-30T08:58:46.000Z</time>
      </trkpt>
      <trkpt lat="47.265" lon="-2.27574">
        <ele>33</ele>
        <time>2019-06-30T08:58:47.000Z</time>
      </trkpt>
      <trkpt lat="47.26503" lon="-2.27578">
        <ele>32.599998474121</ele>
        <time>2019-06-30T08:58:48.000Z</time>
      </trkpt>
      <trkpt lat="47.26507" lon="-2.27579">
        <ele>32.200000762939</ele>
        <time>2019-06-30T08:58:49.000Z</time>
      </trkpt>
      <trkpt lat="47.26527" lon="-2.27577">
        <ele>32.200000762939</ele>
        <time>2019-06-30T08:58:53.000Z</time>
      </trkpt>
      <trkpt lat="47.26535" lon="-2.27581">
        <ele>32.200000762939</ele>
        <time>2019-06-30T08:58:56.000Z</time>
      </trkpt>
      <trkpt lat="47.26543" lon="-2.27582">
        <ele>31.799999237061</ele>
        <time>2019-06-30T08:58:59.000Z</time>
      </trkpt>
      <trkpt lat="47.26545" lon="-2.27583">
        <ele>31.39999961853</ele>
        <time>2019-06-30T08:59:00.000Z</time>
      </trkpt>
      <trkpt lat="47.26547" lon="-2.27584">
        <ele>31</ele>
        <time>2019-06-30T08:59:01.000Z</time>
      </trkpt>
      <trkpt lat="47.26549" lon="-2.27584">
        <ele>30.60000038147</ele>
        <time>2019-06-30T08:59:02.000Z</time>
      </trkpt>
      <trkpt lat="47.26552" lon="-2.27583">
        <ele>30</ele>
        <time>2019-06-30T08:59:03.000Z</time>
      </trkpt>
      <trkpt lat="47.26564" lon="-2.27584">
        <ele>30</ele>
        <time>2019-06-30T08:59:07.000Z</time>
      </trkpt>
      <trkpt lat="47.26578" lon="-2.27586">
        <ele>30</ele>
        <time>2019-06-30T08:59:11.000Z</time>
      </trkpt>
      <trkpt lat="47.2659" lon="-2.27589">
        <ele>30</ele>
        <time>2019-06-30T08:59:14.000Z</time>
      </trkpt>
      <trkpt lat="47.26615" lon="-2.276">
        <ele>30</ele>
        <time>2019-06-30T08:59:19.000Z</time>
      </trkpt>
      <trkpt lat="47.26638" lon="-2.2761">
        <ele>30</ele>
        <time>2019-06-30T08:59:24.000Z</time>
      </trkpt>
      <trkpt lat="47.26651" lon="-2.27617">
        <ele>30</ele>
        <time>2019-06-30T08:59:27.000Z</time>
      </trkpt>
      <trkpt lat="47.26666" lon="-2.27623">
        <ele>30</ele>
        <time>2019-06-30T08:59:30.000Z</time>
      </trkpt>
      <trkpt lat="47.26685" lon="-2.27629">
        <ele>30</ele>
        <time>2019-06-30T08:59:34.000Z</time>
      </trkpt>
      <trkpt lat="47.26704" lon="-2.27638">
        <ele>30</ele>
        <time>2019-06-30T08:59:38.000Z</time>
      </trkpt>
      <trkpt lat="47.26714" lon="-2.27642">
        <ele>30</ele>
        <time>2019-06-30T08:59:40.000Z</time>
      </trkpt>
      <trkpt lat="47.26737" lon="-2.27649">
        <ele>30</ele>
        <time>2019-06-30T08:59:44.000Z</time>
      </trkpt>
      <trkpt lat="47.26742" lon="-2.27651">
        <ele>30</ele>
        <time>2019-06-30T08:59:45.000Z</time>
      </trkpt>
      <trkpt lat="47.26752" lon="-2.27652">
        <ele>30</ele>
        <time>2019-06-30T08:59:47.000Z</time>
      </trkpt>
      <trkpt lat="47.26759" lon="-2.27647">
        <ele>30</ele>
        <time>2019-06-30T08:59:49.000Z</time>
      </trkpt>
      <trkpt lat="47.26762" lon="-2.27627">
        <ele>30</ele>
        <time>2019-06-30T08:59:52.000Z</time>
      </trkpt>
      <trkpt lat="47.26762" lon="-2.27613">
        <ele>30</ele>
        <time>2019-06-30T08:59:54.000Z</time>
      </trkpt>
      <trkpt lat="47.26761" lon="-2.27606">
        <ele>30</ele>
        <time>2019-06-30T08:59:55.000Z</time>
      </trkpt>
      <trkpt lat="47.26758" lon="-2.27591">
        <ele>30</ele>
        <time>2019-06-30T08:59:57.000Z</time>
      </trkpt>
      <trkpt lat="47.26752" lon="-2.27541">
        <ele>30</ele>
        <time>2019-06-30T09:00:04.000Z</time>
      </trkpt>
      <trkpt lat="47.26752" lon="-2.27526">
        <ele>30.39999961853</ele>
        <time>2019-06-30T09:00:06.000Z</time>
      </trkpt>
      <trkpt lat="47.26752" lon="-2.27519">
        <ele>31</ele>
        <time>2019-06-30T09:00:07.000Z</time>
      </trkpt>
      <trkpt lat="47.26752" lon="-2.27511">
        <ele>31.39999961853</ele>
        <time>2019-06-30T09:00:08.000Z</time>
      </trkpt>
      <trkpt lat="47.26751" lon="-2.27504">
        <ele>31.799999237061</ele>
        <time>2019-06-30T09:00:09.000Z</time>
      </trkpt>
      <trkpt lat="47.26751" lon="-2.27497">
        <ele>32.200000762939</ele>
        <time>2019-06-30T09:00:10.000Z</time>
      </trkpt>
      <trkpt lat="47.26751" lon="-2.27489">
        <ele>32.200000762939</ele>
        <time>2019-06-30T09:00:11.000Z</time>
      </trkpt>
      <trkpt lat="47.26752" lon="-2.27432">
        <ele>32.200000762939</ele>
        <time>2019-06-30T09:00:18.000Z</time>
      </trkpt>
      <trkpt lat="47.26752" lon="-2.27418">
        <ele>32.200000762939</ele>
        <time>2019-06-30T09:00:20.000Z</time>
      </trkpt>
      <trkpt lat="47.26758" lon="-2.27412">
        <ele>32.200000762939</ele>
        <time>2019-06-30T09:00:22.000Z</time>
      </trkpt>
      <trkpt lat="47.26773" lon="-2.27411">
        <ele>32.200000762939</ele>
        <time>2019-06-30T09:00:25.000Z</time>
      </trkpt>
      <trkpt lat="47.26779" lon="-2.27412">
        <ele>32.200000762939</ele>
        <time>2019-06-30T09:00:26.000Z</time>
      </trkpt>
      <trkpt lat="47.26812" lon="-2.27412">
        <ele>32.200000762939</ele>
        <time>2019-06-30T09:00:32.000Z</time>
      </trkpt>
      <trkpt lat="47.26824" lon="-2.27411">
        <ele>32.200000762939</ele>
        <time>2019-06-30T09:00:34.000Z</time>
      </trkpt>
      <trkpt lat="47.26835" lon="-2.27406">
        <ele>32.200000762939</ele>
        <time>2019-06-30T09:00:36.000Z</time>
      </trkpt>
      <trkpt lat="47.26872" lon="-2.27393">
        <ele>32.200000762939</ele>
        <time>2019-06-30T09:00:42.000Z</time>
      </trkpt>
      <trkpt lat="47.26883" lon="-2.27387">
        <ele>31.39999961853</ele>
        <time>2019-06-30T09:00:44.000Z</time>
      </trkpt>
      <trkpt lat="47.26888" lon="-2.27385">
        <ele>30.799999237061</ele>
        <time>2019-06-30T09:00:45.000Z</time>
      </trkpt>
      <trkpt lat="47.26891" lon="-2.27383">
        <ele>30.39999961853</ele>
        <time>2019-06-30T09:00:46.000Z</time>
      </trkpt>
      <trkpt lat="47.26895" lon="-2.27381">
        <ele>29.799999237061</ele>
        <time>2019-06-30T09:00:47.000Z</time>
      </trkpt>
      <trkpt lat="47.26898" lon="-2.2738">
        <ele>29.39999961853</ele>
        <time>2019-06-30T09:00:48.000Z</time>
      </trkpt>
      <trkpt lat="47.26902" lon="-2.27379">
        <ele>28.799999237061</ele>
        <time>2019-06-30T09:00:49.000Z</time>
      </trkpt>
      <trkpt lat="47.26904" lon="-2.27379">
        <ele>28.200000762939</ele>
        <time>2019-06-30T09:00:50.000Z</time>
      </trkpt>
      <trkpt lat="47.26908" lon="-2.27378">
        <ele>27.60000038147</ele>
        <time>2019-06-30T09:00:51.000Z</time>
      </trkpt>
      <trkpt lat="47.2691" lon="-2.27374">
        <ele>27.60000038147</ele>
        <time>2019-06-30T09:00:52.000Z</time>
      </trkpt>
      <trkpt lat="47.26914" lon="-2.27365">
        <ele>27.60000038147</ele>
        <time>2019-06-30T09:00:55.000Z</time>
      </trkpt>
      <trkpt lat="47.26913" lon="-2.27361">
        <ele>27.60000038147</ele>
        <time>2019-06-30T09:00:56.000Z</time>
      </trkpt>
      <trkpt lat="47.26916" lon="-2.27344">
        <ele>27.60000038147</ele>
        <time>2019-06-30T09:01:01.000Z</time>
      </trkpt>
      <trkpt lat="47.26916" lon="-2.27341">
        <ele>27.60000038147</ele>
        <time>2019-06-30T09:01:02.000Z</time>
      </trkpt>
      <trkpt lat="47.26915" lon="-2.27319">
        <ele>27.60000038147</ele>
        <time>2019-06-30T09:01:09.000Z</time>
      </trkpt>
      <trkpt lat="47.26915" lon="-2.27307">
        <ele>27.60000038147</ele>
        <time>2019-06-30T09:01:13.000Z</time>
      </trkpt>
      <trkpt lat="47.26913" lon="-2.27304">
        <ele>27.60000038147</ele>
        <time>2019-06-30T09:01:15.000Z</time>
      </trkpt>
      <trkpt lat="47.26921" lon="-2.27282">
        <ele>27.60000038147</ele>
        <time>2019-06-30T09:01:21.000Z</time>
      </trkpt>
      <trkpt lat="47.26923" lon="-2.27275">
        <ele>27.60000038147</ele>
        <time>2019-06-30T09:01:23.000Z</time>
      </trkpt>
      <trkpt lat="47.26928" lon="-2.27271">
        <ele>27.60000038147</ele>
        <time>2019-06-30T09:01:25.000Z</time>
      </trkpt>
      <trkpt lat="47.26937" lon="-2.27268">
        <ele>27.60000038147</ele>
        <time>2019-06-30T09:01:28.000Z</time>
      </trkpt>
      <trkpt lat="47.26941" lon="-2.27267">
        <ele>27.60000038147</ele>
        <time>2019-06-30T09:01:29.000Z</time>
      </trkpt>
      <trkpt lat="47.26943" lon="-2.27263">
        <ele>27.60000038147</ele>
        <time>2019-06-30T09:01:30.000Z</time>
      </trkpt>
      <trkpt lat="47.26947" lon="-2.27257">
        <ele>27.60000038147</ele>
        <time>2019-06-30T09:01:32.000Z</time>
      </trkpt>
      <trkpt lat="47.26952" lon="-2.27246">
        <ele>27.60000038147</ele>
        <time>2019-06-30T09:01:36.000Z</time>
      </trkpt>
      <trkpt lat="47.26956" lon="-2.27227">
        <ele>27.60000038147</ele>
        <time>2019-06-30T09:01:41.000Z</time>
      </trkpt>
      <trkpt lat="47.26962" lon="-2.27205">
        <ele>27.60000038147</ele>
        <time>2019-06-30T09:01:47.000Z</time>
      </trkpt>
      <trkpt lat="47.26971" lon="-2.27187">
        <ele>27.60000038147</ele>
        <time>2019-06-30T09:01:54.000Z</time>
      </trkpt>
      <trkpt lat="47.26977" lon="-2.27181">
        <ele>27.60000038147</ele>
        <time>2019-06-30T09:01:58.000Z</time>
      </trkpt>
      <trkpt lat="47.2698" lon="-2.27183">
        <ele>27.60000038147</ele>
        <time>2019-06-30T09:02:00.000Z</time>
      </trkpt>
      <trkpt lat="47.26981" lon="-2.27182">
        <ele>27.60000038147</ele>
        <time>2019-06-30T09:02:01.000Z</time>
      </trkpt>
      <trkpt lat="47.26982" lon="-2.27178">
        <ele>27.60000038147</ele>
        <time>2019-06-30T09:02:03.000Z</time>
      </trkpt>
      <trkpt lat="47.26984" lon="-2.27177">
        <ele>27.60000038147</ele>
        <time>2019-06-30T09:02:04.000Z</time>
      </trkpt>
      <trkpt lat="47.26988" lon="-2.27176">
        <ele>27.60000038147</ele>
        <time>2019-06-30T09:02:06.000Z</time>
      </trkpt>
      <trkpt lat="47.26991" lon="-2.27174">
        <ele>27.60000038147</ele>
        <time>2019-06-30T09:02:09.000Z</time>
      </trkpt>
      <trkpt lat="47.26993" lon="-2.27172">
        <ele>27.60000038147</ele>
        <time>2019-06-30T09:02:10.000Z</time>
      </trkpt>
      <trkpt lat="47.27005" lon="-2.27176">
        <ele>27.60000038147</ele>
        <time>2019-06-30T09:02:14.000Z</time>
      </trkpt>
      <trkpt lat="47.27006" lon="-2.27178">
        <ele>27.200000762939</ele>
        <time>2019-06-30T09:02:15.000Z</time>
      </trkpt>
      <trkpt lat="47.27009" lon="-2.27179">
        <ele>26.39999961853</ele>
        <time>2019-06-30T09:02:16.000Z</time>
      </trkpt>
      <trkpt lat="47.2701" lon="-2.27178">
        <ele>26</ele>
        <time>2019-06-30T09:02:17.000Z</time>
      </trkpt>
      <trkpt lat="47.27013" lon="-2.27171">
        <ele>25.60000038147</ele>
        <time>2019-06-30T09:02:22.000Z</time>
      </trkpt>
      <trkpt lat="47.27017" lon="-2.27164">
        <ele>25.60000038147</ele>
        <time>2019-06-30T09:02:25.000Z</time>
      </trkpt>
      <trkpt lat="47.27019" lon="-2.27164">
        <ele>25.60000038147</ele>
        <time>2019-06-30T09:02:26.000Z</time>
      </trkpt>
      <trkpt lat="47.27023" lon="-2.27162">
        <ele>25.60000038147</ele>
        <time>2019-06-30T09:02:27.000Z</time>
      </trkpt>
      <trkpt lat="47.27028" lon="-2.27155">
        <ele>25.200000762939</ele>
        <time>2019-06-30T09:02:29.000Z</time>
      </trkpt>
      <trkpt lat="47.27029" lon="-2.27151">
        <ele>24.60000038147</ele>
        <time>2019-06-30T09:02:30.000Z</time>
      </trkpt>
      <trkpt lat="47.27031" lon="-2.27148">
        <ele>24.200000762939</ele>
        <time>2019-06-30T09:02:31.000Z</time>
      </trkpt>
      <trkpt lat="47.2703" lon="-2.27144">
        <ele>23.799999237061</ele>
        <time>2019-06-30T09:02:32.000Z</time>
      </trkpt>
      <trkpt lat="47.2703" lon="-2.27141">
        <ele>23.39999961853</ele>
        <time>2019-06-30T09:02:33.000Z</time>
      </trkpt>
      <trkpt lat="47.2703" lon="-2.27139">
        <ele>23.39999961853</ele>
        <time>2019-06-30T09:02:34.000Z</time>
      </trkpt>
      <trkpt lat="47.27029" lon="-2.27133">
        <ele>23.39999961853</ele>
        <time>2019-06-30T09:02:36.000Z</time>
      </trkpt>
      <trkpt lat="47.27025" lon="-2.27122">
        <ele>23.39999961853</ele>
        <time>2019-06-30T09:02:39.000Z</time>
      </trkpt>
      <trkpt lat="47.27021" lon="-2.27111">
        <ele>23.799999237061</ele>
        <time>2019-06-30T09:02:42.000Z</time>
      </trkpt>
      <trkpt lat="47.2702" lon="-2.27107">
        <ele>24.200000762939</ele>
        <time>2019-06-30T09:02:43.000Z</time>
      </trkpt>
      <trkpt lat="47.27019" lon="-2.27103">
        <ele>24.799999237061</ele>
        <time>2019-06-30T09:02:44.000Z</time>
      </trkpt>
      <trkpt lat="47.27017" lon="-2.27098">
        <ele>25.200000762939</ele>
        <time>2019-06-30T09:02:45.000Z</time>
      </trkpt>
      <trkpt lat="47.27016" lon="-2.27091">
        <ele>25.60000038147</ele>
        <time>2019-06-30T09:02:46.000Z</time>
      </trkpt>
      <trkpt lat="47.27008" lon="-2.27071">
        <ele>25.60000038147</ele>
        <time>2019-06-30T09:02:49.000Z</time>
      </trkpt>
      <trkpt lat="47.26999" lon="-2.27048">
        <ele>25.60000038147</ele>
        <time>2019-06-30T09:02:53.000Z</time>
      </trkpt>
      <trkpt lat="47.26996" lon="-2.27043">
        <ele>25.60000038147</ele>
        <time>2019-06-30T09:02:54.000Z</time>
      </trkpt>
      <trkpt lat="47.26984" lon="-2.27028">
        <ele>25.60000038147</ele>
        <time>2019-06-30T09:02:57.000Z</time>
      </trkpt>
      <trkpt lat="47.26976" lon="-2.27018">
        <ele>25.60000038147</ele>
        <time>2019-06-30T09:02:59.000Z</time>
      </trkpt>
      <trkpt lat="47.26969" lon="-2.27007">
        <ele>25.60000038147</ele>
        <time>2019-06-30T09:03:01.000Z</time>
      </trkpt>
      <trkpt lat="47.26957" lon="-2.26988">
        <ele>25.60000038147</ele>
        <time>2019-06-30T09:03:04.000Z</time>
      </trkpt>
      <trkpt lat="47.26952" lon="-2.26982">
        <ele>25.60000038147</ele>
        <time>2019-06-30T09:03:05.000Z</time>
      </trkpt>
      <trkpt lat="47.26934" lon="-2.26957">
        <ele>25.60000038147</ele>
        <time>2019-06-30T09:03:09.000Z</time>
      </trkpt>
      <trkpt lat="47.2693" lon="-2.26949">
        <ele>25.60000038147</ele>
        <time>2019-06-30T09:03:10.000Z</time>
      </trkpt>
      <trkpt lat="47.26927" lon="-2.2693">
        <ele>25.60000038147</ele>
        <time>2019-06-30T09:03:12.000Z</time>
      </trkpt>
      <trkpt lat="47.26927" lon="-2.26902">
        <ele>25.200000762939</ele>
        <time>2019-06-30T09:03:15.000Z</time>
      </trkpt>
      <trkpt lat="47.2693" lon="-2.26892">
        <ele>24.799999237061</ele>
        <time>2019-06-30T09:03:16.000Z</time>
      </trkpt>
      <trkpt lat="47.26935" lon="-2.26883">
        <ele>24.39999961853</ele>
        <time>2019-06-30T09:03:17.000Z</time>
      </trkpt>
      <trkpt lat="47.26939" lon="-2.26873">
        <ele>23.799999237061</ele>
        <time>2019-06-30T09:03:18.000Z</time>
      </trkpt>
      <trkpt lat="47.2694" lon="-2.26863">
        <ele>23.39999961853</ele>
        <time>2019-06-30T09:03:19.000Z</time>
      </trkpt>
      <trkpt lat="47.2694" lon="-2.26832">
        <ele>23.39999961853</ele>
        <time>2019-06-30T09:03:23.000Z</time>
      </trkpt>
      <trkpt lat="47.26942" lon="-2.26828">
        <ele>23.39999961853</ele>
        <time>2019-06-30T09:03:24.000Z</time>
      </trkpt>
      <trkpt lat="47.26953" lon="-2.26813">
        <ele>23</ele>
        <time>2019-06-30T09:03:28.000Z</time>
      </trkpt>
      <trkpt lat="47.26958" lon="-2.2681">
        <ele>22.60000038147</ele>
        <time>2019-06-30T09:03:29.000Z</time>
      </trkpt>
      <trkpt lat="47.26962" lon="-2.26808">
        <ele>22.200000762939</ele>
        <time>2019-06-30T09:03:30.000Z</time>
      </trkpt>
      <trkpt lat="47.26965" lon="-2.26805">
        <ele>21.799999237061</ele>
        <time>2019-06-30T09:03:31.000Z</time>
      </trkpt>
      <trkpt lat="47.26968" lon="-2.26803">
        <ele>21.39999961853</ele>
        <time>2019-06-30T09:03:32.000Z</time>
      </trkpt>
      <trkpt lat="47.26971" lon="-2.26801">
        <ele>21.39999961853</ele>
        <time>2019-06-30T09:03:33.000Z</time>
      </trkpt>
      <trkpt lat="47.26973" lon="-2.26799">
        <ele>21.39999961853</ele>
        <time>2019-06-30T09:03:34.000Z</time>
      </trkpt>
      <trkpt lat="47.26986" lon="-2.26791">
        <ele>21.39999961853</ele>
        <time>2019-06-30T09:03:39.000Z</time>
      </trkpt>
      <trkpt lat="47.26995" lon="-2.26777">
        <ele>21.39999961853</ele>
        <time>2019-06-30T09:03:44.000Z</time>
      </trkpt>
      <trkpt lat="47.27003" lon="-2.26772">
        <ele>21.39999961853</ele>
        <time>2019-06-30T09:03:47.000Z</time>
      </trkpt>
      <trkpt lat="47.27007" lon="-2.26767">
        <ele>21.39999961853</ele>
        <time>2019-06-30T09:03:49.000Z</time>
      </trkpt>
      <trkpt lat="47.2701" lon="-2.26765">
        <ele>21.39999961853</ele>
        <time>2019-06-30T09:03:51.000Z</time>
      </trkpt>
      <trkpt lat="47.27012" lon="-2.26764">
        <ele>21.39999961853</ele>
        <time>2019-06-30T09:03:52.000Z</time>
      </trkpt>
      <trkpt lat="47.27015" lon="-2.2676">
        <ele>21.39999961853</ele>
        <time>2019-06-30T09:03:54.000Z</time>
      </trkpt>
      <trkpt lat="47.27019" lon="-2.26754">
        <ele>21.39999961853</ele>
        <time>2019-06-30T09:03:58.000Z</time>
      </trkpt>
      <trkpt lat="47.27023" lon="-2.26751">
        <ele>21.39999961853</ele>
        <time>2019-06-30T09:04:00.000Z</time>
      </trkpt>
      <trkpt lat="47.27024" lon="-2.26748">
        <ele>21.39999961853</ele>
        <time>2019-06-30T09:04:01.000Z</time>
      </trkpt>
      <trkpt lat="47.27028" lon="-2.26739">
        <ele>21.39999961853</ele>
        <time>2019-06-30T09:04:04.000Z</time>
      </trkpt>
      <trkpt lat="47.2703" lon="-2.26737">
        <ele>21.39999961853</ele>
        <time>2019-06-30T09:04:05.000Z</time>
      </trkpt>
      <trkpt lat="47.27037" lon="-2.26723">
        <ele>21.39999961853</ele>
        <time>2019-06-30T09:04:09.000Z</time>
      </trkpt>
      <trkpt lat="47.27036" lon="-2.26718">
        <ele>21.39999961853</ele>
        <time>2019-06-30T09:04:10.000Z</time>
      </trkpt>
      <trkpt lat="47.27034" lon="-2.26708">
        <ele>21.39999961853</ele>
        <time>2019-06-30T09:04:15.000Z</time>
      </trkpt>
      <trkpt lat="47.27034" lon="-2.26703">
        <ele>21.39999961853</ele>
        <time>2019-06-30T09:04:17.000Z</time>
      </trkpt>
      <trkpt lat="47.27033" lon="-2.2669">
        <ele>21.39999961853</ele>
        <time>2019-06-30T09:04:20.000Z</time>
      </trkpt>
      <trkpt lat="47.27037" lon="-2.26656">
        <ele>21.39999961853</ele>
        <time>2019-06-30T09:04:25.000Z</time>
      </trkpt>
      <trkpt lat="47.27036" lon="-2.26636">
        <ele>21.39999961853</ele>
        <time>2019-06-30T09:04:28.000Z</time>
      </trkpt>
      <trkpt lat="47.27033" lon="-2.2663">
        <ele>21.39999961853</ele>
        <time>2019-06-30T09:04:29.000Z</time>
      </trkpt>
      <trkpt lat="47.27013" lon="-2.26601">
        <ele>21.39999961853</ele>
        <time>2019-06-30T09:04:35.000Z</time>
      </trkpt>
      <trkpt lat="47.26998" lon="-2.26577">
        <ele>21.39999961853</ele>
        <time>2019-06-30T09:04:40.000Z</time>
      </trkpt>
      <trkpt lat="47.26993" lon="-2.26571">
        <ele>21.39999961853</ele>
        <time>2019-06-30T09:04:41.000Z</time>
      </trkpt>
      <trkpt lat="47.26984" lon="-2.26555">
        <ele>21.39999961853</ele>
        <time>2019-06-30T09:04:44.000Z</time>
      </trkpt>
      <trkpt lat="47.26982" lon="-2.26548">
        <ele>21.799999237061</ele>
        <time>2019-06-30T09:04:45.000Z</time>
      </trkpt>
      <trkpt lat="47.26979" lon="-2.26543">
        <ele>22.200000762939</ele>
        <time>2019-06-30T09:04:46.000Z</time>
      </trkpt>
      <trkpt lat="47.26977" lon="-2.26537">
        <ele>22.60000038147</ele>
        <time>2019-06-30T09:04:47.000Z</time>
      </trkpt>
      <trkpt lat="47.26975" lon="-2.2653">
        <ele>23</ele>
        <time>2019-06-30T09:04:48.000Z</time>
      </trkpt>
      <trkpt lat="47.26974" lon="-2.26524">
        <ele>23.39999961853</ele>
        <time>2019-06-30T09:04:49.000Z</time>
      </trkpt>
      <trkpt lat="47.26973" lon="-2.2652">
        <ele>23.39999961853</ele>
        <time>2019-06-30T09:04:50.000Z</time>
      </trkpt>
      <trkpt lat="47.26968" lon="-2.2651">
        <ele>23.39999961853</ele>
        <time>2019-06-30T09:04:53.000Z</time>
      </trkpt>
      <trkpt lat="47.26967" lon="-2.26506">
        <ele>23.39999961853</ele>
        <time>2019-06-30T09:04:54.000Z</time>
      </trkpt>
      <trkpt lat="47.26974" lon="-2.26494">
        <ele>23.39999961853</ele>
        <time>2019-06-30T09:04:58.000Z</time>
      </trkpt>
      <trkpt lat="47.26977" lon="-2.26492">
        <ele>23.39999961853</ele>
        <time>2019-06-30T09:04:59.000Z</time>
      </trkpt>
      <trkpt lat="47.26986" lon="-2.26476">
        <ele>23.39999961853</ele>
        <time>2019-06-30T09:05:04.000Z</time>
      </trkpt>
      <trkpt lat="47.26989" lon="-2.26475">
        <ele>23.39999961853</ele>
        <time>2019-06-30T09:05:06.000Z</time>
      </trkpt>
      <trkpt lat="47.2699" lon="-2.26475">
        <ele>23.39999961853</ele>
        <time>2019-06-30T09:05:08.000Z</time>
      </trkpt>
      <trkpt lat="47.2699" lon="-2.26475">
        <ele>23.39999961853</ele>
        <time>2019-06-30T09:05:09.000Z</time>
      </trkpt>
      <trkpt lat="47.26991" lon="-2.26476">
        <ele>23.39999961853</ele>
        <time>2019-06-30T09:05:55.000Z</time>
      </trkpt>
      <trkpt lat="47.26993" lon="-2.26474">
        <ele>23.39999961853</ele>
        <time>2019-06-30T09:05:56.000Z</time>
      </trkpt>
      <trkpt lat="47.26993" lon="-2.26472">
        <ele>23.39999961853</ele>
        <time>2019-06-30T09:05:57.000Z</time>
      </trkpt>
      <trkpt lat="47.26999" lon="-2.26455">
        <ele>23.39999961853</ele>
        <time>2019-06-30T09:06:01.000Z</time>
      </trkpt>
      <trkpt lat="47.27005" lon="-2.26445">
        <ele>23.799999237061</ele>
        <time>2019-06-30T09:06:03.000Z</time>
      </trkpt>
      <trkpt lat="47.27008" lon="-2.2644">
        <ele>24.200000762939</ele>
        <time>2019-06-30T09:06:04.000Z</time>
      </trkpt>
      <trkpt lat="47.27012" lon="-2.26436">
        <ele>24.60000038147</ele>
        <time>2019-06-30T09:06:05.000Z</time>
      </trkpt>
      <trkpt lat="47.27016" lon="-2.26432">
        <ele>25.200000762939</ele>
        <time>2019-06-30T09:06:06.000Z</time>
      </trkpt>
      <trkpt lat="47.27019" lon="-2.26427">
        <ele>25.60000038147</ele>
        <time>2019-06-30T09:06:07.000Z</time>
      </trkpt>
      <trkpt lat="47.27038" lon="-2.26399">
        <ele>25.60000038147</ele>
        <time>2019-06-30T09:06:12.000Z</time>
      </trkpt>
      <trkpt lat="47.27064" lon="-2.2636">
        <ele>25.60000038147</ele>
        <time>2019-06-30T09:06:19.000Z</time>
      </trkpt>
      <trkpt lat="47.27091" lon="-2.26324">
        <ele>25.60000038147</ele>
        <time>2019-06-30T09:06:25.000Z</time>
      </trkpt>
      <trkpt lat="47.27121" lon="-2.26281">
        <ele>25.60000038147</ele>
        <time>2019-06-30T09:06:32.000Z</time>
      </trkpt>
      <trkpt lat="47.2715" lon="-2.26238">
        <ele>25.60000038147</ele>
        <time>2019-06-30T09:06:38.000Z</time>
      </trkpt>
      <trkpt lat="47.27195" lon="-2.26192">
        <ele>25.60000038147</ele>
        <time>2019-06-30T09:06:45.000Z</time>
      </trkpt>
      <trkpt lat="47.27202" lon="-2.26188">
        <ele>25.200000762939</ele>
        <time>2019-06-30T09:06:46.000Z</time>
      </trkpt>
      <trkpt lat="47.27209" lon="-2.26183">
        <ele>24.799999237061</ele>
        <time>2019-06-30T09:06:47.000Z</time>
      </trkpt>
      <trkpt lat="47.27215" lon="-2.26179">
        <ele>24.39999961853</ele>
        <time>2019-06-30T09:06:48.000Z</time>
      </trkpt>
      <trkpt lat="47.27222" lon="-2.26175">
        <ele>24</ele>
        <time>2019-06-30T09:06:49.000Z</time>
      </trkpt>
      <trkpt lat="47.27228" lon="-2.26171">
        <ele>23.60000038147</ele>
        <time>2019-06-30T09:06:50.000Z</time>
      </trkpt>
      <trkpt lat="47.27254" lon="-2.26158">
        <ele>23.60000038147</ele>
        <time>2019-06-30T09:06:55.000Z</time>
      </trkpt>
      <trkpt lat="47.27272" lon="-2.26151">
        <ele>23</ele>
        <time>2019-06-30T09:06:59.000Z</time>
      </trkpt>
      <trkpt lat="47.27276" lon="-2.26149">
        <ele>22.60000038147</ele>
        <time>2019-06-30T09:07:00.000Z</time>
      </trkpt>
      <trkpt lat="47.2728" lon="-2.26149">
        <ele>22.200000762939</ele>
        <time>2019-06-30T09:07:01.000Z</time>
      </trkpt>
      <trkpt lat="47.27284" lon="-2.26149">
        <ele>21.799999237061</ele>
        <time>2019-06-30T09:07:02.000Z</time>
      </trkpt>
      <trkpt lat="47.27288" lon="-2.26149">
        <ele>21.39999961853</ele>
        <time>2019-06-30T09:07:03.000Z</time>
      </trkpt>
      <trkpt lat="47.27299" lon="-2.26146">
        <ele>21.39999961853</ele>
        <time>2019-06-30T09:07:07.000Z</time>
      </trkpt>
      <trkpt lat="47.27313" lon="-2.26139">
        <ele>21.39999961853</ele>
        <time>2019-06-30T09:07:14.000Z</time>
      </trkpt>
      <trkpt lat="47.2733" lon="-2.26132">
        <ele>21.39999961853</ele>
        <time>2019-06-30T09:07:20.000Z</time>
      </trkpt>
      <trkpt lat="47.27335" lon="-2.26131">
        <ele>21.39999961853</ele>
        <time>2019-06-30T09:07:22.000Z</time>
      </trkpt>
      <trkpt lat="47.2734" lon="-2.26129">
        <ele>21.39999961853</ele>
        <time>2019-06-30T09:07:24.000Z</time>
      </trkpt>
      <trkpt lat="47.2735" lon="-2.26127">
        <ele>21.39999961853</ele>
        <time>2019-06-30T09:07:28.000Z</time>
      </trkpt>
      <trkpt lat="47.27346" lon="-2.26111">
        <ele>21.39999961853</ele>
        <time>2019-06-30T09:07:32.000Z</time>
      </trkpt>
      <trkpt lat="47.27343" lon="-2.261">
        <ele>21.39999961853</ele>
        <time>2019-06-30T09:07:34.000Z</time>
      </trkpt>
      <trkpt lat="47.27335" lon="-2.26081">
        <ele>21.39999961853</ele>
        <time>2019-06-30T09:07:37.000Z</time>
      </trkpt>
      <trkpt lat="47.27313" lon="-2.26033">
        <ele>21.39999961853</ele>
        <time>2019-06-30T09:07:44.000Z</time>
      </trkpt>
      <trkpt lat="47.27298" lon="-2.26006">
        <ele>21.39999961853</ele>
        <time>2019-06-30T09:07:49.000Z</time>
      </trkpt>
      <trkpt lat="47.27295" lon="-2.25997">
        <ele>21.39999961853</ele>
        <time>2019-06-30T09:07:51.000Z</time>
      </trkpt>
      <trkpt lat="47.27296" lon="-2.25995">
        <ele>21.39999961853</ele>
        <time>2019-06-30T09:07:52.000Z</time>
      </trkpt>
      <trkpt lat="47.27302" lon="-2.25985">
        <ele>21.39999961853</ele>
        <time>2019-06-30T09:07:56.000Z</time>
      </trkpt>
      <trkpt lat="47.27308" lon="-2.2598">
        <ele>21.39999961853</ele>
        <time>2019-06-30T09:07:58.000Z</time>
      </trkpt>
      <trkpt lat="47.27315" lon="-2.25974">
        <ele>21.39999961853</ele>
        <time>2019-06-30T09:08:01.000Z</time>
      </trkpt>
      <trkpt lat="47.27333" lon="-2.25966">
        <ele>21.39999961853</ele>
        <time>2019-06-30T09:08:06.000Z</time>
      </trkpt>
      <trkpt lat="47.27354" lon="-2.25952">
        <ele>21.39999961853</ele>
        <time>2019-06-30T09:08:12.000Z</time>
      </trkpt>
      <trkpt lat="47.27358" lon="-2.25949">
        <ele>21.39999961853</ele>
        <time>2019-06-30T09:08:13.000Z</time>
      </trkpt>
      <trkpt lat="47.27367" lon="-2.25933">
        <ele>21.39999961853</ele>
        <time>2019-06-30T09:08:16.000Z</time>
      </trkpt>
      <trkpt lat="47.27378" lon="-2.25918">
        <ele>21.39999961853</ele>
        <time>2019-06-30T09:08:20.000Z</time>
      </trkpt>
      <trkpt lat="47.27395" lon="-2.25895">
        <ele>21.39999961853</ele>
        <time>2019-06-30T09:08:26.000Z</time>
      </trkpt>
      <trkpt lat="47.27402" lon="-2.25875">
        <ele>21.39999961853</ele>
        <time>2019-06-30T09:08:30.000Z</time>
      </trkpt>
      <trkpt lat="47.27405" lon="-2.25869">
        <ele>21.39999961853</ele>
        <time>2019-06-30T09:08:31.000Z</time>
      </trkpt>
      <trkpt lat="47.27413" lon="-2.25854">
        <ele>21.39999961853</ele>
        <time>2019-06-30T09:08:34.000Z</time>
      </trkpt>
      <trkpt lat="47.27416" lon="-2.25848">
        <ele>21.39999961853</ele>
        <time>2019-06-30T09:08:35.000Z</time>
      </trkpt>
      <trkpt lat="47.27434" lon="-2.25824">
        <ele>21.39999961853</ele>
        <time>2019-06-30T09:08:39.000Z</time>
      </trkpt>
      <trkpt lat="47.27448" lon="-2.25804">
        <ele>21.39999961853</ele>
        <time>2019-06-30T09:08:43.000Z</time>
      </trkpt>
      <trkpt lat="47.27452" lon="-2.25801">
        <ele>21.39999961853</ele>
        <time>2019-06-30T09:08:44.000Z</time>
      </trkpt>
      <trkpt lat="47.27469" lon="-2.25787">
        <ele>21.39999961853</ele>
        <time>2019-06-30T09:08:49.000Z</time>
      </trkpt>
      <trkpt lat="47.27483" lon="-2.25771">
        <ele>21.39999961853</ele>
        <time>2019-06-30T09:08:53.000Z</time>
      </trkpt>
      <trkpt lat="47.2749" lon="-2.25763">
        <ele>21.39999961853</ele>
        <time>2019-06-30T09:08:55.000Z</time>
      </trkpt>
      <trkpt lat="47.27505" lon="-2.25741">
        <ele>21.39999961853</ele>
        <time>2019-06-30T09:09:00.000Z</time>
      </trkpt>
      <trkpt lat="47.27515" lon="-2.25721">
        <ele>21</ele>
        <time>2019-06-30T09:09:04.000Z</time>
      </trkpt>
      <trkpt lat="47.27517" lon="-2.25716">
        <ele>20.60000038147</ele>
        <time>2019-06-30T09:09:05.000Z</time>
      </trkpt>
      <trkpt lat="47.27519" lon="-2.25709">
        <ele>20.200000762939</ele>
        <time>2019-06-30T09:09:06.000Z</time>
      </trkpt>
      <trkpt lat="47.27521" lon="-2.25703">
        <ele>19.60000038147</ele>
        <time>2019-06-30T09:09:07.000Z</time>
      </trkpt>
      <trkpt lat="47.27523" lon="-2.25697">
        <ele>19.200000762939</ele>
        <time>2019-06-30T09:09:08.000Z</time>
      </trkpt>
      <trkpt lat="47.27531" lon="-2.2568">
        <ele>19.200000762939</ele>
        <time>2019-06-30T09:09:11.000Z</time>
      </trkpt>
      <trkpt lat="47.27533" lon="-2.25675">
        <ele>19.200000762939</ele>
        <time>2019-06-30T09:09:12.000Z</time>
      </trkpt>
      <trkpt lat="47.27536" lon="-2.2567">
        <ele>18.799999237061</ele>
        <time>2019-06-30T09:09:13.000Z</time>
      </trkpt>
      <trkpt lat="47.2754" lon="-2.25666">
        <ele>18.39999961853</ele>
        <time>2019-06-30T09:09:14.000Z</time>
      </trkpt>
      <trkpt lat="47.27544" lon="-2.25661">
        <ele>18</ele>
        <time>2019-06-30T09:09:15.000Z</time>
      </trkpt>
      <trkpt lat="47.27545" lon="-2.25658">
        <ele>17.60000038147</ele>
        <time>2019-06-30T09:09:16.000Z</time>
      </trkpt>
      <trkpt lat="47.27545" lon="-2.25655">
        <ele>17.200000762939</ele>
        <time>2019-06-30T09:09:17.000Z</time>
      </trkpt>
      <trkpt lat="47.27548" lon="-2.25647">
        <ele>17.200000762939</ele>
        <time>2019-06-30T09:09:19.000Z</time>
      </trkpt>
      <trkpt lat="47.27554" lon="-2.25639">
        <ele>17.200000762939</ele>
        <time>2019-06-30T09:09:21.000Z</time>
      </trkpt>
      <trkpt lat="47.27562" lon="-2.25625">
        <ele>17.200000762939</ele>
        <time>2019-06-30T09:09:24.000Z</time>
      </trkpt>
      <trkpt lat="47.27566" lon="-2.25597">
        <ele>17.200000762939</ele>
        <time>2019-06-30T09:09:30.000Z</time>
      </trkpt>
      <trkpt lat="47.27563" lon="-2.25578">
        <ele>17.200000762939</ele>
        <time>2019-06-30T09:09:33.000Z</time>
      </trkpt>
      <trkpt lat="47.27562" lon="-2.25573">
        <ele>17.200000762939</ele>
        <time>2019-06-30T09:09:34.000Z</time>
      </trkpt>
      <trkpt lat="47.27552" lon="-2.25531">
        <ele>17.200000762939</ele>
        <time>2019-06-30T09:09:40.000Z</time>
      </trkpt>
      <trkpt lat="47.27549" lon="-2.25523">
        <ele>16.799999237061</ele>
        <time>2019-06-30T09:09:41.000Z</time>
      </trkpt>
      <trkpt lat="47.27547" lon="-2.25517">
        <ele>16.39999961853</ele>
        <time>2019-06-30T09:09:42.000Z</time>
      </trkpt>
      <trkpt lat="47.27544" lon="-2.2551">
        <ele>16</ele>
        <time>2019-06-30T09:09:43.000Z</time>
      </trkpt>
      <trkpt lat="47.27542" lon="-2.25504">
        <ele>15.60000038147</ele>
        <time>2019-06-30T09:09:44.000Z</time>
      </trkpt>
      <trkpt lat="47.27538" lon="-2.25497">
        <ele>15.199999809265</ele>
        <time>2019-06-30T09:09:45.000Z</time>
      </trkpt>
      <trkpt lat="47.27535" lon="-2.25491">
        <ele>15.199999809265</ele>
        <time>2019-06-30T09:09:46.000Z</time>
      </trkpt>
      <trkpt lat="47.27521" lon="-2.25472">
        <ele>15.199999809265</ele>
        <time>2019-06-30T09:09:49.000Z</time>
      </trkpt>
      <trkpt lat="47.27497" lon="-2.25452">
        <ele>15.199999809265</ele>
        <time>2019-06-30T09:09:54.000Z</time>
      </trkpt>
      <trkpt lat="47.27478" lon="-2.25454">
        <ele>15.199999809265</ele>
        <time>2019-06-30T09:09:58.000Z</time>
      </trkpt>
      <trkpt lat="47.27465" lon="-2.25454">
        <ele>15.199999809265</ele>
        <time>2019-06-30T09:10:01.000Z</time>
      </trkpt>
      <trkpt lat="47.27457" lon="-2.25452">
        <ele>15.199999809265</ele>
        <time>2019-06-30T09:10:03.000Z</time>
      </trkpt>
      <trkpt lat="47.27449" lon="-2.25448">
        <ele>15.199999809265</ele>
        <time>2019-06-30T09:10:05.000Z</time>
      </trkpt>
      <trkpt lat="47.27445" lon="-2.25444">
        <ele>15.199999809265</ele>
        <time>2019-06-30T09:10:06.000Z</time>
      </trkpt>
      <trkpt lat="47.27439" lon="-2.25438">
        <ele>15.199999809265</ele>
        <time>2019-06-30T09:10:08.000Z</time>
      </trkpt>
      <trkpt lat="47.27425" lon="-2.25422">
        <ele>15.199999809265</ele>
        <time>2019-06-30T09:10:13.000Z</time>
      </trkpt>
      <trkpt lat="47.27422" lon="-2.25417">
        <ele>15.199999809265</ele>
        <time>2019-06-30T09:10:14.000Z</time>
      </trkpt>
      <trkpt lat="47.27414" lon="-2.25405">
        <ele>15.199999809265</ele>
        <time>2019-06-30T09:10:17.000Z</time>
      </trkpt>
      <trkpt lat="47.27406" lon="-2.25387">
        <ele>15.199999809265</ele>
        <time>2019-06-30T09:10:22.000Z</time>
      </trkpt>
      <trkpt lat="47.27404" lon="-2.25384">
        <ele>15.60000038147</ele>
        <time>2019-06-30T09:10:23.000Z</time>
      </trkpt>
      <trkpt lat="47.27403" lon="-2.25382">
        <ele>16.39999961853</ele>
        <time>2019-06-30T09:10:24.000Z</time>
      </trkpt>
      <trkpt lat="47.27402" lon="-2.25379">
        <ele>16.799999237061</ele>
        <time>2019-06-30T09:10:25.000Z</time>
      </trkpt>
      <trkpt lat="47.27401" lon="-2.25375">
        <ele>17.200000762939</ele>
        <time>2019-06-30T09:10:26.000Z</time>
      </trkpt>
      <trkpt lat="47.274" lon="-2.2537">
        <ele>17.200000762939</ele>
        <time>2019-06-30T09:10:27.000Z</time>
      </trkpt>
      <trkpt lat="47.27401" lon="-2.25359">
        <ele>17.200000762939</ele>
        <time>2019-06-30T09:10:29.000Z</time>
      </trkpt>
      <trkpt lat="47.27402" lon="-2.25347">
        <ele>17.200000762939</ele>
        <time>2019-06-30T09:10:31.000Z</time>
      </trkpt>
      <trkpt lat="47.274" lon="-2.25329">
        <ele>17.200000762939</ele>
        <time>2019-06-30T09:10:34.000Z</time>
      </trkpt>
      <trkpt lat="47.27398" lon="-2.25323">
        <ele>17.200000762939</ele>
        <time>2019-06-30T09:10:35.000Z</time>
      </trkpt>
      <trkpt lat="47.27401" lon="-2.25305">
        <ele>17.200000762939</ele>
        <time>2019-06-30T09:10:38.000Z</time>
      </trkpt>
      <trkpt lat="47.274" lon="-2.2527">
        <ele>17.200000762939</ele>
        <time>2019-06-30T09:10:43.000Z</time>
      </trkpt>
      <trkpt lat="47.27394" lon="-2.2525">
        <ele>17.200000762939</ele>
        <time>2019-06-30T09:10:47.000Z</time>
      </trkpt>
      <trkpt lat="47.27392" lon="-2.25238">
        <ele>17.200000762939</ele>
        <time>2019-06-30T09:10:49.000Z</time>
      </trkpt>
      <trkpt lat="47.27392" lon="-2.2522">
        <ele>17.200000762939</ele>
        <time>2019-06-30T09:10:52.000Z</time>
      </trkpt>
      <trkpt lat="47.27392" lon="-2.25204">
        <ele>17.200000762939</ele>
        <time>2019-06-30T09:10:55.000Z</time>
      </trkpt>
      <trkpt lat="47.27389" lon="-2.25184">
        <ele>17.200000762939</ele>
        <time>2019-06-30T09:10:58.000Z</time>
      </trkpt>
      <trkpt lat="47.27383" lon="-2.25157">
        <ele>17.200000762939</ele>
        <time>2019-06-30T09:11:02.000Z</time>
      </trkpt>
      <trkpt lat="47.27381" lon="-2.25151">
        <ele>17.200000762939</ele>
        <time>2019-06-30T09:11:03.000Z</time>
      </trkpt>
      <trkpt lat="47.27374" lon="-2.25138">
        <ele>17.200000762939</ele>
        <time>2019-06-30T09:11:05.000Z</time>
      </trkpt>
      <trkpt lat="47.27368" lon="-2.25125">
        <ele>17.200000762939</ele>
        <time>2019-06-30T09:11:07.000Z</time>
      </trkpt>
      <trkpt lat="47.27345" lon="-2.25071">
        <ele>17.200000762939</ele>
        <time>2019-06-30T09:11:16.000Z</time>
      </trkpt>
      <trkpt lat="47.27335" lon="-2.25034">
        <ele>17.200000762939</ele>
        <time>2019-06-30T09:11:23.000Z</time>
      </trkpt>
      <trkpt lat="47.2733" lon="-2.25009">
        <ele>17.200000762939</ele>
        <time>2019-06-30T09:11:27.000Z</time>
      </trkpt>
      <trkpt lat="47.2733" lon="-2.24999">
        <ele>17.200000762939</ele>
        <time>2019-06-30T09:11:29.000Z</time>
      </trkpt>
      <trkpt lat="47.27333" lon="-2.24978">
        <ele>17.200000762939</ele>
        <time>2019-06-30T09:11:33.000Z</time>
      </trkpt>
      <trkpt lat="47.2734" lon="-2.24962">
        <ele>17.200000762939</ele>
        <time>2019-06-30T09:11:36.000Z</time>
      </trkpt>
      <trkpt lat="47.27345" lon="-2.24957">
        <ele>17.200000762939</ele>
        <time>2019-06-30T09:11:37.000Z</time>
      </trkpt>
      <trkpt lat="47.27358" lon="-2.24942">
        <ele>17.200000762939</ele>
        <time>2019-06-30T09:11:40.000Z</time>
      </trkpt>
      <trkpt lat="47.27369" lon="-2.24925">
        <ele>17.200000762939</ele>
        <time>2019-06-30T09:11:43.000Z</time>
      </trkpt>
      <trkpt lat="47.27386" lon="-2.24898">
        <ele>17.200000762939</ele>
        <time>2019-06-30T09:11:48.000Z</time>
      </trkpt>
      <trkpt lat="47.274" lon="-2.24881">
        <ele>17.200000762939</ele>
        <time>2019-06-30T09:11:53.000Z</time>
      </trkpt>
      <trkpt lat="47.27412" lon="-2.24868">
        <ele>17.200000762939</ele>
        <time>2019-06-30T09:11:57.000Z</time>
      </trkpt>
      <trkpt lat="47.27431" lon="-2.24826">
        <ele>17.200000762939</ele>
        <time>2019-06-30T09:12:04.000Z</time>
      </trkpt>
      <trkpt lat="47.27432" lon="-2.24818">
        <ele>17.200000762939</ele>
        <time>2019-06-30T09:12:05.000Z</time>
      </trkpt>
      <trkpt lat="47.27437" lon="-2.24812">
        <ele>17.200000762939</ele>
        <time>2019-06-30T09:12:06.000Z</time>
      </trkpt>
      <trkpt lat="47.27447" lon="-2.24803">
        <ele>17.200000762939</ele>
        <time>2019-06-30T09:12:08.000Z</time>
      </trkpt>
      <trkpt lat="47.2746" lon="-2.24793">
        <ele>17.200000762939</ele>
        <time>2019-06-30T09:12:11.000Z</time>
      </trkpt>
      <trkpt lat="47.27468" lon="-2.24789">
        <ele>17.200000762939</ele>
        <time>2019-06-30T09:12:13.000Z</time>
      </trkpt>
      <trkpt lat="47.27472" lon="-2.24789">
        <ele>17.799999237061</ele>
        <time>2019-06-30T09:12:14.000Z</time>
      </trkpt>
      <trkpt lat="47.27477" lon="-2.2479">
        <ele>18.200000762939</ele>
        <time>2019-06-30T09:12:15.000Z</time>
      </trkpt>
      <trkpt lat="47.27481" lon="-2.2479">
        <ele>18.799999237061</ele>
        <time>2019-06-30T09:12:16.000Z</time>
      </trkpt>
      <trkpt lat="47.27485" lon="-2.2479">
        <ele>19.200000762939</ele>
        <time>2019-06-30T09:12:17.000Z</time>
      </trkpt>
      <trkpt lat="47.2749" lon="-2.2479">
        <ele>19.60000038147</ele>
        <time>2019-06-30T09:12:18.000Z</time>
      </trkpt>
      <trkpt lat="47.27498" lon="-2.24789">
        <ele>20.200000762939</ele>
        <time>2019-06-30T09:12:20.000Z</time>
      </trkpt>
      <trkpt lat="47.27502" lon="-2.24789">
        <ele>20.60000038147</ele>
        <time>2019-06-30T09:12:21.000Z</time>
      </trkpt>
      <trkpt lat="47.27507" lon="-2.24789">
        <ele>21.200000762939</ele>
        <time>2019-06-30T09:12:22.000Z</time>
      </trkpt>
      <trkpt lat="47.27512" lon="-2.24789">
        <ele>21.60000038147</ele>
        <time>2019-06-30T09:12:23.000Z</time>
      </trkpt>
      <trkpt lat="47.27517" lon="-2.24788">
        <ele>22</ele>
        <time>2019-06-30T09:12:24.000Z</time>
      </trkpt>
      <trkpt lat="47.27537" lon="-2.24788">
        <ele>22</ele>
        <time>2019-06-30T09:12:28.000Z</time>
      </trkpt>
      <trkpt lat="47.27543" lon="-2.24788">
        <ele>22</ele>
        <time>2019-06-30T09:12:29.000Z</time>
      </trkpt>
      <trkpt lat="47.27556" lon="-2.24787">
        <ele>22</ele>
        <time>2019-06-30T09:12:32.000Z</time>
      </trkpt>
      <trkpt lat="47.27561" lon="-2.24787">
        <ele>22.60000038147</ele>
        <time>2019-06-30T09:12:33.000Z</time>
      </trkpt>
      <trkpt lat="47.27566" lon="-2.24787">
        <ele>23</ele>
        <time>2019-06-30T09:12:34.000Z</time>
      </trkpt>
      <trkpt lat="47.27572" lon="-2.24787">
        <ele>23.39999961853</ele>
        <time>2019-06-30T09:12:35.000Z</time>
      </trkpt>
      <trkpt lat="47.27577" lon="-2.24787">
        <ele>23.799999237061</ele>
        <time>2019-06-30T09:12:36.000Z</time>
      </trkpt>
      <trkpt lat="47.27582" lon="-2.24787">
        <ele>24.200000762939</ele>
        <time>2019-06-30T09:12:37.000Z</time>
      </trkpt>
      <trkpt lat="47.27588" lon="-2.24788">
        <ele>24.200000762939</ele>
        <time>2019-06-30T09:12:38.000Z</time>
      </trkpt>
      <trkpt lat="47.27603" lon="-2.2479">
        <ele>24.200000762939</ele>
        <time>2019-06-30T09:12:41.000Z</time>
      </trkpt>
      <trkpt lat="47.27618" lon="-2.24788">
        <ele>24.200000762939</ele>
        <time>2019-06-30T09:12:44.000Z</time>
      </trkpt>
      <trkpt lat="47.27649" lon="-2.24794">
        <ele>24.200000762939</ele>
        <time>2019-06-30T09:12:50.000Z</time>
      </trkpt>
      <trkpt lat="47.27669" lon="-2.24801">
        <ele>24.200000762939</ele>
        <time>2019-06-30T09:12:53.000Z</time>
      </trkpt>
      <trkpt lat="47.27675" lon="-2.24801">
        <ele>24.200000762939</ele>
        <time>2019-06-30T09:12:54.000Z</time>
      </trkpt>
      <trkpt lat="47.27704" lon="-2.24801">
        <ele>24.200000762939</ele>
        <time>2019-06-30T09:12:59.000Z</time>
      </trkpt>
      <trkpt lat="47.27743" lon="-2.24803">
        <ele>24.200000762939</ele>
        <time>2019-06-30T09:13:06.000Z</time>
      </trkpt>
      <trkpt lat="47.27755" lon="-2.24803">
        <ele>24.200000762939</ele>
        <time>2019-06-30T09:13:08.000Z</time>
      </trkpt>
      <trkpt lat="47.27778" lon="-2.24801">
        <ele>24.200000762939</ele>
        <time>2019-06-30T09:13:12.000Z</time>
      </trkpt>
      <trkpt lat="47.27816" lon="-2.24799">
        <ele>24.200000762939</ele>
        <time>2019-06-30T09:13:19.000Z</time>
      </trkpt>
      <trkpt lat="47.27842" lon="-2.24793">
        <ele>24.200000762939</ele>
        <time>2019-06-30T09:13:24.000Z</time>
      </trkpt>
      <trkpt lat="47.27847" lon="-2.2479">
        <ele>24.200000762939</ele>
        <time>2019-06-30T09:13:25.000Z</time>
      </trkpt>
      <trkpt lat="47.27857" lon="-2.24775">
        <ele>24.200000762939</ele>
        <time>2019-06-30T09:13:29.000Z</time>
      </trkpt>
      <trkpt lat="47.27858" lon="-2.24773">
        <ele>24.200000762939</ele>
        <time>2019-06-30T09:13:30.000Z</time>
      </trkpt>
      <trkpt lat="47.27864" lon="-2.24772">
        <ele>24.200000762939</ele>
        <time>2019-06-30T09:13:33.000Z</time>
      </trkpt>
      <trkpt lat="47.27867" lon="-2.24771">
        <ele>24.200000762939</ele>
        <time>2019-06-30T09:13:34.000Z</time>
      </trkpt>
      <trkpt lat="47.27881" lon="-2.24766">
        <ele>24.200000762939</ele>
        <time>2019-06-30T09:13:38.000Z</time>
      </trkpt>
      <trkpt lat="47.27893" lon="-2.24765">
        <ele>24.200000762939</ele>
        <time>2019-06-30T09:13:42.000Z</time>
      </trkpt>
      <trkpt lat="47.27902" lon="-2.24764">
        <ele>24.60000038147</ele>
        <time>2019-06-30T09:13:45.000Z</time>
      </trkpt>
      <trkpt lat="47.27905" lon="-2.24764">
        <ele>25</ele>
        <time>2019-06-30T09:13:46.000Z</time>
      </trkpt>
      <trkpt lat="47.27908" lon="-2.24764">
        <ele>25.60000038147</ele>
        <time>2019-06-30T09:13:47.000Z</time>
      </trkpt>
      <trkpt lat="47.2791" lon="-2.24763">
        <ele>26</ele>
        <time>2019-06-30T09:13:48.000Z</time>
      </trkpt>
      <trkpt lat="47.27913" lon="-2.24763">
        <ele>26.39999961853</ele>
        <time>2019-06-30T09:13:49.000Z</time>
      </trkpt>
      <trkpt lat="47.27915" lon="-2.24766">
        <ele>26.39999961853</ele>
        <time>2019-06-30T09:13:50.000Z</time>
      </trkpt>
      <trkpt lat="47.2792" lon="-2.24774">
        <ele>26.39999961853</ele>
        <time>2019-06-30T09:13:53.000Z</time>
      </trkpt>
      <trkpt lat="47.27913" lon="-2.24778">
        <ele>26.39999961853</ele>
        <time>2019-06-30T09:13:56.000Z</time>
      </trkpt>
      <trkpt lat="47.27903" lon="-2.24792">
        <ele>26.39999961853</ele>
        <time>2019-06-30T09:13:59.000Z</time>
      </trkpt>
      <trkpt lat="47.27904" lon="-2.24803">
        <ele>26.39999961853</ele>
        <time>2019-06-30T09:14:02.000Z</time>
      </trkpt>
      <trkpt lat="47.27915" lon="-2.24809">
        <ele>26.39999961853</ele>
        <time>2019-06-30T09:14:05.000Z</time>
      </trkpt>
      <trkpt lat="47.27935" lon="-2.24817">
        <ele>26.39999961853</ele>
        <time>2019-06-30T09:14:10.000Z</time>
      </trkpt>
      <trkpt lat="47.27957" lon="-2.24823">
        <ele>26.39999961853</ele>
        <time>2019-06-30T09:14:16.000Z</time>
      </trkpt>
      <trkpt lat="47.27972" lon="-2.24827">
        <ele>26.39999961853</ele>
        <time>2019-06-30T09:14:19.000Z</time>
      </trkpt>
      <trkpt lat="47.27982" lon="-2.2483">
        <ele>26.39999961853</ele>
        <time>2019-06-30T09:14:21.000Z</time>
      </trkpt>
      <trkpt lat="47.28016" lon="-2.24836">
        <ele>26.39999961853</ele>
        <time>2019-06-30T09:14:28.000Z</time>
      </trkpt>
      <trkpt lat="47.28036" lon="-2.24841">
        <ele>26.39999961853</ele>
        <time>2019-06-30T09:14:32.000Z</time>
      </trkpt>
      <trkpt lat="47.28041" lon="-2.24842">
        <ele>26.39999961853</ele>
        <time>2019-06-30T09:14:33.000Z</time>
      </trkpt>
      <trkpt lat="47.28051" lon="-2.24844">
        <ele>26.39999961853</ele>
        <time>2019-06-30T09:14:35.000Z</time>
      </trkpt>
      <trkpt lat="47.28065" lon="-2.24845">
        <ele>26.39999961853</ele>
        <time>2019-06-30T09:14:38.000Z</time>
      </trkpt>
      <trkpt lat="47.28091" lon="-2.24848">
        <ele>26.39999961853</ele>
        <time>2019-06-30T09:14:43.000Z</time>
      </trkpt>
      <trkpt lat="47.28109" lon="-2.24855">
        <ele>26.39999961853</ele>
        <time>2019-06-30T09:14:46.000Z</time>
      </trkpt>
      <trkpt lat="47.28115" lon="-2.24855">
        <ele>26.39999961853</ele>
        <time>2019-06-30T09:14:47.000Z</time>
      </trkpt>
      <trkpt lat="47.28126" lon="-2.24855">
        <ele>26.39999961853</ele>
        <time>2019-06-30T09:14:49.000Z</time>
      </trkpt>
      <trkpt lat="47.28137" lon="-2.2485">
        <ele>26.39999961853</ele>
        <time>2019-06-30T09:14:51.000Z</time>
      </trkpt>
      <trkpt lat="47.28142" lon="-2.24848">
        <ele>26</ele>
        <time>2019-06-30T09:14:52.000Z</time>
      </trkpt>
      <trkpt lat="47.28146" lon="-2.24844">
        <ele>25.60000038147</ele>
        <time>2019-06-30T09:14:53.000Z</time>
      </trkpt>
      <trkpt lat="47.28151" lon="-2.2484">
        <ele>25.200000762939</ele>
        <time>2019-06-30T09:14:54.000Z</time>
      </trkpt>
      <trkpt lat="47.28153" lon="-2.24836">
        <ele>24.39999961853</ele>
        <time>2019-06-30T09:14:55.000Z</time>
      </trkpt>
      <trkpt lat="47.28156" lon="-2.2483">
        <ele>24.39999961853</ele>
        <time>2019-06-30T09:14:56.000Z</time>
      </trkpt>
      <trkpt lat="47.2816" lon="-2.24814">
        <ele>24.39999961853</ele>
        <time>2019-06-30T09:14:59.000Z</time>
      </trkpt>
      <trkpt lat="47.28162" lon="-2.24811">
        <ele>23.799999237061</ele>
        <time>2019-06-30T09:15:00.000Z</time>
      </trkpt>
      <trkpt lat="47.28164" lon="-2.2481">
        <ele>23.39999961853</ele>
        <time>2019-06-30T09:15:01.000Z</time>
      </trkpt>
      <trkpt lat="47.28165" lon="-2.24808">
        <ele>23</ele>
        <time>2019-06-30T09:15:02.000Z</time>
      </trkpt>
      <trkpt lat="47.28167" lon="-2.24808">
        <ele>22.60000038147</ele>
        <time>2019-06-30T09:15:03.000Z</time>
      </trkpt>
      <trkpt lat="47.28171" lon="-2.24808">
        <ele>22.200000762939</ele>
        <time>2019-06-30T09:15:04.000Z</time>
      </trkpt>
      <trkpt lat="47.28175" lon="-2.24808">
        <ele>22.200000762939</ele>
        <time>2019-06-30T09:15:05.000Z</time>
      </trkpt>
      <trkpt lat="47.28178" lon="-2.24809">
        <ele>22.200000762939</ele>
        <time>2019-06-30T09:15:06.000Z</time>
      </trkpt>
      <trkpt lat="47.28182" lon="-2.24811">
        <ele>21.799999237061</ele>
        <time>2019-06-30T09:15:07.000Z</time>
      </trkpt>
      <trkpt lat="47.28187" lon="-2.24812">
        <ele>21.39999961853</ele>
        <time>2019-06-30T09:15:08.000Z</time>
      </trkpt>
      <trkpt lat="47.28192" lon="-2.24813">
        <ele>20.60000038147</ele>
        <time>2019-06-30T09:15:09.000Z</time>
      </trkpt>
      <trkpt lat="47.28199" lon="-2.24814">
        <ele>20</ele>
        <time>2019-06-30T09:15:10.000Z</time>
      </trkpt>
      <trkpt lat="47.28205" lon="-2.24813">
        <ele>19.200000762939</ele>
        <time>2019-06-30T09:15:11.000Z</time>
      </trkpt>
      <trkpt lat="47.28212" lon="-2.24809">
        <ele>18.39999961853</ele>
        <time>2019-06-30T09:15:12.000Z</time>
      </trkpt>
      <trkpt lat="47.28218" lon="-2.24806">
        <ele>17.60000038147</ele>
        <time>2019-06-30T09:15:13.000Z</time>
      </trkpt>
      <trkpt lat="47.28224" lon="-2.24802">
        <ele>17</ele>
        <time>2019-06-30T09:15:14.000Z</time>
      </trkpt>
      <trkpt lat="47.28231" lon="-2.248">
        <ele>16.200000762939</ele>
        <time>2019-06-30T09:15:15.000Z</time>
      </trkpt>
      <trkpt lat="47.28236" lon="-2.24796">
        <ele>15.39999961853</ele>
        <time>2019-06-30T09:15:16.000Z</time>
      </trkpt>
      <trkpt lat="47.28257" lon="-2.24787">
        <ele>15.39999961853</ele>
        <time>2019-06-30T09:15:19.000Z</time>
      </trkpt>
      <trkpt lat="47.28262" lon="-2.24783">
        <ele>15.39999961853</ele>
        <time>2019-06-30T09:15:20.000Z</time>
      </trkpt>
      <trkpt lat="47.28288" lon="-2.24767">
        <ele>15.39999961853</ele>
        <time>2019-06-30T09:15:24.000Z</time>
      </trkpt>
      <trkpt lat="47.283" lon="-2.24758">
        <ele>15.39999961853</ele>
        <time>2019-06-30T09:15:27.000Z</time>
      </trkpt>
      <trkpt lat="47.28304" lon="-2.24755">
        <ele>15</ele>
        <time>2019-06-30T09:15:28.000Z</time>
      </trkpt>
      <trkpt lat="47.2831" lon="-2.24754">
        <ele>14.39999961853</ele>
        <time>2019-06-30T09:15:29.000Z</time>
      </trkpt>
      <trkpt lat="47.28315" lon="-2.24753">
        <ele>14</ele>
        <time>2019-06-30T09:15:30.000Z</time>
      </trkpt>
      <trkpt lat="47.28321" lon="-2.24755">
        <ele>13.39999961853</ele>
        <time>2019-06-30T09:15:31.000Z</time>
      </trkpt>
      <trkpt lat="47.28334" lon="-2.24758">
        <ele>13</ele>
        <time>2019-06-30T09:15:32.000Z</time>
      </trkpt>
      <trkpt lat="47.2835" lon="-2.24769">
        <ele>12.60000038147</ele>
        <time>2019-06-30T09:15:34.000Z</time>
      </trkpt>
      <trkpt lat="47.28356" lon="-2.24773">
        <ele>12.199999809265</ele>
        <time>2019-06-30T09:15:35.000Z</time>
      </trkpt>
      <trkpt lat="47.28362" lon="-2.24774">
        <ele>11.800000190735</ele>
        <time>2019-06-30T09:15:36.000Z</time>
      </trkpt>
      <trkpt lat="47.28368" lon="-2.24773">
        <ele>11.39999961853</ele>
        <time>2019-06-30T09:15:37.000Z</time>
      </trkpt>
      <trkpt lat="47.28369" lon="-2.24773">
        <ele>11</ele>
        <time>2019-06-30T09:15:38.000Z</time>
      </trkpt>
      <trkpt lat="47.28373" lon="-2.2477">
        <ele>10.60000038147</ele>
        <time>2019-06-30T09:15:40.000Z</time>
      </trkpt>
      <trkpt lat="47.28372" lon="-2.2477">
        <ele>10.199999809265</ele>
        <time>2019-06-30T09:15:41.000Z</time>
      </trkpt>
      <trkpt lat="47.28372" lon="-2.2477">
        <ele>9.8000001907349</ele>
        <time>2019-06-30T09:15:42.000Z</time>
      </trkpt>
      <trkpt lat="47.28376" lon="-2.24772">
        <ele>8.8000001907349</ele>
        <time>2019-06-30T09:15:49.000Z</time>
      </trkpt>
      <trkpt lat="47.28388" lon="-2.24772">
        <ele>8.8000001907349</ele>
        <time>2019-06-30T09:15:54.000Z</time>
      </trkpt>
      <trkpt lat="47.28394" lon="-2.2477">
        <ele>8.8000001907349</ele>
        <time>2019-06-30T09:15:59.000Z</time>
      </trkpt>
      <trkpt lat="47.28398" lon="-2.24766">
        <ele>8.8000001907349</ele>
        <time>2019-06-30T09:16:22.000Z</time>
      </trkpt>
      <trkpt lat="47.28404" lon="-2.2476">
        <ele>8.8000001907349</ele>
        <time>2019-06-30T09:16:24.000Z</time>
      </trkpt>
      <trkpt lat="47.28416" lon="-2.2475">
        <ele>8.8000001907349</ele>
        <time>2019-06-30T09:16:27.000Z</time>
      </trkpt>
      <trkpt lat="47.28425" lon="-2.24743">
        <ele>8.8000001907349</ele>
        <time>2019-06-30T09:16:29.000Z</time>
      </trkpt>
      <trkpt lat="47.2843" lon="-2.2474">
        <ele>8.8000001907349</ele>
        <time>2019-06-30T09:16:30.000Z</time>
      </trkpt>
      <trkpt lat="47.28452" lon="-2.24725">
        <ele>8.8000001907349</ele>
        <time>2019-06-30T09:16:34.000Z</time>
      </trkpt>
      <trkpt lat="47.2848" lon="-2.24705">
        <ele>8.8000001907349</ele>
        <time>2019-06-30T09:16:39.000Z</time>
      </trkpt>
      <trkpt lat="47.28492" lon="-2.24697">
        <ele>8.8000001907349</ele>
        <time>2019-06-30T09:16:41.000Z</time>
      </trkpt>
      <trkpt lat="47.28511" lon="-2.2468">
        <ele>8.8000001907349</ele>
        <time>2019-06-30T09:16:45.000Z</time>
      </trkpt>
      <trkpt lat="47.28522" lon="-2.24674">
        <ele>8.8000001907349</ele>
        <time>2019-06-30T09:16:47.000Z</time>
      </trkpt>
      <trkpt lat="47.2855" lon="-2.24653">
        <ele>8.8000001907349</ele>
        <time>2019-06-30T09:16:53.000Z</time>
      </trkpt>
      <trkpt lat="47.28573" lon="-2.24634">
        <ele>8.8000001907349</ele>
        <time>2019-06-30T09:16:59.000Z</time>
      </trkpt>
      <trkpt lat="47.28584" lon="-2.24622">
        <ele>8.8000001907349</ele>
        <time>2019-06-30T09:17:04.000Z</time>
      </trkpt>
      <trkpt lat="47.28592" lon="-2.24611">
        <ele>8.8000001907349</ele>
        <time>2019-06-30T09:17:09.000Z</time>
      </trkpt>
      <trkpt lat="47.28594" lon="-2.24609">
        <ele>8.8000001907349</ele>
        <time>2019-06-30T09:17:10.000Z</time>
      </trkpt>
      <trkpt lat="47.28604" lon="-2.24587">
        <ele>8.8000001907349</ele>
        <time>2019-06-30T09:17:14.000Z</time>
      </trkpt>
      <trkpt lat="47.28613" lon="-2.24553">
        <ele>8.8000001907349</ele>
        <time>2019-06-30T09:17:19.000Z</time>
      </trkpt>
      <trkpt lat="47.28615" lon="-2.24545">
        <ele>8.8000001907349</ele>
        <time>2019-06-30T09:17:20.000Z</time>
      </trkpt>
      <trkpt lat="47.2863" lon="-2.24494">
        <ele>8.8000001907349</ele>
        <time>2019-06-30T09:17:26.000Z</time>
      </trkpt>
      <trkpt lat="47.28648" lon="-2.24432">
        <ele>8.8000001907349</ele>
        <time>2019-06-30T09:17:33.000Z</time>
      </trkpt>
      <trkpt lat="47.28652" lon="-2.24415">
        <ele>8.8000001907349</ele>
        <time>2019-06-30T09:17:35.000Z</time>
      </trkpt>
      <trkpt lat="47.28657" lon="-2.24388">
        <ele>8.8000001907349</ele>
        <time>2019-06-30T09:17:38.000Z</time>
      </trkpt>
      <trkpt lat="47.2867" lon="-2.24341">
        <ele>9.1999998092651</ele>
        <time>2019-06-30T09:17:43.000Z</time>
      </trkpt>
      <trkpt lat="47.28673" lon="-2.24332">
        <ele>9.8000001907349</ele>
        <time>2019-06-30T09:17:44.000Z</time>
      </trkpt>
      <trkpt lat="47.28676" lon="-2.24323">
        <ele>10.199999809265</ele>
        <time>2019-06-30T09:17:45.000Z</time>
      </trkpt>
      <trkpt lat="47.28679" lon="-2.24313">
        <ele>10.60000038147</ele>
        <time>2019-06-30T09:17:46.000Z</time>
      </trkpt>
      <trkpt lat="47.28682" lon="-2.24305">
        <ele>11</ele>
        <time>2019-06-30T09:17:47.000Z</time>
      </trkpt>
      <trkpt lat="47.28683" lon="-2.24296">
        <ele>11</ele>
        <time>2019-06-30T09:17:48.000Z</time>
      </trkpt>
      <trkpt lat="47.28688" lon="-2.2428">
        <ele>11</ele>
        <time>2019-06-30T09:17:50.000Z</time>
      </trkpt>
      <trkpt lat="47.28691" lon="-2.24273">
        <ele>11</ele>
        <time>2019-06-30T09:17:51.000Z</time>
      </trkpt>
      <trkpt lat="47.287" lon="-2.24262">
        <ele>11</ele>
        <time>2019-06-30T09:17:54.000Z</time>
      </trkpt>
      <trkpt lat="47.28704" lon="-2.24261">
        <ele>10.60000038147</ele>
        <time>2019-06-30T09:17:55.000Z</time>
      </trkpt>
      <trkpt lat="47.28708" lon="-2.24263">
        <ele>10</ele>
        <time>2019-06-30T09:17:56.000Z</time>
      </trkpt>
      <trkpt lat="47.28712" lon="-2.24263">
        <ele>9.6000003814697</ele>
        <time>2019-06-30T09:17:57.000Z</time>
      </trkpt>
      <trkpt lat="47.28717" lon="-2.24261">
        <ele>9.1999998092651</ele>
        <time>2019-06-30T09:17:58.000Z</time>
      </trkpt>
      <trkpt lat="47.28721" lon="-2.2426">
        <ele>8.8000001907349</ele>
        <time>2019-06-30T09:17:59.000Z</time>
      </trkpt>
      <trkpt lat="47.28729" lon="-2.24261">
        <ele>8.8000001907349</ele>
        <time>2019-06-30T09:18:01.000Z</time>
      </trkpt>
      <trkpt lat="47.28739" lon="-2.24261">
        <ele>8.8000001907349</ele>
        <time>2019-06-30T09:18:03.000Z</time>
      </trkpt>
      <trkpt lat="47.28769" lon="-2.24258">
        <ele>8.8000001907349</ele>
        <time>2019-06-30T09:18:09.000Z</time>
      </trkpt>
      <trkpt lat="47.28773" lon="-2.24256">
        <ele>8.8000001907349</ele>
        <time>2019-06-30T09:18:10.000Z</time>
      </trkpt>
      <trkpt lat="47.2878" lon="-2.24247">
        <ele>8.8000001907349</ele>
        <time>2019-06-30T09:18:12.000Z</time>
      </trkpt>
      <trkpt lat="47.28782" lon="-2.24224">
        <ele>8.8000001907349</ele>
        <time>2019-06-30T09:18:16.000Z</time>
      </trkpt>
      <trkpt lat="47.28784" lon="-2.2419">
        <ele>8.8000001907349</ele>
        <time>2019-06-30T09:18:21.000Z</time>
      </trkpt>
      <trkpt lat="47.28789" lon="-2.24147">
        <ele>8.8000001907349</ele>
        <time>2019-06-30T09:18:27.000Z</time>
      </trkpt>
      <trkpt lat="47.28788" lon="-2.24139">
        <ele>8.8000001907349</ele>
        <time>2019-06-30T09:18:28.000Z</time>
      </trkpt>
      <trkpt lat="47.28787" lon="-2.24098">
        <ele>8.8000001907349</ele>
        <time>2019-06-30T09:18:32.000Z</time>
      </trkpt>
      <trkpt lat="47.28789" lon="-2.24039">
        <ele>8.8000001907349</ele>
        <time>2019-06-30T09:18:38.000Z</time>
      </trkpt>
      <trkpt lat="47.28796" lon="-2.23958">
        <ele>8.8000001907349</ele>
        <time>2019-06-30T09:18:46.000Z</time>
      </trkpt>
      <trkpt lat="47.28803" lon="-2.23911">
        <ele>8.8000001907349</ele>
        <time>2019-06-30T09:18:51.000Z</time>
      </trkpt>
      <trkpt lat="47.28811" lon="-2.23848">
        <ele>8.8000001907349</ele>
        <time>2019-06-30T09:18:59.000Z</time>
      </trkpt>
      <trkpt lat="47.288" lon="-2.23823">
        <ele>8.8000001907349</ele>
        <time>2019-06-30T09:19:02.000Z</time>
      </trkpt>
      <trkpt lat="47.28791" lon="-2.23808">
        <ele>8.8000001907349</ele>
        <time>2019-06-30T09:19:04.000Z</time>
      </trkpt>
      <trkpt lat="47.2878" lon="-2.2379">
        <ele>8.8000001907349</ele>
        <time>2019-06-30T09:19:07.000Z</time>
      </trkpt>
      <trkpt lat="47.28757" lon="-2.23753">
        <ele>8.8000001907349</ele>
        <time>2019-06-30T09:19:12.000Z</time>
      </trkpt>
      <trkpt lat="47.2873" lon="-2.23706">
        <ele>8.8000001907349</ele>
        <time>2019-06-30T09:19:18.000Z</time>
      </trkpt>
      <trkpt lat="47.28711" lon="-2.23675">
        <ele>8.8000001907349</ele>
        <time>2019-06-30T09:19:22.000Z</time>
      </trkpt>
      <trkpt lat="47.28707" lon="-2.23667">
        <ele>8.8000001907349</ele>
        <time>2019-06-30T09:19:23.000Z</time>
      </trkpt>
      <trkpt lat="47.28677" lon="-2.23613">
        <ele>8.8000001907349</ele>
        <time>2019-06-30T09:19:30.000Z</time>
      </trkpt>
      <trkpt lat="47.28658" lon="-2.23587">
        <ele>8.8000001907349</ele>
        <time>2019-06-30T09:19:34.000Z</time>
      </trkpt>
      <trkpt lat="47.28653" lon="-2.23583">
        <ele>8.8000001907349</ele>
        <time>2019-06-30T09:19:35.000Z</time>
      </trkpt>
      <trkpt lat="47.28647" lon="-2.23579">
        <ele>8.8000001907349</ele>
        <time>2019-06-30T09:19:36.000Z</time>
      </trkpt>
      <trkpt lat="47.28632" lon="-2.23566">
        <ele>8.3999996185303</ele>
        <time>2019-06-30T09:19:40.000Z</time>
      </trkpt>
      <trkpt lat="47.28633" lon="-2.23562">
        <ele>8</ele>
        <time>2019-06-30T09:19:41.000Z</time>
      </trkpt>
      <trkpt lat="47.28635" lon="-2.2356">
        <ele>7.5999999046326</ele>
        <time>2019-06-30T09:19:42.000Z</time>
      </trkpt>
      <trkpt lat="47.28638" lon="-2.23559">
        <ele>7.1999998092651</ele>
        <time>2019-06-30T09:19:43.000Z</time>
      </trkpt>
      <trkpt lat="47.28642" lon="-2.23559">
        <ele>6.8000001907349</ele>
        <time>2019-06-30T09:19:44.000Z</time>
      </trkpt>
      <trkpt lat="47.28646" lon="-2.23552">
        <ele>6.8000001907349</ele>
        <time>2019-06-30T09:19:46.000Z</time>
      </trkpt>
      <trkpt lat="47.28652" lon="-2.23546">
        <ele>6.8000001907349</ele>
        <time>2019-06-30T09:19:50.000Z</time>
      </trkpt>
      <trkpt lat="47.28652" lon="-2.23547">
        <ele>6.8000001907349</ele>
        <time>2019-06-30T09:19:52.000Z</time>
      </trkpt>
      <trkpt lat="47.2865" lon="-2.23542">
        <ele>6.8000001907349</ele>
        <time>2019-06-30T09:20:16.000Z</time>
      </trkpt>
      <trkpt lat="47.28649" lon="-2.23539">
        <ele>6.8000001907349</ele>
        <time>2019-06-30T09:20:17.000Z</time>
      </trkpt>
      <trkpt lat="47.28649" lon="-2.23536">
        <ele>6.8000001907349</ele>
        <time>2019-06-30T09:20:18.000Z</time>
      </trkpt>
      <trkpt lat="47.28649" lon="-2.23526">
        <ele>6.8000001907349</ele>
        <time>2019-06-30T09:20:21.000Z</time>
      </trkpt>
      <trkpt lat="47.28649" lon="-2.23511">
        <ele>6.8000001907349</ele>
        <time>2019-06-30T09:20:25.000Z</time>
      </trkpt>
      <trkpt lat="47.28649" lon="-2.23505">
        <ele>6.8000001907349</ele>
        <time>2019-06-30T09:20:26.000Z</time>
      </trkpt>
      <trkpt lat="47.2865" lon="-2.23489">
        <ele>7.1999998092651</ele>
        <time>2019-06-30T09:20:29.000Z</time>
      </trkpt>
      <trkpt lat="47.28651" lon="-2.23484">
        <ele>7.5999999046326</ele>
        <time>2019-06-30T09:20:30.000Z</time>
      </trkpt>
      <trkpt lat="47.28651" lon="-2.2348">
        <ele>8</ele>
        <time>2019-06-30T09:20:31.000Z</time>
      </trkpt>
      <trkpt lat="47.28652" lon="-2.23476">
        <ele>8.3999996185303</ele>
        <time>2019-06-30T09:20:32.000Z</time>
      </trkpt>
      <trkpt lat="47.28652" lon="-2.23472">
        <ele>8.8000001907349</ele>
        <time>2019-06-30T09:20:33.000Z</time>
      </trkpt>
      <trkpt lat="47.28652" lon="-2.23453">
        <ele>8.8000001907349</ele>
        <time>2019-06-30T09:20:37.000Z</time>
      </trkpt>
      <trkpt lat="47.28647" lon="-2.23422">
        <ele>8.8000001907349</ele>
        <time>2019-06-30T09:20:42.000Z</time>
      </trkpt>
      <trkpt lat="47.28646" lon="-2.23413">
        <ele>8.8000001907349</ele>
        <time>2019-06-30T09:20:43.000Z</time>
      </trkpt>
      <trkpt lat="47.28646" lon="-2.23379">
        <ele>8.8000001907349</ele>
        <time>2019-06-30T09:20:48.000Z</time>
      </trkpt>
      <trkpt lat="47.28647" lon="-2.23375">
        <ele>8.3999996185303</ele>
        <time>2019-06-30T09:20:49.000Z</time>
      </trkpt>
      <trkpt lat="47.28648" lon="-2.23372">
        <ele>8</ele>
        <time>2019-06-30T09:20:50.000Z</time>
      </trkpt>
      <trkpt lat="47.28649" lon="-2.23368">
        <ele>7.5999999046326</ele>
        <time>2019-06-30T09:20:51.000Z</time>
      </trkpt>
      <trkpt lat="47.28651" lon="-2.23366">
        <ele>7.1999998092651</ele>
        <time>2019-06-30T09:20:52.000Z</time>
      </trkpt>
      <trkpt lat="47.28653" lon="-2.23365">
        <ele>6.8000001907349</ele>
        <time>2019-06-30T09:20:53.000Z</time>
      </trkpt>
      <trkpt lat="47.28659" lon="-2.23367">
        <ele>6.8000001907349</ele>
        <time>2019-06-30T09:20:55.000Z</time>
      </trkpt>
      <trkpt lat="47.28665" lon="-2.23361">
        <ele>6.8000001907349</ele>
        <time>2019-06-30T09:20:58.000Z</time>
      </trkpt>
      <trkpt lat="47.28666" lon="-2.23357">
        <ele>6.8000001907349</ele>
        <time>2019-06-30T09:20:59.000Z</time>
      </trkpt>
      <trkpt lat="47.28668" lon="-2.23334">
        <ele>7.1999998092651</ele>
        <time>2019-06-30T09:21:04.000Z</time>
      </trkpt>
      <trkpt lat="47.28669" lon="-2.23329">
        <ele>7.5999999046326</ele>
        <time>2019-06-30T09:21:05.000Z</time>
      </trkpt>
      <trkpt lat="47.2867" lon="-2.23324">
        <ele>8</ele>
        <time>2019-06-30T09:21:06.000Z</time>
      </trkpt>
      <trkpt lat="47.28671" lon="-2.2332">
        <ele>8.8000001907349</ele>
        <time>2019-06-30T09:21:07.000Z</time>
      </trkpt>
      <trkpt lat="47.28672" lon="-2.23313">
        <ele>8.8000001907349</ele>
        <time>2019-06-30T09:21:09.000Z</time>
      </trkpt>
      <trkpt lat="47.28675" lon="-2.23302">
        <ele>8.8000001907349</ele>
        <time>2019-06-30T09:21:12.000Z</time>
      </trkpt>
      <trkpt lat="47.28674" lon="-2.23289">
        <ele>8.8000001907349</ele>
        <time>2019-06-30T09:21:15.000Z</time>
      </trkpt>
      <trkpt lat="47.2868" lon="-2.23269">
        <ele>8.8000001907349</ele>
        <time>2019-06-30T09:21:20.000Z</time>
      </trkpt>
      <trkpt lat="47.28683" lon="-2.2326">
        <ele>8.8000001907349</ele>
        <time>2019-06-30T09:21:24.000Z</time>
      </trkpt>
      <trkpt lat="47.28683" lon="-2.23257">
        <ele>8.8000001907349</ele>
        <time>2019-06-30T09:21:25.000Z</time>
      </trkpt>
      <trkpt lat="47.28682" lon="-2.23245">
        <ele>8.8000001907349</ele>
        <time>2019-06-30T09:21:29.000Z</time>
      </trkpt>
      <trkpt lat="47.28683" lon="-2.23227">
        <ele>8.8000001907349</ele>
        <time>2019-06-30T09:21:36.000Z</time>
      </trkpt>
      <trkpt lat="47.28674" lon="-2.23209">
        <ele>8.3999996185303</ele>
        <time>2019-06-30T09:21:39.000Z</time>
      </trkpt>
      <trkpt lat="47.2867" lon="-2.23204">
        <ele>8</ele>
        <time>2019-06-30T09:21:40.000Z</time>
      </trkpt>
      <trkpt lat="47.28666" lon="-2.232">
        <ele>7.5999999046326</ele>
        <time>2019-06-30T09:21:41.000Z</time>
      </trkpt>
      <trkpt lat="47.28661" lon="-2.23196">
        <ele>7.1999998092651</ele>
        <time>2019-06-30T09:21:42.000Z</time>
      </trkpt>
      <trkpt lat="47.28657" lon="-2.23194">
        <ele>6.5999999046326</ele>
        <time>2019-06-30T09:21:43.000Z</time>
      </trkpt>
      <trkpt lat="47.28653" lon="-2.23192">
        <ele>6.5999999046326</ele>
        <time>2019-06-30T09:21:44.000Z</time>
      </trkpt>
      <trkpt lat="47.28633" lon="-2.23191">
        <ele>6.5999999046326</ele>
        <time>2019-06-30T09:21:48.000Z</time>
      </trkpt>
      <trkpt lat="47.28628" lon="-2.23192">
        <ele>6.5999999046326</ele>
        <time>2019-06-30T09:21:49.000Z</time>
      </trkpt>
      <trkpt lat="47.28614" lon="-2.23199">
        <ele>6.5999999046326</ele>
        <time>2019-06-30T09:21:53.000Z</time>
      </trkpt>
      <trkpt lat="47.28598" lon="-2.2322">
        <ele>6.5999999046326</ele>
        <time>2019-06-30T09:21:58.000Z</time>
      </trkpt>
      <trkpt lat="47.28591" lon="-2.23251">
        <ele>6.5999999046326</ele>
        <time>2019-06-30T09:22:03.000Z</time>
      </trkpt>
      <trkpt lat="47.28589" lon="-2.23271">
        <ele>6.5999999046326</ele>
        <time>2019-06-30T09:22:06.000Z</time>
      </trkpt>
      <trkpt lat="47.28591" lon="-2.23284">
        <ele>6.5999999046326</ele>
        <time>2019-06-30T09:22:08.000Z</time>
      </trkpt>
      <trkpt lat="47.286" lon="-2.23296">
        <ele>6.5999999046326</ele>
        <time>2019-06-30T09:22:11.000Z</time>
      </trkpt>
      <trkpt lat="47.28609" lon="-2.233">
        <ele>6.5999999046326</ele>
        <time>2019-06-30T09:22:13.000Z</time>
      </trkpt>
      <trkpt lat="47.2862" lon="-2.23301">
        <ele>6.5999999046326</ele>
        <time>2019-06-30T09:22:15.000Z</time>
      </trkpt>
      <trkpt lat="47.28639" lon="-2.233">
        <ele>6.5999999046326</ele>
        <time>2019-06-30T09:22:19.000Z</time>
      </trkpt>
      <trkpt lat="47.28662" lon="-2.23305">
        <ele>6.5999999046326</ele>
        <time>2019-06-30T09:22:23.000Z</time>
      </trkpt>
      <trkpt lat="47.28671" lon="-2.23303">
        <ele>6.5999999046326</ele>
        <time>2019-06-30T09:22:26.000Z</time>
      </trkpt>
      <trkpt lat="47.28672" lon="-2.233">
        <ele>7.1999998092651</ele>
        <time>2019-06-30T09:22:27.000Z</time>
      </trkpt>
      <trkpt lat="47.28672" lon="-2.23298">
        <ele>7.5999999046326</ele>
        <time>2019-06-30T09:22:28.000Z</time>
      </trkpt>
      <trkpt lat="47.28671" lon="-2.23296">
        <ele>8</ele>
        <time>2019-06-30T09:22:29.000Z</time>
      </trkpt>
      <trkpt lat="47.28671" lon="-2.23294">
        <ele>8.3999996185303</ele>
        <time>2019-06-30T09:22:30.000Z</time>
      </trkpt>
      <trkpt lat="47.28671" lon="-2.23293">
        <ele>8.8000001907349</ele>
        <time>2019-06-30T09:22:31.000Z</time>
      </trkpt>
      <trkpt lat="47.2867" lon="-2.23293">
        <ele>8.8000001907349</ele>
        <time>2019-06-30T09:22:32.000Z</time>
      </trkpt>
      <trkpt lat="47.28668" lon="-2.23295">
        <ele>8.8000001907349</ele>
        <time>2019-06-30T09:23:18.000Z</time>
      </trkpt>
      <trkpt lat="47.28665" lon="-2.23298">
        <ele>8.8000001907349</ele>
        <time>2019-06-30T09:23:19.000Z</time>
      </trkpt>
      <trkpt lat="47.28657" lon="-2.23314">
        <ele>8.3999996185303</ele>
        <time>2019-06-30T09:23:22.000Z</time>
      </trkpt>
      <trkpt lat="47.28656" lon="-2.2332">
        <ele>8</ele>
        <time>2019-06-30T09:23:23.000Z</time>
      </trkpt>
      <trkpt lat="47.28656" lon="-2.23325">
        <ele>7.5999999046326</ele>
        <time>2019-06-30T09:23:24.000Z</time>
      </trkpt>
      <trkpt lat="47.28655" lon="-2.23329">
        <ele>7.1999998092651</ele>
        <time>2019-06-30T09:23:25.000Z</time>
      </trkpt>
      <trkpt lat="47.28656" lon="-2.23334">
        <ele>6.8000001907349</ele>
        <time>2019-06-30T09:23:26.000Z</time>
      </trkpt>
      <trkpt lat="47.28655" lon="-2.23339">
        <ele>6.8000001907349</ele>
        <time>2019-06-30T09:23:27.000Z</time>
      </trkpt>
      <trkpt lat="47.28656" lon="-2.23367">
        <ele>6.8000001907349</ele>
        <time>2019-06-30T09:23:32.000Z</time>
      </trkpt>
      <trkpt lat="47.28654" lon="-2.23399">
        <ele>6.8000001907349</ele>
        <time>2019-06-30T09:23:37.000Z</time>
      </trkpt>
      <trkpt lat="47.28656" lon="-2.23427">
        <ele>6.8000001907349</ele>
        <time>2019-06-30T09:23:42.000Z</time>
      </trkpt>
      <trkpt lat="47.28657" lon="-2.23436">
        <ele>6.8000001907349</ele>
        <time>2019-06-30T09:23:46.000Z</time>
      </trkpt>
      <trkpt lat="47.28657" lon="-2.23438">
        <ele>6.8000001907349</ele>
        <time>2019-06-30T09:23:47.000Z</time>
      </trkpt>
      <trkpt lat="47.28658" lon="-2.2344">
        <ele>6.8000001907349</ele>
        <time>2019-06-30T09:23:48.000Z</time>
      </trkpt>
      <trkpt lat="47.28657" lon="-2.23454">
        <ele>6.8000001907349</ele>
        <time>2019-06-30T09:23:52.000Z</time>
      </trkpt>
      <trkpt lat="47.28656" lon="-2.23459">
        <ele>6.8000001907349</ele>
        <time>2019-06-30T09:23:53.000Z</time>
      </trkpt>
      <trkpt lat="47.28653" lon="-2.23477">
        <ele>6.8000001907349</ele>
        <time>2019-06-30T09:23:56.000Z</time>
      </trkpt>
      <trkpt lat="47.2865" lon="-2.23513">
        <ele>6.8000001907349</ele>
        <time>2019-06-30T09:24:02.000Z</time>
      </trkpt>
      <trkpt lat="47.28647" lon="-2.23544">
        <ele>6.8000001907349</ele>
        <time>2019-06-30T09:24:07.000Z</time>
      </trkpt>
      <trkpt lat="47.28646" lon="-2.23556">
        <ele>6.8000001907349</ele>
        <time>2019-06-30T09:24:10.000Z</time>
      </trkpt>
      <trkpt lat="47.28647" lon="-2.23558">
        <ele>6.8000001907349</ele>
        <time>2019-06-30T09:24:11.000Z</time>
      </trkpt>
      <trkpt lat="47.28659" lon="-2.23561">
        <ele>6.8000001907349</ele>
        <time>2019-06-30T09:24:14.000Z</time>
      </trkpt>
      <trkpt lat="47.28674" lon="-2.23573">
        <ele>6.8000001907349</ele>
        <time>2019-06-30T09:24:18.000Z</time>
      </trkpt>
      <trkpt lat="47.28682" lon="-2.23583">
        <ele>6.8000001907349</ele>
        <time>2019-06-30T09:24:20.000Z</time>
      </trkpt>
      <trkpt lat="47.28689" lon="-2.23592">
        <ele>6.8000001907349</ele>
        <time>2019-06-30T09:24:22.000Z</time>
      </trkpt>
      <trkpt lat="47.28693" lon="-2.23594">
        <ele>6.8000001907349</ele>
        <time>2019-06-30T09:24:23.000Z</time>
      </trkpt>
      <trkpt lat="47.28706" lon="-2.23588">
        <ele>6.8000001907349</ele>
        <time>2019-06-30T09:24:26.000Z</time>
      </trkpt>
      <trkpt lat="47.2871" lon="-2.23585">
        <ele>6.8000001907349</ele>
        <time>2019-06-30T09:24:27.000Z</time>
      </trkpt>
      <trkpt lat="47.28714" lon="-2.23582">
        <ele>6.8000001907349</ele>
        <time>2019-06-30T09:24:28.000Z</time>
      </trkpt>
      <trkpt lat="47.28722" lon="-2.23568">
        <ele>6.8000001907349</ele>
        <time>2019-06-30T09:24:31.000Z</time>
      </trkpt>
      <trkpt lat="47.28724" lon="-2.23562">
        <ele>6.8000001907349</ele>
        <time>2019-06-30T09:24:32.000Z</time>
      </trkpt>
      <trkpt lat="47.28736" lon="-2.23541">
        <ele>6.8000001907349</ele>
        <time>2019-06-30T09:24:37.000Z</time>
      </trkpt>
      <trkpt lat="47.28742" lon="-2.23535">
        <ele>7.1999998092651</ele>
        <time>2019-06-30T09:24:39.000Z</time>
      </trkpt>
      <trkpt lat="47.28746" lon="-2.23532">
        <ele>7.5999999046326</ele>
        <time>2019-06-30T09:24:40.000Z</time>
      </trkpt>
      <trkpt lat="47.2875" lon="-2.2353">
        <ele>8</ele>
        <time>2019-06-30T09:24:41.000Z</time>
      </trkpt>
      <trkpt lat="47.28754" lon="-2.23527">
        <ele>8.3999996185303</ele>
        <time>2019-06-30T09:24:42.000Z</time>
      </trkpt>
      <trkpt lat="47.28759" lon="-2.23524">
        <ele>8.8000001907349</ele>
        <time>2019-06-30T09:24:43.000Z</time>
      </trkpt>
      <trkpt lat="47.28769" lon="-2.2352">
        <ele>8.8000001907349</ele>
        <time>2019-06-30T09:24:45.000Z</time>
      </trkpt>
      <trkpt lat="47.28774" lon="-2.23518">
        <ele>9.1999998092651</ele>
        <time>2019-06-30T09:24:46.000Z</time>
      </trkpt>
      <trkpt lat="47.28779" lon="-2.23516">
        <ele>9.6000003814697</ele>
        <time>2019-06-30T09:24:47.000Z</time>
      </trkpt>
      <trkpt lat="47.28783" lon="-2.23514">
        <ele>10</ele>
        <time>2019-06-30T09:24:48.000Z</time>
      </trkpt>
      <trkpt lat="47.28787" lon="-2.23513">
        <ele>11</ele>
        <time>2019-06-30T09:24:49.000Z</time>
      </trkpt>
      <trkpt lat="47.28796" lon="-2.23511">
        <ele>11</ele>
        <time>2019-06-30T09:24:51.000Z</time>
      </trkpt>
      <trkpt lat="47.28805" lon="-2.2351">
        <ele>11</ele>
        <time>2019-06-30T09:24:53.000Z</time>
      </trkpt>
      <trkpt lat="47.28815" lon="-2.23509">
        <ele>11</ele>
        <time>2019-06-30T09:24:55.000Z</time>
      </trkpt>
      <trkpt lat="47.2883" lon="-2.23508">
        <ele>11.39999961853</ele>
        <time>2019-06-30T09:24:58.000Z</time>
      </trkpt>
      <trkpt lat="47.28835" lon="-2.23507">
        <ele>11.800000190735</ele>
        <time>2019-06-30T09:24:59.000Z</time>
      </trkpt>
      <trkpt lat="47.28839" lon="-2.23507">
        <ele>12.199999809265</ele>
        <time>2019-06-30T09:25:00.000Z</time>
      </trkpt>
      <trkpt lat="47.28843" lon="-2.23507">
        <ele>12.60000038147</ele>
        <time>2019-06-30T09:25:01.000Z</time>
      </trkpt>
      <trkpt lat="47.28847" lon="-2.23506">
        <ele>13</ele>
        <time>2019-06-30T09:25:02.000Z</time>
      </trkpt>
      <trkpt lat="47.28861" lon="-2.23506">
        <ele>13</ele>
        <time>2019-06-30T09:25:05.000Z</time>
      </trkpt>
      <trkpt lat="47.28866" lon="-2.23506">
        <ele>13</ele>
        <time>2019-06-30T09:25:06.000Z</time>
      </trkpt>
      <trkpt lat="47.28888" lon="-2.23505">
        <ele>13</ele>
        <time>2019-06-30T09:25:11.000Z</time>
      </trkpt>
      <trkpt lat="47.28896" lon="-2.23503">
        <ele>13.39999961853</ele>
        <time>2019-06-30T09:25:13.000Z</time>
      </trkpt>
      <trkpt lat="47.28899" lon="-2.23502">
        <ele>14.199999809265</ele>
        <time>2019-06-30T09:25:14.000Z</time>
      </trkpt>
      <trkpt lat="47.28903" lon="-2.23501">
        <ele>14.60000038147</ele>
        <time>2019-06-30T09:25:15.000Z</time>
      </trkpt>
      <trkpt lat="47.28908" lon="-2.235">
        <ele>15</ele>
        <time>2019-06-30T09:25:16.000Z</time>
      </trkpt>
      <trkpt lat="47.28916" lon="-2.23497">
        <ele>15</ele>
        <time>2019-06-30T09:25:18.000Z</time>
      </trkpt>
      <trkpt lat="47.28925" lon="-2.23494">
        <ele>15</ele>
        <time>2019-06-30T09:25:20.000Z</time>
      </trkpt>
      <trkpt lat="47.28952" lon="-2.23488">
        <ele>15</ele>
        <time>2019-06-30T09:25:26.000Z</time>
      </trkpt>
      <trkpt lat="47.28955" lon="-2.23485">
        <ele>15</ele>
        <time>2019-06-30T09:25:27.000Z</time>
      </trkpt>
      <trkpt lat="47.28957" lon="-2.23474">
        <ele>15</ele>
        <time>2019-06-30T09:25:29.000Z</time>
      </trkpt>
      <trkpt lat="47.28963" lon="-2.23427">
        <ele>15</ele>
        <time>2019-06-30T09:25:36.000Z</time>
      </trkpt>
      <trkpt lat="47.28969" lon="-2.23367">
        <ele>15</ele>
        <time>2019-06-30T09:25:44.000Z</time>
      </trkpt>
      <trkpt lat="47.28973" lon="-2.23303">
        <ele>15</ele>
        <time>2019-06-30T09:25:51.000Z</time>
      </trkpt>
      <trkpt lat="47.2898" lon="-2.23224">
        <ele>15</ele>
        <time>2019-06-30T09:25:59.000Z</time>
      </trkpt>
      <trkpt lat="47.28982" lon="-2.23203">
        <ele>14.60000038147</ele>
        <time>2019-06-30T09:26:01.000Z</time>
      </trkpt>
      <trkpt lat="47.28983" lon="-2.23193">
        <ele>14.199999809265</ele>
        <time>2019-06-30T09:26:02.000Z</time>
      </trkpt>
      <trkpt lat="47.28984" lon="-2.23182">
        <ele>13.199999809265</ele>
        <time>2019-06-30T09:26:03.000Z</time>
      </trkpt>
      <trkpt lat="47.28986" lon="-2.2317">
        <ele>12.800000190735</ele>
        <time>2019-06-30T09:26:04.000Z</time>
      </trkpt>
      <trkpt lat="47.28995" lon="-2.23102">
        <ele>12.800000190735</ele>
        <time>2019-06-30T09:26:10.000Z</time>
      </trkpt>
      <trkpt lat="47.28997" lon="-2.23091">
        <ele>12.39999961853</ele>
        <time>2019-06-30T09:26:11.000Z</time>
      </trkpt>
      <trkpt lat="47.28999" lon="-2.2308">
        <ele>12</ele>
        <time>2019-06-30T09:26:12.000Z</time>
      </trkpt>
      <trkpt lat="47.29001" lon="-2.23068">
        <ele>11.60000038147</ele>
        <time>2019-06-30T09:26:13.000Z</time>
      </trkpt>
      <trkpt lat="47.29004" lon="-2.23057">
        <ele>11.199999809265</ele>
        <time>2019-06-30T09:26:14.000Z</time>
      </trkpt>
      <trkpt lat="47.29007" lon="-2.23047">
        <ele>10.60000038147</ele>
        <time>2019-06-30T09:26:15.000Z</time>
      </trkpt>
      <trkpt lat="47.2901" lon="-2.23036">
        <ele>10.60000038147</ele>
        <time>2019-06-30T09:26:16.000Z</time>
      </trkpt>
      <trkpt lat="47.29013" lon="-2.23025">
        <ele>10.199999809265</ele>
        <time>2019-06-30T09:26:17.000Z</time>
      </trkpt>
      <trkpt lat="47.29016" lon="-2.23014">
        <ele>9.8000001907349</ele>
        <time>2019-06-30T09:26:18.000Z</time>
      </trkpt>
      <trkpt lat="47.29019" lon="-2.23004">
        <ele>9.3999996185303</ele>
        <time>2019-06-30T09:26:19.000Z</time>
      </trkpt>
      <trkpt lat="47.29022" lon="-2.22996">
        <ele>9</ele>
        <time>2019-06-30T09:26:20.000Z</time>
      </trkpt>
      <trkpt lat="47.29024" lon="-2.22988">
        <ele>8.6000003814697</ele>
        <time>2019-06-30T09:26:21.000Z</time>
      </trkpt>
      <trkpt lat="47.29028" lon="-2.22975">
        <ele>8.6000003814697</ele>
        <time>2019-06-30T09:26:23.000Z</time>
      </trkpt>
      <trkpt lat="47.29036" lon="-2.22976">
        <ele>8.6000003814697</ele>
        <time>2019-06-30T09:26:25.000Z</time>
      </trkpt>
      <trkpt lat="47.29043" lon="-2.22988">
        <ele>8</ele>
        <time>2019-06-30T09:26:27.000Z</time>
      </trkpt>
      <trkpt lat="47.29047" lon="-2.22994">
        <ele>7</ele>
        <time>2019-06-30T09:26:28.000Z</time>
      </trkpt>
      <trkpt lat="47.29051" lon="-2.23001">
        <ele>6.5999999046326</ele>
        <time>2019-06-30T09:26:29.000Z</time>
      </trkpt>
      <trkpt lat="47.29056" lon="-2.23007">
        <ele>6.1999998092651</ele>
        <time>2019-06-30T09:26:30.000Z</time>
      </trkpt>
      <trkpt lat="47.29082" lon="-2.23034">
        <ele>6.1999998092651</ele>
        <time>2019-06-30T09:26:35.000Z</time>
      </trkpt>
      <trkpt lat="47.29109" lon="-2.23063">
        <ele>6.1999998092651</ele>
        <time>2019-06-30T09:26:40.000Z</time>
      </trkpt>
      <trkpt lat="47.29143" lon="-2.23106">
        <ele>6.1999998092651</ele>
        <time>2019-06-30T09:26:47.000Z</time>
      </trkpt>
      <trkpt lat="47.29147" lon="-2.23113">
        <ele>6.1999998092651</ele>
        <time>2019-06-30T09:26:48.000Z</time>
      </trkpt>
      <trkpt lat="47.29169" lon="-2.23145">
        <ele>6.1999998092651</ele>
        <time>2019-06-30T09:26:53.000Z</time>
      </trkpt>
      <trkpt lat="47.29181" lon="-2.23164">
        <ele>6.1999998092651</ele>
        <time>2019-06-30T09:26:56.000Z</time>
      </trkpt>
      <trkpt lat="47.29192" lon="-2.23186">
        <ele>6.1999998092651</ele>
        <time>2019-06-30T09:26:59.000Z</time>
      </trkpt>
      <trkpt lat="47.29199" lon="-2.23201">
        <ele>6.1999998092651</ele>
        <time>2019-06-30T09:27:01.000Z</time>
      </trkpt>
      <trkpt lat="47.29203" lon="-2.23218">
        <ele>6.1999998092651</ele>
        <time>2019-06-30T09:27:03.000Z</time>
      </trkpt>
      <trkpt lat="47.29213" lon="-2.23239">
        <ele>6.1999998092651</ele>
        <time>2019-06-30T09:27:06.000Z</time>
      </trkpt>
      <trkpt lat="47.29218" lon="-2.23246">
        <ele>6.1999998092651</ele>
        <time>2019-06-30T09:27:07.000Z</time>
      </trkpt>
      <trkpt lat="47.29245" lon="-2.23281">
        <ele>6.1999998092651</ele>
        <time>2019-06-30T09:27:13.000Z</time>
      </trkpt>
      <trkpt lat="47.29253" lon="-2.23295">
        <ele>6.1999998092651</ele>
        <time>2019-06-30T09:27:15.000Z</time>
      </trkpt>
      <trkpt lat="47.29261" lon="-2.23317">
        <ele>6.1999998092651</ele>
        <time>2019-06-30T09:27:18.000Z</time>
      </trkpt>
      <trkpt lat="47.29274" lon="-2.23367">
        <ele>6.1999998092651</ele>
        <time>2019-06-30T09:27:25.000Z</time>
      </trkpt>
      <trkpt lat="47.29277" lon="-2.2339">
        <ele>6.1999998092651</ele>
        <time>2019-06-30T09:27:28.000Z</time>
      </trkpt>
      <trkpt lat="47.29282" lon="-2.23413">
        <ele>6.1999998092651</ele>
        <time>2019-06-30T09:27:31.000Z</time>
      </trkpt>
      <trkpt lat="47.29293" lon="-2.23466">
        <ele>6.1999998092651</ele>
        <time>2019-06-30T09:27:38.000Z</time>
      </trkpt>
      <trkpt lat="47.29302" lon="-2.23513">
        <ele>6.1999998092651</ele>
        <time>2019-06-30T09:27:44.000Z</time>
      </trkpt>
      <trkpt lat="47.2931" lon="-2.23564">
        <ele>6.1999998092651</ele>
        <time>2019-06-30T09:27:51.000Z</time>
      </trkpt>
      <trkpt lat="47.29313" lon="-2.23601">
        <ele>6.1999998092651</ele>
        <time>2019-06-30T09:27:57.000Z</time>
      </trkpt>
      <trkpt lat="47.29313" lon="-2.23607">
        <ele>6.1999998092651</ele>
        <time>2019-06-30T09:27:58.000Z</time>
      </trkpt>
      <trkpt lat="47.29313" lon="-2.23656">
        <ele>6.1999998092651</ele>
        <time>2019-06-30T09:28:06.000Z</time>
      </trkpt>
      <trkpt lat="47.29313" lon="-2.2369">
        <ele>6.1999998092651</ele>
        <time>2019-06-30T09:28:13.000Z</time>
      </trkpt>
      <trkpt lat="47.29315" lon="-2.23722">
        <ele>6.1999998092651</ele>
        <time>2019-06-30T09:28:20.000Z</time>
      </trkpt>
      <trkpt lat="47.29315" lon="-2.23757">
        <ele>6.1999998092651</ele>
        <time>2019-06-30T09:28:27.000Z</time>
      </trkpt>
      <trkpt lat="47.29316" lon="-2.23794">
        <ele>6.1999998092651</ele>
        <time>2019-06-30T09:28:35.000Z</time>
      </trkpt>
      <trkpt lat="47.29317" lon="-2.23833">
        <ele>6.1999998092651</ele>
        <time>2019-06-30T09:28:42.000Z</time>
      </trkpt>
      <trkpt lat="47.2932" lon="-2.23863">
        <ele>6.1999998092651</ele>
        <time>2019-06-30T09:28:47.000Z</time>
      </trkpt>
      <trkpt lat="47.29324" lon="-2.2388">
        <ele>6.1999998092651</ele>
        <time>2019-06-30T09:28:50.000Z</time>
      </trkpt>
      <trkpt lat="47.29343" lon="-2.23924">
        <ele>6.1999998092651</ele>
        <time>2019-06-30T09:28:58.000Z</time>
      </trkpt>
      <trkpt lat="47.2936" lon="-2.23953">
        <ele>6.1999998092651</ele>
        <time>2019-06-30T09:29:03.000Z</time>
      </trkpt>
      <trkpt lat="47.29361" lon="-2.2396">
        <ele>6.1999998092651</ele>
        <time>2019-06-30T09:29:04.000Z</time>
      </trkpt>
      <trkpt lat="47.29358" lon="-2.23972">
        <ele>6.1999998092651</ele>
        <time>2019-06-30T09:29:06.000Z</time>
      </trkpt>
      <trkpt lat="47.29346" lon="-2.23974">
        <ele>6.1999998092651</ele>
        <time>2019-06-30T09:29:09.000Z</time>
      </trkpt>
      <trkpt lat="47.29316" lon="-2.23971">
        <ele>6.1999998092651</ele>
        <time>2019-06-30T09:29:15.000Z</time>
      </trkpt>
      <trkpt lat="47.2929" lon="-2.23963">
        <ele>6.1999998092651</ele>
        <time>2019-06-30T09:29:20.000Z</time>
      </trkpt>
      <trkpt lat="47.29286" lon="-2.23962">
        <ele>6.1999998092651</ele>
        <time>2019-06-30T09:29:21.000Z</time>
      </trkpt>
      <trkpt lat="47.29271" lon="-2.23962">
        <ele>6.1999998092651</ele>
        <time>2019-06-30T09:29:24.000Z</time>
      </trkpt>
      <trkpt lat="47.29262" lon="-2.23965">
        <ele>6.1999998092651</ele>
        <time>2019-06-30T09:29:26.000Z</time>
      </trkpt>
      <trkpt lat="47.29254" lon="-2.2397">
        <ele>6.1999998092651</ele>
        <time>2019-06-30T09:29:28.000Z</time>
      </trkpt>
      <trkpt lat="47.29243" lon="-2.23981">
        <ele>6.1999998092651</ele>
        <time>2019-06-30T09:29:31.000Z</time>
      </trkpt>
      <trkpt lat="47.29228" lon="-2.24002">
        <ele>6.1999998092651</ele>
        <time>2019-06-30T09:29:37.000Z</time>
      </trkpt>
      <trkpt lat="47.29207" lon="-2.24023">
        <ele>6.1999998092651</ele>
        <time>2019-06-30T09:29:43.000Z</time>
      </trkpt>
      <trkpt lat="47.29202" lon="-2.24027">
        <ele>7</ele>
        <time>2019-06-30T09:29:44.000Z</time>
      </trkpt>
      <trkpt lat="47.29198" lon="-2.2403">
        <ele>7.4000000953674</ele>
        <time>2019-06-30T09:29:45.000Z</time>
      </trkpt>
      <trkpt lat="47.29195" lon="-2.24033">
        <ele>7.8000001907349</ele>
        <time>2019-06-30T09:29:46.000Z</time>
      </trkpt>
      <trkpt lat="47.29191" lon="-2.24036">
        <ele>8.1999998092651</ele>
        <time>2019-06-30T09:29:47.000Z</time>
      </trkpt>
      <trkpt lat="47.29183" lon="-2.24042">
        <ele>8.1999998092651</ele>
        <time>2019-06-30T09:29:49.000Z</time>
      </trkpt>
      <trkpt lat="47.29165" lon="-2.24053">
        <ele>8.1999998092651</ele>
        <time>2019-06-30T09:29:53.000Z</time>
      </trkpt>
      <trkpt lat="47.2916" lon="-2.24055">
        <ele>8.6000003814697</ele>
        <time>2019-06-30T09:29:54.000Z</time>
      </trkpt>
      <trkpt lat="47.29156" lon="-2.24058">
        <ele>9</ele>
        <time>2019-06-30T09:29:55.000Z</time>
      </trkpt>
      <trkpt lat="47.2915" lon="-2.2406">
        <ele>9.6000003814697</ele>
        <time>2019-06-30T09:29:56.000Z</time>
      </trkpt>
      <trkpt lat="47.29145" lon="-2.24063">
        <ele>10</ele>
        <time>2019-06-30T09:29:57.000Z</time>
      </trkpt>
      <trkpt lat="47.2914" lon="-2.24065">
        <ele>10.39999961853</ele>
        <time>2019-06-30T09:29:58.000Z</time>
      </trkpt>
      <trkpt lat="47.29132" lon="-2.24072">
        <ele>10.39999961853</ele>
        <time>2019-06-30T09:30:00.000Z</time>
      </trkpt>
      <trkpt lat="47.29129" lon="-2.24077">
        <ele>10.39999961853</ele>
        <time>2019-06-30T09:30:01.000Z</time>
      </trkpt>
      <trkpt lat="47.29127" lon="-2.24087">
        <ele>10.800000190735</ele>
        <time>2019-06-30T09:30:03.000Z</time>
      </trkpt>
      <trkpt lat="47.29128" lon="-2.24093">
        <ele>11.199999809265</ele>
        <time>2019-06-30T09:30:04.000Z</time>
      </trkpt>
      <trkpt lat="47.29129" lon="-2.24098">
        <ele>11.60000038147</ele>
        <time>2019-06-30T09:30:05.000Z</time>
      </trkpt>
      <trkpt lat="47.2913" lon="-2.24104">
        <ele>12</ele>
        <time>2019-06-30T09:30:06.000Z</time>
      </trkpt>
      <trkpt lat="47.29132" lon="-2.2411">
        <ele>12.39999961853</ele>
        <time>2019-06-30T09:30:07.000Z</time>
      </trkpt>
      <trkpt lat="47.29135" lon="-2.24141">
        <ele>12.39999961853</ele>
        <time>2019-06-30T09:30:12.000Z</time>
      </trkpt>
      <trkpt lat="47.29144" lon="-2.24179">
        <ele>12.39999961853</ele>
        <time>2019-06-30T09:30:18.000Z</time>
      </trkpt>
      <trkpt lat="47.2915" lon="-2.24209">
        <ele>12.39999961853</ele>
        <time>2019-06-30T09:30:22.000Z</time>
      </trkpt>
      <trkpt lat="47.29156" lon="-2.24227">
        <ele>12.39999961853</ele>
        <time>2019-06-30T09:30:24.000Z</time>
      </trkpt>
      <trkpt lat="47.29172" lon="-2.24281">
        <ele>12.39999961853</ele>
        <time>2019-06-30T09:30:31.000Z</time>
      </trkpt>
      <trkpt lat="47.29177" lon="-2.24294">
        <ele>12.39999961853</ele>
        <time>2019-06-30T09:30:33.000Z</time>
      </trkpt>
      <trkpt lat="47.29188" lon="-2.24326">
        <ele>12.39999961853</ele>
        <time>2019-06-30T09:30:37.000Z</time>
      </trkpt>
      <trkpt lat="47.29208" lon="-2.24376">
        <ele>12.39999961853</ele>
        <time>2019-06-30T09:30:44.000Z</time>
      </trkpt>
      <trkpt lat="47.29223" lon="-2.24424">
        <ele>12.39999961853</ele>
        <time>2019-06-30T09:30:51.000Z</time>
      </trkpt>
      <trkpt lat="47.2923" lon="-2.24454">
        <ele>12.39999961853</ele>
        <time>2019-06-30T09:30:56.000Z</time>
      </trkpt>
      <trkpt lat="47.29239" lon="-2.24472">
        <ele>12.39999961853</ele>
        <time>2019-06-30T09:31:01.000Z</time>
      </trkpt>
      <trkpt lat="47.29249" lon="-2.24471">
        <ele>12.39999961853</ele>
        <time>2019-06-30T09:31:05.000Z</time>
      </trkpt>
      <trkpt lat="47.29252" lon="-2.24469">
        <ele>12.39999961853</ele>
        <time>2019-06-30T09:31:06.000Z</time>
      </trkpt>
      <trkpt lat="47.29268" lon="-2.24464">
        <ele>12.39999961853</ele>
        <time>2019-06-30T09:31:12.000Z</time>
      </trkpt>
      <trkpt lat="47.29281" lon="-2.24455">
        <ele>12.39999961853</ele>
        <time>2019-06-30T09:31:17.000Z</time>
      </trkpt>
      <trkpt lat="47.29298" lon="-2.24444">
        <ele>12.39999961853</ele>
        <time>2019-06-30T09:31:23.000Z</time>
      </trkpt>
      <trkpt lat="47.29301" lon="-2.24441">
        <ele>12.39999961853</ele>
        <time>2019-06-30T09:31:26.000Z</time>
      </trkpt>
      <trkpt lat="47.29307" lon="-2.2445">
        <ele>12.39999961853</ele>
        <time>2019-06-30T09:32:19.000Z</time>
      </trkpt>
      <trkpt lat="47.29308" lon="-2.24452">
        <ele>12.39999961853</ele>
        <time>2019-06-30T09:32:22.000Z</time>
      </trkpt>
      <trkpt lat="47.29307" lon="-2.24446">
        <ele>12.39999961853</ele>
        <time>2019-06-30T09:35:37.000Z</time>
      </trkpt>
      <trkpt lat="47.29304" lon="-2.24447">
        <ele>12.39999961853</ele>
        <time>2019-06-30T09:35:39.000Z</time>
      </trkpt>
      <trkpt lat="47.293" lon="-2.24452">
        <ele>12.39999961853</ele>
        <time>2019-06-30T09:35:41.000Z</time>
      </trkpt>
      <trkpt lat="47.29298" lon="-2.24456">
        <ele>12.39999961853</ele>
        <time>2019-06-30T09:35:42.000Z</time>
      </trkpt>
      <trkpt lat="47.29296" lon="-2.2446">
        <ele>12.39999961853</ele>
        <time>2019-06-30T09:35:43.000Z</time>
      </trkpt>
      <trkpt lat="47.29294" lon="-2.2448">
        <ele>12.39999961853</ele>
        <time>2019-06-30T09:35:46.000Z</time>
      </trkpt>
      <trkpt lat="47.29296" lon="-2.245">
        <ele>12.39999961853</ele>
        <time>2019-06-30T09:35:49.000Z</time>
      </trkpt>
      <trkpt lat="47.29297" lon="-2.24515">
        <ele>12.39999961853</ele>
        <time>2019-06-30T09:35:51.000Z</time>
      </trkpt>
      <trkpt lat="47.293" lon="-2.24547">
        <ele>12.39999961853</ele>
        <time>2019-06-30T09:35:55.000Z</time>
      </trkpt>
      <trkpt lat="47.29301" lon="-2.24555">
        <ele>12.39999961853</ele>
        <time>2019-06-30T09:35:56.000Z</time>
      </trkpt>
      <trkpt lat="47.29304" lon="-2.24607">
        <ele>12.39999961853</ele>
        <time>2019-06-30T09:36:02.000Z</time>
      </trkpt>
      <trkpt lat="47.29303" lon="-2.24614">
        <ele>12.39999961853</ele>
        <time>2019-06-30T09:36:03.000Z</time>
      </trkpt>
      <trkpt lat="47.29302" lon="-2.24642">
        <ele>12.39999961853</ele>
        <time>2019-06-30T09:36:07.000Z</time>
      </trkpt>
      <trkpt lat="47.293" lon="-2.24664">
        <ele>12.39999961853</ele>
        <time>2019-06-30T09:36:10.000Z</time>
      </trkpt>
      <trkpt lat="47.29303" lon="-2.24678">
        <ele>12.800000190735</ele>
        <time>2019-06-30T09:36:12.000Z</time>
      </trkpt>
      <trkpt lat="47.29304" lon="-2.24685">
        <ele>13.199999809265</ele>
        <time>2019-06-30T09:36:13.000Z</time>
      </trkpt>
      <trkpt lat="47.29306" lon="-2.24691">
        <ele>13.60000038147</ele>
        <time>2019-06-30T09:36:14.000Z</time>
      </trkpt>
      <trkpt lat="47.29307" lon="-2.24697">
        <ele>14</ele>
        <time>2019-06-30T09:36:15.000Z</time>
      </trkpt>
      <trkpt lat="47.29309" lon="-2.24703">
        <ele>14.39999961853</ele>
        <time>2019-06-30T09:36:16.000Z</time>
      </trkpt>
      <trkpt lat="47.29311" lon="-2.24709">
        <ele>14.39999961853</ele>
        <time>2019-06-30T09:36:17.000Z</time>
      </trkpt>
      <trkpt lat="47.29314" lon="-2.24735">
        <ele>14.39999961853</ele>
        <time>2019-06-30T09:36:21.000Z</time>
      </trkpt>
      <trkpt lat="47.29316" lon="-2.24743">
        <ele>14.39999961853</ele>
        <time>2019-06-30T09:36:22.000Z</time>
      </trkpt>
      <trkpt lat="47.29324" lon="-2.24763">
        <ele>14.39999961853</ele>
        <time>2019-06-30T09:36:25.000Z</time>
      </trkpt>
      <trkpt lat="47.29329" lon="-2.24774">
        <ele>14.39999961853</ele>
        <time>2019-06-30T09:36:27.000Z</time>
      </trkpt>
      <trkpt lat="47.29331" lon="-2.2478">
        <ele>14.39999961853</ele>
        <time>2019-06-30T09:36:28.000Z</time>
      </trkpt>
      <trkpt lat="47.29335" lon="-2.24793">
        <ele>14.39999961853</ele>
        <time>2019-06-30T09:36:30.000Z</time>
      </trkpt>
      <trkpt lat="47.29338" lon="-2.24814">
        <ele>14.39999961853</ele>
        <time>2019-06-30T09:36:33.000Z</time>
      </trkpt>
      <trkpt lat="47.29341" lon="-2.24829">
        <ele>14.39999961853</ele>
        <time>2019-06-30T09:36:35.000Z</time>
      </trkpt>
      <trkpt lat="47.29342" lon="-2.24838">
        <ele>14.39999961853</ele>
        <time>2019-06-30T09:36:36.000Z</time>
      </trkpt>
      <trkpt lat="47.29343" lon="-2.24874">
        <ele>14.39999961853</ele>
        <time>2019-06-30T09:36:40.000Z</time>
      </trkpt>
      <trkpt lat="47.29335" lon="-2.24902">
        <ele>14.39999961853</ele>
        <time>2019-06-30T09:36:44.000Z</time>
      </trkpt>
      <trkpt lat="47.29331" lon="-2.24906">
        <ele>14.39999961853</ele>
        <time>2019-06-30T09:36:45.000Z</time>
      </trkpt>
      <trkpt lat="47.29315" lon="-2.24912">
        <ele>14.39999961853</ele>
        <time>2019-06-30T09:36:48.000Z</time>
      </trkpt>
      <trkpt lat="47.2931" lon="-2.24913">
        <ele>14.39999961853</ele>
        <time>2019-06-30T09:36:49.000Z</time>
      </trkpt>
      <trkpt lat="47.29299" lon="-2.24915">
        <ele>15</ele>
        <time>2019-06-30T09:36:51.000Z</time>
      </trkpt>
      <trkpt lat="47.29294" lon="-2.24916">
        <ele>15.39999961853</ele>
        <time>2019-06-30T09:36:52.000Z</time>
      </trkpt>
      <trkpt lat="47.29289" lon="-2.24917">
        <ele>15.800000190735</ele>
        <time>2019-06-30T09:36:53.000Z</time>
      </trkpt>
      <trkpt lat="47.29284" lon="-2.24917">
        <ele>16.200000762939</ele>
        <time>2019-06-30T09:36:54.000Z</time>
      </trkpt>
      <trkpt lat="47.29279" lon="-2.24917">
        <ele>16.60000038147</ele>
        <time>2019-06-30T09:36:55.000Z</time>
      </trkpt>
      <trkpt lat="47.29275" lon="-2.24917">
        <ele>16.60000038147</ele>
        <time>2019-06-30T09:36:56.000Z</time>
      </trkpt>
      <trkpt lat="47.2927" lon="-2.24918">
        <ele>16.60000038147</ele>
        <time>2019-06-30T09:36:57.000Z</time>
      </trkpt>
      <trkpt lat="47.2926" lon="-2.24929">
        <ele>16.60000038147</ele>
        <time>2019-06-30T09:37:00.000Z</time>
      </trkpt>
      <trkpt lat="47.2926" lon="-2.2495">
        <ele>16.60000038147</ele>
        <time>2019-06-30T09:37:03.000Z</time>
      </trkpt>
      <trkpt lat="47.29262" lon="-2.24958">
        <ele>16.60000038147</ele>
        <time>2019-06-30T09:37:04.000Z</time>
      </trkpt>
      <trkpt lat="47.29271" lon="-2.25004">
        <ele>16.60000038147</ele>
        <time>2019-06-30T09:37:10.000Z</time>
      </trkpt>
      <trkpt lat="47.29275" lon="-2.25021">
        <ele>16.60000038147</ele>
        <time>2019-06-30T09:37:12.000Z</time>
      </trkpt>
      <trkpt lat="47.29284" lon="-2.25057">
        <ele>16.60000038147</ele>
        <time>2019-06-30T09:37:16.000Z</time>
      </trkpt>
      <trkpt lat="47.29297" lon="-2.25119">
        <ele>16.60000038147</ele>
        <time>2019-06-30T09:37:22.000Z</time>
      </trkpt>
      <trkpt lat="47.29307" lon="-2.25175">
        <ele>16</ele>
        <time>2019-06-30T09:37:27.000Z</time>
      </trkpt>
      <trkpt lat="47.29308" lon="-2.25184">
        <ele>15.60000038147</ele>
        <time>2019-06-30T09:37:28.000Z</time>
      </trkpt>
      <trkpt lat="47.29311" lon="-2.25191">
        <ele>15.199999809265</ele>
        <time>2019-06-30T09:37:29.000Z</time>
      </trkpt>
      <trkpt lat="47.29315" lon="-2.25195">
        <ele>14.60000038147</ele>
        <time>2019-06-30T09:37:30.000Z</time>
      </trkpt>
      <trkpt lat="47.2932" lon="-2.25195">
        <ele>14.199999809265</ele>
        <time>2019-06-30T09:37:31.000Z</time>
      </trkpt>
      <trkpt lat="47.2933" lon="-2.25193">
        <ele>14.199999809265</ele>
        <time>2019-06-30T09:37:33.000Z</time>
      </trkpt>
      <trkpt lat="47.29341" lon="-2.25193">
        <ele>14.199999809265</ele>
        <time>2019-06-30T09:37:35.000Z</time>
      </trkpt>
      <trkpt lat="47.29363" lon="-2.25198">
        <ele>14.199999809265</ele>
        <time>2019-06-30T09:37:39.000Z</time>
      </trkpt>
      <trkpt lat="47.29405" lon="-2.2521">
        <ele>14.199999809265</ele>
        <time>2019-06-30T09:37:46.000Z</time>
      </trkpt>
      <trkpt lat="47.29411" lon="-2.25211">
        <ele>14.199999809265</ele>
        <time>2019-06-30T09:37:47.000Z</time>
      </trkpt>
      <trkpt lat="47.29428" lon="-2.25207">
        <ele>14.199999809265</ele>
        <time>2019-06-30T09:37:50.000Z</time>
      </trkpt>
      <trkpt lat="47.29433" lon="-2.25205">
        <ele>14.199999809265</ele>
        <time>2019-06-30T09:37:51.000Z</time>
      </trkpt>
      <trkpt lat="47.2945" lon="-2.25201">
        <ele>14.199999809265</ele>
        <time>2019-06-30T09:37:54.000Z</time>
      </trkpt>
      <trkpt lat="47.29455" lon="-2.252">
        <ele>14.199999809265</ele>
        <time>2019-06-30T09:37:55.000Z</time>
      </trkpt>
      <trkpt lat="47.29483" lon="-2.25193">
        <ele>14.199999809265</ele>
        <time>2019-06-30T09:38:00.000Z</time>
      </trkpt>
      <trkpt lat="47.29501" lon="-2.25188">
        <ele>14.60000038147</ele>
        <time>2019-06-30T09:38:03.000Z</time>
      </trkpt>
      <trkpt lat="47.29507" lon="-2.25186">
        <ele>15</ele>
        <time>2019-06-30T09:38:04.000Z</time>
      </trkpt>
      <trkpt lat="47.29512" lon="-2.25184">
        <ele>15.39999961853</ele>
        <time>2019-06-30T09:38:05.000Z</time>
      </trkpt>
      <trkpt lat="47.29517" lon="-2.25181">
        <ele>15.800000190735</ele>
        <time>2019-06-30T09:38:06.000Z</time>
      </trkpt>
      <trkpt lat="47.29522" lon="-2.25179">
        <ele>16.200000762939</ele>
        <time>2019-06-30T09:38:07.000Z</time>
      </trkpt>
      <trkpt lat="47.29534" lon="-2.25176">
        <ele>16.200000762939</ele>
        <time>2019-06-30T09:38:10.000Z</time>
      </trkpt>
      <trkpt lat="47.2954" lon="-2.25177">
        <ele>16.200000762939</ele>
        <time>2019-06-30T09:38:13.000Z</time>
      </trkpt>
      <trkpt lat="47.29542" lon="-2.25179">
        <ele>16.200000762939</ele>
        <time>2019-06-30T09:38:15.000Z</time>
      </trkpt>
      <trkpt lat="47.29547" lon="-2.25177">
        <ele>16.200000762939</ele>
        <time>2019-06-30T09:38:28.000Z</time>
      </trkpt>
      <trkpt lat="47.29548" lon="-2.2518">
        <ele>16.200000762939</ele>
        <time>2019-06-30T09:38:30.000Z</time>
      </trkpt>
      <trkpt lat="47.29547" lon="-2.25181">
        <ele>16.200000762939</ele>
        <time>2019-06-30T09:38:32.000Z</time>
      </trkpt>
      <trkpt lat="47.29549" lon="-2.25185">
        <ele>18.200000762939</ele>
        <time>2019-06-30T09:41:42.000Z</time>
      </trkpt>
      <trkpt lat="47.29549" lon="-2.25187">
        <ele>18.200000762939</ele>
        <time>2019-06-30T09:41:43.000Z</time>
      </trkpt>
      <trkpt lat="47.29548" lon="-2.25206">
        <ele>18.200000762939</ele>
        <time>2019-06-30T09:41:47.000Z</time>
      </trkpt>
      <trkpt lat="47.29544" lon="-2.25225">
        <ele>18.200000762939</ele>
        <time>2019-06-30T09:41:50.000Z</time>
      </trkpt>
      <trkpt lat="47.29542" lon="-2.25237">
        <ele>18.200000762939</ele>
        <time>2019-06-30T09:41:52.000Z</time>
      </trkpt>
      <trkpt lat="47.2954" lon="-2.25261">
        <ele>18.200000762939</ele>
        <time>2019-06-30T09:41:56.000Z</time>
      </trkpt>
      <trkpt lat="47.29541" lon="-2.25282">
        <ele>18.200000762939</ele>
        <time>2019-06-30T09:41:59.000Z</time>
      </trkpt>
      <trkpt lat="47.29544" lon="-2.25296">
        <ele>18.200000762939</ele>
        <time>2019-06-30T09:42:01.000Z</time>
      </trkpt>
      <trkpt lat="47.29551" lon="-2.25317">
        <ele>18.200000762939</ele>
        <time>2019-06-30T09:42:04.000Z</time>
      </trkpt>
      <trkpt lat="47.29554" lon="-2.25323">
        <ele>18.60000038147</ele>
        <time>2019-06-30T09:42:05.000Z</time>
      </trkpt>
      <trkpt lat="47.29557" lon="-2.25329">
        <ele>19</ele>
        <time>2019-06-30T09:42:06.000Z</time>
      </trkpt>
      <trkpt lat="47.2956" lon="-2.25335">
        <ele>19.39999961853</ele>
        <time>2019-06-30T09:42:07.000Z</time>
      </trkpt>
      <trkpt lat="47.29563" lon="-2.25342">
        <ele>19.799999237061</ele>
        <time>2019-06-30T09:42:08.000Z</time>
      </trkpt>
      <trkpt lat="47.29566" lon="-2.25348">
        <ele>20.200000762939</ele>
        <time>2019-06-30T09:42:09.000Z</time>
      </trkpt>
      <trkpt lat="47.29579" lon="-2.25388">
        <ele>20.200000762939</ele>
        <time>2019-06-30T09:42:15.000Z</time>
      </trkpt>
      <trkpt lat="47.29586" lon="-2.25442">
        <ele>20.799999237061</ele>
        <time>2019-06-30T09:42:22.000Z</time>
      </trkpt>
      <trkpt lat="47.29586" lon="-2.2545">
        <ele>21.200000762939</ele>
        <time>2019-06-30T09:42:23.000Z</time>
      </trkpt>
      <trkpt lat="47.29586" lon="-2.25458">
        <ele>21.60000038147</ele>
        <time>2019-06-30T09:42:24.000Z</time>
      </trkpt>
      <trkpt lat="47.29586" lon="-2.25466">
        <ele>22</ele>
        <time>2019-06-30T09:42:25.000Z</time>
      </trkpt>
      <trkpt lat="47.29587" lon="-2.25475">
        <ele>22.39999961853</ele>
        <time>2019-06-30T09:42:26.000Z</time>
      </trkpt>
      <trkpt lat="47.29586" lon="-2.25494">
        <ele>22.39999961853</ele>
        <time>2019-06-30T09:42:28.000Z</time>
      </trkpt>
      <trkpt lat="47.29585" lon="-2.25503">
        <ele>22.39999961853</ele>
        <time>2019-06-30T09:42:29.000Z</time>
      </trkpt>
      <trkpt lat="47.29577" lon="-2.25528">
        <ele>22.39999961853</ele>
        <time>2019-06-30T09:42:32.000Z</time>
      </trkpt>
      <trkpt lat="47.29556" lon="-2.2555">
        <ele>22.39999961853</ele>
        <time>2019-06-30T09:42:36.000Z</time>
      </trkpt>
      <trkpt lat="47.29544" lon="-2.25558">
        <ele>22.39999961853</ele>
        <time>2019-06-30T09:42:38.000Z</time>
      </trkpt>
      <trkpt lat="47.29527" lon="-2.25568">
        <ele>22.799999237061</ele>
        <time>2019-06-30T09:42:41.000Z</time>
      </trkpt>
      <trkpt lat="47.29521" lon="-2.25572">
        <ele>23.200000762939</ele>
        <time>2019-06-30T09:42:42.000Z</time>
      </trkpt>
      <trkpt lat="47.29516" lon="-2.25576">
        <ele>23.60000038147</ele>
        <time>2019-06-30T09:42:43.000Z</time>
      </trkpt>
      <trkpt lat="47.29511" lon="-2.25579">
        <ele>24.200000762939</ele>
        <time>2019-06-30T09:42:44.000Z</time>
      </trkpt>
      <trkpt lat="47.29506" lon="-2.25583">
        <ele>24.60000038147</ele>
        <time>2019-06-30T09:42:45.000Z</time>
      </trkpt>
      <trkpt lat="47.29479" lon="-2.25599">
        <ele>24.60000038147</ele>
        <time>2019-06-30T09:42:50.000Z</time>
      </trkpt>
      <trkpt lat="47.29448" lon="-2.25612">
        <ele>25</ele>
        <time>2019-06-30T09:42:56.000Z</time>
      </trkpt>
      <trkpt lat="47.29443" lon="-2.25614">
        <ele>25.39999961853</ele>
        <time>2019-06-30T09:42:57.000Z</time>
      </trkpt>
      <trkpt lat="47.29438" lon="-2.25616">
        <ele>25.799999237061</ele>
        <time>2019-06-30T09:42:58.000Z</time>
      </trkpt>
      <trkpt lat="47.29432" lon="-2.25618">
        <ele>26.200000762939</ele>
        <time>2019-06-30T09:42:59.000Z</time>
      </trkpt>
      <trkpt lat="47.29427" lon="-2.2562">
        <ele>26.60000038147</ele>
        <time>2019-06-30T09:43:00.000Z</time>
      </trkpt>
      <trkpt lat="47.29406" lon="-2.2563">
        <ele>26.60000038147</ele>
        <time>2019-06-30T09:43:04.000Z</time>
      </trkpt>
      <trkpt lat="47.29393" lon="-2.25641">
        <ele>26.60000038147</ele>
        <time>2019-06-30T09:43:07.000Z</time>
      </trkpt>
      <trkpt lat="47.2939" lon="-2.25647">
        <ele>26.60000038147</ele>
        <time>2019-06-30T09:43:08.000Z</time>
      </trkpt>
      <trkpt lat="47.29384" lon="-2.25678">
        <ele>26.60000038147</ele>
        <time>2019-06-30T09:43:12.000Z</time>
      </trkpt>
      <trkpt lat="47.2938" lon="-2.25703">
        <ele>26.60000038147</ele>
        <time>2019-06-30T09:43:15.000Z</time>
      </trkpt>
      <trkpt lat="47.29373" lon="-2.25725">
        <ele>26.60000038147</ele>
        <time>2019-06-30T09:43:18.000Z</time>
      </trkpt>
      <trkpt lat="47.2937" lon="-2.25732">
        <ele>26.60000038147</ele>
        <time>2019-06-30T09:43:19.000Z</time>
      </trkpt>
      <trkpt lat="47.29357" lon="-2.25749">
        <ele>26.60000038147</ele>
        <time>2019-06-30T09:43:22.000Z</time>
      </trkpt>
      <trkpt lat="47.29339" lon="-2.2577">
        <ele>26.60000038147</ele>
        <time>2019-06-30T09:43:27.000Z</time>
      </trkpt>
      <trkpt lat="47.29325" lon="-2.25784">
        <ele>26.60000038147</ele>
        <time>2019-06-30T09:43:32.000Z</time>
      </trkpt>
      <trkpt lat="47.29326" lon="-2.25789">
        <ele>26.60000038147</ele>
        <time>2019-06-30T09:43:36.000Z</time>
      </trkpt>
      <trkpt lat="47.29338" lon="-2.25793">
        <ele>26.200000762939</ele>
        <time>2019-06-30T09:43:40.000Z</time>
      </trkpt>
      <trkpt lat="47.29341" lon="-2.25793">
        <ele>25.799999237061</ele>
        <time>2019-06-30T09:43:41.000Z</time>
      </trkpt>
      <trkpt lat="47.29344" lon="-2.25794">
        <ele>25.39999961853</ele>
        <time>2019-06-30T09:43:42.000Z</time>
      </trkpt>
      <trkpt lat="47.29347" lon="-2.25796">
        <ele>25</ele>
        <time>2019-06-30T09:43:43.000Z</time>
      </trkpt>
      <trkpt lat="47.2935" lon="-2.25799">
        <ele>24.60000038147</ele>
        <time>2019-06-30T09:43:44.000Z</time>
      </trkpt>
      <trkpt lat="47.29355" lon="-2.25805">
        <ele>24.60000038147</ele>
        <time>2019-06-30T09:43:46.000Z</time>
      </trkpt>
      <trkpt lat="47.29358" lon="-2.25813">
        <ele>24.60000038147</ele>
        <time>2019-06-30T09:43:48.000Z</time>
      </trkpt>
      <trkpt lat="47.29358" lon="-2.25822">
        <ele>24.60000038147</ele>
        <time>2019-06-30T09:43:50.000Z</time>
      </trkpt>
      <trkpt lat="47.29356" lon="-2.25835">
        <ele>24.60000038147</ele>
        <time>2019-06-30T09:43:54.000Z</time>
      </trkpt>
      <trkpt lat="47.29363" lon="-2.2585">
        <ele>24.60000038147</ele>
        <time>2019-06-30T09:43:59.000Z</time>
      </trkpt>
      <trkpt lat="47.29368" lon="-2.25853">
        <ele>24.200000762939</ele>
        <time>2019-06-30T09:44:01.000Z</time>
      </trkpt>
      <trkpt lat="47.29371" lon="-2.25854">
        <ele>23.799999237061</ele>
        <time>2019-06-30T09:44:02.000Z</time>
      </trkpt>
      <trkpt lat="47.29373" lon="-2.25854">
        <ele>23.39999961853</ele>
        <time>2019-06-30T09:44:03.000Z</time>
      </trkpt>
      <trkpt lat="47.29376" lon="-2.25856">
        <ele>23</ele>
        <time>2019-06-30T09:44:04.000Z</time>
      </trkpt>
      <trkpt lat="47.29378" lon="-2.25856">
        <ele>22.60000038147</ele>
        <time>2019-06-30T09:44:05.000Z</time>
      </trkpt>
      <trkpt lat="47.2938" lon="-2.25856">
        <ele>22.60000038147</ele>
        <time>2019-06-30T09:44:06.000Z</time>
      </trkpt>
      <trkpt lat="47.29388" lon="-2.25852">
        <ele>22.60000038147</ele>
        <time>2019-06-30T09:44:09.000Z</time>
      </trkpt>
      <trkpt lat="47.294" lon="-2.25852">
        <ele>22.60000038147</ele>
        <time>2019-06-30T09:44:14.000Z</time>
      </trkpt>
      <trkpt lat="47.2941" lon="-2.25853">
        <ele>22.60000038147</ele>
        <time>2019-06-30T09:44:18.000Z</time>
      </trkpt>
      <trkpt lat="47.29412" lon="-2.25856">
        <ele>22.60000038147</ele>
        <time>2019-06-30T09:44:19.000Z</time>
      </trkpt>
      <trkpt lat="47.29413" lon="-2.25859">
        <ele>22.200000762939</ele>
        <time>2019-06-30T09:44:20.000Z</time>
      </trkpt>
      <trkpt lat="47.29415" lon="-2.25864">
        <ele>21.799999237061</ele>
        <time>2019-06-30T09:44:21.000Z</time>
      </trkpt>
      <trkpt lat="47.29418" lon="-2.25869">
        <ele>21.200000762939</ele>
        <time>2019-06-30T09:44:22.000Z</time>
      </trkpt>
      <trkpt lat="47.2942" lon="-2.25874">
        <ele>20.799999237061</ele>
        <time>2019-06-30T09:44:23.000Z</time>
      </trkpt>
      <trkpt lat="47.29423" lon="-2.2588">
        <ele>20.39999961853</ele>
        <time>2019-06-30T09:44:24.000Z</time>
      </trkpt>
      <trkpt lat="47.29432" lon="-2.25908">
        <ele>20.39999961853</ele>
        <time>2019-06-30T09:44:28.000Z</time>
      </trkpt>
      <trkpt lat="47.29433" lon="-2.25916">
        <ele>20.39999961853</ele>
        <time>2019-06-30T09:44:29.000Z</time>
      </trkpt>
      <trkpt lat="47.29433" lon="-2.25932">
        <ele>20.39999961853</ele>
        <time>2019-06-30T09:44:32.000Z</time>
      </trkpt>
      <trkpt lat="47.29425" lon="-2.25946">
        <ele>20.39999961853</ele>
        <time>2019-06-30T09:44:36.000Z</time>
      </trkpt>
      <trkpt lat="47.29418" lon="-2.2595">
        <ele>20.39999961853</ele>
        <time>2019-06-30T09:44:38.000Z</time>
      </trkpt>
      <trkpt lat="47.29407" lon="-2.25954">
        <ele>20.39999961853</ele>
        <time>2019-06-30T09:44:41.000Z</time>
      </trkpt>
      <trkpt lat="47.29404" lon="-2.25952">
        <ele>20.39999961853</ele>
        <time>2019-06-30T09:44:42.000Z</time>
      </trkpt>
      <trkpt lat="47.29396" lon="-2.25953">
        <ele>20.39999961853</ele>
        <time>2019-06-30T09:44:44.000Z</time>
      </trkpt>
      <trkpt lat="47.29391" lon="-2.25966">
        <ele>20.39999961853</ele>
        <time>2019-06-30T09:44:47.000Z</time>
      </trkpt>
      <trkpt lat="47.29391" lon="-2.2598">
        <ele>20.39999961853</ele>
        <time>2019-06-30T09:44:49.000Z</time>
      </trkpt>
      <trkpt lat="47.29389" lon="-2.25987">
        <ele>20.39999961853</ele>
        <time>2019-06-30T09:44:50.000Z</time>
      </trkpt>
      <trkpt lat="47.29383" lon="-2.26025">
        <ele>20.39999961853</ele>
        <time>2019-06-30T09:44:55.000Z</time>
      </trkpt>
      <trkpt lat="47.29385" lon="-2.26036">
        <ele>20.39999961853</ele>
        <time>2019-06-30T09:44:58.000Z</time>
      </trkpt>
      <trkpt lat="47.29397" lon="-2.26056">
        <ele>20</ele>
        <time>2019-06-30T09:45:02.000Z</time>
      </trkpt>
      <trkpt lat="47.29399" lon="-2.26062">
        <ele>19.60000038147</ele>
        <time>2019-06-30T09:45:03.000Z</time>
      </trkpt>
      <trkpt lat="47.29401" lon="-2.26068">
        <ele>19.200000762939</ele>
        <time>2019-06-30T09:45:04.000Z</time>
      </trkpt>
      <trkpt lat="47.29403" lon="-2.26074">
        <ele>18.799999237061</ele>
        <time>2019-06-30T09:45:05.000Z</time>
      </trkpt>
      <trkpt lat="47.29404" lon="-2.26081">
        <ele>18.39999961853</ele>
        <time>2019-06-30T09:45:06.000Z</time>
      </trkpt>
      <trkpt lat="47.29405" lon="-2.26089">
        <ele>18.39999961853</ele>
        <time>2019-06-30T09:45:07.000Z</time>
      </trkpt>
      <trkpt lat="47.29404" lon="-2.26114">
        <ele>18.39999961853</ele>
        <time>2019-06-30T09:45:11.000Z</time>
      </trkpt>
      <trkpt lat="47.29401" lon="-2.26128">
        <ele>18.39999961853</ele>
        <time>2019-06-30T09:45:14.000Z</time>
      </trkpt>
      <trkpt lat="47.294" lon="-2.26134">
        <ele>18.39999961853</ele>
        <time>2019-06-30T09:45:15.000Z</time>
      </trkpt>
      <trkpt lat="47.29397" lon="-2.26142">
        <ele>18.799999237061</ele>
        <time>2019-06-30T09:45:17.000Z</time>
      </trkpt>
      <trkpt lat="47.29395" lon="-2.26145">
        <ele>19.200000762939</ele>
        <time>2019-06-30T09:45:18.000Z</time>
      </trkpt>
      <trkpt lat="47.29393" lon="-2.26147">
        <ele>19.60000038147</ele>
        <time>2019-06-30T09:45:19.000Z</time>
      </trkpt>
      <trkpt lat="47.29389" lon="-2.2615">
        <ele>20</ele>
        <time>2019-06-30T09:45:20.000Z</time>
      </trkpt>
      <trkpt lat="47.29387" lon="-2.26151">
        <ele>20.39999961853</ele>
        <time>2019-06-30T09:45:21.000Z</time>
      </trkpt>
      <trkpt lat="47.29384" lon="-2.26151">
        <ele>20.39999961853</ele>
        <time>2019-06-30T09:45:22.000Z</time>
      </trkpt>
      <trkpt lat="47.29382" lon="-2.26151">
        <ele>20.799999237061</ele>
        <time>2019-06-30T09:45:23.000Z</time>
      </trkpt>
      <trkpt lat="47.2938" lon="-2.26151">
        <ele>21.200000762939</ele>
        <time>2019-06-30T09:45:24.000Z</time>
      </trkpt>
      <trkpt lat="47.29379" lon="-2.2615">
        <ele>21.60000038147</ele>
        <time>2019-06-30T09:45:25.000Z</time>
      </trkpt>
      <trkpt lat="47.29378" lon="-2.2615">
        <ele>22</ele>
        <time>2019-06-30T09:45:26.000Z</time>
      </trkpt>
      <trkpt lat="47.29376" lon="-2.2615">
        <ele>22.39999961853</ele>
        <time>2019-06-30T09:45:27.000Z</time>
      </trkpt>
      <trkpt lat="47.29375" lon="-2.26151">
        <ele>22.39999961853</ele>
        <time>2019-06-30T09:45:29.000Z</time>
      </trkpt>
      <trkpt lat="47.29374" lon="-2.2615">
        <ele>22.39999961853</ele>
        <time>2019-06-30T09:45:31.000Z</time>
      </trkpt>
      <trkpt lat="47.29373" lon="-2.26153">
        <ele>22.39999961853</ele>
        <time>2019-06-30T09:45:52.000Z</time>
      </trkpt>
      <trkpt lat="47.2937" lon="-2.26155">
        <ele>22.39999961853</ele>
        <time>2019-06-30T09:45:53.000Z</time>
      </trkpt>
      <trkpt lat="47.29368" lon="-2.26157">
        <ele>22.39999961853</ele>
        <time>2019-06-30T09:45:54.000Z</time>
      </trkpt>
      <trkpt lat="47.29355" lon="-2.2616">
        <ele>22.39999961853</ele>
        <time>2019-06-30T09:45:58.000Z</time>
      </trkpt>
      <trkpt lat="47.29351" lon="-2.26161">
        <ele>22.39999961853</ele>
        <time>2019-06-30T09:45:59.000Z</time>
      </trkpt>
      <trkpt lat="47.29341" lon="-2.26164">
        <ele>23</ele>
        <time>2019-06-30T09:46:02.000Z</time>
      </trkpt>
      <trkpt lat="47.29339" lon="-2.26165">
        <ele>23.39999961853</ele>
        <time>2019-06-30T09:46:03.000Z</time>
      </trkpt>
      <trkpt lat="47.29337" lon="-2.26166">
        <ele>23.799999237061</ele>
        <time>2019-06-30T09:46:04.000Z</time>
      </trkpt>
      <trkpt lat="47.29335" lon="-2.26167">
        <ele>24.200000762939</ele>
        <time>2019-06-30T09:46:05.000Z</time>
      </trkpt>
      <trkpt lat="47.29333" lon="-2.26167">
        <ele>24.60000038147</ele>
        <time>2019-06-30T09:46:06.000Z</time>
      </trkpt>
      <trkpt lat="47.29326" lon="-2.26171">
        <ele>24.60000038147</ele>
        <time>2019-06-30T09:46:10.000Z</time>
      </trkpt>
      <trkpt lat="47.29326" lon="-2.26173">
        <ele>24.60000038147</ele>
        <time>2019-06-30T09:46:11.000Z</time>
      </trkpt>
      <trkpt lat="47.29322" lon="-2.2618">
        <ele>24.60000038147</ele>
        <time>2019-06-30T09:46:14.000Z</time>
      </trkpt>
      <trkpt lat="47.29312" lon="-2.26183">
        <ele>24.60000038147</ele>
        <time>2019-06-30T09:46:17.000Z</time>
      </trkpt>
      <trkpt lat="47.29304" lon="-2.26182">
        <ele>24.60000038147</ele>
        <time>2019-06-30T09:46:18.000Z</time>
      </trkpt>
      <trkpt lat="47.29287" lon="-2.26182">
        <ele>24.60000038147</ele>
        <time>2019-06-30T09:46:22.000Z</time>
      </trkpt>
      <trkpt lat="47.29283" lon="-2.26182">
        <ele>24.60000038147</ele>
        <time>2019-06-30T09:46:23.000Z</time>
      </trkpt>
      <trkpt lat="47.29269" lon="-2.26179">
        <ele>24.60000038147</ele>
        <time>2019-06-30T09:46:27.000Z</time>
      </trkpt>
      <trkpt lat="47.29265" lon="-2.26173">
        <ele>24.60000038147</ele>
        <time>2019-06-30T09:46:28.000Z</time>
      </trkpt>
      <trkpt lat="47.2926" lon="-2.26157">
        <ele>24.60000038147</ele>
        <time>2019-06-30T09:46:31.000Z</time>
      </trkpt>
      <trkpt lat="47.29259" lon="-2.26152">
        <ele>24.60000038147</ele>
        <time>2019-06-30T09:46:32.000Z</time>
      </trkpt>
      <trkpt lat="47.2925" lon="-2.2613">
        <ele>24.60000038147</ele>
        <time>2019-06-30T09:46:38.000Z</time>
      </trkpt>
      <trkpt lat="47.29247" lon="-2.26121">
        <ele>24.60000038147</ele>
        <time>2019-06-30T09:46:41.000Z</time>
      </trkpt>
      <trkpt lat="47.29246" lon="-2.26119">
        <ele>25.200000762939</ele>
        <time>2019-06-30T09:46:42.000Z</time>
      </trkpt>
      <trkpt lat="47.29245" lon="-2.26116">
        <ele>25.60000038147</ele>
        <time>2019-06-30T09:46:43.000Z</time>
      </trkpt>
      <trkpt lat="47.29244" lon="-2.26112">
        <ele>26</ele>
        <time>2019-06-30T09:46:44.000Z</time>
      </trkpt>
      <trkpt lat="47.29243" lon="-2.26108">
        <ele>26.39999961853</ele>
        <time>2019-06-30T09:46:45.000Z</time>
      </trkpt>
      <trkpt lat="47.29241" lon="-2.26103">
        <ele>26.799999237061</ele>
        <time>2019-06-30T09:46:46.000Z</time>
      </trkpt>
      <trkpt lat="47.29234" lon="-2.2609">
        <ele>26.799999237061</ele>
        <time>2019-06-30T09:46:49.000Z</time>
      </trkpt>
      <trkpt lat="47.29217" lon="-2.26062">
        <ele>26.799999237061</ele>
        <time>2019-06-30T09:46:55.000Z</time>
      </trkpt>
      <trkpt lat="47.29203" lon="-2.26047">
        <ele>26.799999237061</ele>
        <time>2019-06-30T09:46:59.000Z</time>
      </trkpt>
      <trkpt lat="47.29196" lon="-2.26025">
        <ele>26.799999237061</ele>
        <time>2019-06-30T09:47:03.000Z</time>
      </trkpt>
      <trkpt lat="47.29197" lon="-2.2602">
        <ele>26.799999237061</ele>
        <time>2019-06-30T09:47:04.000Z</time>
      </trkpt>
      <trkpt lat="47.29198" lon="-2.26014">
        <ele>26.799999237061</ele>
        <time>2019-06-30T09:47:06.000Z</time>
      </trkpt>
      <trkpt lat="47.29203" lon="-2.26011">
        <ele>26.799999237061</ele>
        <time>2019-06-30T09:47:09.000Z</time>
      </trkpt>
      <trkpt lat="47.29208" lon="-2.26006">
        <ele>26.799999237061</ele>
        <time>2019-06-30T09:47:11.000Z</time>
      </trkpt>
      <trkpt lat="47.29211" lon="-2.25999">
        <ele>26.799999237061</ele>
        <time>2019-06-30T09:47:13.000Z</time>
      </trkpt>
      <trkpt lat="47.29221" lon="-2.25994">
        <ele>26.799999237061</ele>
        <time>2019-06-30T09:47:18.000Z</time>
      </trkpt>
      <trkpt lat="47.29226" lon="-2.25994">
        <ele>26.799999237061</ele>
        <time>2019-06-30T09:47:22.000Z</time>
      </trkpt>
      <trkpt lat="47.29236" lon="-2.25989">
        <ele>24.60000038147</ele>
        <time>2019-06-30T09:47:28.000Z</time>
      </trkpt>
      <trkpt lat="47.2924" lon="-2.25984">
        <ele>24.60000038147</ele>
        <time>2019-06-30T09:47:30.000Z</time>
      </trkpt>
      <trkpt lat="47.29248" lon="-2.2597">
        <ele>24.60000038147</ele>
        <time>2019-06-30T09:47:35.000Z</time>
      </trkpt>
      <trkpt lat="47.29247" lon="-2.25967">
        <ele>24.60000038147</ele>
        <time>2019-06-30T09:47:36.000Z</time>
      </trkpt>
      <trkpt lat="47.2924" lon="-2.25961">
        <ele>24.60000038147</ele>
        <time>2019-06-30T09:47:40.000Z</time>
      </trkpt>
      <trkpt lat="47.2923" lon="-2.25967">
        <ele>24.60000038147</ele>
        <time>2019-06-30T09:47:44.000Z</time>
      </trkpt>
      <trkpt lat="47.2922" lon="-2.25973">
        <ele>24.60000038147</ele>
        <time>2019-06-30T09:47:47.000Z</time>
      </trkpt>
      <trkpt lat="47.29209" lon="-2.25976">
        <ele>24.60000038147</ele>
        <time>2019-06-30T09:47:50.000Z</time>
      </trkpt>
      <trkpt lat="47.29189" lon="-2.25979">
        <ele>24.60000038147</ele>
        <time>2019-06-30T09:47:55.000Z</time>
      </trkpt>
      <trkpt lat="47.29179" lon="-2.25978">
        <ele>24.60000038147</ele>
        <time>2019-06-30T09:47:57.000Z</time>
      </trkpt>
      <trkpt lat="47.29152" lon="-2.25977">
        <ele>24.60000038147</ele>
        <time>2019-06-30T09:48:03.000Z</time>
      </trkpt>
      <trkpt lat="47.29124" lon="-2.25973">
        <ele>24.60000038147</ele>
        <time>2019-06-30T09:48:08.000Z</time>
      </trkpt>
      <trkpt lat="47.29109" lon="-2.25972">
        <ele>24.60000038147</ele>
        <time>2019-06-30T09:48:11.000Z</time>
      </trkpt>
      <trkpt lat="47.29099" lon="-2.25974">
        <ele>24.60000038147</ele>
        <time>2019-06-30T09:48:13.000Z</time>
      </trkpt>
      <trkpt lat="47.29074" lon="-2.2598">
        <ele>24.60000038147</ele>
        <time>2019-06-30T09:48:18.000Z</time>
      </trkpt>
      <trkpt lat="47.29072" lon="-2.25988">
        <ele>24.60000038147</ele>
        <time>2019-06-30T09:48:19.000Z</time>
      </trkpt>
      <trkpt lat="47.29075" lon="-2.26003">
        <ele>24.60000038147</ele>
        <time>2019-06-30T09:48:21.000Z</time>
      </trkpt>
      <trkpt lat="47.29083" lon="-2.26024">
        <ele>24.60000038147</ele>
        <time>2019-06-30T09:48:24.000Z</time>
      </trkpt>
      <trkpt lat="47.29085" lon="-2.26032">
        <ele>24.60000038147</ele>
        <time>2019-06-30T09:48:25.000Z</time>
      </trkpt>
      <trkpt lat="47.29096" lon="-2.2606">
        <ele>24.60000038147</ele>
        <time>2019-06-30T09:48:29.000Z</time>
      </trkpt>
      <trkpt lat="47.291" lon="-2.26075">
        <ele>24.60000038147</ele>
        <time>2019-06-30T09:48:31.000Z</time>
      </trkpt>
      <trkpt lat="47.29105" lon="-2.26108">
        <ele>24.60000038147</ele>
        <time>2019-06-30T09:48:35.000Z</time>
      </trkpt>
      <trkpt lat="47.29104" lon="-2.26116">
        <ele>24.60000038147</ele>
        <time>2019-06-30T09:48:36.000Z</time>
      </trkpt>
      <trkpt lat="47.29097" lon="-2.26157">
        <ele>25</ele>
        <time>2019-06-30T09:48:41.000Z</time>
      </trkpt>
      <trkpt lat="47.29096" lon="-2.26165">
        <ele>25.60000038147</ele>
        <time>2019-06-30T09:48:42.000Z</time>
      </trkpt>
      <trkpt lat="47.29094" lon="-2.26173">
        <ele>26</ele>
        <time>2019-06-30T09:48:43.000Z</time>
      </trkpt>
      <trkpt lat="47.29094" lon="-2.2618">
        <ele>26.39999961853</ele>
        <time>2019-06-30T09:48:44.000Z</time>
      </trkpt>
      <trkpt lat="47.29093" lon="-2.26188">
        <ele>26.799999237061</ele>
        <time>2019-06-30T09:48:45.000Z</time>
      </trkpt>
      <trkpt lat="47.2909" lon="-2.26204">
        <ele>26.799999237061</ele>
        <time>2019-06-30T09:48:47.000Z</time>
      </trkpt>
      <trkpt lat="47.29081" lon="-2.26256">
        <ele>26.799999237061</ele>
        <time>2019-06-30T09:48:54.000Z</time>
      </trkpt>
      <trkpt lat="47.29071" lon="-2.26299">
        <ele>26.799999237061</ele>
        <time>2019-06-30T09:49:00.000Z</time>
      </trkpt>
      <trkpt lat="47.29058" lon="-2.26328">
        <ele>26.799999237061</ele>
        <time>2019-06-30T09:49:05.000Z</time>
      </trkpt>
      <trkpt lat="47.29054" lon="-2.26334">
        <ele>26.799999237061</ele>
        <time>2019-06-30T09:49:06.000Z</time>
      </trkpt>
      <trkpt lat="47.2905" lon="-2.26338">
        <ele>26.799999237061</ele>
        <time>2019-06-30T09:49:07.000Z</time>
      </trkpt>
      <trkpt lat="47.29033" lon="-2.26354">
        <ele>26.799999237061</ele>
        <time>2019-06-30T09:49:11.000Z</time>
      </trkpt>
      <trkpt lat="47.29015" lon="-2.26375">
        <ele>26.799999237061</ele>
        <time>2019-06-30T09:49:16.000Z</time>
      </trkpt>
      <trkpt lat="47.29014" lon="-2.2638">
        <ele>26.799999237061</ele>
        <time>2019-06-30T09:49:17.000Z</time>
      </trkpt>
      <trkpt lat="47.29013" lon="-2.26403">
        <ele>26.799999237061</ele>
        <time>2019-06-30T09:49:21.000Z</time>
      </trkpt>
      <trkpt lat="47.29013" lon="-2.26409">
        <ele>26.799999237061</ele>
        <time>2019-06-30T09:49:22.000Z</time>
      </trkpt>
      <trkpt lat="47.29016" lon="-2.26441">
        <ele>26.799999237061</ele>
        <time>2019-06-30T09:49:26.000Z</time>
      </trkpt>
      <trkpt lat="47.29021" lon="-2.26494">
        <ele>26.799999237061</ele>
        <time>2019-06-30T09:49:31.000Z</time>
      </trkpt>
      <trkpt lat="47.29027" lon="-2.2652">
        <ele>26.799999237061</ele>
        <time>2019-06-30T09:49:34.000Z</time>
      </trkpt>
      <trkpt lat="47.29032" lon="-2.26536">
        <ele>26.799999237061</ele>
        <time>2019-06-30T09:49:36.000Z</time>
      </trkpt>
      <trkpt lat="47.29035" lon="-2.26544">
        <ele>26.39999961853</ele>
        <time>2019-06-30T09:49:37.000Z</time>
      </trkpt>
      <trkpt lat="47.29037" lon="-2.26551">
        <ele>26</ele>
        <time>2019-06-30T09:49:38.000Z</time>
      </trkpt>
      <trkpt lat="47.29038" lon="-2.26558">
        <ele>25.60000038147</ele>
        <time>2019-06-30T09:49:39.000Z</time>
      </trkpt>
      <trkpt lat="47.2904" lon="-2.26564">
        <ele>25.200000762939</ele>
        <time>2019-06-30T09:49:40.000Z</time>
      </trkpt>
      <trkpt lat="47.29042" lon="-2.26571">
        <ele>24.60000038147</ele>
        <time>2019-06-30T09:49:41.000Z</time>
      </trkpt>
      <trkpt lat="47.29045" lon="-2.26592">
        <ele>24.60000038147</ele>
        <time>2019-06-30T09:49:44.000Z</time>
      </trkpt>
      <trkpt lat="47.29046" lon="-2.2661">
        <ele>24.60000038147</ele>
        <time>2019-06-30T09:49:46.000Z</time>
      </trkpt>
      <trkpt lat="47.29052" lon="-2.26688">
        <ele>24.60000038147</ele>
        <time>2019-06-30T09:49:54.000Z</time>
      </trkpt>
      <trkpt lat="47.29054" lon="-2.26699">
        <ele>24.200000762939</ele>
        <time>2019-06-30T09:49:55.000Z</time>
      </trkpt>
      <trkpt lat="47.29055" lon="-2.26711">
        <ele>23.799999237061</ele>
        <time>2019-06-30T09:49:56.000Z</time>
      </trkpt>
      <trkpt lat="47.29057" lon="-2.26723">
        <ele>23.39999961853</ele>
        <time>2019-06-30T09:49:57.000Z</time>
      </trkpt>
      <trkpt lat="47.29058" lon="-2.26736">
        <ele>23</ele>
        <time>2019-06-30T09:49:58.000Z</time>
      </trkpt>
      <trkpt lat="47.2906" lon="-2.26748">
        <ele>22.60000038147</ele>
        <time>2019-06-30T09:49:59.000Z</time>
      </trkpt>
      <trkpt lat="47.29062" lon="-2.26761">
        <ele>22.60000038147</ele>
        <time>2019-06-30T09:50:00.000Z</time>
      </trkpt>
      <trkpt lat="47.29066" lon="-2.26788">
        <ele>22.200000762939</ele>
        <time>2019-06-30T09:50:02.000Z</time>
      </trkpt>
      <trkpt lat="47.29066" lon="-2.268">
        <ele>21.60000038147</ele>
        <time>2019-06-30T09:50:03.000Z</time>
      </trkpt>
      <trkpt lat="47.29066" lon="-2.26814">
        <ele>21.200000762939</ele>
        <time>2019-06-30T09:50:04.000Z</time>
      </trkpt>
      <trkpt lat="47.29065" lon="-2.26827">
        <ele>20.60000038147</ele>
        <time>2019-06-30T09:50:05.000Z</time>
      </trkpt>
      <trkpt lat="47.29064" lon="-2.26839">
        <ele>20.200000762939</ele>
        <time>2019-06-30T09:50:06.000Z</time>
      </trkpt>
      <trkpt lat="47.29064" lon="-2.26852">
        <ele>19.799999237061</ele>
        <time>2019-06-30T09:50:07.000Z</time>
      </trkpt>
      <trkpt lat="47.29064" lon="-2.26864">
        <ele>19.39999961853</ele>
        <time>2019-06-30T09:50:08.000Z</time>
      </trkpt>
      <trkpt lat="47.29063" lon="-2.26875">
        <ele>19</ele>
        <time>2019-06-30T09:50:09.000Z</time>
      </trkpt>
      <trkpt lat="47.29062" lon="-2.26885">
        <ele>18.60000038147</ele>
        <time>2019-06-30T09:50:10.000Z</time>
      </trkpt>
      <trkpt lat="47.29062" lon="-2.26894">
        <ele>18.200000762939</ele>
        <time>2019-06-30T09:50:11.000Z</time>
      </trkpt>
      <trkpt lat="47.2906" lon="-2.26929">
        <ele>18.200000762939</ele>
        <time>2019-06-30T09:50:15.000Z</time>
      </trkpt>
      <trkpt lat="47.29057" lon="-2.2699">
        <ele>18.200000762939</ele>
        <time>2019-06-30T09:50:22.000Z</time>
      </trkpt>
      <trkpt lat="47.29056" lon="-2.27026">
        <ele>18.200000762939</ele>
        <time>2019-06-30T09:50:27.000Z</time>
      </trkpt>
      <trkpt lat="47.29058" lon="-2.27031">
        <ele>18.200000762939</ele>
        <time>2019-06-30T09:50:28.000Z</time>
      </trkpt>
      <trkpt lat="47.29062" lon="-2.2705">
        <ele>18.200000762939</ele>
        <time>2019-06-30T09:50:32.000Z</time>
      </trkpt>
      <trkpt lat="47.2906" lon="-2.2706">
        <ele>18.200000762939</ele>
        <time>2019-06-30T09:50:34.000Z</time>
      </trkpt>
      <trkpt lat="47.29055" lon="-2.27076">
        <ele>18.200000762939</ele>
        <time>2019-06-30T09:50:37.000Z</time>
      </trkpt>
      <trkpt lat="47.29052" lon="-2.27082">
        <ele>18.200000762939</ele>
        <time>2019-06-30T09:50:38.000Z</time>
      </trkpt>
      <trkpt lat="47.29042" lon="-2.27089">
        <ele>18.200000762939</ele>
        <time>2019-06-30T09:50:41.000Z</time>
      </trkpt>
      <trkpt lat="47.29028" lon="-2.27094">
        <ele>18.200000762939</ele>
        <time>2019-06-30T09:50:45.000Z</time>
      </trkpt>
      <trkpt lat="47.29027" lon="-2.27103">
        <ele>18.200000762939</ele>
        <time>2019-06-30T09:50:48.000Z</time>
      </trkpt>
      <trkpt lat="47.29033" lon="-2.27117">
        <ele>18.200000762939</ele>
        <time>2019-06-30T09:50:52.000Z</time>
      </trkpt>
      <trkpt lat="47.29038" lon="-2.27124">
        <ele>18.200000762939</ele>
        <time>2019-06-30T09:50:54.000Z</time>
      </trkpt>
      <trkpt lat="47.29043" lon="-2.2713">
        <ele>18.200000762939</ele>
        <time>2019-06-30T09:50:55.000Z</time>
      </trkpt>
      <trkpt lat="47.29046" lon="-2.27135">
        <ele>18.200000762939</ele>
        <time>2019-06-30T09:50:56.000Z</time>
      </trkpt>
      <trkpt lat="47.29059" lon="-2.27158">
        <ele>18.200000762939</ele>
        <time>2019-06-30T09:51:01.000Z</time>
      </trkpt>
      <trkpt lat="47.29069" lon="-2.27178">
        <ele>18.200000762939</ele>
        <time>2019-06-30T09:51:05.000Z</time>
      </trkpt>
      <trkpt lat="47.29074" lon="-2.27182">
        <ele>18.200000762939</ele>
        <time>2019-06-30T09:51:06.000Z</time>
      </trkpt>
      <trkpt lat="47.29086" lon="-2.27186">
        <ele>18.200000762939</ele>
        <time>2019-06-30T09:51:08.000Z</time>
      </trkpt>
      <trkpt lat="47.29092" lon="-2.27185">
        <ele>18.200000762939</ele>
        <time>2019-06-30T09:51:09.000Z</time>
      </trkpt>
      <trkpt lat="47.29109" lon="-2.2719">
        <ele>18.200000762939</ele>
        <time>2019-06-30T09:51:13.000Z</time>
      </trkpt>
      <trkpt lat="47.29112" lon="-2.27192">
        <ele>18.200000762939</ele>
        <time>2019-06-30T09:51:16.000Z</time>
      </trkpt>
      <trkpt lat="47.29113" lon="-2.27194">
        <ele>18.200000762939</ele>
        <time>2019-06-30T09:51:17.000Z</time>
      </trkpt>
      <trkpt lat="47.29115" lon="-2.27198">
        <ele>18.200000762939</ele>
        <time>2019-06-30T09:51:21.000Z</time>
      </trkpt>
      <trkpt lat="47.29114" lon="-2.27204">
        <ele>18.200000762939</ele>
        <time>2019-06-30T09:51:24.000Z</time>
      </trkpt>
      <trkpt lat="47.29114" lon="-2.2721">
        <ele>18.200000762939</ele>
        <time>2019-06-30T09:51:26.000Z</time>
      </trkpt>
      <trkpt lat="47.29113" lon="-2.27217">
        <ele>18.200000762939</ele>
        <time>2019-06-30T09:51:28.000Z</time>
      </trkpt>
      <trkpt lat="47.29113" lon="-2.27236">
        <ele>18.200000762939</ele>
        <time>2019-06-30T09:51:31.000Z</time>
      </trkpt>
      <trkpt lat="47.2911" lon="-2.27258">
        <ele>18.200000762939</ele>
        <time>2019-06-30T09:51:35.000Z</time>
      </trkpt>
      <trkpt lat="47.29108" lon="-2.27281">
        <ele>18.200000762939</ele>
        <time>2019-06-30T09:51:40.000Z</time>
      </trkpt>
      <trkpt lat="47.29107" lon="-2.27286">
        <ele>18.200000762939</ele>
        <time>2019-06-30T09:51:41.000Z</time>
      </trkpt>
      <trkpt lat="47.29101" lon="-2.27315">
        <ele>18.200000762939</ele>
        <time>2019-06-30T09:51:46.000Z</time>
      </trkpt>
      <trkpt lat="47.291" lon="-2.27336">
        <ele>18.200000762939</ele>
        <time>2019-06-30T09:51:50.000Z</time>
      </trkpt>
      <trkpt lat="47.29105" lon="-2.27345">
        <ele>18.200000762939</ele>
        <time>2019-06-30T09:51:53.000Z</time>
      </trkpt>
      <trkpt lat="47.29105" lon="-2.27357">
        <ele>18.200000762939</ele>
        <time>2019-06-30T09:51:56.000Z</time>
      </trkpt>
      <trkpt lat="47.29104" lon="-2.27364">
        <ele>18.200000762939</ele>
        <time>2019-06-30T09:51:57.000Z</time>
      </trkpt>
      <trkpt lat="47.29108" lon="-2.27396">
        <ele>18.200000762939</ele>
        <time>2019-06-30T09:52:02.000Z</time>
      </trkpt>
      <trkpt lat="47.29108" lon="-2.27438">
        <ele>18.200000762939</ele>
        <time>2019-06-30T09:52:08.000Z</time>
      </trkpt>
      <trkpt lat="47.2911" lon="-2.27471">
        <ele>18.200000762939</ele>
        <time>2019-06-30T09:52:13.000Z</time>
      </trkpt>
      <trkpt lat="47.29108" lon="-2.27506">
        <ele>18.200000762939</ele>
        <time>2019-06-30T09:52:19.000Z</time>
      </trkpt>
      <trkpt lat="47.29106" lon="-2.27514">
        <ele>18.200000762939</ele>
        <time>2019-06-30T09:52:23.000Z</time>
      </trkpt>
      <trkpt lat="47.29102" lon="-2.27525">
        <ele>18.200000762939</ele>
        <time>2019-06-30T09:52:39.000Z</time>
      </trkpt>
      <trkpt lat="47.29097" lon="-2.27527">
        <ele>18.200000762939</ele>
        <time>2019-06-30T09:52:41.000Z</time>
      </trkpt>
      <trkpt lat="47.29085" lon="-2.27527">
        <ele>18.60000038147</ele>
        <time>2019-06-30T09:52:44.000Z</time>
      </trkpt>
      <trkpt lat="47.29079" lon="-2.27527">
        <ele>19</ele>
        <time>2019-06-30T09:52:45.000Z</time>
      </trkpt>
      <trkpt lat="47.29074" lon="-2.27526">
        <ele>19.39999961853</ele>
        <time>2019-06-30T09:52:46.000Z</time>
      </trkpt>
      <trkpt lat="47.29069" lon="-2.27525">
        <ele>19.799999237061</ele>
        <time>2019-06-30T09:52:47.000Z</time>
      </trkpt>
      <trkpt lat="47.29064" lon="-2.27524">
        <ele>20.39999961853</ele>
        <time>2019-06-30T09:52:48.000Z</time>
      </trkpt>
      <trkpt lat="47.2904" lon="-2.27524">
        <ele>20.39999961853</ele>
        <time>2019-06-30T09:52:52.000Z</time>
      </trkpt>
      <trkpt lat="47.28996" lon="-2.27522">
        <ele>20.39999961853</ele>
        <time>2019-06-30T09:52:59.000Z</time>
      </trkpt>
      <trkpt lat="47.2895" lon="-2.27519">
        <ele>20.39999961853</ele>
        <time>2019-06-30T09:53:06.000Z</time>
      </trkpt>
      <trkpt lat="47.28904" lon="-2.27523">
        <ele>20.39999961853</ele>
        <time>2019-06-30T09:53:12.000Z</time>
      </trkpt>
      <trkpt lat="47.28854" lon="-2.27534">
        <ele>20.39999961853</ele>
        <time>2019-06-30T09:53:19.000Z</time>
      </trkpt>
      <trkpt lat="47.28818" lon="-2.27543">
        <ele>20.39999961853</ele>
        <time>2019-06-30T09:53:25.000Z</time>
      </trkpt>
      <trkpt lat="47.28812" lon="-2.27546">
        <ele>20.39999961853</ele>
        <time>2019-06-30T09:53:26.000Z</time>
      </trkpt>
      <trkpt lat="47.28796" lon="-2.27563">
        <ele>20.39999961853</ele>
        <time>2019-06-30T09:53:29.000Z</time>
      </trkpt>
      <trkpt lat="47.28792" lon="-2.27567">
        <ele>20.39999961853</ele>
        <time>2019-06-30T09:53:30.000Z</time>
      </trkpt>
      <trkpt lat="47.28787" lon="-2.27573">
        <ele>20.39999961853</ele>
        <time>2019-06-30T09:53:31.000Z</time>
      </trkpt>
      <trkpt lat="47.28777" lon="-2.27583">
        <ele>20.39999961853</ele>
        <time>2019-06-30T09:53:33.000Z</time>
      </trkpt>
      <trkpt lat="47.28747" lon="-2.27622">
        <ele>20.39999961853</ele>
        <time>2019-06-30T09:53:40.000Z</time>
      </trkpt>
      <trkpt lat="47.28733" lon="-2.27641">
        <ele>20.39999961853</ele>
        <time>2019-06-30T09:53:43.000Z</time>
      </trkpt>
      <trkpt lat="47.28721" lon="-2.27662">
        <ele>20.39999961853</ele>
        <time>2019-06-30T09:53:46.000Z</time>
      </trkpt>
      <trkpt lat="47.28698" lon="-2.27698">
        <ele>20.39999961853</ele>
        <time>2019-06-30T09:53:51.000Z</time>
      </trkpt>
      <trkpt lat="47.28677" lon="-2.27735">
        <ele>20.39999961853</ele>
        <time>2019-06-30T09:53:56.000Z</time>
      </trkpt>
      <trkpt lat="47.28665" lon="-2.27756">
        <ele>20.39999961853</ele>
        <time>2019-06-30T09:53:59.000Z</time>
      </trkpt>
      <trkpt lat="47.2866" lon="-2.27772">
        <ele>21.200000762939</ele>
        <time>2019-06-30T09:54:01.000Z</time>
      </trkpt>
      <trkpt lat="47.28658" lon="-2.2778">
        <ele>21.60000038147</ele>
        <time>2019-06-30T09:54:02.000Z</time>
      </trkpt>
      <trkpt lat="47.28656" lon="-2.27788">
        <ele>22</ele>
        <time>2019-06-30T09:54:03.000Z</time>
      </trkpt>
      <trkpt lat="47.28653" lon="-2.27797">
        <ele>22.39999961853</ele>
        <time>2019-06-30T09:54:04.000Z</time>
      </trkpt>
      <trkpt lat="47.28651" lon="-2.27806">
        <ele>22.39999961853</ele>
        <time>2019-06-30T09:54:05.000Z</time>
      </trkpt>
      <trkpt lat="47.28642" lon="-2.27857">
        <ele>22.39999961853</ele>
        <time>2019-06-30T09:54:11.000Z</time>
      </trkpt>
      <trkpt lat="47.28635" lon="-2.27908">
        <ele>22.39999961853</ele>
        <time>2019-06-30T09:54:17.000Z</time>
      </trkpt>
      <trkpt lat="47.28633" lon="-2.27915">
        <ele>22.39999961853</ele>
        <time>2019-06-30T09:54:18.000Z</time>
      </trkpt>
      <trkpt lat="47.28631" lon="-2.27935">
        <ele>22.39999961853</ele>
        <time>2019-06-30T09:54:21.000Z</time>
      </trkpt>
      <trkpt lat="47.28624" lon="-2.27944">
        <ele>22.39999961853</ele>
        <time>2019-06-30T09:54:23.000Z</time>
      </trkpt>
      <trkpt lat="47.28613" lon="-2.2797">
        <ele>22.39999961853</ele>
        <time>2019-06-30T09:54:27.000Z</time>
      </trkpt>
      <trkpt lat="47.28611" lon="-2.27983">
        <ele>22.39999961853</ele>
        <time>2019-06-30T09:54:29.000Z</time>
      </trkpt>
      <trkpt lat="47.28607" lon="-2.28002">
        <ele>22.39999961853</ele>
        <time>2019-06-30T09:54:32.000Z</time>
      </trkpt>
      <trkpt lat="47.28604" lon="-2.28006">
        <ele>22.39999961853</ele>
        <time>2019-06-30T09:54:33.000Z</time>
      </trkpt>
      <trkpt lat="47.28601" lon="-2.28011">
        <ele>22.799999237061</ele>
        <time>2019-06-30T09:54:34.000Z</time>
      </trkpt>
      <trkpt lat="47.28596" lon="-2.28017">
        <ele>23.200000762939</ele>
        <time>2019-06-30T09:54:35.000Z</time>
      </trkpt>
      <trkpt lat="47.28593" lon="-2.28022">
        <ele>23.60000038147</ele>
        <time>2019-06-30T09:54:36.000Z</time>
      </trkpt>
      <trkpt lat="47.28588" lon="-2.28027">
        <ele>24</ele>
        <time>2019-06-30T09:54:37.000Z</time>
      </trkpt>
      <trkpt lat="47.28585" lon="-2.28032">
        <ele>24.39999961853</ele>
        <time>2019-06-30T09:54:38.000Z</time>
      </trkpt>
      <trkpt lat="47.28578" lon="-2.2804">
        <ele>24.39999961853</ele>
        <time>2019-06-30T09:54:40.000Z</time>
      </trkpt>
      <trkpt lat="47.28574" lon="-2.28041">
        <ele>24.39999961853</ele>
        <time>2019-06-30T09:54:41.000Z</time>
      </trkpt>
      <trkpt lat="47.28568" lon="-2.28043">
        <ele>24.39999961853</ele>
        <time>2019-06-30T09:54:43.000Z</time>
      </trkpt>
      <trkpt lat="47.28549" lon="-2.28045">
        <ele>24.39999961853</ele>
        <time>2019-06-30T09:54:48.000Z</time>
      </trkpt>
      <trkpt lat="47.28547" lon="-2.28044">
        <ele>24.39999961853</ele>
        <time>2019-06-30T09:54:49.000Z</time>
      </trkpt>
      <trkpt lat="47.28544" lon="-2.28046">
        <ele>24.39999961853</ele>
        <time>2019-06-30T09:54:50.000Z</time>
      </trkpt>
      <trkpt lat="47.2854" lon="-2.28048">
        <ele>24.39999961853</ele>
        <time>2019-06-30T09:54:52.000Z</time>
      </trkpt>
      <trkpt lat="47.28539" lon="-2.28048">
        <ele>24.799999237061</ele>
        <time>2019-06-30T09:54:53.000Z</time>
      </trkpt>
      <trkpt lat="47.28538" lon="-2.28047">
        <ele>25.39999961853</ele>
        <time>2019-06-30T09:54:54.000Z</time>
      </trkpt>
      <trkpt lat="47.28536" lon="-2.28048">
        <ele>25.799999237061</ele>
        <time>2019-06-30T09:54:55.000Z</time>
      </trkpt>
      <trkpt lat="47.28534" lon="-2.28048">
        <ele>26.200000762939</ele>
        <time>2019-06-30T09:54:56.000Z</time>
      </trkpt>
      <trkpt lat="47.28531" lon="-2.2805">
        <ele>26.60000038147</ele>
        <time>2019-06-30T09:54:57.000Z</time>
      </trkpt>
      <trkpt lat="47.28523" lon="-2.2805">
        <ele>27</ele>
        <time>2019-06-30T09:55:00.000Z</time>
      </trkpt>
      <trkpt lat="47.2852" lon="-2.28049">
        <ele>27.60000038147</ele>
        <time>2019-06-30T09:55:01.000Z</time>
      </trkpt>
      <trkpt lat="47.28518" lon="-2.28049">
        <ele>28</ele>
        <time>2019-06-30T09:55:02.000Z</time>
      </trkpt>
      <trkpt lat="47.28516" lon="-2.28047">
        <ele>28.39999961853</ele>
        <time>2019-06-30T09:55:03.000Z</time>
      </trkpt>
      <trkpt lat="47.28515" lon="-2.28045">
        <ele>28.799999237061</ele>
        <time>2019-06-30T09:55:04.000Z</time>
      </trkpt>
      <trkpt lat="47.28508" lon="-2.28042">
        <ele>29.200000762939</ele>
        <time>2019-06-30T09:55:07.000Z</time>
      </trkpt>
      <trkpt lat="47.28505" lon="-2.2804">
        <ele>29.60000038147</ele>
        <time>2019-06-30T09:55:08.000Z</time>
      </trkpt>
      <trkpt lat="47.28502" lon="-2.28039">
        <ele>30</ele>
        <time>2019-06-30T09:55:09.000Z</time>
      </trkpt>
      <trkpt lat="47.28499" lon="-2.28038">
        <ele>30.39999961853</ele>
        <time>2019-06-30T09:55:10.000Z</time>
      </trkpt>
      <trkpt lat="47.28496" lon="-2.28039">
        <ele>30.799999237061</ele>
        <time>2019-06-30T09:55:11.000Z</time>
      </trkpt>
      <trkpt lat="47.28494" lon="-2.28042">
        <ele>30.799999237061</ele>
        <time>2019-06-30T09:55:12.000Z</time>
      </trkpt>
      <trkpt lat="47.28486" lon="-2.28049">
        <ele>30.799999237061</ele>
        <time>2019-06-30T09:55:15.000Z</time>
      </trkpt>
      <trkpt lat="47.28486" lon="-2.28053">
        <ele>30.799999237061</ele>
        <time>2019-06-30T09:55:16.000Z</time>
      </trkpt>
      <trkpt lat="47.28492" lon="-2.28071">
        <ele>30.799999237061</ele>
        <time>2019-06-30T09:55:21.000Z</time>
      </trkpt>
      <trkpt lat="47.28491" lon="-2.28079">
        <ele>30.799999237061</ele>
        <time>2019-06-30T09:55:24.000Z</time>
      </trkpt>
      <trkpt lat="47.28482" lon="-2.28083">
        <ele>30.799999237061</ele>
        <time>2019-06-30T09:55:27.000Z</time>
      </trkpt>
      <trkpt lat="47.28477" lon="-2.28087">
        <ele>30.799999237061</ele>
        <time>2019-06-30T09:55:28.000Z</time>
      </trkpt>
      <trkpt lat="47.28469" lon="-2.28092">
        <ele>30.39999961853</ele>
        <time>2019-06-30T09:55:30.000Z</time>
      </trkpt>
      <trkpt lat="47.28465" lon="-2.28092">
        <ele>30</ele>
        <time>2019-06-30T09:55:31.000Z</time>
      </trkpt>
      <trkpt lat="47.28462" lon="-2.28091">
        <ele>29.60000038147</ele>
        <time>2019-06-30T09:55:32.000Z</time>
      </trkpt>
      <trkpt lat="47.28459" lon="-2.28091">
        <ele>29</ele>
        <time>2019-06-30T09:55:33.000Z</time>
      </trkpt>
      <trkpt lat="47.28457" lon="-2.2809">
        <ele>28.60000038147</ele>
        <time>2019-06-30T09:55:34.000Z</time>
      </trkpt>
      <trkpt lat="47.28447" lon="-2.28089">
        <ele>28.60000038147</ele>
        <time>2019-06-30T09:55:37.000Z</time>
      </trkpt>
      <trkpt lat="47.28438" lon="-2.2809">
        <ele>28.60000038147</ele>
        <time>2019-06-30T09:55:40.000Z</time>
      </trkpt>
      <trkpt lat="47.28435" lon="-2.28091">
        <ele>28.60000038147</ele>
        <time>2019-06-30T09:55:41.000Z</time>
      </trkpt>
      <trkpt lat="47.28427" lon="-2.28087">
        <ele>28.60000038147</ele>
        <time>2019-06-30T09:55:44.000Z</time>
      </trkpt>
      <trkpt lat="47.28416" lon="-2.28084">
        <ele>28.60000038147</ele>
        <time>2019-06-30T09:55:48.000Z</time>
      </trkpt>
      <trkpt lat="47.28409" lon="-2.28081">
        <ele>28.60000038147</ele>
        <time>2019-06-30T09:55:50.000Z</time>
      </trkpt>
      <trkpt lat="47.28402" lon="-2.28078">
        <ele>28.60000038147</ele>
        <time>2019-06-30T09:55:52.000Z</time>
      </trkpt>
      <trkpt lat="47.2839" lon="-2.28074">
        <ele>28.60000038147</ele>
        <time>2019-06-30T09:55:56.000Z</time>
      </trkpt>
      <trkpt lat="47.28379" lon="-2.28073">
        <ele>28.60000038147</ele>
        <time>2019-06-30T09:56:01.000Z</time>
      </trkpt>
      <trkpt lat="47.28378" lon="-2.28071">
        <ele>28.60000038147</ele>
        <time>2019-06-30T09:56:02.000Z</time>
      </trkpt>
      <trkpt lat="47.28379" lon="-2.28064">
        <ele>28.60000038147</ele>
        <time>2019-06-30T09:56:05.000Z</time>
      </trkpt>
      <trkpt lat="47.28377" lon="-2.28057">
        <ele>28.60000038147</ele>
        <time>2019-06-30T09:56:08.000Z</time>
      </trkpt>
      <trkpt lat="47.28374" lon="-2.28056">
        <ele>28.60000038147</ele>
        <time>2019-06-30T09:56:10.000Z</time>
      </trkpt>
      <trkpt lat="47.28372" lon="-2.28059">
        <ele>28.60000038147</ele>
        <time>2019-06-30T09:56:12.000Z</time>
      </trkpt>
      <trkpt lat="47.2837" lon="-2.28064">
        <ele>28.60000038147</ele>
        <time>2019-06-30T09:56:14.000Z</time>
      </trkpt>
      <trkpt lat="47.2837" lon="-2.28069">
        <ele>28.60000038147</ele>
        <time>2019-06-30T09:56:16.000Z</time>
      </trkpt>
      <trkpt lat="47.28369" lon="-2.28073">
        <ele>28.60000038147</ele>
        <time>2019-06-30T09:56:18.000Z</time>
      </trkpt>
      <trkpt lat="47.28365" lon="-2.28079">
        <ele>28.60000038147</ele>
        <time>2019-06-30T09:56:20.000Z</time>
      </trkpt>
      <trkpt lat="47.28367" lon="-2.28094">
        <ele>28.60000038147</ele>
        <time>2019-06-30T09:56:23.000Z</time>
      </trkpt>
      <trkpt lat="47.28369" lon="-2.28118">
        <ele>28.60000038147</ele>
        <time>2019-06-30T09:56:27.000Z</time>
      </trkpt>
      <trkpt lat="47.28369" lon="-2.28124">
        <ele>28.60000038147</ele>
        <time>2019-06-30T09:56:28.000Z</time>
      </trkpt>
      <trkpt lat="47.28369" lon="-2.28147">
        <ele>28.60000038147</ele>
        <time>2019-06-30T09:56:33.000Z</time>
      </trkpt>
      <trkpt lat="47.2837" lon="-2.28184">
        <ele>29</ele>
        <time>2019-06-30T09:56:40.000Z</time>
      </trkpt>
      <trkpt lat="47.2837" lon="-2.28188">
        <ele>29.60000038147</ele>
        <time>2019-06-30T09:56:41.000Z</time>
      </trkpt>
      <trkpt lat="47.2837" lon="-2.28194">
        <ele>30</ele>
        <time>2019-06-30T09:56:42.000Z</time>
      </trkpt>
      <trkpt lat="47.28371" lon="-2.28198">
        <ele>30.39999961853</ele>
        <time>2019-06-30T09:56:43.000Z</time>
      </trkpt>
      <trkpt lat="47.28371" lon="-2.28203">
        <ele>30.799999237061</ele>
        <time>2019-06-30T09:56:44.000Z</time>
      </trkpt>
      <trkpt lat="47.2837" lon="-2.28218">
        <ele>30.799999237061</ele>
        <time>2019-06-30T09:56:47.000Z</time>
      </trkpt>
      <trkpt lat="47.28369" lon="-2.28228">
        <ele>31.200000762939</ele>
        <time>2019-06-30T09:56:49.000Z</time>
      </trkpt>
      <trkpt lat="47.2837" lon="-2.28232">
        <ele>31.60000038147</ele>
        <time>2019-06-30T09:56:50.000Z</time>
      </trkpt>
      <trkpt lat="47.2837" lon="-2.28237">
        <ele>32</ele>
        <time>2019-06-30T09:56:51.000Z</time>
      </trkpt>
      <trkpt lat="47.2837" lon="-2.28242">
        <ele>32.400001525879</ele>
        <time>2019-06-30T09:56:52.000Z</time>
      </trkpt>
      <trkpt lat="47.28371" lon="-2.28247">
        <ele>32.799999237061</ele>
        <time>2019-06-30T09:56:53.000Z</time>
      </trkpt>
      <trkpt lat="47.28371" lon="-2.28276">
        <ele>32.799999237061</ele>
        <time>2019-06-30T09:56:58.000Z</time>
      </trkpt>
      <trkpt lat="47.28371" lon="-2.28296">
        <ele>33.400001525879</ele>
        <time>2019-06-30T09:57:02.000Z</time>
      </trkpt>
      <trkpt lat="47.28372" lon="-2.28302">
        <ele>33.799999237061</ele>
        <time>2019-06-30T09:57:03.000Z</time>
      </trkpt>
      <trkpt lat="47.28372" lon="-2.28308">
        <ele>34.200000762939</ele>
        <time>2019-06-30T09:57:04.000Z</time>
      </trkpt>
      <trkpt lat="47.28372" lon="-2.28313">
        <ele>34.599998474121</ele>
        <time>2019-06-30T09:57:05.000Z</time>
      </trkpt>
      <trkpt lat="47.28373" lon="-2.28319">
        <ele>35</ele>
        <time>2019-06-30T09:57:06.000Z</time>
      </trkpt>
      <trkpt lat="47.28372" lon="-2.28368">
        <ele>35</ele>
        <time>2019-06-30T09:57:14.000Z</time>
      </trkpt>
      <trkpt lat="47.28375" lon="-2.28398">
        <ele>35</ele>
        <time>2019-06-30T09:57:19.000Z</time>
      </trkpt>
      <trkpt lat="47.28377" lon="-2.28425">
        <ele>35</ele>
        <time>2019-06-30T09:57:23.000Z</time>
      </trkpt>
      <trkpt lat="47.28377" lon="-2.28442">
        <ele>35</ele>
        <time>2019-06-30T09:57:25.000Z</time>
      </trkpt>
      <trkpt lat="47.2838" lon="-2.28502">
        <ele>35</ele>
        <time>2019-06-30T09:57:32.000Z</time>
      </trkpt>
      <trkpt lat="47.28382" lon="-2.28561">
        <ele>35</ele>
        <time>2019-06-30T09:57:39.000Z</time>
      </trkpt>
      <trkpt lat="47.28383" lon="-2.28616">
        <ele>35</ele>
        <time>2019-06-30T09:57:45.000Z</time>
      </trkpt>
      <trkpt lat="47.28385" lon="-2.2867">
        <ele>35</ele>
        <time>2019-06-30T09:57:51.000Z</time>
      </trkpt>
      <trkpt lat="47.28385" lon="-2.28688">
        <ele>35</ele>
        <time>2019-06-30T09:57:53.000Z</time>
      </trkpt>
      <trkpt lat="47.28389" lon="-2.28753">
        <ele>35.400001525879</ele>
        <time>2019-06-30T09:58:00.000Z</time>
      </trkpt>
      <trkpt lat="47.28389" lon="-2.28761">
        <ele>35.799999237061</ele>
        <time>2019-06-30T09:58:01.000Z</time>
      </trkpt>
      <trkpt lat="47.28389" lon="-2.28771">
        <ele>36.400001525879</ele>
        <time>2019-06-30T09:58:02.000Z</time>
      </trkpt>
      <trkpt lat="47.2839" lon="-2.2878">
        <ele>36.799999237061</ele>
        <time>2019-06-30T09:58:03.000Z</time>
      </trkpt>
      <trkpt lat="47.2839" lon="-2.2879">
        <ele>37.200000762939</ele>
        <time>2019-06-30T09:58:04.000Z</time>
      </trkpt>
      <trkpt lat="47.28392" lon="-2.2883">
        <ele>37.200000762939</ele>
        <time>2019-06-30T09:58:08.000Z</time>
      </trkpt>
      <trkpt lat="47.28394" lon="-2.28895">
        <ele>37.200000762939</ele>
        <time>2019-06-30T09:58:14.000Z</time>
      </trkpt>
      <trkpt lat="47.28395" lon="-2.28944">
        <ele>37.200000762939</ele>
        <time>2019-06-30T09:58:19.000Z</time>
      </trkpt>
      <trkpt lat="47.28398" lon="-2.28988">
        <ele>37.200000762939</ele>
        <time>2019-06-30T09:58:25.000Z</time>
      </trkpt>
      <trkpt lat="47.28403" lon="-2.28991">
        <ele>36.599998474121</ele>
        <time>2019-06-30T09:58:27.000Z</time>
      </trkpt>
      <trkpt lat="47.28406" lon="-2.28992">
        <ele>36.200000762939</ele>
        <time>2019-06-30T09:58:28.000Z</time>
      </trkpt>
      <trkpt lat="47.28409" lon="-2.28994">
        <ele>35.799999237061</ele>
        <time>2019-06-30T09:58:29.000Z</time>
      </trkpt>
      <trkpt lat="47.28413" lon="-2.28994">
        <ele>35.400001525879</ele>
        <time>2019-06-30T09:58:30.000Z</time>
      </trkpt>
      <trkpt lat="47.28417" lon="-2.28994">
        <ele>35</ele>
        <time>2019-06-30T09:58:31.000Z</time>
      </trkpt>
      <trkpt lat="47.28433" lon="-2.28996">
        <ele>35</ele>
        <time>2019-06-30T09:58:35.000Z</time>
      </trkpt>
      <trkpt lat="47.28438" lon="-2.28997">
        <ele>35</ele>
        <time>2019-06-30T09:58:36.000Z</time>
      </trkpt>
      <trkpt lat="47.28443" lon="-2.28998">
        <ele>35</ele>
        <time>2019-06-30T09:58:37.000Z</time>
      </trkpt>
      <trkpt lat="47.28454" lon="-2.29">
        <ele>34.599998474121</ele>
        <time>2019-06-30T09:58:39.000Z</time>
      </trkpt>
      <trkpt lat="47.28461" lon="-2.29002">
        <ele>34.200000762939</ele>
        <time>2019-06-30T09:58:40.000Z</time>
      </trkpt>
      <trkpt lat="47.28467" lon="-2.29003">
        <ele>33.599998474121</ele>
        <time>2019-06-30T09:58:41.000Z</time>
      </trkpt>
      <trkpt lat="47.28473" lon="-2.29006">
        <ele>33.200000762939</ele>
        <time>2019-06-30T09:58:42.000Z</time>
      </trkpt>
      <trkpt lat="47.28479" lon="-2.29008">
        <ele>32.799999237061</ele>
        <time>2019-06-30T09:58:43.000Z</time>
      </trkpt>
      <trkpt lat="47.28484" lon="-2.2901">
        <ele>32.799999237061</ele>
        <time>2019-06-30T09:58:44.000Z</time>
      </trkpt>
      <trkpt lat="47.28495" lon="-2.29015">
        <ele>32.799999237061</ele>
        <time>2019-06-30T09:58:46.000Z</time>
      </trkpt>
      <trkpt lat="47.285" lon="-2.29018">
        <ele>32.799999237061</ele>
        <time>2019-06-30T09:58:47.000Z</time>
      </trkpt>
      <trkpt lat="47.28518" lon="-2.29026">
        <ele>32.400001525879</ele>
        <time>2019-06-30T09:58:50.000Z</time>
      </trkpt>
      <trkpt lat="47.28524" lon="-2.29027">
        <ele>32</ele>
        <time>2019-06-30T09:58:51.000Z</time>
      </trkpt>
      <trkpt lat="47.28529" lon="-2.29028">
        <ele>31.60000038147</ele>
        <time>2019-06-30T09:58:52.000Z</time>
      </trkpt>
      <trkpt lat="47.28534" lon="-2.29028">
        <ele>31</ele>
        <time>2019-06-30T09:58:53.000Z</time>
      </trkpt>
      <trkpt lat="47.28539" lon="-2.29029">
        <ele>30.60000038147</ele>
        <time>2019-06-30T09:58:54.000Z</time>
      </trkpt>
      <trkpt lat="47.28549" lon="-2.29031">
        <ele>30.60000038147</ele>
        <time>2019-06-30T09:58:56.000Z</time>
      </trkpt>
      <trkpt lat="47.2858" lon="-2.29037">
        <ele>30.60000038147</ele>
        <time>2019-06-30T09:59:02.000Z</time>
      </trkpt>
      <trkpt lat="47.28585" lon="-2.29039">
        <ele>30.200000762939</ele>
        <time>2019-06-30T09:59:03.000Z</time>
      </trkpt>
      <trkpt lat="47.28589" lon="-2.29041">
        <ele>29.799999237061</ele>
        <time>2019-06-30T09:59:04.000Z</time>
      </trkpt>
      <trkpt lat="47.28594" lon="-2.29043">
        <ele>29.39999961853</ele>
        <time>2019-06-30T09:59:05.000Z</time>
      </trkpt>
      <trkpt lat="47.28597" lon="-2.29046">
        <ele>29</ele>
        <time>2019-06-30T09:59:06.000Z</time>
      </trkpt>
      <trkpt lat="47.286" lon="-2.29047">
        <ele>28.60000038147</ele>
        <time>2019-06-30T09:59:07.000Z</time>
      </trkpt>
      <trkpt lat="47.28614" lon="-2.29051">
        <ele>28.60000038147</ele>
        <time>2019-06-30T09:59:11.000Z</time>
      </trkpt>
      <trkpt lat="47.28616" lon="-2.29055">
        <ele>28.60000038147</ele>
        <time>2019-06-30T09:59:12.000Z</time>
      </trkpt>
      <trkpt lat="47.28617" lon="-2.29057">
        <ele>28.60000038147</ele>
        <time>2019-06-30T09:59:13.000Z</time>
      </trkpt>
      <trkpt lat="47.28618" lon="-2.2906">
        <ele>28.60000038147</ele>
        <time>2019-06-30T09:59:15.000Z</time>
      </trkpt>
      <trkpt lat="47.28618" lon="-2.29062">
        <ele>28.60000038147</ele>
        <time>2019-06-30T09:59:16.000Z</time>
      </trkpt>
      <trkpt lat="47.28616" lon="-2.29064">
        <ele>28.60000038147</ele>
        <time>2019-06-30T09:59:19.000Z</time>
      </trkpt>
      <trkpt lat="47.28615" lon="-2.29063">
        <ele>28.60000038147</ele>
        <time>2019-06-30T09:59:51.000Z</time>
      </trkpt>
      <trkpt lat="47.28614" lon="-2.29052">
        <ele>28.60000038147</ele>
        <time>2019-06-30T09:59:56.000Z</time>
      </trkpt>
      <trkpt lat="47.28614" lon="-2.2905">
        <ele>28.60000038147</ele>
        <time>2019-06-30T09:59:59.000Z</time>
      </trkpt>
      <trkpt lat="47.28615" lon="-2.29054">
        <ele>28.60000038147</ele>
        <time>2019-06-30T10:01:42.000Z</time>
      </trkpt>
      <trkpt lat="47.28614" lon="-2.29056">
        <ele>28.60000038147</ele>
        <time>2019-06-30T10:01:43.000Z</time>
      </trkpt>
      <trkpt lat="47.28607" lon="-2.2907">
        <ele>28.60000038147</ele>
        <time>2019-06-30T10:01:47.000Z</time>
      </trkpt>
      <trkpt lat="47.28606" lon="-2.29075">
        <ele>28.60000038147</ele>
        <time>2019-06-30T10:01:48.000Z</time>
      </trkpt>
      <trkpt lat="47.28598" lon="-2.29104">
        <ele>28.60000038147</ele>
        <time>2019-06-30T10:01:53.000Z</time>
      </trkpt>
      <trkpt lat="47.28596" lon="-2.29109">
        <ele>28.60000038147</ele>
        <time>2019-06-30T10:01:54.000Z</time>
      </trkpt>
      <trkpt lat="47.28589" lon="-2.29126">
        <ele>28.60000038147</ele>
        <time>2019-06-30T10:01:57.000Z</time>
      </trkpt>
      <trkpt lat="47.28573" lon="-2.29157">
        <ele>28.60000038147</ele>
        <time>2019-06-30T10:02:03.000Z</time>
      </trkpt>
      <trkpt lat="47.28557" lon="-2.29171">
        <ele>28.60000038147</ele>
        <time>2019-06-30T10:02:07.000Z</time>
      </trkpt>
      <trkpt lat="47.28529" lon="-2.29195">
        <ele>28.60000038147</ele>
        <time>2019-06-30T10:02:14.000Z</time>
      </trkpt>
      <trkpt lat="47.28525" lon="-2.29199">
        <ele>28.60000038147</ele>
        <time>2019-06-30T10:02:15.000Z</time>
      </trkpt>
      <trkpt lat="47.28521" lon="-2.29211">
        <ele>28.60000038147</ele>
        <time>2019-06-30T10:02:17.000Z</time>
      </trkpt>
      <trkpt lat="47.28521" lon="-2.29234">
        <ele>28.60000038147</ele>
        <time>2019-06-30T10:02:20.000Z</time>
      </trkpt>
      <trkpt lat="47.28521" lon="-2.29248">
        <ele>28.60000038147</ele>
        <time>2019-06-30T10:02:22.000Z</time>
      </trkpt>
      <trkpt lat="47.28523" lon="-2.29281">
        <ele>28.60000038147</ele>
        <time>2019-06-30T10:02:28.000Z</time>
      </trkpt>
      <trkpt lat="47.28525" lon="-2.29287">
        <ele>28.60000038147</ele>
        <time>2019-06-30T10:02:31.000Z</time>
      </trkpt>
      <trkpt lat="47.28525" lon="-2.29289">
        <ele>28.60000038147</ele>
        <time>2019-06-30T10:02:32.000Z</time>
      </trkpt>
      <trkpt lat="47.2852" lon="-2.29296">
        <ele>28.60000038147</ele>
        <time>2019-06-30T10:02:36.000Z</time>
      </trkpt>
      <trkpt lat="47.28514" lon="-2.29299">
        <ele>28.60000038147</ele>
        <time>2019-06-30T10:02:40.000Z</time>
      </trkpt>
      <trkpt lat="47.28496" lon="-2.29309">
        <ele>28.60000038147</ele>
        <time>2019-06-30T10:02:45.000Z</time>
      </trkpt>
      <trkpt lat="47.28484" lon="-2.29317">
        <ele>28.60000038147</ele>
        <time>2019-06-30T10:02:48.000Z</time>
      </trkpt>
      <trkpt lat="47.28471" lon="-2.29322">
        <ele>28.60000038147</ele>
        <time>2019-06-30T10:02:51.000Z</time>
      </trkpt>
      <trkpt lat="47.28466" lon="-2.29324">
        <ele>29</ele>
        <time>2019-06-30T10:02:52.000Z</time>
      </trkpt>
      <trkpt lat="47.28462" lon="-2.29326">
        <ele>29.39999961853</ele>
        <time>2019-06-30T10:02:53.000Z</time>
      </trkpt>
      <trkpt lat="47.28458" lon="-2.29329">
        <ele>29.799999237061</ele>
        <time>2019-06-30T10:02:54.000Z</time>
      </trkpt>
      <trkpt lat="47.28453" lon="-2.29331">
        <ele>30.200000762939</ele>
        <time>2019-06-30T10:02:55.000Z</time>
      </trkpt>
      <trkpt lat="47.28449" lon="-2.29333">
        <ele>30.60000038147</ele>
        <time>2019-06-30T10:02:56.000Z</time>
      </trkpt>
      <trkpt lat="47.28439" lon="-2.29337">
        <ele>30.60000038147</ele>
        <time>2019-06-30T10:02:58.000Z</time>
      </trkpt>
      <trkpt lat="47.28416" lon="-2.29347">
        <ele>31</ele>
        <time>2019-06-30T10:03:03.000Z</time>
      </trkpt>
      <trkpt lat="47.28411" lon="-2.29349">
        <ele>31.60000038147</ele>
        <time>2019-06-30T10:03:04.000Z</time>
      </trkpt>
      <trkpt lat="47.28407" lon="-2.29351">
        <ele>32.400001525879</ele>
        <time>2019-06-30T10:03:05.000Z</time>
      </trkpt>
      <trkpt lat="47.28403" lon="-2.29354">
        <ele>32.799999237061</ele>
        <time>2019-06-30T10:03:06.000Z</time>
      </trkpt>
      <trkpt lat="47.28395" lon="-2.29359">
        <ele>32.799999237061</ele>
        <time>2019-06-30T10:03:08.000Z</time>
      </trkpt>
      <trkpt lat="47.28378" lon="-2.29368">
        <ele>32.799999237061</ele>
        <time>2019-06-30T10:03:12.000Z</time>
      </trkpt>
      <trkpt lat="47.28349" lon="-2.2939">
        <ele>32.799999237061</ele>
        <time>2019-06-30T10:03:18.000Z</time>
      </trkpt>
      <trkpt lat="47.28344" lon="-2.29395">
        <ele>32.799999237061</ele>
        <time>2019-06-30T10:03:19.000Z</time>
      </trkpt>
      <trkpt lat="47.28309" lon="-2.29432">
        <ele>32.799999237061</ele>
        <time>2019-06-30T10:03:26.000Z</time>
      </trkpt>
      <trkpt lat="47.28293" lon="-2.29447">
        <ele>32.799999237061</ele>
        <time>2019-06-30T10:03:29.000Z</time>
      </trkpt>
      <trkpt lat="47.28276" lon="-2.29459">
        <ele>32.799999237061</ele>
        <time>2019-06-30T10:03:32.000Z</time>
      </trkpt>
      <trkpt lat="47.28237" lon="-2.29484">
        <ele>32.799999237061</ele>
        <time>2019-06-30T10:03:39.000Z</time>
      </trkpt>
      <trkpt lat="47.28221" lon="-2.29493">
        <ele>33.200000762939</ele>
        <time>2019-06-30T10:03:42.000Z</time>
      </trkpt>
      <trkpt lat="47.28216" lon="-2.29496">
        <ele>33.599998474121</ele>
        <time>2019-06-30T10:03:43.000Z</time>
      </trkpt>
      <trkpt lat="47.2821" lon="-2.29499">
        <ele>34</ele>
        <time>2019-06-30T10:03:44.000Z</time>
      </trkpt>
      <trkpt lat="47.28205" lon="-2.29501">
        <ele>34.400001525879</ele>
        <time>2019-06-30T10:03:45.000Z</time>
      </trkpt>
      <trkpt lat="47.282" lon="-2.29504">
        <ele>35</ele>
        <time>2019-06-30T10:03:46.000Z</time>
      </trkpt>
      <trkpt lat="47.28195" lon="-2.29506">
        <ele>35</ele>
        <time>2019-06-30T10:03:47.000Z</time>
      </trkpt>
      <trkpt lat="47.28163" lon="-2.29519">
        <ele>35</ele>
        <time>2019-06-30T10:03:53.000Z</time>
      </trkpt>
      <trkpt lat="47.28158" lon="-2.29521">
        <ele>35.799999237061</ele>
        <time>2019-06-30T10:03:54.000Z</time>
      </trkpt>
      <trkpt lat="47.28153" lon="-2.29522">
        <ele>36.200000762939</ele>
        <time>2019-06-30T10:03:55.000Z</time>
      </trkpt>
      <trkpt lat="47.28147" lon="-2.29524">
        <ele>36.599998474121</ele>
        <time>2019-06-30T10:03:56.000Z</time>
      </trkpt>
      <trkpt lat="47.28142" lon="-2.29526">
        <ele>37</ele>
        <time>2019-06-30T10:03:57.000Z</time>
      </trkpt>
      <trkpt lat="47.2812" lon="-2.29536">
        <ele>37</ele>
        <time>2019-06-30T10:04:01.000Z</time>
      </trkpt>
      <trkpt lat="47.28114" lon="-2.29538">
        <ele>37.400001525879</ele>
        <time>2019-06-30T10:04:02.000Z</time>
      </trkpt>
      <trkpt lat="47.28109" lon="-2.29541">
        <ele>37.799999237061</ele>
        <time>2019-06-30T10:04:03.000Z</time>
      </trkpt>
      <trkpt lat="47.28104" lon="-2.29543">
        <ele>38.200000762939</ele>
        <time>2019-06-30T10:04:04.000Z</time>
      </trkpt>
      <trkpt lat="47.28099" lon="-2.29545">
        <ele>38.599998474121</ele>
        <time>2019-06-30T10:04:05.000Z</time>
      </trkpt>
      <trkpt lat="47.28093" lon="-2.29547">
        <ele>39</ele>
        <time>2019-06-30T10:04:06.000Z</time>
      </trkpt>
      <trkpt lat="47.28082" lon="-2.29552">
        <ele>39</ele>
        <time>2019-06-30T10:04:08.000Z</time>
      </trkpt>
      <trkpt lat="47.28048" lon="-2.29568">
        <ele>39</ele>
        <time>2019-06-30T10:04:14.000Z</time>
      </trkpt>
      <trkpt lat="47.28042" lon="-2.2957">
        <ele>39</ele>
        <time>2019-06-30T10:04:15.000Z</time>
      </trkpt>
      <trkpt lat="47.28019" lon="-2.29579">
        <ele>39</ele>
        <time>2019-06-30T10:04:19.000Z</time>
      </trkpt>
      <trkpt lat="47.27966" lon="-2.29597">
        <ele>39</ele>
        <time>2019-06-30T10:04:28.000Z</time>
      </trkpt>
      <trkpt lat="47.27941" lon="-2.29598">
        <ele>39</ele>
        <time>2019-06-30T10:04:32.000Z</time>
      </trkpt>
      <trkpt lat="47.27929" lon="-2.29599">
        <ele>39</ele>
        <time>2019-06-30T10:04:34.000Z</time>
      </trkpt>
      <trkpt lat="47.27884" lon="-2.29595">
        <ele>39</ele>
        <time>2019-06-30T10:04:42.000Z</time>
      </trkpt>
      <trkpt lat="47.27855" lon="-2.29595">
        <ele>38.599998474121</ele>
        <time>2019-06-30T10:04:48.000Z</time>
      </trkpt>
      <trkpt lat="47.27852" lon="-2.29596">
        <ele>38.200000762939</ele>
        <time>2019-06-30T10:04:49.000Z</time>
      </trkpt>
      <trkpt lat="47.27849" lon="-2.29596">
        <ele>37.799999237061</ele>
        <time>2019-06-30T10:04:50.000Z</time>
      </trkpt>
      <trkpt lat="47.27845" lon="-2.29595">
        <ele>37.200000762939</ele>
        <time>2019-06-30T10:04:51.000Z</time>
      </trkpt>
      <trkpt lat="47.27841" lon="-2.29594">
        <ele>36.799999237061</ele>
        <time>2019-06-30T10:04:52.000Z</time>
      </trkpt>
      <trkpt lat="47.27836" lon="-2.29593">
        <ele>36.799999237061</ele>
        <time>2019-06-30T10:04:53.000Z</time>
      </trkpt>
      <trkpt lat="47.27825" lon="-2.29592">
        <ele>36.799999237061</ele>
        <time>2019-06-30T10:04:55.000Z</time>
      </trkpt>
      <trkpt lat="47.27803" lon="-2.29593">
        <ele>36.799999237061</ele>
        <time>2019-06-30T10:04:59.000Z</time>
      </trkpt>
      <trkpt lat="47.27761" lon="-2.29593">
        <ele>36.799999237061</ele>
        <time>2019-06-30T10:05:06.000Z</time>
      </trkpt>
      <trkpt lat="47.27718" lon="-2.29595">
        <ele>36.799999237061</ele>
        <time>2019-06-30T10:05:13.000Z</time>
      </trkpt>
      <trkpt lat="47.27668" lon="-2.29595">
        <ele>36.799999237061</ele>
        <time>2019-06-30T10:05:21.000Z</time>
      </trkpt>
      <trkpt lat="47.27624" lon="-2.29596">
        <ele>36.799999237061</ele>
        <time>2019-06-30T10:05:28.000Z</time>
      </trkpt>
      <trkpt lat="47.27586" lon="-2.29597">
        <ele>36.799999237061</ele>
        <time>2019-06-30T10:05:34.000Z</time>
      </trkpt>
      <trkpt lat="47.27543" lon="-2.29597">
        <ele>36.799999237061</ele>
        <time>2019-06-30T10:05:41.000Z</time>
      </trkpt>
      <trkpt lat="47.27525" lon="-2.29598">
        <ele>36.400001525879</ele>
        <time>2019-06-30T10:05:44.000Z</time>
      </trkpt>
      <trkpt lat="47.27519" lon="-2.29599">
        <ele>36</ele>
        <time>2019-06-30T10:05:45.000Z</time>
      </trkpt>
      <trkpt lat="47.27513" lon="-2.296">
        <ele>35.599998474121</ele>
        <time>2019-06-30T10:05:46.000Z</time>
      </trkpt>
      <trkpt lat="47.27506" lon="-2.29602">
        <ele>35.200000762939</ele>
        <time>2019-06-30T10:05:47.000Z</time>
      </trkpt>
      <trkpt lat="47.275" lon="-2.29603">
        <ele>34.799999237061</ele>
        <time>2019-06-30T10:05:48.000Z</time>
      </trkpt>
      <trkpt lat="47.2747" lon="-2.2961">
        <ele>34.799999237061</ele>
        <time>2019-06-30T10:05:53.000Z</time>
      </trkpt>
      <trkpt lat="47.27435" lon="-2.29619">
        <ele>34.799999237061</ele>
        <time>2019-06-30T10:05:59.000Z</time>
      </trkpt>
      <trkpt lat="47.27394" lon="-2.29628">
        <ele>34.799999237061</ele>
        <time>2019-06-30T10:06:06.000Z</time>
      </trkpt>
      <trkpt lat="47.2735" lon="-2.29635">
        <ele>34.799999237061</ele>
        <time>2019-06-30T10:06:13.000Z</time>
      </trkpt>
      <trkpt lat="47.27307" lon="-2.29641">
        <ele>34.799999237061</ele>
        <time>2019-06-30T10:06:20.000Z</time>
      </trkpt>
      <trkpt lat="47.27263" lon="-2.29646">
        <ele>34.799999237061</ele>
        <time>2019-06-30T10:06:27.000Z</time>
      </trkpt>
      <trkpt lat="47.27222" lon="-2.29652">
        <ele>34.799999237061</ele>
        <time>2019-06-30T10:06:34.000Z</time>
      </trkpt>
      <trkpt lat="47.27187" lon="-2.29656">
        <ele>34.799999237061</ele>
        <time>2019-06-30T10:06:40.000Z</time>
      </trkpt>
      <trkpt lat="47.27175" lon="-2.29656">
        <ele>35.200000762939</ele>
        <time>2019-06-30T10:06:42.000Z</time>
      </trkpt>
      <trkpt lat="47.27169" lon="-2.29657">
        <ele>35.599998474121</ele>
        <time>2019-06-30T10:06:43.000Z</time>
      </trkpt>
      <trkpt lat="47.27162" lon="-2.29658">
        <ele>36.200000762939</ele>
        <time>2019-06-30T10:06:44.000Z</time>
      </trkpt>
      <trkpt lat="47.27156" lon="-2.29658">
        <ele>36.599998474121</ele>
        <time>2019-06-30T10:06:45.000Z</time>
      </trkpt>
      <trkpt lat="47.2715" lon="-2.29659">
        <ele>37</ele>
        <time>2019-06-30T10:06:46.000Z</time>
      </trkpt>
      <trkpt lat="47.27119" lon="-2.29662">
        <ele>37</ele>
        <time>2019-06-30T10:06:52.000Z</time>
      </trkpt>
      <trkpt lat="47.27113" lon="-2.29673">
        <ele>37</ele>
        <time>2019-06-30T10:06:55.000Z</time>
      </trkpt>
      <trkpt lat="47.27113" lon="-2.29686">
        <ele>37</ele>
        <time>2019-06-30T10:06:57.000Z</time>
      </trkpt>
      <trkpt lat="47.27114" lon="-2.29702">
        <ele>37</ele>
        <time>2019-06-30T10:06:59.000Z</time>
      </trkpt>
      <trkpt lat="47.27114" lon="-2.29746">
        <ele>37</ele>
        <time>2019-06-30T10:07:04.000Z</time>
      </trkpt>
      <trkpt lat="47.27113" lon="-2.2978">
        <ele>37</ele>
        <time>2019-06-30T10:07:08.000Z</time>
      </trkpt>
      <trkpt lat="47.27113" lon="-2.29804">
        <ele>37</ele>
        <time>2019-06-30T10:07:11.000Z</time>
      </trkpt>
      <trkpt lat="47.27112" lon="-2.29816">
        <ele>37</ele>
        <time>2019-06-30T10:07:13.000Z</time>
      </trkpt>
      <trkpt lat="47.27109" lon="-2.29846">
        <ele>37</ele>
        <time>2019-06-30T10:07:17.000Z</time>
      </trkpt>
      <trkpt lat="47.27107" lon="-2.29854">
        <ele>37</ele>
        <time>2019-06-30T10:07:18.000Z</time>
      </trkpt>
      <trkpt lat="47.27095" lon="-2.29888">
        <ele>37</ele>
        <time>2019-06-30T10:07:22.000Z</time>
      </trkpt>
      <trkpt lat="47.2709" lon="-2.29895">
        <ele>37</ele>
        <time>2019-06-30T10:07:23.000Z</time>
      </trkpt>
      <trkpt lat="47.2708" lon="-2.29906">
        <ele>37</ele>
        <time>2019-06-30T10:07:25.000Z</time>
      </trkpt>
      <trkpt lat="47.27056" lon="-2.29937">
        <ele>37</ele>
        <time>2019-06-30T10:07:30.000Z</time>
      </trkpt>
      <trkpt lat="47.27035" lon="-2.29983">
        <ele>37</ele>
        <time>2019-06-30T10:07:36.000Z</time>
      </trkpt>
      <trkpt lat="47.27018" lon="-2.30031">
        <ele>37</ele>
        <time>2019-06-30T10:07:42.000Z</time>
      </trkpt>
      <trkpt lat="47.27013" lon="-2.30053">
        <ele>37</ele>
        <time>2019-06-30T10:07:46.000Z</time>
      </trkpt>
      <trkpt lat="47.2702" lon="-2.30055">
        <ele>37</ele>
        <time>2019-06-30T10:07:49.000Z</time>
      </trkpt>
      <trkpt lat="47.27042" lon="-2.30057">
        <ele>37</ele>
        <time>2019-06-30T10:07:55.000Z</time>
      </trkpt>
      <trkpt lat="47.27054" lon="-2.30059">
        <ele>37</ele>
        <time>2019-06-30T10:07:57.000Z</time>
      </trkpt>
      <trkpt lat="47.2707" lon="-2.30068">
        <ele>37</ele>
        <time>2019-06-30T10:08:00.000Z</time>
      </trkpt>
      <trkpt lat="47.27074" lon="-2.30073">
        <ele>37</ele>
        <time>2019-06-30T10:08:01.000Z</time>
      </trkpt>
      <trkpt lat="47.27092" lon="-2.30088">
        <ele>37</ele>
        <time>2019-06-30T10:08:04.000Z</time>
      </trkpt>
      <trkpt lat="47.27105" lon="-2.30095">
        <ele>37</ele>
        <time>2019-06-30T10:08:06.000Z</time>
      </trkpt>
      <trkpt lat="47.27112" lon="-2.30097">
        <ele>36.599998474121</ele>
        <time>2019-06-30T10:08:07.000Z</time>
      </trkpt>
      <trkpt lat="47.27118" lon="-2.30099">
        <ele>36.200000762939</ele>
        <time>2019-06-30T10:08:08.000Z</time>
      </trkpt>
      <trkpt lat="47.27124" lon="-2.30101">
        <ele>35.799999237061</ele>
        <time>2019-06-30T10:08:09.000Z</time>
      </trkpt>
      <trkpt lat="47.2713" lon="-2.30102">
        <ele>35.400001525879</ele>
        <time>2019-06-30T10:08:10.000Z</time>
      </trkpt>
      <trkpt lat="47.27136" lon="-2.30104">
        <ele>35</ele>
        <time>2019-06-30T10:08:11.000Z</time>
      </trkpt>
      <trkpt lat="47.27142" lon="-2.30106">
        <ele>35</ele>
        <time>2019-06-30T10:08:12.000Z</time>
      </trkpt>
      <trkpt lat="47.2715" lon="-2.30112">
        <ele>35</ele>
        <time>2019-06-30T10:08:14.000Z</time>
      </trkpt>
      <trkpt lat="47.27154" lon="-2.30123">
        <ele>34.599998474121</ele>
        <time>2019-06-30T10:08:16.000Z</time>
      </trkpt>
      <trkpt lat="47.27154" lon="-2.3013">
        <ele>34</ele>
        <time>2019-06-30T10:08:17.000Z</time>
      </trkpt>
      <trkpt lat="47.27154" lon="-2.30136">
        <ele>33.599998474121</ele>
        <time>2019-06-30T10:08:18.000Z</time>
      </trkpt>
      <trkpt lat="47.27155" lon="-2.30143">
        <ele>33.200000762939</ele>
        <time>2019-06-30T10:08:19.000Z</time>
      </trkpt>
      <trkpt lat="47.27155" lon="-2.30149">
        <ele>32.799999237061</ele>
        <time>2019-06-30T10:08:20.000Z</time>
      </trkpt>
      <trkpt lat="47.27156" lon="-2.30163">
        <ele>32.799999237061</ele>
        <time>2019-06-30T10:08:22.000Z</time>
      </trkpt>
      <trkpt lat="47.27156" lon="-2.302">
        <ele>32.799999237061</ele>
        <time>2019-06-30T10:08:26.000Z</time>
      </trkpt>
      <trkpt lat="47.27155" lon="-2.30208">
        <ele>31.799999237061</ele>
        <time>2019-06-30T10:08:27.000Z</time>
      </trkpt>
      <trkpt lat="47.27153" lon="-2.30215">
        <ele>31.200000762939</ele>
        <time>2019-06-30T10:08:28.000Z</time>
      </trkpt>
      <trkpt lat="47.2715" lon="-2.30221">
        <ele>30.799999237061</ele>
        <time>2019-06-30T10:08:29.000Z</time>
      </trkpt>
      <trkpt lat="47.27145" lon="-2.30225">
        <ele>30.39999961853</ele>
        <time>2019-06-30T10:08:30.000Z</time>
      </trkpt>
      <trkpt lat="47.27141" lon="-2.30228">
        <ele>30.39999961853</ele>
        <time>2019-06-30T10:08:31.000Z</time>
      </trkpt>
      <trkpt lat="47.27132" lon="-2.30234">
        <ele>30.39999961853</ele>
        <time>2019-06-30T10:08:33.000Z</time>
      </trkpt>
      <trkpt lat="47.27114" lon="-2.30244">
        <ele>30.39999961853</ele>
        <time>2019-06-30T10:08:37.000Z</time>
      </trkpt>
      <trkpt lat="47.27104" lon="-2.30249">
        <ele>30.39999961853</ele>
        <time>2019-06-30T10:08:39.000Z</time>
      </trkpt>
      <trkpt lat="47.2709" lon="-2.30257">
        <ele>30.39999961853</ele>
        <time>2019-06-30T10:08:42.000Z</time>
      </trkpt>
      <trkpt lat="47.27082" lon="-2.30265">
        <ele>30.39999961853</ele>
        <time>2019-06-30T10:08:44.000Z</time>
      </trkpt>
      <trkpt lat="47.27073" lon="-2.30288">
        <ele>30.39999961853</ele>
        <time>2019-06-30T10:08:48.000Z</time>
      </trkpt>
      <trkpt lat="47.27072" lon="-2.30295">
        <ele>30.39999961853</ele>
        <time>2019-06-30T10:08:49.000Z</time>
      </trkpt>
      <trkpt lat="47.27071" lon="-2.30309">
        <ele>30.799999237061</ele>
        <time>2019-06-30T10:08:51.000Z</time>
      </trkpt>
      <trkpt lat="47.27069" lon="-2.30316">
        <ele>31.60000038147</ele>
        <time>2019-06-30T10:08:52.000Z</time>
      </trkpt>
      <trkpt lat="47.27068" lon="-2.30325">
        <ele>32</ele>
        <time>2019-06-30T10:08:53.000Z</time>
      </trkpt>
      <trkpt lat="47.27067" lon="-2.30334">
        <ele>32.400001525879</ele>
        <time>2019-06-30T10:08:54.000Z</time>
      </trkpt>
      <trkpt lat="47.27059" lon="-2.30395">
        <ele>32.400001525879</ele>
        <time>2019-06-30T10:09:00.000Z</time>
      </trkpt>
      <trkpt lat="47.27047" lon="-2.3047">
        <ele>32.400001525879</ele>
        <time>2019-06-30T10:09:07.000Z</time>
      </trkpt>
      <trkpt lat="47.2703" lon="-2.3053">
        <ele>32.400001525879</ele>
        <time>2019-06-30T10:09:13.000Z</time>
      </trkpt>
      <trkpt lat="47.2701" lon="-2.3059">
        <ele>32.400001525879</ele>
        <time>2019-06-30T10:09:20.000Z</time>
      </trkpt>
      <trkpt lat="47.26995" lon="-2.30606">
        <ele>32.400001525879</ele>
        <time>2019-06-30T10:09:23.000Z</time>
      </trkpt>
      <trkpt lat="47.26988" lon="-2.30609">
        <ele>32.400001525879</ele>
        <time>2019-06-30T10:09:24.000Z</time>
      </trkpt>
      <trkpt lat="47.2695" lon="-2.30628">
        <ele>32.400001525879</ele>
        <time>2019-06-30T10:09:30.000Z</time>
      </trkpt>
      <trkpt lat="47.26945" lon="-2.30629">
        <ele>32.400001525879</ele>
        <time>2019-06-30T10:09:31.000Z</time>
      </trkpt>
      <trkpt lat="47.26927" lon="-2.30634">
        <ele>32.400001525879</ele>
        <time>2019-06-30T10:09:34.000Z</time>
      </trkpt>
      <trkpt lat="47.26922" lon="-2.30637">
        <ele>32.400001525879</ele>
        <time>2019-06-30T10:09:35.000Z</time>
      </trkpt>
      <trkpt lat="47.26911" lon="-2.30646">
        <ele>32.400001525879</ele>
        <time>2019-06-30T10:09:38.000Z</time>
      </trkpt>
      <trkpt lat="47.26908" lon="-2.30649">
        <ele>32.400001525879</ele>
        <time>2019-06-30T10:09:39.000Z</time>
      </trkpt>
      <trkpt lat="47.26895" lon="-2.30662">
        <ele>32.400001525879</ele>
        <time>2019-06-30T10:09:44.000Z</time>
      </trkpt>
      <trkpt lat="47.26877" lon="-2.30685">
        <ele>32.400001525879</ele>
        <time>2019-06-30T10:09:50.000Z</time>
      </trkpt>
      <trkpt lat="47.26855" lon="-2.30726">
        <ele>32.400001525879</ele>
        <time>2019-06-30T10:09:57.000Z</time>
      </trkpt>
      <trkpt lat="47.26834" lon="-2.30776">
        <ele>32.400001525879</ele>
        <time>2019-06-30T10:10:04.000Z</time>
      </trkpt>
      <trkpt lat="47.2683" lon="-2.30783">
        <ele>32.400001525879</ele>
        <time>2019-06-30T10:10:05.000Z</time>
      </trkpt>
      <trkpt lat="47.26814" lon="-2.30799">
        <ele>32.400001525879</ele>
        <time>2019-06-30T10:10:08.000Z</time>
      </trkpt>
      <trkpt lat="47.26798" lon="-2.30813">
        <ele>32.400001525879</ele>
        <time>2019-06-30T10:10:11.000Z</time>
      </trkpt>
      <trkpt lat="47.26787" lon="-2.30826">
        <ele>32.799999237061</ele>
        <time>2019-06-30T10:10:13.000Z</time>
      </trkpt>
      <trkpt lat="47.26781" lon="-2.30832">
        <ele>33.200000762939</ele>
        <time>2019-06-30T10:10:14.000Z</time>
      </trkpt>
      <trkpt lat="47.26776" lon="-2.30838">
        <ele>33.599998474121</ele>
        <time>2019-06-30T10:10:15.000Z</time>
      </trkpt>
      <trkpt lat="47.2677" lon="-2.30844">
        <ele>34</ele>
        <time>2019-06-30T10:10:16.000Z</time>
      </trkpt>
      <trkpt lat="47.26764" lon="-2.30849">
        <ele>34.400001525879</ele>
        <time>2019-06-30T10:10:17.000Z</time>
      </trkpt>
      <trkpt lat="47.26746" lon="-2.30866">
        <ele>34.400001525879</ele>
        <time>2019-06-30T10:10:20.000Z</time>
      </trkpt>
      <trkpt lat="47.26741" lon="-2.30869">
        <ele>34.400001525879</ele>
        <time>2019-06-30T10:10:21.000Z</time>
      </trkpt>
      <trkpt lat="47.2673" lon="-2.30864">
        <ele>34.400001525879</ele>
        <time>2019-06-30T10:10:23.000Z</time>
      </trkpt>
      <trkpt lat="47.26714" lon="-2.30835">
        <ele>34.400001525879</ele>
        <time>2019-06-30T10:10:27.000Z</time>
      </trkpt>
      <trkpt lat="47.26691" lon="-2.30777">
        <ele>34.400001525879</ele>
        <time>2019-06-30T10:10:33.000Z</time>
      </trkpt>
      <trkpt lat="47.2667" lon="-2.30726">
        <ele>34</ele>
        <time>2019-06-30T10:10:38.000Z</time>
      </trkpt>
      <trkpt lat="47.26666" lon="-2.30716">
        <ele>33.400001525879</ele>
        <time>2019-06-30T10:10:39.000Z</time>
      </trkpt>
      <trkpt lat="47.26662" lon="-2.30706">
        <ele>33</ele>
        <time>2019-06-30T10:10:40.000Z</time>
      </trkpt>
      <trkpt lat="47.26659" lon="-2.30698">
        <ele>32.599998474121</ele>
        <time>2019-06-30T10:10:41.000Z</time>
      </trkpt>
      <trkpt lat="47.26655" lon="-2.30692">
        <ele>32.200000762939</ele>
        <time>2019-06-30T10:10:42.000Z</time>
      </trkpt>
      <trkpt lat="47.26652" lon="-2.30688">
        <ele>31.60000038147</ele>
        <time>2019-06-30T10:10:43.000Z</time>
      </trkpt>
      <trkpt lat="47.26647" lon="-2.30687">
        <ele>31.200000762939</ele>
        <time>2019-06-30T10:10:44.000Z</time>
      </trkpt>
      <trkpt lat="47.26644" lon="-2.30689">
        <ele>30.799999237061</ele>
        <time>2019-06-30T10:10:45.000Z</time>
      </trkpt>
      <trkpt lat="47.26643" lon="-2.30696">
        <ele>30.39999961853</ele>
        <time>2019-06-30T10:10:46.000Z</time>
      </trkpt>
      <trkpt lat="47.26641" lon="-2.30703">
        <ele>29.799999237061</ele>
        <time>2019-06-30T10:10:47.000Z</time>
      </trkpt>
      <trkpt lat="47.26633" lon="-2.30722">
        <ele>29.799999237061</ele>
        <time>2019-06-30T10:10:50.000Z</time>
      </trkpt>
      <trkpt lat="47.26629" lon="-2.30725">
        <ele>29.799999237061</ele>
        <time>2019-06-30T10:10:51.000Z</time>
      </trkpt>
      <trkpt lat="47.26618" lon="-2.30744">
        <ele>29.39999961853</ele>
        <time>2019-06-30T10:10:55.000Z</time>
      </trkpt>
      <trkpt lat="47.26618" lon="-2.30749">
        <ele>29</ele>
        <time>2019-06-30T10:10:56.000Z</time>
      </trkpt>
      <trkpt lat="47.26617" lon="-2.30753">
        <ele>28.60000038147</ele>
        <time>2019-06-30T10:10:57.000Z</time>
      </trkpt>
      <trkpt lat="47.26615" lon="-2.30756">
        <ele>28.200000762939</ele>
        <time>2019-06-30T10:10:58.000Z</time>
      </trkpt>
      <trkpt lat="47.26613" lon="-2.30759">
        <ele>27.799999237061</ele>
        <time>2019-06-30T10:10:59.000Z</time>
      </trkpt>
      <trkpt lat="47.2661" lon="-2.30763">
        <ele>27.799999237061</ele>
        <time>2019-06-30T10:11:00.000Z</time>
      </trkpt>
      <trkpt lat="47.26599" lon="-2.30775">
        <ele>27.799999237061</ele>
        <time>2019-06-30T10:11:03.000Z</time>
      </trkpt>
      <trkpt lat="47.26592" lon="-2.30784">
        <ele>27.799999237061</ele>
        <time>2019-06-30T10:11:05.000Z</time>
      </trkpt>
      <trkpt lat="47.2658" lon="-2.30798">
        <ele>27.799999237061</ele>
        <time>2019-06-30T10:11:08.000Z</time>
      </trkpt>
      <trkpt lat="47.26576" lon="-2.30804">
        <ele>27.799999237061</ele>
        <time>2019-06-30T10:11:09.000Z</time>
      </trkpt>
      <trkpt lat="47.26568" lon="-2.30821">
        <ele>27.200000762939</ele>
        <time>2019-06-30T10:11:12.000Z</time>
      </trkpt>
      <trkpt lat="47.26566" lon="-2.30823">
        <ele>26.799999237061</ele>
        <time>2019-06-30T10:11:13.000Z</time>
      </trkpt>
      <trkpt lat="47.26564" lon="-2.30825">
        <ele>26.39999961853</ele>
        <time>2019-06-30T10:11:14.000Z</time>
      </trkpt>
      <trkpt lat="47.26562" lon="-2.30828">
        <ele>26</ele>
        <time>2019-06-30T10:11:15.000Z</time>
      </trkpt>
      <trkpt lat="47.2656" lon="-2.30831">
        <ele>25.39999961853</ele>
        <time>2019-06-30T10:11:16.000Z</time>
      </trkpt>
      <trkpt lat="47.26546" lon="-2.30848">
        <ele>25.39999961853</ele>
        <time>2019-06-30T10:11:21.000Z</time>
      </trkpt>
      <trkpt lat="47.26536" lon="-2.3086">
        <ele>25</ele>
        <time>2019-06-30T10:11:24.000Z</time>
      </trkpt>
      <trkpt lat="47.26532" lon="-2.30865">
        <ele>24.60000038147</ele>
        <time>2019-06-30T10:11:25.000Z</time>
      </trkpt>
      <trkpt lat="47.26527" lon="-2.30869">
        <ele>24.200000762939</ele>
        <time>2019-06-30T10:11:26.000Z</time>
      </trkpt>
      <trkpt lat="47.26523" lon="-2.30872">
        <ele>23.799999237061</ele>
        <time>2019-06-30T10:11:27.000Z</time>
      </trkpt>
      <trkpt lat="47.26519" lon="-2.30876">
        <ele>23.39999961853</ele>
        <time>2019-06-30T10:11:28.000Z</time>
      </trkpt>
      <trkpt lat="47.26512" lon="-2.30878">
        <ele>23.39999961853</ele>
        <time>2019-06-30T10:11:30.000Z</time>
      </trkpt>
      <trkpt lat="47.26504" lon="-2.30873">
        <ele>23.39999961853</ele>
        <time>2019-06-30T10:11:33.000Z</time>
      </trkpt>
      <trkpt lat="47.26495" lon="-2.30863">
        <ele>23.39999961853</ele>
        <time>2019-06-30T10:11:38.000Z</time>
      </trkpt>
      <trkpt lat="47.26494" lon="-2.3086">
        <ele>23.39999961853</ele>
        <time>2019-06-30T10:11:39.000Z</time>
      </trkpt>
      <trkpt lat="47.26492" lon="-2.30857">
        <ele>23.799999237061</ele>
        <time>2019-06-30T10:11:40.000Z</time>
      </trkpt>
      <trkpt lat="47.2649" lon="-2.30852">
        <ele>24.200000762939</ele>
        <time>2019-06-30T10:11:41.000Z</time>
      </trkpt>
      <trkpt lat="47.26488" lon="-2.30846">
        <ele>24.799999237061</ele>
        <time>2019-06-30T10:11:42.000Z</time>
      </trkpt>
      <trkpt lat="47.26485" lon="-2.30839">
        <ele>25.799999237061</ele>
        <time>2019-06-30T10:11:43.000Z</time>
      </trkpt>
      <trkpt lat="47.26482" lon="-2.30833">
        <ele>25.799999237061</ele>
        <time>2019-06-30T10:11:44.000Z</time>
      </trkpt>
      <trkpt lat="47.2648" lon="-2.30827">
        <ele>26.200000762939</ele>
        <time>2019-06-30T10:11:45.000Z</time>
      </trkpt>
      <trkpt lat="47.26477" lon="-2.30821">
        <ele>26.60000038147</ele>
        <time>2019-06-30T10:11:46.000Z</time>
      </trkpt>
      <trkpt lat="47.26475" lon="-2.30815">
        <ele>27</ele>
        <time>2019-06-30T10:11:47.000Z</time>
      </trkpt>
      <trkpt lat="47.26473" lon="-2.30808">
        <ele>27.39999961853</ele>
        <time>2019-06-30T10:11:48.000Z</time>
      </trkpt>
      <trkpt lat="47.2647" lon="-2.30802">
        <ele>27.799999237061</ele>
        <time>2019-06-30T10:11:49.000Z</time>
      </trkpt>
      <trkpt lat="47.26468" lon="-2.30795">
        <ele>27.799999237061</ele>
        <time>2019-06-30T10:11:50.000Z</time>
      </trkpt>
      <trkpt lat="47.26458" lon="-2.30772">
        <ele>28.200000762939</ele>
        <time>2019-06-30T10:11:54.000Z</time>
      </trkpt>
      <trkpt lat="47.26457" lon="-2.30767">
        <ele>28.60000038147</ele>
        <time>2019-06-30T10:11:55.000Z</time>
      </trkpt>
      <trkpt lat="47.26455" lon="-2.30763">
        <ele>29.200000762939</ele>
        <time>2019-06-30T10:11:56.000Z</time>
      </trkpt>
      <trkpt lat="47.26453" lon="-2.30757">
        <ele>29.60000038147</ele>
        <time>2019-06-30T10:11:57.000Z</time>
      </trkpt>
      <trkpt lat="47.26452" lon="-2.30752">
        <ele>30</ele>
        <time>2019-06-30T10:11:58.000Z</time>
      </trkpt>
      <trkpt lat="47.26445" lon="-2.30735">
        <ele>30</ele>
        <time>2019-06-30T10:12:01.000Z</time>
      </trkpt>
      <trkpt lat="47.26433" lon="-2.30714">
        <ele>30</ele>
        <time>2019-06-30T10:12:05.000Z</time>
      </trkpt>
      <trkpt lat="47.2643" lon="-2.30709">
        <ele>30</ele>
        <time>2019-06-30T10:12:06.000Z</time>
      </trkpt>
      <trkpt lat="47.26422" lon="-2.30694">
        <ele>30</ele>
        <time>2019-06-30T10:12:09.000Z</time>
      </trkpt>
      <trkpt lat="47.2642" lon="-2.30691">
        <ele>30</ele>
        <time>2019-06-30T10:12:10.000Z</time>
      </trkpt>
      <trkpt lat="47.26397" lon="-2.30669">
        <ele>30</ele>
        <time>2019-06-30T10:12:16.000Z</time>
      </trkpt>
      <trkpt lat="47.26391" lon="-2.30665">
        <ele>30.39999961853</ele>
        <time>2019-06-30T10:12:17.000Z</time>
      </trkpt>
      <trkpt lat="47.26386" lon="-2.3066">
        <ele>30.799999237061</ele>
        <time>2019-06-30T10:12:18.000Z</time>
      </trkpt>
      <trkpt lat="47.26381" lon="-2.30655">
        <ele>31.200000762939</ele>
        <time>2019-06-30T10:12:19.000Z</time>
      </trkpt>
      <trkpt lat="47.26377" lon="-2.30649">
        <ele>31.60000038147</ele>
        <time>2019-06-30T10:12:20.000Z</time>
      </trkpt>
      <trkpt lat="47.26374" lon="-2.30643">
        <ele>32</ele>
        <time>2019-06-30T10:12:21.000Z</time>
      </trkpt>
      <trkpt lat="47.26365" lon="-2.30627">
        <ele>32</ele>
        <time>2019-06-30T10:12:24.000Z</time>
      </trkpt>
      <trkpt lat="47.26356" lon="-2.3061">
        <ele>32</ele>
        <time>2019-06-30T10:12:27.000Z</time>
      </trkpt>
      <trkpt lat="47.2635" lon="-2.306">
        <ele>32</ele>
        <time>2019-06-30T10:12:29.000Z</time>
      </trkpt>
      <trkpt lat="47.26343" lon="-2.30584">
        <ele>32</ele>
        <time>2019-06-30T10:12:32.000Z</time>
      </trkpt>
      <trkpt lat="47.26342" lon="-2.30576">
        <ele>32</ele>
        <time>2019-06-30T10:12:34.000Z</time>
      </trkpt>
      <trkpt lat="47.26343" lon="-2.30572">
        <ele>32</ele>
        <time>2019-06-30T10:12:35.000Z</time>
      </trkpt>
      <trkpt lat="47.26343" lon="-2.30558">
        <ele>32</ele>
        <time>2019-06-30T10:12:38.000Z</time>
      </trkpt>
      <trkpt lat="47.26343" lon="-2.30553">
        <ele>32</ele>
        <time>2019-06-30T10:12:39.000Z</time>
      </trkpt>
      <trkpt lat="47.26334" lon="-2.30515">
        <ele>32</ele>
        <time>2019-06-30T10:12:46.000Z</time>
      </trkpt>
      <trkpt lat="47.26328" lon="-2.30487">
        <ele>32.400001525879</ele>
        <time>2019-06-30T10:12:50.000Z</time>
      </trkpt>
      <trkpt lat="47.26326" lon="-2.3048">
        <ele>32.799999237061</ele>
        <time>2019-06-30T10:12:51.000Z</time>
      </trkpt>
      <trkpt lat="47.26325" lon="-2.30473">
        <ele>33.400001525879</ele>
        <time>2019-06-30T10:12:52.000Z</time>
      </trkpt>
      <trkpt lat="47.26324" lon="-2.30466">
        <ele>33.799999237061</ele>
        <time>2019-06-30T10:12:53.000Z</time>
      </trkpt>
      <trkpt lat="47.26323" lon="-2.30458">
        <ele>34.200000762939</ele>
        <time>2019-06-30T10:12:54.000Z</time>
      </trkpt>
      <trkpt lat="47.26316" lon="-2.3043">
        <ele>34.200000762939</ele>
        <time>2019-06-30T10:12:58.000Z</time>
      </trkpt>
      <trkpt lat="47.26306" lon="-2.30379">
        <ele>34.200000762939</ele>
        <time>2019-06-30T10:13:04.000Z</time>
      </trkpt>
      <trkpt lat="47.26305" lon="-2.3037">
        <ele>34.200000762939</ele>
        <time>2019-06-30T10:13:05.000Z</time>
      </trkpt>
      <trkpt lat="47.26301" lon="-2.30336">
        <ele>34.200000762939</ele>
        <time>2019-06-30T10:13:09.000Z</time>
      </trkpt>
      <trkpt lat="47.26298" lon="-2.30328">
        <ele>34.200000762939</ele>
        <time>2019-06-30T10:13:10.000Z</time>
      </trkpt>
      <trkpt lat="47.26289" lon="-2.30305">
        <ele>34.200000762939</ele>
        <time>2019-06-30T10:13:13.000Z</time>
      </trkpt>
      <trkpt lat="47.26282" lon="-2.30272">
        <ele>34.200000762939</ele>
        <time>2019-06-30T10:13:17.000Z</time>
      </trkpt>
      <trkpt lat="47.26278" lon="-2.30256">
        <ele>34.200000762939</ele>
        <time>2019-06-30T10:13:19.000Z</time>
      </trkpt>
      <trkpt lat="47.26269" lon="-2.30202">
        <ele>34.200000762939</ele>
        <time>2019-06-30T10:13:26.000Z</time>
      </trkpt>
      <trkpt lat="47.26267" lon="-2.30194">
        <ele>34.200000762939</ele>
        <time>2019-06-30T10:13:27.000Z</time>
      </trkpt>
      <trkpt lat="47.26263" lon="-2.30172">
        <ele>34.200000762939</ele>
        <time>2019-06-30T10:13:30.000Z</time>
      </trkpt>
      <trkpt lat="47.26261" lon="-2.30165">
        <ele>34.200000762939</ele>
        <time>2019-06-30T10:13:31.000Z</time>
      </trkpt>
      <trkpt lat="47.2625" lon="-2.30138">
        <ele>34.200000762939</ele>
        <time>2019-06-30T10:13:35.000Z</time>
      </trkpt>
      <trkpt lat="47.26247" lon="-2.30134">
        <ele>34.200000762939</ele>
        <time>2019-06-30T10:13:36.000Z</time>
      </trkpt>
      <trkpt lat="47.26239" lon="-2.30132">
        <ele>34.200000762939</ele>
        <time>2019-06-30T10:13:38.000Z</time>
      </trkpt>
      <trkpt lat="47.26228" lon="-2.30137">
        <ele>34.200000762939</ele>
        <time>2019-06-30T10:13:40.000Z</time>
      </trkpt>
      <trkpt lat="47.26217" lon="-2.30142">
        <ele>34.200000762939</ele>
        <time>2019-06-30T10:13:42.000Z</time>
      </trkpt>
      <trkpt lat="47.2618" lon="-2.30157">
        <ele>34.200000762939</ele>
        <time>2019-06-30T10:13:49.000Z</time>
      </trkpt>
      <trkpt lat="47.26174" lon="-2.30158">
        <ele>34.200000762939</ele>
        <time>2019-06-30T10:13:51.000Z</time>
      </trkpt>
      <trkpt lat="47.26172" lon="-2.30155">
        <ele>34.200000762939</ele>
        <time>2019-06-30T10:13:52.000Z</time>
      </trkpt>
      <trkpt lat="47.26168" lon="-2.30147">
        <ele>34.200000762939</ele>
        <time>2019-06-30T10:13:55.000Z</time>
      </trkpt>
      <trkpt lat="47.26165" lon="-2.30147">
        <ele>34.200000762939</ele>
        <time>2019-06-30T10:13:56.000Z</time>
      </trkpt>
      <trkpt lat="47.2615" lon="-2.30151">
        <ele>33.799999237061</ele>
        <time>2019-06-30T10:14:00.000Z</time>
      </trkpt>
      <trkpt lat="47.26145" lon="-2.30152">
        <ele>33.400001525879</ele>
        <time>2019-06-30T10:14:01.000Z</time>
      </trkpt>
      <trkpt lat="47.26141" lon="-2.30154">
        <ele>33</ele>
        <time>2019-06-30T10:14:02.000Z</time>
      </trkpt>
      <trkpt lat="47.26135" lon="-2.30156">
        <ele>32.599998474121</ele>
        <time>2019-06-30T10:14:03.000Z</time>
      </trkpt>
      <trkpt lat="47.2613" lon="-2.30158">
        <ele>32.200000762939</ele>
        <time>2019-06-30T10:14:04.000Z</time>
      </trkpt>
      <trkpt lat="47.2612" lon="-2.3016">
        <ele>32.200000762939</ele>
        <time>2019-06-30T10:14:06.000Z</time>
      </trkpt>
      <trkpt lat="47.26113" lon="-2.30162">
        <ele>31.799999237061</ele>
        <time>2019-06-30T10:14:08.000Z</time>
      </trkpt>
      <trkpt lat="47.26109" lon="-2.30163">
        <ele>31.39999961853</ele>
        <time>2019-06-30T10:14:09.000Z</time>
      </trkpt>
      <trkpt lat="47.26107" lon="-2.30164">
        <ele>31</ele>
        <time>2019-06-30T10:14:10.000Z</time>
      </trkpt>
      <trkpt lat="47.26105" lon="-2.30163">
        <ele>30.60000038147</ele>
        <time>2019-06-30T10:14:11.000Z</time>
      </trkpt>
      <trkpt lat="47.26103" lon="-2.3016">
        <ele>30.200000762939</ele>
        <time>2019-06-30T10:14:12.000Z</time>
      </trkpt>
      <trkpt lat="47.26102" lon="-2.30157">
        <ele>30.200000762939</ele>
        <time>2019-06-30T10:14:13.000Z</time>
      </trkpt>
      <trkpt lat="47.26097" lon="-2.30153">
        <ele>30.200000762939</ele>
        <time>2019-06-30T10:14:15.000Z</time>
      </trkpt>
      <trkpt lat="47.26093" lon="-2.30153">
        <ele>29.799999237061</ele>
        <time>2019-06-30T10:14:16.000Z</time>
      </trkpt>
      <trkpt lat="47.26089" lon="-2.30153">
        <ele>29.39999961853</ele>
        <time>2019-06-30T10:14:17.000Z</time>
      </trkpt>
      <trkpt lat="47.26085" lon="-2.30154">
        <ele>29</ele>
        <time>2019-06-30T10:14:18.000Z</time>
      </trkpt>
      <trkpt lat="47.26081" lon="-2.30155">
        <ele>28.60000038147</ele>
        <time>2019-06-30T10:14:19.000Z</time>
      </trkpt>
      <trkpt lat="47.26077" lon="-2.30155">
        <ele>28.200000762939</ele>
        <time>2019-06-30T10:14:20.000Z</time>
      </trkpt>
      <trkpt lat="47.26073" lon="-2.30153">
        <ele>28.200000762939</ele>
        <time>2019-06-30T10:14:21.000Z</time>
      </trkpt>
      <trkpt lat="47.26061" lon="-2.30143">
        <ele>28.200000762939</ele>
        <time>2019-06-30T10:14:25.000Z</time>
      </trkpt>
      <trkpt lat="47.26057" lon="-2.30142">
        <ele>28.200000762939</ele>
        <time>2019-06-30T10:14:26.000Z</time>
      </trkpt>
      <trkpt lat="47.26052" lon="-2.30143">
        <ele>28.200000762939</ele>
        <time>2019-06-30T10:14:27.000Z</time>
      </trkpt>
      <trkpt lat="47.26042" lon="-2.30143">
        <ele>28.200000762939</ele>
        <time>2019-06-30T10:14:29.000Z</time>
      </trkpt>
      <trkpt lat="47.26037" lon="-2.30142">
        <ele>27.799999237061</ele>
        <time>2019-06-30T10:14:30.000Z</time>
      </trkpt>
      <trkpt lat="47.26032" lon="-2.30141">
        <ele>27.200000762939</ele>
        <time>2019-06-30T10:14:31.000Z</time>
      </trkpt>
      <trkpt lat="47.26027" lon="-2.30137">
        <ele>26.799999237061</ele>
        <time>2019-06-30T10:14:32.000Z</time>
      </trkpt>
      <trkpt lat="47.26023" lon="-2.30134">
        <ele>26.39999961853</ele>
        <time>2019-06-30T10:14:33.000Z</time>
      </trkpt>
      <trkpt lat="47.26018" lon="-2.30133">
        <ele>26</ele>
        <time>2019-06-30T10:14:34.000Z</time>
      </trkpt>
      <trkpt lat="47.26005" lon="-2.30129">
        <ele>26</ele>
        <time>2019-06-30T10:14:37.000Z</time>
      </trkpt>
      <trkpt lat="47.25988" lon="-2.30132">
        <ele>25.60000038147</ele>
        <time>2019-06-30T10:14:40.000Z</time>
      </trkpt>
      <trkpt lat="47.25983" lon="-2.30135">
        <ele>25.200000762939</ele>
        <time>2019-06-30T10:14:41.000Z</time>
      </trkpt>
      <trkpt lat="47.25979" lon="-2.30137">
        <ele>24.799999237061</ele>
        <time>2019-06-30T10:14:42.000Z</time>
      </trkpt>
      <trkpt lat="47.25977" lon="-2.3014">
        <ele>24.39999961853</ele>
        <time>2019-06-30T10:14:43.000Z</time>
      </trkpt>
      <trkpt lat="47.25975" lon="-2.30144">
        <ele>24</ele>
        <time>2019-06-30T10:14:44.000Z</time>
      </trkpt>
      <trkpt lat="47.25969" lon="-2.3015">
        <ele>24</ele>
        <time>2019-06-30T10:14:46.000Z</time>
      </trkpt>
      <trkpt lat="47.25954" lon="-2.30163">
        <ele>24</ele>
        <time>2019-06-30T10:14:50.000Z</time>
      </trkpt>
      <trkpt lat="47.25945" lon="-2.30167">
        <ele>24</ele>
        <time>2019-06-30T10:14:52.000Z</time>
      </trkpt>
      <trkpt lat="47.25929" lon="-2.3017">
        <ele>24</ele>
        <time>2019-06-30T10:14:55.000Z</time>
      </trkpt>
      <trkpt lat="47.25898" lon="-2.30181">
        <ele>24</ele>
        <time>2019-06-30T10:15:01.000Z</time>
      </trkpt>
      <trkpt lat="47.25895" lon="-2.30185">
        <ele>24</ele>
        <time>2019-06-30T10:15:02.000Z</time>
      </trkpt>
      <trkpt lat="47.25891" lon="-2.30195">
        <ele>24</ele>
        <time>2019-06-30T10:15:04.000Z</time>
      </trkpt>
      <trkpt lat="47.25891" lon="-2.30202">
        <ele>24</ele>
        <time>2019-06-30T10:15:05.000Z</time>
      </trkpt>
      <trkpt lat="47.25893" lon="-2.30217">
        <ele>24</ele>
        <time>2019-06-30T10:15:07.000Z</time>
      </trkpt>
      <trkpt lat="47.25897" lon="-2.30262">
        <ele>24</ele>
        <time>2019-06-30T10:15:13.000Z</time>
      </trkpt>
      <trkpt lat="47.25901" lon="-2.303">
        <ele>24.39999961853</ele>
        <time>2019-06-30T10:15:18.000Z</time>
      </trkpt>
      <trkpt lat="47.25901" lon="-2.30307">
        <ele>24.799999237061</ele>
        <time>2019-06-30T10:15:19.000Z</time>
      </trkpt>
      <trkpt lat="47.25902" lon="-2.30314">
        <ele>25.200000762939</ele>
        <time>2019-06-30T10:15:20.000Z</time>
      </trkpt>
      <trkpt lat="47.25903" lon="-2.30322">
        <ele>25.799999237061</ele>
        <time>2019-06-30T10:15:21.000Z</time>
      </trkpt>
      <trkpt lat="47.25904" lon="-2.30329">
        <ele>26.200000762939</ele>
        <time>2019-06-30T10:15:22.000Z</time>
      </trkpt>
      <trkpt lat="47.25908" lon="-2.30357">
        <ele>26.200000762939</ele>
        <time>2019-06-30T10:15:26.000Z</time>
      </trkpt>
      <trkpt lat="47.25909" lon="-2.30364">
        <ele>26.200000762939</ele>
        <time>2019-06-30T10:15:27.000Z</time>
      </trkpt>
      <trkpt lat="47.25908" lon="-2.30389">
        <ele>26.200000762939</ele>
        <time>2019-06-30T10:15:31.000Z</time>
      </trkpt>
      <trkpt lat="47.25903" lon="-2.30427">
        <ele>26.200000762939</ele>
        <time>2019-06-30T10:15:38.000Z</time>
      </trkpt>
      <trkpt lat="47.25902" lon="-2.3045">
        <ele>26.200000762939</ele>
        <time>2019-06-30T10:15:43.000Z</time>
      </trkpt>
      <trkpt lat="47.25895" lon="-2.30475">
        <ele>26.200000762939</ele>
        <time>2019-06-30T10:15:48.000Z</time>
      </trkpt>
      <trkpt lat="47.25892" lon="-2.30486">
        <ele>26.200000762939</ele>
        <time>2019-06-30T10:15:50.000Z</time>
      </trkpt>
      <trkpt lat="47.25885" lon="-2.30502">
        <ele>26.60000038147</ele>
        <time>2019-06-30T10:15:53.000Z</time>
      </trkpt>
      <trkpt lat="47.25884" lon="-2.30508">
        <ele>27</ele>
        <time>2019-06-30T10:15:54.000Z</time>
      </trkpt>
      <trkpt lat="47.25882" lon="-2.30513">
        <ele>27.39999961853</ele>
        <time>2019-06-30T10:15:55.000Z</time>
      </trkpt>
      <trkpt lat="47.25879" lon="-2.30518">
        <ele>27.799999237061</ele>
        <time>2019-06-30T10:15:56.000Z</time>
      </trkpt>
      <trkpt lat="47.25877" lon="-2.30524">
        <ele>28.200000762939</ele>
        <time>2019-06-30T10:15:57.000Z</time>
      </trkpt>
      <trkpt lat="47.25872" lon="-2.30538">
        <ele>28.200000762939</ele>
        <time>2019-06-30T10:15:59.000Z</time>
      </trkpt>
      <trkpt lat="47.25864" lon="-2.30566">
        <ele>28.200000762939</ele>
        <time>2019-06-30T10:16:03.000Z</time>
      </trkpt>
      <trkpt lat="47.25862" lon="-2.30572">
        <ele>28.200000762939</ele>
        <time>2019-06-30T10:16:04.000Z</time>
      </trkpt>
      <trkpt lat="47.25849" lon="-2.30622">
        <ele>28.200000762939</ele>
        <time>2019-06-30T10:16:11.000Z</time>
      </trkpt>
      <trkpt lat="47.25836" lon="-2.30684">
        <ele>28.200000762939</ele>
        <time>2019-06-30T10:16:18.000Z</time>
      </trkpt>
      <trkpt lat="47.25826" lon="-2.30741">
        <ele>28.200000762939</ele>
        <time>2019-06-30T10:16:24.000Z</time>
      </trkpt>
      <trkpt lat="47.25814" lon="-2.3082">
        <ele>28.200000762939</ele>
        <time>2019-06-30T10:16:32.000Z</time>
      </trkpt>
      <trkpt lat="47.25802" lon="-2.30899">
        <ele>28.200000762939</ele>
        <time>2019-06-30T10:16:40.000Z</time>
      </trkpt>
      <trkpt lat="47.258" lon="-2.30909">
        <ele>28.200000762939</ele>
        <time>2019-06-30T10:16:41.000Z</time>
      </trkpt>
      <trkpt lat="47.25787" lon="-2.30943">
        <ele>28.200000762939</ele>
        <time>2019-06-30T10:16:45.000Z</time>
      </trkpt>
      <trkpt lat="47.25784" lon="-2.30953">
        <ele>28.200000762939</ele>
        <time>2019-06-30T10:16:46.000Z</time>
      </trkpt>
      <trkpt lat="47.25776" lon="-2.30983">
        <ele>28.200000762939</ele>
        <time>2019-06-30T10:16:49.000Z</time>
      </trkpt>
      <trkpt lat="47.25771" lon="-2.31004">
        <ele>27.799999237061</ele>
        <time>2019-06-30T10:16:51.000Z</time>
      </trkpt>
      <trkpt lat="47.25769" lon="-2.31015">
        <ele>27.39999961853</ele>
        <time>2019-06-30T10:16:52.000Z</time>
      </trkpt>
      <trkpt lat="47.25767" lon="-2.31025">
        <ele>27</ele>
        <time>2019-06-30T10:16:53.000Z</time>
      </trkpt>
      <trkpt lat="47.25765" lon="-2.31033">
        <ele>26.60000038147</ele>
        <time>2019-06-30T10:16:54.000Z</time>
      </trkpt>
      <trkpt lat="47.25763" lon="-2.31041">
        <ele>26</ele>
        <time>2019-06-30T10:16:55.000Z</time>
      </trkpt>
      <trkpt lat="47.25761" lon="-2.31048">
        <ele>26</ele>
        <time>2019-06-30T10:16:56.000Z</time>
      </trkpt>
      <trkpt lat="47.2576" lon="-2.31052">
        <ele>25.60000038147</ele>
        <time>2019-06-30T10:16:57.000Z</time>
      </trkpt>
      <trkpt lat="47.2576" lon="-2.31057">
        <ele>25.200000762939</ele>
        <time>2019-06-30T10:16:58.000Z</time>
      </trkpt>
      <trkpt lat="47.2576" lon="-2.31063">
        <ele>24.799999237061</ele>
        <time>2019-06-30T10:16:59.000Z</time>
      </trkpt>
      <trkpt lat="47.25762" lon="-2.3107">
        <ele>24.200000762939</ele>
        <time>2019-06-30T10:17:00.000Z</time>
      </trkpt>
      <trkpt lat="47.25764" lon="-2.31076">
        <ele>23.799999237061</ele>
        <time>2019-06-30T10:17:01.000Z</time>
      </trkpt>
      <trkpt lat="47.25767" lon="-2.31084">
        <ele>23.39999961853</ele>
        <time>2019-06-30T10:17:02.000Z</time>
      </trkpt>
      <trkpt lat="47.2577" lon="-2.31092">
        <ele>23</ele>
        <time>2019-06-30T10:17:03.000Z</time>
      </trkpt>
      <trkpt lat="47.25773" lon="-2.31099">
        <ele>22.39999961853</ele>
        <time>2019-06-30T10:17:04.000Z</time>
      </trkpt>
      <trkpt lat="47.25777" lon="-2.31107">
        <ele>21.60000038147</ele>
        <time>2019-06-30T10:17:05.000Z</time>
      </trkpt>
      <trkpt lat="47.25784" lon="-2.31123">
        <ele>21.60000038147</ele>
        <time>2019-06-30T10:17:07.000Z</time>
      </trkpt>
      <trkpt lat="47.2579" lon="-2.31141">
        <ele>21.60000038147</ele>
        <time>2019-06-30T10:17:09.000Z</time>
      </trkpt>
      <trkpt lat="47.2579" lon="-2.31151">
        <ele>21.60000038147</ele>
        <time>2019-06-30T10:17:10.000Z</time>
      </trkpt>
      <trkpt lat="47.25791" lon="-2.31161">
        <ele>21.60000038147</ele>
        <time>2019-06-30T10:17:11.000Z</time>
      </trkpt>
      <trkpt lat="47.25792" lon="-2.31184">
        <ele>21.60000038147</ele>
        <time>2019-06-30T10:17:13.000Z</time>
      </trkpt>
      <trkpt lat="47.25799" lon="-2.31205">
        <ele>21.60000038147</ele>
        <time>2019-06-30T10:17:15.000Z</time>
      </trkpt>
      <trkpt lat="47.25812" lon="-2.31249">
        <ele>21.200000762939</ele>
        <time>2019-06-30T10:17:19.000Z</time>
      </trkpt>
      <trkpt lat="47.25814" lon="-2.3126">
        <ele>20.60000038147</ele>
        <time>2019-06-30T10:17:20.000Z</time>
      </trkpt>
      <trkpt lat="47.25815" lon="-2.31272">
        <ele>20.200000762939</ele>
        <time>2019-06-30T10:17:21.000Z</time>
      </trkpt>
      <trkpt lat="47.25816" lon="-2.31284">
        <ele>19.799999237061</ele>
        <time>2019-06-30T10:17:22.000Z</time>
      </trkpt>
      <trkpt lat="47.25816" lon="-2.31297">
        <ele>19.39999961853</ele>
        <time>2019-06-30T10:17:23.000Z</time>
      </trkpt>
      <trkpt lat="47.25816" lon="-2.31331">
        <ele>19.39999961853</ele>
        <time>2019-06-30T10:17:26.000Z</time>
      </trkpt>
      <trkpt lat="47.25814" lon="-2.31352">
        <ele>19</ele>
        <time>2019-06-30T10:17:28.000Z</time>
      </trkpt>
      <trkpt lat="47.25811" lon="-2.31362">
        <ele>18.39999961853</ele>
        <time>2019-06-30T10:17:29.000Z</time>
      </trkpt>
      <trkpt lat="47.25808" lon="-2.31371">
        <ele>17.39999961853</ele>
        <time>2019-06-30T10:17:30.000Z</time>
      </trkpt>
      <trkpt lat="47.25804" lon="-2.3138">
        <ele>17</ele>
        <time>2019-06-30T10:17:31.000Z</time>
      </trkpt>
      <trkpt lat="47.2579" lon="-2.31402">
        <ele>17</ele>
        <time>2019-06-30T10:17:34.000Z</time>
      </trkpt>
      <trkpt lat="47.25784" lon="-2.31408">
        <ele>17</ele>
        <time>2019-06-30T10:17:35.000Z</time>
      </trkpt>
      <trkpt lat="47.25764" lon="-2.31434">
        <ele>17</ele>
        <time>2019-06-30T10:17:39.000Z</time>
      </trkpt>
      <trkpt lat="47.25755" lon="-2.31445">
        <ele>17</ele>
        <time>2019-06-30T10:17:41.000Z</time>
      </trkpt>
      <trkpt lat="47.25733" lon="-2.31478">
        <ele>17</ele>
        <time>2019-06-30T10:17:46.000Z</time>
      </trkpt>
      <trkpt lat="47.25728" lon="-2.31485">
        <ele>17</ele>
        <time>2019-06-30T10:17:47.000Z</time>
      </trkpt>
      <trkpt lat="47.2571" lon="-2.31513">
        <ele>17</ele>
        <time>2019-06-30T10:17:51.000Z</time>
      </trkpt>
      <trkpt lat="47.25702" lon="-2.31528">
        <ele>17</ele>
        <time>2019-06-30T10:17:53.000Z</time>
      </trkpt>
      <trkpt lat="47.25692" lon="-2.31554">
        <ele>17</ele>
        <time>2019-06-30T10:17:56.000Z</time>
      </trkpt>
      <trkpt lat="47.25687" lon="-2.3157">
        <ele>17</ele>
        <time>2019-06-30T10:17:58.000Z</time>
      </trkpt>
      <trkpt lat="47.25677" lon="-2.31614">
        <ele>17</ele>
        <time>2019-06-30T10:18:03.000Z</time>
      </trkpt>
      <trkpt lat="47.25669" lon="-2.31657">
        <ele>17</ele>
        <time>2019-06-30T10:18:08.000Z</time>
      </trkpt>
      <trkpt lat="47.25671" lon="-2.31665">
        <ele>17</ele>
        <time>2019-06-30T10:18:09.000Z</time>
      </trkpt>
      <trkpt lat="47.25684" lon="-2.31679">
        <ele>17</ele>
        <time>2019-06-30T10:18:12.000Z</time>
      </trkpt>
      <trkpt lat="47.25695" lon="-2.31683">
        <ele>17</ele>
        <time>2019-06-30T10:18:14.000Z</time>
      </trkpt>
      <trkpt lat="47.25701" lon="-2.31687">
        <ele>17</ele>
        <time>2019-06-30T10:18:15.000Z</time>
      </trkpt>
      <trkpt lat="47.25708" lon="-2.3169">
        <ele>17</ele>
        <time>2019-06-30T10:18:16.000Z</time>
      </trkpt>
      <trkpt lat="47.25727" lon="-2.31699">
        <ele>17</ele>
        <time>2019-06-30T10:18:19.000Z</time>
      </trkpt>
      <trkpt lat="47.25733" lon="-2.31697">
        <ele>17</ele>
        <time>2019-06-30T10:18:20.000Z</time>
      </trkpt>
      <trkpt lat="47.2575" lon="-2.31682">
        <ele>17</ele>
        <time>2019-06-30T10:18:23.000Z</time>
      </trkpt>
      <trkpt lat="47.25771" lon="-2.31666">
        <ele>17</ele>
        <time>2019-06-30T10:18:27.000Z</time>
      </trkpt>
      <trkpt lat="47.25777" lon="-2.31662">
        <ele>17</ele>
        <time>2019-06-30T10:18:28.000Z</time>
      </trkpt>
      <trkpt lat="47.25807" lon="-2.31638">
        <ele>17.39999961853</ele>
        <time>2019-06-30T10:18:34.000Z</time>
      </trkpt>
      <trkpt lat="47.25812" lon="-2.31634">
        <ele>17.799999237061</ele>
        <time>2019-06-30T10:18:35.000Z</time>
      </trkpt>
      <trkpt lat="47.25818" lon="-2.3163">
        <ele>18.200000762939</ele>
        <time>2019-06-30T10:18:36.000Z</time>
      </trkpt>
      <trkpt lat="47.25823" lon="-2.31626">
        <ele>18.60000038147</ele>
        <time>2019-06-30T10:18:37.000Z</time>
      </trkpt>
      <trkpt lat="47.25828" lon="-2.31621">
        <ele>19</ele>
        <time>2019-06-30T10:18:38.000Z</time>
      </trkpt>
      <trkpt lat="47.25848" lon="-2.31604">
        <ele>19</ele>
        <time>2019-06-30T10:18:42.000Z</time>
      </trkpt>
      <trkpt lat="47.25881" lon="-2.31569">
        <ele>19</ele>
        <time>2019-06-30T10:18:48.000Z</time>
      </trkpt>
      <trkpt lat="47.25886" lon="-2.31561">
        <ele>19</ele>
        <time>2019-06-30T10:18:49.000Z</time>
      </trkpt>
      <trkpt lat="47.25896" lon="-2.31535">
        <ele>19</ele>
        <time>2019-06-30T10:18:52.000Z</time>
      </trkpt>
      <trkpt lat="47.25899" lon="-2.31528">
        <ele>18.60000038147</ele>
        <time>2019-06-30T10:18:53.000Z</time>
      </trkpt>
      <trkpt lat="47.25902" lon="-2.31521">
        <ele>18.200000762939</ele>
        <time>2019-06-30T10:18:54.000Z</time>
      </trkpt>
      <trkpt lat="47.25906" lon="-2.31516">
        <ele>17.799999237061</ele>
        <time>2019-06-30T10:18:55.000Z</time>
      </trkpt>
      <trkpt lat="47.25909" lon="-2.31514">
        <ele>17.39999961853</ele>
        <time>2019-06-30T10:18:56.000Z</time>
      </trkpt>
      <trkpt lat="47.25911" lon="-2.31509">
        <ele>16.799999237061</ele>
        <time>2019-06-30T10:18:57.000Z</time>
      </trkpt>
      <trkpt lat="47.25911" lon="-2.31506">
        <ele>16.200000762939</ele>
        <time>2019-06-30T10:18:58.000Z</time>
      </trkpt>
      <trkpt lat="47.25912" lon="-2.31503">
        <ele>15.60000038147</ele>
        <time>2019-06-30T10:18:59.000Z</time>
      </trkpt>
      <trkpt lat="47.25911" lon="-2.31503">
        <ele>15</ele>
        <time>2019-06-30T10:19:00.000Z</time>
      </trkpt>
      <trkpt lat="47.25911" lon="-2.31502">
        <ele>14.39999961853</ele>
        <time>2019-06-30T10:19:01.000Z</time>
      </trkpt>
      <trkpt lat="47.25911" lon="-2.315">
        <ele>14.39999961853</ele>
        <time>2019-06-30T10:19:02.000Z</time>
      </trkpt>
      <trkpt lat="47.25918" lon="-2.31482">
        <ele>14.39999961853</ele>
        <time>2019-06-30T10:19:06.000Z</time>
      </trkpt>
      <trkpt lat="47.2593" lon="-2.31456">
        <ele>14.39999961853</ele>
        <time>2019-06-30T10:19:11.000Z</time>
      </trkpt>
      <trkpt lat="47.25932" lon="-2.31455">
        <ele>14.39999961853</ele>
        <time>2019-06-30T10:19:12.000Z</time>
      </trkpt>
      <trkpt lat="47.25942" lon="-2.3146">
        <ele>14.39999961853</ele>
        <time>2019-06-30T10:19:14.000Z</time>
      </trkpt>
      <trkpt lat="47.25961" lon="-2.31478">
        <ele>14.39999961853</ele>
        <time>2019-06-30T10:19:18.000Z</time>
      </trkpt>
      <trkpt lat="47.25972" lon="-2.31495">
        <ele>14.39999961853</ele>
        <time>2019-06-30T10:19:21.000Z</time>
      </trkpt>
      <trkpt lat="47.25975" lon="-2.31502">
        <ele>14.39999961853</ele>
        <time>2019-06-30T10:19:22.000Z</time>
      </trkpt>
      <trkpt lat="47.25978" lon="-2.31509">
        <ele>14.39999961853</ele>
        <time>2019-06-30T10:19:23.000Z</time>
      </trkpt>
      <trkpt lat="47.25982" lon="-2.31515">
        <ele>14.39999961853</ele>
        <time>2019-06-30T10:19:24.000Z</time>
      </trkpt>
      <trkpt lat="47.25992" lon="-2.31534">
        <ele>14.39999961853</ele>
        <time>2019-06-30T10:19:27.000Z</time>
      </trkpt>
      <trkpt lat="47.25995" lon="-2.31539">
        <ele>14.39999961853</ele>
        <time>2019-06-30T10:19:28.000Z</time>
      </trkpt>
      <trkpt lat="47.26006" lon="-2.31555">
        <ele>14.39999961853</ele>
        <time>2019-06-30T10:19:31.000Z</time>
      </trkpt>
      <trkpt lat="47.26013" lon="-2.31557">
        <ele>14.39999961853</ele>
        <time>2019-06-30T10:19:33.000Z</time>
      </trkpt>
      <trkpt lat="47.26024" lon="-2.31542">
        <ele>14.39999961853</ele>
        <time>2019-06-30T10:19:36.000Z</time>
      </trkpt>
      <trkpt lat="47.26029" lon="-2.3153">
        <ele>14.39999961853</ele>
        <time>2019-06-30T10:19:38.000Z</time>
      </trkpt>
      <trkpt lat="47.26033" lon="-2.31517">
        <ele>14.39999961853</ele>
        <time>2019-06-30T10:19:40.000Z</time>
      </trkpt>
      <trkpt lat="47.26038" lon="-2.31511">
        <ele>14.39999961853</ele>
        <time>2019-06-30T10:19:42.000Z</time>
      </trkpt>
      <trkpt lat="47.26042" lon="-2.31512">
        <ele>14.39999961853</ele>
        <time>2019-06-30T10:19:43.000Z</time>
      </trkpt>
      <trkpt lat="47.26055" lon="-2.31526">
        <ele>14</ele>
        <time>2019-06-30T10:19:46.000Z</time>
      </trkpt>
      <trkpt lat="47.26058" lon="-2.31532">
        <ele>13.60000038147</ele>
        <time>2019-06-30T10:19:47.000Z</time>
      </trkpt>
      <trkpt lat="47.26062" lon="-2.31539">
        <ele>13</ele>
        <time>2019-06-30T10:19:48.000Z</time>
      </trkpt>
      <trkpt lat="47.26064" lon="-2.31545">
        <ele>12.60000038147</ele>
        <time>2019-06-30T10:19:49.000Z</time>
      </trkpt>
      <trkpt lat="47.26067" lon="-2.31552">
        <ele>12.199999809265</ele>
        <time>2019-06-30T10:19:50.000Z</time>
      </trkpt>
      <trkpt lat="47.26069" lon="-2.31559">
        <ele>12.199999809265</ele>
        <time>2019-06-30T10:19:51.000Z</time>
      </trkpt>
      <trkpt lat="47.26074" lon="-2.31571">
        <ele>12.199999809265</ele>
        <time>2019-06-30T10:19:53.000Z</time>
      </trkpt>
      <trkpt lat="47.26081" lon="-2.31576">
        <ele>12.199999809265</ele>
        <time>2019-06-30T10:19:55.000Z</time>
      </trkpt>
      <trkpt lat="47.26089" lon="-2.31581">
        <ele>12.199999809265</ele>
        <time>2019-06-30T10:19:57.000Z</time>
      </trkpt>
      <trkpt lat="47.26092" lon="-2.31585">
        <ele>12.199999809265</ele>
        <time>2019-06-30T10:19:58.000Z</time>
      </trkpt>
      <trkpt lat="47.26096" lon="-2.31591">
        <ele>12.199999809265</ele>
        <time>2019-06-30T10:19:59.000Z</time>
      </trkpt>
      <trkpt lat="47.26108" lon="-2.31608">
        <ele>12.199999809265</ele>
        <time>2019-06-30T10:20:02.000Z</time>
      </trkpt>
      <trkpt lat="47.26113" lon="-2.31613">
        <ele>12.199999809265</ele>
        <time>2019-06-30T10:20:03.000Z</time>
      </trkpt>
      <trkpt lat="47.26119" lon="-2.31616">
        <ele>12.199999809265</ele>
        <time>2019-06-30T10:20:04.000Z</time>
      </trkpt>
      <trkpt lat="47.26131" lon="-2.31614">
        <ele>12.199999809265</ele>
        <time>2019-06-30T10:20:06.000Z</time>
      </trkpt>
      <trkpt lat="47.26158" lon="-2.31605">
        <ele>12.199999809265</ele>
        <time>2019-06-30T10:20:11.000Z</time>
      </trkpt>
      <trkpt lat="47.26202" lon="-2.31587">
        <ele>12.199999809265</ele>
        <time>2019-06-30T10:20:19.000Z</time>
      </trkpt>
      <trkpt lat="47.26207" lon="-2.31586">
        <ele>12.199999809265</ele>
        <time>2019-06-30T10:20:20.000Z</time>
      </trkpt>
      <trkpt lat="47.26223" lon="-2.3159">
        <ele>12.199999809265</ele>
        <time>2019-06-30T10:20:23.000Z</time>
      </trkpt>
      <trkpt lat="47.26233" lon="-2.31596">
        <ele>12.199999809265</ele>
        <time>2019-06-30T10:20:25.000Z</time>
      </trkpt>
      <trkpt lat="47.26238" lon="-2.316">
        <ele>12.199999809265</ele>
        <time>2019-06-30T10:20:26.000Z</time>
      </trkpt>
      <trkpt lat="47.26247" lon="-2.31608">
        <ele>12.199999809265</ele>
        <time>2019-06-30T10:20:28.000Z</time>
      </trkpt>
      <trkpt lat="47.26251" lon="-2.31614">
        <ele>12.199999809265</ele>
        <time>2019-06-30T10:20:29.000Z</time>
      </trkpt>
      <trkpt lat="47.2626" lon="-2.31632">
        <ele>12.199999809265</ele>
        <time>2019-06-30T10:20:32.000Z</time>
      </trkpt>
      <trkpt lat="47.26266" lon="-2.31643">
        <ele>12.199999809265</ele>
        <time>2019-06-30T10:20:34.000Z</time>
      </trkpt>
      <trkpt lat="47.26274" lon="-2.31663">
        <ele>12.199999809265</ele>
        <time>2019-06-30T10:20:37.000Z</time>
      </trkpt>
      <trkpt lat="47.26277" lon="-2.31669">
        <ele>12.199999809265</ele>
        <time>2019-06-30T10:20:38.000Z</time>
      </trkpt>
      <trkpt lat="47.26291" lon="-2.31696">
        <ele>12.199999809265</ele>
        <time>2019-06-30T10:20:42.000Z</time>
      </trkpt>
      <trkpt lat="47.26296" lon="-2.31701">
        <ele>12.199999809265</ele>
        <time>2019-06-30T10:20:43.000Z</time>
      </trkpt>
      <trkpt lat="47.2631" lon="-2.31706">
        <ele>12.199999809265</ele>
        <time>2019-06-30T10:20:46.000Z</time>
      </trkpt>
      <trkpt lat="47.26314" lon="-2.31707">
        <ele>12.199999809265</ele>
        <time>2019-06-30T10:20:47.000Z</time>
      </trkpt>
      <trkpt lat="47.26319" lon="-2.31706">
        <ele>12.199999809265</ele>
        <time>2019-06-30T10:20:48.000Z</time>
      </trkpt>
      <trkpt lat="47.26327" lon="-2.31702">
        <ele>12.199999809265</ele>
        <time>2019-06-30T10:20:50.000Z</time>
      </trkpt>
      <trkpt lat="47.26333" lon="-2.31687">
        <ele>12.199999809265</ele>
        <time>2019-06-30T10:20:53.000Z</time>
      </trkpt>
      <trkpt lat="47.26344" lon="-2.31681">
        <ele>12.199999809265</ele>
        <time>2019-06-30T10:20:56.000Z</time>
      </trkpt>
      <trkpt lat="47.26347" lon="-2.3168">
        <ele>12.199999809265</ele>
        <time>2019-06-30T10:20:57.000Z</time>
      </trkpt>
      <trkpt lat="47.26368" lon="-2.3167">
        <ele>12.199999809265</ele>
        <time>2019-06-30T10:21:02.000Z</time>
      </trkpt>
      <trkpt lat="47.26376" lon="-2.31667">
        <ele>12.60000038147</ele>
        <time>2019-06-30T10:21:04.000Z</time>
      </trkpt>
      <trkpt lat="47.2638" lon="-2.31665">
        <ele>13</ele>
        <time>2019-06-30T10:21:05.000Z</time>
      </trkpt>
      <trkpt lat="47.26384" lon="-2.31662">
        <ele>13.39999961853</ele>
        <time>2019-06-30T10:21:06.000Z</time>
      </trkpt>
      <trkpt lat="47.26388" lon="-2.3166">
        <ele>14</ele>
        <time>2019-06-30T10:21:07.000Z</time>
      </trkpt>
      <trkpt lat="47.26391" lon="-2.31659">
        <ele>14.39999961853</ele>
        <time>2019-06-30T10:21:08.000Z</time>
      </trkpt>
      <trkpt lat="47.2641" lon="-2.31645">
        <ele>14.39999961853</ele>
        <time>2019-06-30T10:21:14.000Z</time>
      </trkpt>
      <trkpt lat="47.26409" lon="-2.3163">
        <ele>14.39999961853</ele>
        <time>2019-06-30T10:21:17.000Z</time>
      </trkpt>
      <trkpt lat="47.2641" lon="-2.31619">
        <ele>14.39999961853</ele>
        <time>2019-06-30T10:21:19.000Z</time>
      </trkpt>
      <trkpt lat="47.2641" lon="-2.31602">
        <ele>14.39999961853</ele>
        <time>2019-06-30T10:21:22.000Z</time>
      </trkpt>
      <trkpt lat="47.2641" lon="-2.31582">
        <ele>14.39999961853</ele>
        <time>2019-06-30T10:21:26.000Z</time>
      </trkpt>
      <trkpt lat="47.26409" lon="-2.31563">
        <ele>14.39999961853</ele>
        <time>2019-06-30T10:21:31.000Z</time>
      </trkpt>
      <trkpt lat="47.2641" lon="-2.31552">
        <ele>14.39999961853</ele>
        <time>2019-06-30T10:21:34.000Z</time>
      </trkpt>
      <trkpt lat="47.26414" lon="-2.31551">
        <ele>14.39999961853</ele>
        <time>2019-06-30T10:21:36.000Z</time>
      </trkpt>
      <trkpt lat="47.26415" lon="-2.31551">
        <ele>14.39999961853</ele>
        <time>2019-06-30T10:21:39.000Z</time>
      </trkpt>
    </trkseg>
  </trk>
</gpx>